<?xml version="1.0" encoding="UTF-8" standalone="no" ?>
<gpx xmlns="http://www.topografix.com/GPX/1/1" xmlns:xsi="http://www.w3.org/2001/XMLSchema-instance" xsi:schemaLocation="http://www.topografix.com/GPX/1/1 http://www.topografix.com/GPX/1/1/gpx.xsd" version="1.1" creator="VisuGPX - https://www.visugpx.com">
  <metadata>
    <name>Marche nordique</name>
    <desc><![CDATA[Avec le groupe du matin]]></desc>
  </metadata>
  <trk>
    <name><![CDATA[02/02/2013 7:58]]></name>
    <desc><![CDATA[]]></desc>
    <trkseg>
      <trkpt lat="47.29791" lon="4.9364">
        <ele>556.3</ele>
        <time>2013-02-02T07:00:39.000Z</time>
      </trkpt>
      <trkpt lat="47.29793" lon="4.93638">
        <ele>556.4</ele>
        <time>2013-02-02T07:01:31.000Z</time>
      </trkpt>
      <trkpt lat="47.29793" lon="4.9363">
        <ele>550.8</ele>
        <time>2013-02-02T07:01:32.000Z</time>
      </trkpt>
      <trkpt lat="47.29796" lon="4.93627">
        <ele>546.4</ele>
        <time>2013-02-02T07:02:15.000Z</time>
      </trkpt>
      <trkpt lat="47.29797" lon="4.93625">
        <ele>545.8</ele>
        <time>2013-02-02T07:02:16.000Z</time>
      </trkpt>
      <trkpt lat="47.29798" lon="4.93622">
        <ele>544.9</ele>
        <time>2013-02-02T07:02:50.000Z</time>
      </trkpt>
      <trkpt lat="47.29801" lon="4.93621">
        <ele>547.8</ele>
        <time>2013-02-02T07:03:00.000Z</time>
      </trkpt>
      <trkpt lat="47.298" lon="4.93616">
        <ele>545.6</ele>
        <time>2013-02-02T07:08:04.000Z</time>
      </trkpt>
      <trkpt lat="47.29801" lon="4.93614">
        <ele>545.5</ele>
        <time>2013-02-02T07:08:05.000Z</time>
      </trkpt>
      <trkpt lat="47.29803" lon="4.9361">
        <ele>545.3</ele>
        <time>2013-02-02T07:08:07.000Z</time>
      </trkpt>
      <trkpt lat="47.29804" lon="4.93609">
        <ele>545.3</ele>
        <time>2013-02-02T07:08:08.000Z</time>
      </trkpt>
      <trkpt lat="47.29806" lon="4.93605">
        <ele>545.5</ele>
        <time>2013-02-02T07:08:10.000Z</time>
      </trkpt>
      <trkpt lat="47.29807" lon="4.93604">
        <ele>545.7</ele>
        <time>2013-02-02T07:08:11.000Z</time>
      </trkpt>
      <trkpt lat="47.2981" lon="4.93599">
        <ele>546</ele>
        <time>2013-02-02T07:08:14.000Z</time>
      </trkpt>
      <trkpt lat="47.29811" lon="4.93599">
        <ele>546.4</ele>
        <time>2013-02-02T07:08:15.000Z</time>
      </trkpt>
      <trkpt lat="47.29815" lon="4.93595">
        <ele>546.9</ele>
        <time>2013-02-02T07:08:18.000Z</time>
      </trkpt>
      <trkpt lat="47.29816" lon="4.93593">
        <ele>547.3</ele>
        <time>2013-02-02T07:08:19.000Z</time>
      </trkpt>
      <trkpt lat="47.29818" lon="4.9359">
        <ele>548</ele>
        <time>2013-02-02T07:08:21.000Z</time>
      </trkpt>
      <trkpt lat="47.2982" lon="4.93588">
        <ele>547.8</ele>
        <time>2013-02-02T07:08:22.000Z</time>
      </trkpt>
      <trkpt lat="47.29822" lon="4.93585">
        <ele>547.8</ele>
        <time>2013-02-02T07:08:24.000Z</time>
      </trkpt>
      <trkpt lat="47.29823" lon="4.93584">
        <ele>547.7</ele>
        <time>2013-02-02T07:08:25.000Z</time>
      </trkpt>
      <trkpt lat="47.29826" lon="4.93581">
        <ele>548</ele>
        <time>2013-02-02T07:08:27.000Z</time>
      </trkpt>
      <trkpt lat="47.29827" lon="4.9358">
        <ele>548.1</ele>
        <time>2013-02-02T07:08:28.000Z</time>
      </trkpt>
      <trkpt lat="47.29829" lon="4.93577">
        <ele>548.2</ele>
        <time>2013-02-02T07:08:30.000Z</time>
      </trkpt>
      <trkpt lat="47.29831" lon="4.93576">
        <ele>548.1</ele>
        <time>2013-02-02T07:08:31.000Z</time>
      </trkpt>
      <trkpt lat="47.29833" lon="4.93572">
        <ele>548.4</ele>
        <time>2013-02-02T07:08:33.000Z</time>
      </trkpt>
      <trkpt lat="47.29834" lon="4.9357">
        <ele>548.4</ele>
        <time>2013-02-02T07:08:34.000Z</time>
      </trkpt>
      <trkpt lat="47.29837" lon="4.93566">
        <ele>548.5</ele>
        <time>2013-02-02T07:08:37.000Z</time>
      </trkpt>
      <trkpt lat="47.29838" lon="4.93566">
        <ele>548.5</ele>
        <time>2013-02-02T07:08:38.000Z</time>
      </trkpt>
      <trkpt lat="47.29841" lon="4.93563">
        <ele>548.8</ele>
        <time>2013-02-02T07:08:40.000Z</time>
      </trkpt>
      <trkpt lat="47.29843" lon="4.93561">
        <ele>549</ele>
        <time>2013-02-02T07:08:41.000Z</time>
      </trkpt>
      <trkpt lat="47.29845" lon="4.93558">
        <ele>549.1</ele>
        <time>2013-02-02T07:08:43.000Z</time>
      </trkpt>
      <trkpt lat="47.29847" lon="4.93556">
        <ele>549.1</ele>
        <time>2013-02-02T07:08:44.000Z</time>
      </trkpt>
      <trkpt lat="47.29849" lon="4.93553">
        <ele>549.3</ele>
        <time>2013-02-02T07:08:46.000Z</time>
      </trkpt>
      <trkpt lat="47.2985" lon="4.93552">
        <ele>549.3</ele>
        <time>2013-02-02T07:08:47.000Z</time>
      </trkpt>
      <trkpt lat="47.29853" lon="4.93549">
        <ele>549.9</ele>
        <time>2013-02-02T07:08:50.000Z</time>
      </trkpt>
      <trkpt lat="47.29875" lon="4.93529">
        <ele>558.3</ele>
        <time>2013-02-02T07:09:04.000Z</time>
      </trkpt>
      <trkpt lat="47.29877" lon="4.93527">
        <ele>558.5</ele>
        <time>2013-02-02T07:09:06.000Z</time>
      </trkpt>
      <trkpt lat="47.29879" lon="4.93526">
        <ele>558</ele>
        <time>2013-02-02T07:09:07.000Z</time>
      </trkpt>
      <trkpt lat="47.29881" lon="4.93521">
        <ele>555.4</ele>
        <time>2013-02-02T07:09:09.000Z</time>
      </trkpt>
      <trkpt lat="47.29883" lon="4.9352">
        <ele>555.7</ele>
        <time>2013-02-02T07:09:10.000Z</time>
      </trkpt>
      <trkpt lat="47.29885" lon="4.93517">
        <ele>555.4</ele>
        <time>2013-02-02T07:09:12.000Z</time>
      </trkpt>
      <trkpt lat="47.29887" lon="4.93516">
        <ele>555.6</ele>
        <time>2013-02-02T07:09:13.000Z</time>
      </trkpt>
      <trkpt lat="47.29889" lon="4.93513">
        <ele>554.6</ele>
        <time>2013-02-02T07:09:15.000Z</time>
      </trkpt>
      <trkpt lat="47.2989" lon="4.93512">
        <ele>555.1</ele>
        <time>2013-02-02T07:09:16.000Z</time>
      </trkpt>
      <trkpt lat="47.29893" lon="4.93509">
        <ele>555.4</ele>
        <time>2013-02-02T07:09:18.000Z</time>
      </trkpt>
      <trkpt lat="47.29894" lon="4.93509">
        <ele>555.6</ele>
        <time>2013-02-02T07:09:19.000Z</time>
      </trkpt>
      <trkpt lat="47.29898" lon="4.93505">
        <ele>554.4</ele>
        <time>2013-02-02T07:09:21.000Z</time>
      </trkpt>
      <trkpt lat="47.29899" lon="4.93504">
        <ele>554</ele>
        <time>2013-02-02T07:09:22.000Z</time>
      </trkpt>
      <trkpt lat="47.29902" lon="4.93501">
        <ele>553.1</ele>
        <time>2013-02-02T07:09:24.000Z</time>
      </trkpt>
      <trkpt lat="47.29903" lon="4.93499">
        <ele>552.9</ele>
        <time>2013-02-02T07:09:25.000Z</time>
      </trkpt>
      <trkpt lat="47.29906" lon="4.93496">
        <ele>552.1</ele>
        <time>2013-02-02T07:09:27.000Z</time>
      </trkpt>
      <trkpt lat="47.29907" lon="4.93494">
        <ele>551.3</ele>
        <time>2013-02-02T07:09:28.000Z</time>
      </trkpt>
      <trkpt lat="47.2991" lon="4.93491">
        <ele>550.8</ele>
        <time>2013-02-02T07:09:30.000Z</time>
      </trkpt>
      <trkpt lat="47.29911" lon="4.93489">
        <ele>550.5</ele>
        <time>2013-02-02T07:09:31.000Z</time>
      </trkpt>
      <trkpt lat="47.29914" lon="4.93487">
        <ele>550.6</ele>
        <time>2013-02-02T07:09:33.000Z</time>
      </trkpt>
      <trkpt lat="47.29915" lon="4.93485">
        <ele>550.8</ele>
        <time>2013-02-02T07:09:34.000Z</time>
      </trkpt>
      <trkpt lat="47.29918" lon="4.93482">
        <ele>550.5</ele>
        <time>2013-02-02T07:09:36.000Z</time>
      </trkpt>
      <trkpt lat="47.29919" lon="4.93481">
        <ele>550.4</ele>
        <time>2013-02-02T07:09:37.000Z</time>
      </trkpt>
      <trkpt lat="47.29922" lon="4.93478">
        <ele>550.3</ele>
        <time>2013-02-02T07:09:39.000Z</time>
      </trkpt>
      <trkpt lat="47.29923" lon="4.93476">
        <ele>550.3</ele>
        <time>2013-02-02T07:09:40.000Z</time>
      </trkpt>
      <trkpt lat="47.29926" lon="4.93472">
        <ele>550.1</ele>
        <time>2013-02-02T07:09:42.000Z</time>
      </trkpt>
      <trkpt lat="47.29927" lon="4.9347">
        <ele>550.1</ele>
        <time>2013-02-02T07:09:43.000Z</time>
      </trkpt>
      <trkpt lat="47.29929" lon="4.93467">
        <ele>549.7</ele>
        <time>2013-02-02T07:09:45.000Z</time>
      </trkpt>
      <trkpt lat="47.2993" lon="4.93464">
        <ele>549.6</ele>
        <time>2013-02-02T07:09:46.000Z</time>
      </trkpt>
      <trkpt lat="47.29932" lon="4.93461">
        <ele>549.5</ele>
        <time>2013-02-02T07:09:48.000Z</time>
      </trkpt>
      <trkpt lat="47.29934" lon="4.93459">
        <ele>549.5</ele>
        <time>2013-02-02T07:09:49.000Z</time>
      </trkpt>
      <trkpt lat="47.29935" lon="4.93458">
        <ele>549.5</ele>
        <time>2013-02-02T07:09:50.000Z</time>
      </trkpt>
      <trkpt lat="47.29947" lon="4.93437">
        <ele>550.9</ele>
        <time>2013-02-02T07:10:00.000Z</time>
      </trkpt>
      <trkpt lat="47.29948" lon="4.93432">
        <ele>550.7</ele>
        <time>2013-02-02T07:10:02.000Z</time>
      </trkpt>
      <trkpt lat="47.29949" lon="4.93431">
        <ele>550.3</ele>
        <time>2013-02-02T07:10:03.000Z</time>
      </trkpt>
      <trkpt lat="47.2995" lon="4.93425">
        <ele>549.6</ele>
        <time>2013-02-02T07:10:06.000Z</time>
      </trkpt>
      <trkpt lat="47.29951" lon="4.93423">
        <ele>549.7</ele>
        <time>2013-02-02T07:10:07.000Z</time>
      </trkpt>
      <trkpt lat="47.29953" lon="4.93418">
        <ele>550.9</ele>
        <time>2013-02-02T07:10:09.000Z</time>
      </trkpt>
      <trkpt lat="47.29954" lon="4.93417">
        <ele>553.7</ele>
        <time>2013-02-02T07:10:10.000Z</time>
      </trkpt>
      <trkpt lat="47.29955" lon="4.93413">
        <ele>553.8</ele>
        <time>2013-02-02T07:10:12.000Z</time>
      </trkpt>
      <trkpt lat="47.29956" lon="4.93411">
        <ele>553.7</ele>
        <time>2013-02-02T07:10:13.000Z</time>
      </trkpt>
      <trkpt lat="47.29957" lon="4.93406">
        <ele>553.6</ele>
        <time>2013-02-02T07:10:15.000Z</time>
      </trkpt>
      <trkpt lat="47.29957" lon="4.93403">
        <ele>553.3</ele>
        <time>2013-02-02T07:10:16.000Z</time>
      </trkpt>
      <trkpt lat="47.29959" lon="4.93398">
        <ele>555</ele>
        <time>2013-02-02T07:10:19.000Z</time>
      </trkpt>
      <trkpt lat="47.2996" lon="4.93395">
        <ele>555.2</ele>
        <time>2013-02-02T07:10:20.000Z</time>
      </trkpt>
      <trkpt lat="47.29961" lon="4.93389">
        <ele>553.4</ele>
        <time>2013-02-02T07:10:22.000Z</time>
      </trkpt>
      <trkpt lat="47.29961" lon="4.93387">
        <ele>553</ele>
        <time>2013-02-02T07:10:23.000Z</time>
      </trkpt>
      <trkpt lat="47.29961" lon="4.93381">
        <ele>552.8</ele>
        <time>2013-02-02T07:10:25.000Z</time>
      </trkpt>
      <trkpt lat="47.29962" lon="4.93379">
        <ele>552.6</ele>
        <time>2013-02-02T07:10:26.000Z</time>
      </trkpt>
      <trkpt lat="47.29963" lon="4.93374">
        <ele>551.8</ele>
        <time>2013-02-02T07:10:28.000Z</time>
      </trkpt>
      <trkpt lat="47.29963" lon="4.93371">
        <ele>551</ele>
        <time>2013-02-02T07:10:29.000Z</time>
      </trkpt>
      <trkpt lat="47.29965" lon="4.93365">
        <ele>551.4</ele>
        <time>2013-02-02T07:10:32.000Z</time>
      </trkpt>
      <trkpt lat="47.29965" lon="4.93363">
        <ele>551.6</ele>
        <time>2013-02-02T07:10:33.000Z</time>
      </trkpt>
      <trkpt lat="47.29967" lon="4.93358">
        <ele>551.7</ele>
        <time>2013-02-02T07:10:35.000Z</time>
      </trkpt>
      <trkpt lat="47.29967" lon="4.93355">
        <ele>551.6</ele>
        <time>2013-02-02T07:10:36.000Z</time>
      </trkpt>
      <trkpt lat="47.29969" lon="4.93351">
        <ele>551.8</ele>
        <time>2013-02-02T07:10:38.000Z</time>
      </trkpt>
      <trkpt lat="47.29969" lon="4.93348">
        <ele>551.6</ele>
        <time>2013-02-02T07:10:39.000Z</time>
      </trkpt>
      <trkpt lat="47.2997" lon="4.93344">
        <ele>551.7</ele>
        <time>2013-02-02T07:10:41.000Z</time>
      </trkpt>
      <trkpt lat="47.2997" lon="4.93341">
        <ele>551.4</ele>
        <time>2013-02-02T07:10:42.000Z</time>
      </trkpt>
      <trkpt lat="47.29971" lon="4.93334">
        <ele>551.4</ele>
        <time>2013-02-02T07:10:44.000Z</time>
      </trkpt>
      <trkpt lat="47.29971" lon="4.93331">
        <ele>551.5</ele>
        <time>2013-02-02T07:10:45.000Z</time>
      </trkpt>
      <trkpt lat="47.29972" lon="4.93326">
        <ele>551.5</ele>
        <time>2013-02-02T07:10:47.000Z</time>
      </trkpt>
      <trkpt lat="47.29973" lon="4.93323">
        <ele>551.5</ele>
        <time>2013-02-02T07:10:48.000Z</time>
      </trkpt>
      <trkpt lat="47.29973" lon="4.93318">
        <ele>551.3</ele>
        <time>2013-02-02T07:10:50.000Z</time>
      </trkpt>
      <trkpt lat="47.29975" lon="4.93298">
        <ele>559.1</ele>
        <time>2013-02-02T07:11:00.000Z</time>
      </trkpt>
      <trkpt lat="47.29976" lon="4.93293">
        <ele>560.1</ele>
        <time>2013-02-02T07:11:03.000Z</time>
      </trkpt>
      <trkpt lat="47.29977" lon="4.93291">
        <ele>559.4</ele>
        <time>2013-02-02T07:11:04.000Z</time>
      </trkpt>
      <trkpt lat="47.29978" lon="4.93286">
        <ele>558.5</ele>
        <time>2013-02-02T07:11:06.000Z</time>
      </trkpt>
      <trkpt lat="47.29978" lon="4.93283">
        <ele>558.7</ele>
        <time>2013-02-02T07:11:07.000Z</time>
      </trkpt>
      <trkpt lat="47.29978" lon="4.93277">
        <ele>558</ele>
        <time>2013-02-02T07:11:09.000Z</time>
      </trkpt>
      <trkpt lat="47.29979" lon="4.93275">
        <ele>558.3</ele>
        <time>2013-02-02T07:11:10.000Z</time>
      </trkpt>
      <trkpt lat="47.29979" lon="4.93269">
        <ele>557.7</ele>
        <time>2013-02-02T07:11:12.000Z</time>
      </trkpt>
      <trkpt lat="47.2998" lon="4.93266">
        <ele>558.3</ele>
        <time>2013-02-02T07:11:13.000Z</time>
      </trkpt>
      <trkpt lat="47.2998" lon="4.9326">
        <ele>558.6</ele>
        <time>2013-02-02T07:11:16.000Z</time>
      </trkpt>
      <trkpt lat="47.29981" lon="4.93257">
        <ele>558.9</ele>
        <time>2013-02-02T07:11:17.000Z</time>
      </trkpt>
      <trkpt lat="47.29982" lon="4.93252">
        <ele>558.7</ele>
        <time>2013-02-02T07:11:20.000Z</time>
      </trkpt>
      <trkpt lat="47.29982" lon="4.9325">
        <ele>559</ele>
        <time>2013-02-02T07:11:21.000Z</time>
      </trkpt>
      <trkpt lat="47.29982" lon="4.93245">
        <ele>558.1</ele>
        <time>2013-02-02T07:11:23.000Z</time>
      </trkpt>
      <trkpt lat="47.29982" lon="4.93242">
        <ele>558</ele>
        <time>2013-02-02T07:11:24.000Z</time>
      </trkpt>
      <trkpt lat="47.29982" lon="4.93236">
        <ele>557.6</ele>
        <time>2013-02-02T07:11:26.000Z</time>
      </trkpt>
      <trkpt lat="47.29982" lon="4.93233">
        <ele>557.5</ele>
        <time>2013-02-02T07:11:27.000Z</time>
      </trkpt>
      <trkpt lat="47.29982" lon="4.93228">
        <ele>557.1</ele>
        <time>2013-02-02T07:11:29.000Z</time>
      </trkpt>
      <trkpt lat="47.29982" lon="4.93226">
        <ele>557</ele>
        <time>2013-02-02T07:11:30.000Z</time>
      </trkpt>
      <trkpt lat="47.29983" lon="4.9322">
        <ele>556.9</ele>
        <time>2013-02-02T07:11:33.000Z</time>
      </trkpt>
      <trkpt lat="47.29983" lon="4.93217">
        <ele>556.5</ele>
        <time>2013-02-02T07:11:34.000Z</time>
      </trkpt>
      <trkpt lat="47.29983" lon="4.93212">
        <ele>556.4</ele>
        <time>2013-02-02T07:11:36.000Z</time>
      </trkpt>
      <trkpt lat="47.29984" lon="4.93209">
        <ele>556.6</ele>
        <time>2013-02-02T07:11:37.000Z</time>
      </trkpt>
      <trkpt lat="47.29984" lon="4.93205">
        <ele>557</ele>
        <time>2013-02-02T07:11:39.000Z</time>
      </trkpt>
      <trkpt lat="47.29984" lon="4.93202">
        <ele>557.1</ele>
        <time>2013-02-02T07:11:40.000Z</time>
      </trkpt>
      <trkpt lat="47.29985" lon="4.93197">
        <ele>557.2</ele>
        <time>2013-02-02T07:11:42.000Z</time>
      </trkpt>
      <trkpt lat="47.29985" lon="4.93195">
        <ele>557.2</ele>
        <time>2013-02-02T07:11:43.000Z</time>
      </trkpt>
      <trkpt lat="47.29986" lon="4.93189">
        <ele>556.8</ele>
        <time>2013-02-02T07:11:45.000Z</time>
      </trkpt>
      <trkpt lat="47.29986" lon="4.93187">
        <ele>556.7</ele>
        <time>2013-02-02T07:11:46.000Z</time>
      </trkpt>
      <trkpt lat="47.29986" lon="4.93182">
        <ele>556.7</ele>
        <time>2013-02-02T07:11:48.000Z</time>
      </trkpt>
      <trkpt lat="47.29986" lon="4.93179">
        <ele>556.6</ele>
        <time>2013-02-02T07:11:49.000Z</time>
      </trkpt>
      <trkpt lat="47.29987" lon="4.93177">
        <ele>556.5</ele>
        <time>2013-02-02T07:11:50.000Z</time>
      </trkpt>
      <trkpt lat="47.29994" lon="4.93158">
        <ele>549.8</ele>
        <time>2013-02-02T07:11:59.000Z</time>
      </trkpt>
      <trkpt lat="47.29996" lon="4.93154">
        <ele>550</ele>
        <time>2013-02-02T07:12:01.000Z</time>
      </trkpt>
      <trkpt lat="47.29996" lon="4.93151">
        <ele>549.7</ele>
        <time>2013-02-02T07:12:02.000Z</time>
      </trkpt>
      <trkpt lat="47.29999" lon="4.93146">
        <ele>549.9</ele>
        <time>2013-02-02T07:12:05.000Z</time>
      </trkpt>
      <trkpt lat="47.3" lon="4.93144">
        <ele>550.4</ele>
        <time>2013-02-02T07:12:06.000Z</time>
      </trkpt>
      <trkpt lat="47.30001" lon="4.93138">
        <ele>552.4</ele>
        <time>2013-02-02T07:12:09.000Z</time>
      </trkpt>
      <trkpt lat="47.30002" lon="4.93136">
        <ele>552.6</ele>
        <time>2013-02-02T07:12:10.000Z</time>
      </trkpt>
      <trkpt lat="47.30004" lon="4.93131">
        <ele>553</ele>
        <time>2013-02-02T07:12:12.000Z</time>
      </trkpt>
      <trkpt lat="47.30005" lon="4.93128">
        <ele>552.8</ele>
        <time>2013-02-02T07:12:13.000Z</time>
      </trkpt>
      <trkpt lat="47.30007" lon="4.93123">
        <ele>554</ele>
        <time>2013-02-02T07:12:15.000Z</time>
      </trkpt>
      <trkpt lat="47.30008" lon="4.9312">
        <ele>552.8</ele>
        <time>2013-02-02T07:12:16.000Z</time>
      </trkpt>
      <trkpt lat="47.3001" lon="4.93115">
        <ele>552.4</ele>
        <time>2013-02-02T07:12:18.000Z</time>
      </trkpt>
      <trkpt lat="47.30011" lon="4.93113">
        <ele>551.3</ele>
        <time>2013-02-02T07:12:19.000Z</time>
      </trkpt>
      <trkpt lat="47.30013" lon="4.93108">
        <ele>550.7</ele>
        <time>2013-02-02T07:12:22.000Z</time>
      </trkpt>
      <trkpt lat="47.30014" lon="4.93106">
        <ele>550.9</ele>
        <time>2013-02-02T07:12:23.000Z</time>
      </trkpt>
      <trkpt lat="47.30016" lon="4.93102">
        <ele>551</ele>
        <time>2013-02-02T07:12:25.000Z</time>
      </trkpt>
      <trkpt lat="47.30017" lon="4.931">
        <ele>550.9</ele>
        <time>2013-02-02T07:12:26.000Z</time>
      </trkpt>
      <trkpt lat="47.30018" lon="4.93096">
        <ele>550.3</ele>
        <time>2013-02-02T07:12:28.000Z</time>
      </trkpt>
      <trkpt lat="47.30019" lon="4.93093">
        <ele>550.1</ele>
        <time>2013-02-02T07:12:29.000Z</time>
      </trkpt>
      <trkpt lat="47.3002" lon="4.93089">
        <ele>550</ele>
        <time>2013-02-02T07:12:31.000Z</time>
      </trkpt>
      <trkpt lat="47.30022" lon="4.93087">
        <ele>550.3</ele>
        <time>2013-02-02T07:12:32.000Z</time>
      </trkpt>
      <trkpt lat="47.30024" lon="4.93082">
        <ele>550.7</ele>
        <time>2013-02-02T07:12:34.000Z</time>
      </trkpt>
      <trkpt lat="47.30025" lon="4.9308">
        <ele>550.7</ele>
        <time>2013-02-02T07:12:35.000Z</time>
      </trkpt>
      <trkpt lat="47.30027" lon="4.93077">
        <ele>550.6</ele>
        <time>2013-02-02T07:12:38.000Z</time>
      </trkpt>
      <trkpt lat="47.30027" lon="4.93075">
        <ele>550.7</ele>
        <time>2013-02-02T07:12:39.000Z</time>
      </trkpt>
      <trkpt lat="47.30029" lon="4.9307">
        <ele>550.6</ele>
        <time>2013-02-02T07:12:42.000Z</time>
      </trkpt>
      <trkpt lat="47.30029" lon="4.93068">
        <ele>550.6</ele>
        <time>2013-02-02T07:12:43.000Z</time>
      </trkpt>
      <trkpt lat="47.30031" lon="4.93062">
        <ele>551.2</ele>
        <time>2013-02-02T07:12:46.000Z</time>
      </trkpt>
      <trkpt lat="47.30032" lon="4.93061">
        <ele>551.4</ele>
        <time>2013-02-02T07:12:47.000Z</time>
      </trkpt>
      <trkpt lat="47.30034" lon="4.93056">
        <ele>551.5</ele>
        <time>2013-02-02T07:12:50.000Z</time>
      </trkpt>
      <trkpt lat="47.30038" lon="4.93046">
        <ele>561.6</ele>
        <time>2013-02-02T07:12:57.000Z</time>
      </trkpt>
      <trkpt lat="47.3004" lon="4.93041">
        <ele>559.4</ele>
        <time>2013-02-02T07:13:00.000Z</time>
      </trkpt>
      <trkpt lat="47.30041" lon="4.93039">
        <ele>559.2</ele>
        <time>2013-02-02T07:13:01.000Z</time>
      </trkpt>
      <trkpt lat="47.30043" lon="4.93034">
        <ele>557.9</ele>
        <time>2013-02-02T07:13:04.000Z</time>
      </trkpt>
      <trkpt lat="47.30044" lon="4.93033">
        <ele>557.2</ele>
        <time>2013-02-02T07:13:05.000Z</time>
      </trkpt>
      <trkpt lat="47.30045" lon="4.93027">
        <ele>556.2</ele>
        <time>2013-02-02T07:13:08.000Z</time>
      </trkpt>
      <trkpt lat="47.30045" lon="4.93025">
        <ele>557.1</ele>
        <time>2013-02-02T07:13:09.000Z</time>
      </trkpt>
      <trkpt lat="47.30047" lon="4.9302">
        <ele>557.3</ele>
        <time>2013-02-02T07:13:12.000Z</time>
      </trkpt>
      <trkpt lat="47.30048" lon="4.93019">
        <ele>557.3</ele>
        <time>2013-02-02T07:13:13.000Z</time>
      </trkpt>
      <trkpt lat="47.30049" lon="4.93013">
        <ele>555.5</ele>
        <time>2013-02-02T07:13:17.000Z</time>
      </trkpt>
      <trkpt lat="47.30049" lon="4.93011">
        <ele>555.4</ele>
        <time>2013-02-02T07:13:18.000Z</time>
      </trkpt>
      <trkpt lat="47.3005" lon="4.93007">
        <ele>554.9</ele>
        <time>2013-02-02T07:13:20.000Z</time>
      </trkpt>
      <trkpt lat="47.30051" lon="4.93004">
        <ele>554.8</ele>
        <time>2013-02-02T07:13:21.000Z</time>
      </trkpt>
      <trkpt lat="47.30052" lon="4.93">
        <ele>554.8</ele>
        <time>2013-02-02T07:13:23.000Z</time>
      </trkpt>
      <trkpt lat="47.30053" lon="4.92998">
        <ele>554.2</ele>
        <time>2013-02-02T07:13:24.000Z</time>
      </trkpt>
      <trkpt lat="47.30054" lon="4.92994">
        <ele>553.9</ele>
        <time>2013-02-02T07:13:26.000Z</time>
      </trkpt>
      <trkpt lat="47.30055" lon="4.92991">
        <ele>553.3</ele>
        <time>2013-02-02T07:13:27.000Z</time>
      </trkpt>
      <trkpt lat="47.30056" lon="4.92987">
        <ele>552.5</ele>
        <time>2013-02-02T07:13:29.000Z</time>
      </trkpt>
      <trkpt lat="47.30057" lon="4.92985">
        <ele>552.3</ele>
        <time>2013-02-02T07:13:30.000Z</time>
      </trkpt>
      <trkpt lat="47.30058" lon="4.9298">
        <ele>552.2</ele>
        <time>2013-02-02T07:13:32.000Z</time>
      </trkpt>
      <trkpt lat="47.30058" lon="4.92978">
        <ele>552.1</ele>
        <time>2013-02-02T07:13:33.000Z</time>
      </trkpt>
      <trkpt lat="47.30058" lon="4.92973">
        <ele>552.5</ele>
        <time>2013-02-02T07:13:35.000Z</time>
      </trkpt>
      <trkpt lat="47.30058" lon="4.9297">
        <ele>552</ele>
        <time>2013-02-02T07:13:36.000Z</time>
      </trkpt>
      <trkpt lat="47.30059" lon="4.92965">
        <ele>552</ele>
        <time>2013-02-02T07:13:38.000Z</time>
      </trkpt>
      <trkpt lat="47.30059" lon="4.92963">
        <ele>551.9</ele>
        <time>2013-02-02T07:13:39.000Z</time>
      </trkpt>
      <trkpt lat="47.3006" lon="4.92959">
        <ele>551.5</ele>
        <time>2013-02-02T07:13:41.000Z</time>
      </trkpt>
      <trkpt lat="47.30061" lon="4.92956">
        <ele>551.6</ele>
        <time>2013-02-02T07:13:42.000Z</time>
      </trkpt>
      <trkpt lat="47.30062" lon="4.92951">
        <ele>551.4</ele>
        <time>2013-02-02T07:13:44.000Z</time>
      </trkpt>
      <trkpt lat="47.30062" lon="4.92949">
        <ele>551.4</ele>
        <time>2013-02-02T07:13:45.000Z</time>
      </trkpt>
      <trkpt lat="47.30063" lon="4.92943">
        <ele>551.7</ele>
        <time>2013-02-02T07:13:48.000Z</time>
      </trkpt>
      <trkpt lat="47.30063" lon="4.92941">
        <ele>551.7</ele>
        <time>2013-02-02T07:13:49.000Z</time>
      </trkpt>
      <trkpt lat="47.30064" lon="4.9294">
        <ele>551.8</ele>
        <time>2013-02-02T07:13:50.000Z</time>
      </trkpt>
      <trkpt lat="47.30062" lon="4.92922">
        <ele>556.2</ele>
        <time>2013-02-02T07:13:57.000Z</time>
      </trkpt>
      <trkpt lat="47.30064" lon="4.92918">
        <ele>557.7</ele>
        <time>2013-02-02T07:14:02.000Z</time>
      </trkpt>
      <trkpt lat="47.30064" lon="4.92916">
        <ele>557</ele>
        <time>2013-02-02T07:14:03.000Z</time>
      </trkpt>
      <trkpt lat="47.30063" lon="4.9291">
        <ele>556.2</ele>
        <time>2013-02-02T07:14:06.000Z</time>
      </trkpt>
      <trkpt lat="47.30063" lon="4.92908">
        <ele>556.1</ele>
        <time>2013-02-02T07:14:07.000Z</time>
      </trkpt>
      <trkpt lat="47.30062" lon="4.92902">
        <ele>556.4</ele>
        <time>2013-02-02T07:14:10.000Z</time>
      </trkpt>
      <trkpt lat="47.30062" lon="4.929">
        <ele>556.9</ele>
        <time>2013-02-02T07:14:11.000Z</time>
      </trkpt>
      <trkpt lat="47.30062" lon="4.92893">
        <ele>557.6</ele>
        <time>2013-02-02T07:14:14.000Z</time>
      </trkpt>
      <trkpt lat="47.30062" lon="4.92892">
        <ele>557.9</ele>
        <time>2013-02-02T07:14:15.000Z</time>
      </trkpt>
      <trkpt lat="47.30061" lon="4.92887">
        <ele>557.7</ele>
        <time>2013-02-02T07:14:17.000Z</time>
      </trkpt>
      <trkpt lat="47.30061" lon="4.92885">
        <ele>557.6</ele>
        <time>2013-02-02T07:14:18.000Z</time>
      </trkpt>
      <trkpt lat="47.3006" lon="4.9288">
        <ele>557.4</ele>
        <time>2013-02-02T07:14:20.000Z</time>
      </trkpt>
      <trkpt lat="47.3006" lon="4.92878">
        <ele>557.5</ele>
        <time>2013-02-02T07:14:21.000Z</time>
      </trkpt>
      <trkpt lat="47.3006" lon="4.92873">
        <ele>556.3</ele>
        <time>2013-02-02T07:14:23.000Z</time>
      </trkpt>
      <trkpt lat="47.3006" lon="4.92871">
        <ele>555</ele>
        <time>2013-02-02T07:14:24.000Z</time>
      </trkpt>
      <trkpt lat="47.30059" lon="4.92865">
        <ele>553.5</ele>
        <time>2013-02-02T07:14:27.000Z</time>
      </trkpt>
      <trkpt lat="47.30059" lon="4.92863">
        <ele>553.4</ele>
        <time>2013-02-02T07:14:28.000Z</time>
      </trkpt>
      <trkpt lat="47.30058" lon="4.92858">
        <ele>553.1</ele>
        <time>2013-02-02T07:14:30.000Z</time>
      </trkpt>
      <trkpt lat="47.30057" lon="4.92855">
        <ele>552.9</ele>
        <time>2013-02-02T07:14:31.000Z</time>
      </trkpt>
      <trkpt lat="47.30056" lon="4.9285">
        <ele>552.7</ele>
        <time>2013-02-02T07:14:33.000Z</time>
      </trkpt>
      <trkpt lat="47.30056" lon="4.92848">
        <ele>552.8</ele>
        <time>2013-02-02T07:14:34.000Z</time>
      </trkpt>
      <trkpt lat="47.30055" lon="4.92841">
        <ele>553</ele>
        <time>2013-02-02T07:14:37.000Z</time>
      </trkpt>
      <trkpt lat="47.30054" lon="4.92839">
        <ele>553.2</ele>
        <time>2013-02-02T07:14:38.000Z</time>
      </trkpt>
      <trkpt lat="47.30053" lon="4.92833">
        <ele>553.1</ele>
        <time>2013-02-02T07:14:41.000Z</time>
      </trkpt>
      <trkpt lat="47.30053" lon="4.92831">
        <ele>553.1</ele>
        <time>2013-02-02T07:14:42.000Z</time>
      </trkpt>
      <trkpt lat="47.30052" lon="4.92825">
        <ele>553.5</ele>
        <time>2013-02-02T07:14:45.000Z</time>
      </trkpt>
      <trkpt lat="47.30052" lon="4.92823">
        <ele>553.6</ele>
        <time>2013-02-02T07:14:46.000Z</time>
      </trkpt>
      <trkpt lat="47.30051" lon="4.92817">
        <ele>553.6</ele>
        <time>2013-02-02T07:14:49.000Z</time>
      </trkpt>
      <trkpt lat="47.30051" lon="4.92815">
        <ele>553.5</ele>
        <time>2013-02-02T07:14:50.000Z</time>
      </trkpt>
      <trkpt lat="47.3005" lon="4.928">
        <ele>553.8</ele>
        <time>2013-02-02T07:14:57.000Z</time>
      </trkpt>
      <trkpt lat="47.3005" lon="4.92794">
        <ele>553.6</ele>
        <time>2013-02-02T07:15:00.000Z</time>
      </trkpt>
      <trkpt lat="47.30049" lon="4.92792">
        <ele>553</ele>
        <time>2013-02-02T07:15:01.000Z</time>
      </trkpt>
      <trkpt lat="47.30046" lon="4.92788">
        <ele>551.5</ele>
        <time>2013-02-02T07:15:11.000Z</time>
      </trkpt>
      <trkpt lat="47.30046" lon="4.92787">
        <ele>551.2</ele>
        <time>2013-02-02T07:15:12.000Z</time>
      </trkpt>
      <trkpt lat="47.30043" lon="4.92782">
        <ele>549.1</ele>
        <time>2013-02-02T07:15:16.000Z</time>
      </trkpt>
      <trkpt lat="47.30043" lon="4.92782">
        <ele>548.7</ele>
        <time>2013-02-02T07:15:17.000Z</time>
      </trkpt>
      <trkpt lat="47.30044" lon="4.92776">
        <ele>548</ele>
        <time>2013-02-02T07:15:22.000Z</time>
      </trkpt>
      <trkpt lat="47.30044" lon="4.92774">
        <ele>548.1</ele>
        <time>2013-02-02T07:15:23.000Z</time>
      </trkpt>
      <trkpt lat="47.30044" lon="4.92768">
        <ele>548.2</ele>
        <time>2013-02-02T07:15:26.000Z</time>
      </trkpt>
      <trkpt lat="47.30043" lon="4.92766">
        <ele>548</ele>
        <time>2013-02-02T07:15:27.000Z</time>
      </trkpt>
      <trkpt lat="47.30043" lon="4.9276">
        <ele>548</ele>
        <time>2013-02-02T07:15:30.000Z</time>
      </trkpt>
      <trkpt lat="47.30042" lon="4.92758">
        <ele>548.1</ele>
        <time>2013-02-02T07:15:31.000Z</time>
      </trkpt>
      <trkpt lat="47.30042" lon="4.92754">
        <ele>548</ele>
        <time>2013-02-02T07:15:33.000Z</time>
      </trkpt>
      <trkpt lat="47.30041" lon="4.92752">
        <ele>548.1</ele>
        <time>2013-02-02T07:15:34.000Z</time>
      </trkpt>
      <trkpt lat="47.3004" lon="4.92746">
        <ele>548.1</ele>
        <time>2013-02-02T07:15:37.000Z</time>
      </trkpt>
      <trkpt lat="47.3004" lon="4.92744">
        <ele>548.2</ele>
        <time>2013-02-02T07:15:38.000Z</time>
      </trkpt>
      <trkpt lat="47.30039" lon="4.92738">
        <ele>548</ele>
        <time>2013-02-02T07:15:41.000Z</time>
      </trkpt>
      <trkpt lat="47.30038" lon="4.92736">
        <ele>548</ele>
        <time>2013-02-02T07:15:42.000Z</time>
      </trkpt>
      <trkpt lat="47.30038" lon="4.9273">
        <ele>547.8</ele>
        <time>2013-02-02T07:15:45.000Z</time>
      </trkpt>
      <trkpt lat="47.30037" lon="4.92728">
        <ele>547.7</ele>
        <time>2013-02-02T07:15:46.000Z</time>
      </trkpt>
      <trkpt lat="47.30036" lon="4.92724">
        <ele>547.7</ele>
        <time>2013-02-02T07:15:48.000Z</time>
      </trkpt>
      <trkpt lat="47.30036" lon="4.92721">
        <ele>547.6</ele>
        <time>2013-02-02T07:15:49.000Z</time>
      </trkpt>
      <trkpt lat="47.30035" lon="4.92719">
        <ele>547.5</ele>
        <time>2013-02-02T07:15:50.000Z</time>
      </trkpt>
      <trkpt lat="47.30029" lon="4.92703">
        <ele>546.9</ele>
        <time>2013-02-02T07:15:57.000Z</time>
      </trkpt>
      <trkpt lat="47.30029" lon="4.92697">
        <ele>548</ele>
        <time>2013-02-02T07:15:59.000Z</time>
      </trkpt>
      <trkpt lat="47.30029" lon="4.92694">
        <ele>548.6</ele>
        <time>2013-02-02T07:16:00.000Z</time>
      </trkpt>
      <trkpt lat="47.30028" lon="4.92689">
        <ele>550.7</ele>
        <time>2013-02-02T07:16:03.000Z</time>
      </trkpt>
      <trkpt lat="47.30027" lon="4.92688">
        <ele>550.4</ele>
        <time>2013-02-02T07:16:04.000Z</time>
      </trkpt>
      <trkpt lat="47.30026" lon="4.92684">
        <ele>549.4</ele>
        <time>2013-02-02T07:16:06.000Z</time>
      </trkpt>
      <trkpt lat="47.30025" lon="4.92682">
        <ele>548.9</ele>
        <time>2013-02-02T07:16:07.000Z</time>
      </trkpt>
      <trkpt lat="47.30024" lon="4.92678">
        <ele>549.2</ele>
        <time>2013-02-02T07:16:09.000Z</time>
      </trkpt>
      <trkpt lat="47.30023" lon="4.92675">
        <ele>548.4</ele>
        <time>2013-02-02T07:16:10.000Z</time>
      </trkpt>
      <trkpt lat="47.30021" lon="4.92669">
        <ele>550.3</ele>
        <time>2013-02-02T07:16:15.000Z</time>
      </trkpt>
      <trkpt lat="47.3002" lon="4.92669">
        <ele>550.2</ele>
        <time>2013-02-02T07:16:16.000Z</time>
      </trkpt>
      <trkpt lat="47.30022" lon="4.92664">
        <ele>550.9</ele>
        <time>2013-02-02T07:16:21.000Z</time>
      </trkpt>
      <trkpt lat="47.30023" lon="4.92663">
        <ele>551</ele>
        <time>2013-02-02T07:16:22.000Z</time>
      </trkpt>
      <trkpt lat="47.30025" lon="4.92659">
        <ele>549.7</ele>
        <time>2013-02-02T07:16:24.000Z</time>
      </trkpt>
      <trkpt lat="47.30027" lon="4.92658">
        <ele>549.6</ele>
        <time>2013-02-02T07:16:25.000Z</time>
      </trkpt>
      <trkpt lat="47.3003" lon="4.92657">
        <ele>548.6</ele>
        <time>2013-02-02T07:16:28.000Z</time>
      </trkpt>
      <trkpt lat="47.30032" lon="4.92657">
        <ele>548</ele>
        <time>2013-02-02T07:16:29.000Z</time>
      </trkpt>
      <trkpt lat="47.30035" lon="4.92657">
        <ele>548</ele>
        <time>2013-02-02T07:16:31.000Z</time>
      </trkpt>
      <trkpt lat="47.30037" lon="4.92656">
        <ele>546.8</ele>
        <time>2013-02-02T07:16:32.000Z</time>
      </trkpt>
      <trkpt lat="47.3004" lon="4.92654">
        <ele>546.8</ele>
        <time>2013-02-02T07:16:34.000Z</time>
      </trkpt>
      <trkpt lat="47.30042" lon="4.92653">
        <ele>546.7</ele>
        <time>2013-02-02T07:16:35.000Z</time>
      </trkpt>
      <trkpt lat="47.30046" lon="4.92653">
        <ele>546</ele>
        <time>2013-02-02T07:16:38.000Z</time>
      </trkpt>
      <trkpt lat="47.30047" lon="4.92652">
        <ele>545.8</ele>
        <time>2013-02-02T07:16:39.000Z</time>
      </trkpt>
      <trkpt lat="47.30051" lon="4.92651">
        <ele>545.6</ele>
        <time>2013-02-02T07:16:42.000Z</time>
      </trkpt>
      <trkpt lat="47.30052" lon="4.92651">
        <ele>545.4</ele>
        <time>2013-02-02T07:16:43.000Z</time>
      </trkpt>
      <trkpt lat="47.30056" lon="4.92649">
        <ele>544.2</ele>
        <time>2013-02-02T07:16:46.000Z</time>
      </trkpt>
      <trkpt lat="47.30058" lon="4.92649">
        <ele>543.7</ele>
        <time>2013-02-02T07:16:47.000Z</time>
      </trkpt>
      <trkpt lat="47.30061" lon="4.92649">
        <ele>543.1</ele>
        <time>2013-02-02T07:16:50.000Z</time>
      </trkpt>
      <trkpt lat="47.30073" lon="4.92631">
        <ele>532.8</ele>
        <time>2013-02-02T07:17:00.000Z</time>
      </trkpt>
      <trkpt lat="47.30076" lon="4.92631">
        <ele>533.7</ele>
        <time>2013-02-02T07:17:03.000Z</time>
      </trkpt>
      <trkpt lat="47.30078" lon="4.92631">
        <ele>534.1</ele>
        <time>2013-02-02T07:17:04.000Z</time>
      </trkpt>
      <trkpt lat="47.30081" lon="4.92628">
        <ele>533.5</ele>
        <time>2013-02-02T07:17:07.000Z</time>
      </trkpt>
      <trkpt lat="47.30083" lon="4.92629">
        <ele>532.9</ele>
        <time>2013-02-02T07:17:08.000Z</time>
      </trkpt>
      <trkpt lat="47.30087" lon="4.92626">
        <ele>530.3</ele>
        <time>2013-02-02T07:17:13.000Z</time>
      </trkpt>
      <trkpt lat="47.30087" lon="4.92626">
        <ele>530.8</ele>
        <time>2013-02-02T07:17:14.000Z</time>
      </trkpt>
      <trkpt lat="47.30091" lon="4.92625">
        <ele>530.6</ele>
        <time>2013-02-02T07:17:18.000Z</time>
      </trkpt>
      <trkpt lat="47.30092" lon="4.92625">
        <ele>530.3</ele>
        <time>2013-02-02T07:17:19.000Z</time>
      </trkpt>
      <trkpt lat="47.30096" lon="4.92623">
        <ele>529.3</ele>
        <time>2013-02-02T07:17:25.000Z</time>
      </trkpt>
      <trkpt lat="47.30097" lon="4.92623">
        <ele>529.3</ele>
        <time>2013-02-02T07:17:26.000Z</time>
      </trkpt>
      <trkpt lat="47.30101" lon="4.92621">
        <ele>529.9</ele>
        <time>2013-02-02T07:17:32.000Z</time>
      </trkpt>
      <trkpt lat="47.30102" lon="4.92619">
        <ele>529.7</ele>
        <time>2013-02-02T07:17:33.000Z</time>
      </trkpt>
      <trkpt lat="47.30105" lon="4.92617">
        <ele>529.3</ele>
        <time>2013-02-02T07:17:36.000Z</time>
      </trkpt>
      <trkpt lat="47.30107" lon="4.92615">
        <ele>529</ele>
        <time>2013-02-02T07:17:37.000Z</time>
      </trkpt>
      <trkpt lat="47.30109" lon="4.92613">
        <ele>528.7</ele>
        <time>2013-02-02T07:17:39.000Z</time>
      </trkpt>
      <trkpt lat="47.30111" lon="4.92613">
        <ele>528.7</ele>
        <time>2013-02-02T07:17:40.000Z</time>
      </trkpt>
      <trkpt lat="47.30115" lon="4.92614">
        <ele>528.7</ele>
        <time>2013-02-02T07:17:42.000Z</time>
      </trkpt>
      <trkpt lat="47.30117" lon="4.92614">
        <ele>528.4</ele>
        <time>2013-02-02T07:17:43.000Z</time>
      </trkpt>
      <trkpt lat="47.3012" lon="4.92613">
        <ele>527.7</ele>
        <time>2013-02-02T07:17:45.000Z</time>
      </trkpt>
      <trkpt lat="47.30121" lon="4.92613">
        <ele>527.3</ele>
        <time>2013-02-02T07:17:46.000Z</time>
      </trkpt>
      <trkpt lat="47.30125" lon="4.9261">
        <ele>526.9</ele>
        <time>2013-02-02T07:17:49.000Z</time>
      </trkpt>
      <trkpt lat="47.30126" lon="4.92609">
        <ele>526.3</ele>
        <time>2013-02-02T07:17:50.000Z</time>
      </trkpt>
      <trkpt lat="47.30132" lon="4.92596">
        <ele>521.3</ele>
        <time>2013-02-02T07:17:57.000Z</time>
      </trkpt>
      <trkpt lat="47.30136" lon="4.92593">
        <ele>520.8</ele>
        <time>2013-02-02T07:18:01.000Z</time>
      </trkpt>
      <trkpt lat="47.30137" lon="4.92591">
        <ele>520</ele>
        <time>2013-02-02T07:18:02.000Z</time>
      </trkpt>
      <trkpt lat="47.3014" lon="4.92586">
        <ele>519</ele>
        <time>2013-02-02T07:18:06.000Z</time>
      </trkpt>
      <trkpt lat="47.3014" lon="4.92584">
        <ele>518.5</ele>
        <time>2013-02-02T07:18:07.000Z</time>
      </trkpt>
      <trkpt lat="47.30144" lon="4.92581">
        <ele>518.1</ele>
        <time>2013-02-02T07:18:13.000Z</time>
      </trkpt>
      <trkpt lat="47.30145" lon="4.92581">
        <ele>518</ele>
        <time>2013-02-02T07:18:14.000Z</time>
      </trkpt>
      <trkpt lat="47.30149" lon="4.92582">
        <ele>518.4</ele>
        <time>2013-02-02T07:18:18.000Z</time>
      </trkpt>
      <trkpt lat="47.30151" lon="4.92583">
        <ele>518.5</ele>
        <time>2013-02-02T07:18:19.000Z</time>
      </trkpt>
      <trkpt lat="47.30154" lon="4.92586">
        <ele>519</ele>
        <time>2013-02-02T07:18:21.000Z</time>
      </trkpt>
      <trkpt lat="47.30155" lon="4.92587">
        <ele>518.7</ele>
        <time>2013-02-02T07:18:22.000Z</time>
      </trkpt>
      <trkpt lat="47.30159" lon="4.9259">
        <ele>518.8</ele>
        <time>2013-02-02T07:18:25.000Z</time>
      </trkpt>
      <trkpt lat="47.30161" lon="4.9259">
        <ele>518.8</ele>
        <time>2013-02-02T07:18:26.000Z</time>
      </trkpt>
      <trkpt lat="47.30163" lon="4.92594">
        <ele>517</ele>
        <time>2013-02-02T07:18:28.000Z</time>
      </trkpt>
      <trkpt lat="47.30164" lon="4.92595">
        <ele>516.4</ele>
        <time>2013-02-02T07:18:29.000Z</time>
      </trkpt>
      <trkpt lat="47.30168" lon="4.92596">
        <ele>515.9</ele>
        <time>2013-02-02T07:18:32.000Z</time>
      </trkpt>
      <trkpt lat="47.30169" lon="4.92597">
        <ele>515.9</ele>
        <time>2013-02-02T07:18:33.000Z</time>
      </trkpt>
      <trkpt lat="47.30173" lon="4.92597">
        <ele>516</ele>
        <time>2013-02-02T07:18:36.000Z</time>
      </trkpt>
      <trkpt lat="47.30174" lon="4.92596">
        <ele>516.2</ele>
        <time>2013-02-02T07:18:37.000Z</time>
      </trkpt>
      <trkpt lat="47.30178" lon="4.92596">
        <ele>515.7</ele>
        <time>2013-02-02T07:18:41.000Z</time>
      </trkpt>
      <trkpt lat="47.30179" lon="4.92596">
        <ele>515.9</ele>
        <time>2013-02-02T07:18:42.000Z</time>
      </trkpt>
      <trkpt lat="47.30183" lon="4.92597">
        <ele>516.6</ele>
        <time>2013-02-02T07:18:46.000Z</time>
      </trkpt>
      <trkpt lat="47.30184" lon="4.92597">
        <ele>516.7</ele>
        <time>2013-02-02T07:18:47.000Z</time>
      </trkpt>
      <trkpt lat="47.30187" lon="4.92597">
        <ele>516.7</ele>
        <time>2013-02-02T07:18:50.000Z</time>
      </trkpt>
      <trkpt lat="47.30202" lon="4.92603">
        <ele>510.8</ele>
        <time>2013-02-02T07:19:02.000Z</time>
      </trkpt>
      <trkpt lat="47.30205" lon="4.92605">
        <ele>512.2</ele>
        <time>2013-02-02T07:19:05.000Z</time>
      </trkpt>
      <trkpt lat="47.30207" lon="4.92605">
        <ele>511.8</ele>
        <time>2013-02-02T07:19:06.000Z</time>
      </trkpt>
      <trkpt lat="47.3021" lon="4.92606">
        <ele>511.8</ele>
        <time>2013-02-02T07:19:09.000Z</time>
      </trkpt>
      <trkpt lat="47.30212" lon="4.92606">
        <ele>510.7</ele>
        <time>2013-02-02T07:19:10.000Z</time>
      </trkpt>
      <trkpt lat="47.30216" lon="4.92605">
        <ele>508.8</ele>
        <time>2013-02-02T07:19:14.000Z</time>
      </trkpt>
      <trkpt lat="47.30217" lon="4.92604">
        <ele>508.4</ele>
        <time>2013-02-02T07:19:15.000Z</time>
      </trkpt>
      <trkpt lat="47.30221" lon="4.92603">
        <ele>506.9</ele>
        <time>2013-02-02T07:19:19.000Z</time>
      </trkpt>
      <trkpt lat="47.30223" lon="4.92603">
        <ele>506.3</ele>
        <time>2013-02-02T07:19:20.000Z</time>
      </trkpt>
      <trkpt lat="47.30226" lon="4.92603">
        <ele>506.3</ele>
        <time>2013-02-02T07:19:21.000Z</time>
      </trkpt>
      <trkpt lat="47.30229" lon="4.92604">
        <ele>505.8</ele>
        <time>2013-02-02T07:19:22.000Z</time>
      </trkpt>
      <trkpt lat="47.30233" lon="4.92603">
        <ele>503.8</ele>
        <time>2013-02-02T07:19:24.000Z</time>
      </trkpt>
      <trkpt lat="47.30235" lon="4.92602">
        <ele>503.4</ele>
        <time>2013-02-02T07:19:25.000Z</time>
      </trkpt>
      <trkpt lat="47.30238" lon="4.92601">
        <ele>501.5</ele>
        <time>2013-02-02T07:19:27.000Z</time>
      </trkpt>
      <trkpt lat="47.30239" lon="4.92601">
        <ele>500.7</ele>
        <time>2013-02-02T07:19:28.000Z</time>
      </trkpt>
      <trkpt lat="47.30243" lon="4.92599">
        <ele>500.1</ele>
        <time>2013-02-02T07:19:31.000Z</time>
      </trkpt>
      <trkpt lat="47.30245" lon="4.92598">
        <ele>499.7</ele>
        <time>2013-02-02T07:19:32.000Z</time>
      </trkpt>
      <trkpt lat="47.30249" lon="4.92596">
        <ele>499.2</ele>
        <time>2013-02-02T07:19:35.000Z</time>
      </trkpt>
      <trkpt lat="47.3025" lon="4.92596">
        <ele>499</ele>
        <time>2013-02-02T07:19:36.000Z</time>
      </trkpt>
      <trkpt lat="47.30253" lon="4.92594">
        <ele>498.6</ele>
        <time>2013-02-02T07:19:38.000Z</time>
      </trkpt>
      <trkpt lat="47.30254" lon="4.92593">
        <ele>498.4</ele>
        <time>2013-02-02T07:19:39.000Z</time>
      </trkpt>
      <trkpt lat="47.30257" lon="4.92591">
        <ele>498.4</ele>
        <time>2013-02-02T07:19:41.000Z</time>
      </trkpt>
      <trkpt lat="47.30259" lon="4.92591">
        <ele>498.3</ele>
        <time>2013-02-02T07:19:42.000Z</time>
      </trkpt>
      <trkpt lat="47.30263" lon="4.92588">
        <ele>498</ele>
        <time>2013-02-02T07:19:45.000Z</time>
      </trkpt>
      <trkpt lat="47.30264" lon="4.92587">
        <ele>497.9</ele>
        <time>2013-02-02T07:19:46.000Z</time>
      </trkpt>
      <trkpt lat="47.30268" lon="4.92585">
        <ele>497.8</ele>
        <time>2013-02-02T07:19:48.000Z</time>
      </trkpt>
      <trkpt lat="47.30269" lon="4.92584">
        <ele>497.7</ele>
        <time>2013-02-02T07:19:49.000Z</time>
      </trkpt>
      <trkpt lat="47.3027" lon="4.92583">
        <ele>497.6</ele>
        <time>2013-02-02T07:19:50.000Z</time>
      </trkpt>
      <trkpt lat="47.30275" lon="4.92581">
        <ele>502.3</ele>
        <time>2013-02-02T07:19:57.000Z</time>
      </trkpt>
      <trkpt lat="47.30271" lon="4.92582">
        <ele>500.8</ele>
        <time>2013-02-02T07:20:50.000Z</time>
      </trkpt>
      <trkpt lat="47.30267" lon="4.92589">
        <ele>494.8</ele>
        <time>2013-02-02T07:20:57.000Z</time>
      </trkpt>
      <trkpt lat="47.30267" lon="4.92589">
        <ele>494.8</ele>
        <time>2013-02-02T07:20:59.000Z</time>
      </trkpt>
      <trkpt lat="47.3027" lon="4.92582">
        <ele>493.3</ele>
        <time>2013-02-02T07:21:00.000Z</time>
      </trkpt>
      <trkpt lat="47.30273" lon="4.92577">
        <ele>495.3</ele>
        <time>2013-02-02T07:21:07.000Z</time>
      </trkpt>
      <trkpt lat="47.30274" lon="4.92576">
        <ele>495.1</ele>
        <time>2013-02-02T07:21:08.000Z</time>
      </trkpt>
      <trkpt lat="47.30276" lon="4.92573">
        <ele>494.7</ele>
        <time>2013-02-02T07:21:11.000Z</time>
      </trkpt>
      <trkpt lat="47.30277" lon="4.92572">
        <ele>494.5</ele>
        <time>2013-02-02T07:21:12.000Z</time>
      </trkpt>
      <trkpt lat="47.3028" lon="4.92568">
        <ele>494.3</ele>
        <time>2013-02-02T07:21:15.000Z</time>
      </trkpt>
      <trkpt lat="47.30281" lon="4.92567">
        <ele>494.2</ele>
        <time>2013-02-02T07:21:16.000Z</time>
      </trkpt>
      <trkpt lat="47.30285" lon="4.92563">
        <ele>493.7</ele>
        <time>2013-02-02T07:21:19.000Z</time>
      </trkpt>
      <trkpt lat="47.30286" lon="4.92562">
        <ele>493.5</ele>
        <time>2013-02-02T07:21:20.000Z</time>
      </trkpt>
      <trkpt lat="47.30289" lon="4.92558">
        <ele>493.3</ele>
        <time>2013-02-02T07:21:23.000Z</time>
      </trkpt>
      <trkpt lat="47.3029" lon="4.92557">
        <ele>493.3</ele>
        <time>2013-02-02T07:21:24.000Z</time>
      </trkpt>
      <trkpt lat="47.30293" lon="4.92553">
        <ele>493.3</ele>
        <time>2013-02-02T07:21:27.000Z</time>
      </trkpt>
      <trkpt lat="47.30294" lon="4.92551">
        <ele>493.2</ele>
        <time>2013-02-02T07:21:28.000Z</time>
      </trkpt>
      <trkpt lat="47.30297" lon="4.92547">
        <ele>493.2</ele>
        <time>2013-02-02T07:21:31.000Z</time>
      </trkpt>
      <trkpt lat="47.30298" lon="4.92546">
        <ele>493.1</ele>
        <time>2013-02-02T07:21:32.000Z</time>
      </trkpt>
      <trkpt lat="47.30301" lon="4.92542">
        <ele>492.9</ele>
        <time>2013-02-02T07:21:35.000Z</time>
      </trkpt>
      <trkpt lat="47.30302" lon="4.9254">
        <ele>492.9</ele>
        <time>2013-02-02T07:21:36.000Z</time>
      </trkpt>
      <trkpt lat="47.30305" lon="4.92537">
        <ele>492.7</ele>
        <time>2013-02-02T07:21:39.000Z</time>
      </trkpt>
      <trkpt lat="47.30307" lon="4.92535">
        <ele>492.7</ele>
        <time>2013-02-02T07:21:40.000Z</time>
      </trkpt>
      <trkpt lat="47.3031" lon="4.92531">
        <ele>492.6</ele>
        <time>2013-02-02T07:21:43.000Z</time>
      </trkpt>
      <trkpt lat="47.30311" lon="4.9253">
        <ele>492.3</ele>
        <time>2013-02-02T07:21:44.000Z</time>
      </trkpt>
      <trkpt lat="47.30314" lon="4.92526">
        <ele>491.9</ele>
        <time>2013-02-02T07:21:47.000Z</time>
      </trkpt>
      <trkpt lat="47.30315" lon="4.92525">
        <ele>491.8</ele>
        <time>2013-02-02T07:21:48.000Z</time>
      </trkpt>
      <trkpt lat="47.30318" lon="4.92522">
        <ele>491.6</ele>
        <time>2013-02-02T07:21:50.000Z</time>
      </trkpt>
      <trkpt lat="47.30324" lon="4.92511">
        <ele>488.3</ele>
        <time>2013-02-02T07:21:57.000Z</time>
      </trkpt>
      <trkpt lat="47.30327" lon="4.92507">
        <ele>489</ele>
        <time>2013-02-02T07:21:59.000Z</time>
      </trkpt>
      <trkpt lat="47.30329" lon="4.92506">
        <ele>488.9</ele>
        <time>2013-02-02T07:22:00.000Z</time>
      </trkpt>
      <trkpt lat="47.30331" lon="4.92503">
        <ele>489.3</ele>
        <time>2013-02-02T07:22:02.000Z</time>
      </trkpt>
      <trkpt lat="47.30333" lon="4.92502">
        <ele>489.2</ele>
        <time>2013-02-02T07:22:03.000Z</time>
      </trkpt>
      <trkpt lat="47.30335" lon="4.92499">
        <ele>488.9</ele>
        <time>2013-02-02T07:22:05.000Z</time>
      </trkpt>
      <trkpt lat="47.30336" lon="4.92497">
        <ele>489</ele>
        <time>2013-02-02T07:22:06.000Z</time>
      </trkpt>
      <trkpt lat="47.30338" lon="4.92494">
        <ele>489</ele>
        <time>2013-02-02T07:22:08.000Z</time>
      </trkpt>
      <trkpt lat="47.30339" lon="4.92493">
        <ele>488.7</ele>
        <time>2013-02-02T07:22:09.000Z</time>
      </trkpt>
      <trkpt lat="47.30341" lon="4.9249">
        <ele>488.7</ele>
        <time>2013-02-02T07:22:11.000Z</time>
      </trkpt>
      <trkpt lat="47.30343" lon="4.92488">
        <ele>488.4</ele>
        <time>2013-02-02T07:22:12.000Z</time>
      </trkpt>
      <trkpt lat="47.30345" lon="4.92485">
        <ele>488</ele>
        <time>2013-02-02T07:22:14.000Z</time>
      </trkpt>
      <trkpt lat="47.30346" lon="4.92483">
        <ele>487.7</ele>
        <time>2013-02-02T07:22:15.000Z</time>
      </trkpt>
      <trkpt lat="47.30348" lon="4.92479">
        <ele>487.7</ele>
        <time>2013-02-02T07:22:17.000Z</time>
      </trkpt>
      <trkpt lat="47.30349" lon="4.92478">
        <ele>487.7</ele>
        <time>2013-02-02T07:22:18.000Z</time>
      </trkpt>
      <trkpt lat="47.30351" lon="4.92474">
        <ele>487.4</ele>
        <time>2013-02-02T07:22:20.000Z</time>
      </trkpt>
      <trkpt lat="47.30352" lon="4.92473">
        <ele>487.3</ele>
        <time>2013-02-02T07:22:21.000Z</time>
      </trkpt>
      <trkpt lat="47.30354" lon="4.92469">
        <ele>487.3</ele>
        <time>2013-02-02T07:22:23.000Z</time>
      </trkpt>
      <trkpt lat="47.30355" lon="4.92467">
        <ele>487.2</ele>
        <time>2013-02-02T07:22:24.000Z</time>
      </trkpt>
      <trkpt lat="47.30357" lon="4.92463">
        <ele>486.8</ele>
        <time>2013-02-02T07:22:26.000Z</time>
      </trkpt>
      <trkpt lat="47.30358" lon="4.92461">
        <ele>486.6</ele>
        <time>2013-02-02T07:22:27.000Z</time>
      </trkpt>
      <trkpt lat="47.30359" lon="4.92456">
        <ele>486.3</ele>
        <time>2013-02-02T07:22:30.000Z</time>
      </trkpt>
      <trkpt lat="47.30359" lon="4.92454">
        <ele>486.2</ele>
        <time>2013-02-02T07:22:31.000Z</time>
      </trkpt>
      <trkpt lat="47.30361" lon="4.92448">
        <ele>486.2</ele>
        <time>2013-02-02T07:22:34.000Z</time>
      </trkpt>
      <trkpt lat="47.30361" lon="4.92447">
        <ele>486.1</ele>
        <time>2013-02-02T07:22:35.000Z</time>
      </trkpt>
      <trkpt lat="47.30363" lon="4.92442">
        <ele>485.9</ele>
        <time>2013-02-02T07:22:38.000Z</time>
      </trkpt>
      <trkpt lat="47.30364" lon="4.9244">
        <ele>485.9</ele>
        <time>2013-02-02T07:22:39.000Z</time>
      </trkpt>
      <trkpt lat="47.30365" lon="4.92436">
        <ele>485.8</ele>
        <time>2013-02-02T07:22:42.000Z</time>
      </trkpt>
      <trkpt lat="47.30366" lon="4.92435">
        <ele>485.8</ele>
        <time>2013-02-02T07:22:43.000Z</time>
      </trkpt>
      <trkpt lat="47.30368" lon="4.9243">
        <ele>485.9</ele>
        <time>2013-02-02T07:22:46.000Z</time>
      </trkpt>
      <trkpt lat="47.30368" lon="4.92428">
        <ele>486.1</ele>
        <time>2013-02-02T07:22:47.000Z</time>
      </trkpt>
      <trkpt lat="47.3037" lon="4.92422">
        <ele>486.4</ele>
        <time>2013-02-02T07:22:50.000Z</time>
      </trkpt>
      <trkpt lat="47.3037" lon="4.9242">
        <ele>486.5</ele>
        <time>2013-02-02T07:22:51.000Z</time>
      </trkpt>
      <trkpt lat="47.30371" lon="4.92415">
        <ele>487.1</ele>
        <time>2013-02-02T07:22:54.000Z</time>
      </trkpt>
      <trkpt lat="47.30372" lon="4.92413">
        <ele>487.1</ele>
        <time>2013-02-02T07:22:55.000Z</time>
      </trkpt>
      <trkpt lat="47.30374" lon="4.92408">
        <ele>487.1</ele>
        <time>2013-02-02T07:22:58.000Z</time>
      </trkpt>
      <trkpt lat="47.30375" lon="4.92406">
        <ele>487</ele>
        <time>2013-02-02T07:22:59.000Z</time>
      </trkpt>
      <trkpt lat="47.30377" lon="4.92401">
        <ele>486.9</ele>
        <time>2013-02-02T07:23:02.000Z</time>
      </trkpt>
      <trkpt lat="47.30377" lon="4.92399">
        <ele>487</ele>
        <time>2013-02-02T07:23:03.000Z</time>
      </trkpt>
      <trkpt lat="47.3038" lon="4.92394">
        <ele>487.2</ele>
        <time>2013-02-02T07:23:06.000Z</time>
      </trkpt>
      <trkpt lat="47.30381" lon="4.92392">
        <ele>487.3</ele>
        <time>2013-02-02T07:23:07.000Z</time>
      </trkpt>
      <trkpt lat="47.30381" lon="4.92386">
        <ele>487.2</ele>
        <time>2013-02-02T07:23:09.000Z</time>
      </trkpt>
      <trkpt lat="47.30382" lon="4.92384">
        <ele>487.2</ele>
        <time>2013-02-02T07:23:10.000Z</time>
      </trkpt>
      <trkpt lat="47.30383" lon="4.92379">
        <ele>487.1</ele>
        <time>2013-02-02T07:23:12.000Z</time>
      </trkpt>
      <trkpt lat="47.30383" lon="4.92377">
        <ele>487</ele>
        <time>2013-02-02T07:23:13.000Z</time>
      </trkpt>
      <trkpt lat="47.30385" lon="4.92373">
        <ele>487.1</ele>
        <time>2013-02-02T07:23:15.000Z</time>
      </trkpt>
      <trkpt lat="47.30385" lon="4.92371">
        <ele>486.9</ele>
        <time>2013-02-02T07:23:16.000Z</time>
      </trkpt>
      <trkpt lat="47.30386" lon="4.92365">
        <ele>486.9</ele>
        <time>2013-02-02T07:23:19.000Z</time>
      </trkpt>
      <trkpt lat="47.30386" lon="4.92363">
        <ele>486.9</ele>
        <time>2013-02-02T07:23:20.000Z</time>
      </trkpt>
      <trkpt lat="47.30386" lon="4.92359">
        <ele>486.8</ele>
        <time>2013-02-02T07:23:22.000Z</time>
      </trkpt>
      <trkpt lat="47.30387" lon="4.92357">
        <ele>486.8</ele>
        <time>2013-02-02T07:23:23.000Z</time>
      </trkpt>
      <trkpt lat="47.30388" lon="4.9235">
        <ele>486.6</ele>
        <time>2013-02-02T07:23:27.000Z</time>
      </trkpt>
      <trkpt lat="47.30388" lon="4.9235">
        <ele>486.7</ele>
        <time>2013-02-02T07:23:28.000Z</time>
      </trkpt>
      <trkpt lat="47.30387" lon="4.92344">
        <ele>476.8</ele>
        <time>2013-02-02T07:23:58.000Z</time>
      </trkpt>
      <trkpt lat="47.30388" lon="4.92342">
        <ele>484.3</ele>
        <time>2013-02-02T07:23:59.000Z</time>
      </trkpt>
      <trkpt lat="47.30389" lon="4.92336">
        <ele>483.6</ele>
        <time>2013-02-02T07:24:05.000Z</time>
      </trkpt>
      <trkpt lat="47.30389" lon="4.92335">
        <ele>483.9</ele>
        <time>2013-02-02T07:24:06.000Z</time>
      </trkpt>
      <trkpt lat="47.30389" lon="4.92328">
        <ele>485</ele>
        <time>2013-02-02T07:24:11.000Z</time>
      </trkpt>
      <trkpt lat="47.30389" lon="4.92327">
        <ele>484.8</ele>
        <time>2013-02-02T07:24:12.000Z</time>
      </trkpt>
      <trkpt lat="47.3039" lon="4.92321">
        <ele>483.6</ele>
        <time>2013-02-02T07:24:15.000Z</time>
      </trkpt>
      <trkpt lat="47.3039" lon="4.92319">
        <ele>483.3</ele>
        <time>2013-02-02T07:24:16.000Z</time>
      </trkpt>
      <trkpt lat="47.3039" lon="4.92314">
        <ele>482.8</ele>
        <time>2013-02-02T07:24:19.000Z</time>
      </trkpt>
      <trkpt lat="47.3039" lon="4.92312">
        <ele>483.1</ele>
        <time>2013-02-02T07:24:20.000Z</time>
      </trkpt>
      <trkpt lat="47.3039" lon="4.92307">
        <ele>483</ele>
        <time>2013-02-02T07:24:22.000Z</time>
      </trkpt>
      <trkpt lat="47.30391" lon="4.92305">
        <ele>483.1</ele>
        <time>2013-02-02T07:24:23.000Z</time>
      </trkpt>
      <trkpt lat="47.30391" lon="4.92299">
        <ele>483.1</ele>
        <time>2013-02-02T07:24:26.000Z</time>
      </trkpt>
      <trkpt lat="47.30391" lon="4.92297">
        <ele>483.4</ele>
        <time>2013-02-02T07:24:27.000Z</time>
      </trkpt>
      <trkpt lat="47.3039" lon="4.92291">
        <ele>484.2</ele>
        <time>2013-02-02T07:24:31.000Z</time>
      </trkpt>
      <trkpt lat="47.3039" lon="4.9229">
        <ele>484.3</ele>
        <time>2013-02-02T07:24:32.000Z</time>
      </trkpt>
      <trkpt lat="47.30387" lon="4.92285">
        <ele>484</ele>
        <time>2013-02-02T07:24:36.000Z</time>
      </trkpt>
      <trkpt lat="47.30387" lon="4.92285">
        <ele>483.8</ele>
        <time>2013-02-02T07:24:37.000Z</time>
      </trkpt>
      <trkpt lat="47.30383" lon="4.92282">
        <ele>483.1</ele>
        <time>2013-02-02T07:24:42.000Z</time>
      </trkpt>
      <trkpt lat="47.30382" lon="4.92282">
        <ele>482.9</ele>
        <time>2013-02-02T07:24:43.000Z</time>
      </trkpt>
      <trkpt lat="47.30378" lon="4.9228">
        <ele>482.7</ele>
        <time>2013-02-02T07:24:49.000Z</time>
      </trkpt>
      <trkpt lat="47.30378" lon="4.9228">
        <ele>482.6</ele>
        <time>2013-02-02T07:24:50.000Z</time>
      </trkpt>
      <trkpt lat="47.30372" lon="4.92274">
        <ele>476.9</ele>
        <time>2013-02-02T07:24:57.000Z</time>
      </trkpt>
      <trkpt lat="47.30368" lon="4.92273">
        <ele>478.5</ele>
        <time>2013-02-02T07:25:04.000Z</time>
      </trkpt>
      <trkpt lat="47.30367" lon="4.92273">
        <ele>479.3</ele>
        <time>2013-02-02T07:25:05.000Z</time>
      </trkpt>
      <trkpt lat="47.30364" lon="4.92274">
        <ele>479.2</ele>
        <time>2013-02-02T07:25:08.000Z</time>
      </trkpt>
      <trkpt lat="47.30362" lon="4.92274">
        <ele>479.4</ele>
        <time>2013-02-02T07:25:09.000Z</time>
      </trkpt>
      <trkpt lat="47.30359" lon="4.92274">
        <ele>479</ele>
        <time>2013-02-02T07:25:11.000Z</time>
      </trkpt>
      <trkpt lat="47.30358" lon="4.92274">
        <ele>479.3</ele>
        <time>2013-02-02T07:25:12.000Z</time>
      </trkpt>
      <trkpt lat="47.30354" lon="4.92273">
        <ele>479.8</ele>
        <time>2013-02-02T07:25:14.000Z</time>
      </trkpt>
      <trkpt lat="47.30352" lon="4.92272">
        <ele>479.5</ele>
        <time>2013-02-02T07:25:15.000Z</time>
      </trkpt>
      <trkpt lat="47.30348" lon="4.92271">
        <ele>477.8</ele>
        <time>2013-02-02T07:25:17.000Z</time>
      </trkpt>
      <trkpt lat="47.30346" lon="4.9227">
        <ele>477.4</ele>
        <time>2013-02-02T07:25:18.000Z</time>
      </trkpt>
      <trkpt lat="47.30343" lon="4.92269">
        <ele>477.5</ele>
        <time>2013-02-02T07:25:20.000Z</time>
      </trkpt>
      <trkpt lat="47.30342" lon="4.92268">
        <ele>477.3</ele>
        <time>2013-02-02T07:25:21.000Z</time>
      </trkpt>
      <trkpt lat="47.30337" lon="4.92267">
        <ele>477.4</ele>
        <time>2013-02-02T07:25:24.000Z</time>
      </trkpt>
      <trkpt lat="47.30336" lon="4.92266">
        <ele>477.4</ele>
        <time>2013-02-02T07:25:25.000Z</time>
      </trkpt>
      <trkpt lat="47.30331" lon="4.92265">
        <ele>477.6</ele>
        <time>2013-02-02T07:25:28.000Z</time>
      </trkpt>
      <trkpt lat="47.3033" lon="4.92265">
        <ele>477.9</ele>
        <time>2013-02-02T07:25:29.000Z</time>
      </trkpt>
      <trkpt lat="47.30327" lon="4.92263">
        <ele>478.5</ele>
        <time>2013-02-02T07:25:32.000Z</time>
      </trkpt>
      <trkpt lat="47.30325" lon="4.92263">
        <ele>478.7</ele>
        <time>2013-02-02T07:25:33.000Z</time>
      </trkpt>
      <trkpt lat="47.30322" lon="4.92261">
        <ele>478.9</ele>
        <time>2013-02-02T07:25:36.000Z</time>
      </trkpt>
      <trkpt lat="47.3032" lon="4.92261">
        <ele>478.8</ele>
        <time>2013-02-02T07:25:37.000Z</time>
      </trkpt>
      <trkpt lat="47.30317" lon="4.92259">
        <ele>478.4</ele>
        <time>2013-02-02T07:25:41.000Z</time>
      </trkpt>
      <trkpt lat="47.30316" lon="4.9226">
        <ele>478.3</ele>
        <time>2013-02-02T07:25:42.000Z</time>
      </trkpt>
      <trkpt lat="47.30312" lon="4.92259">
        <ele>478.1</ele>
        <time>2013-02-02T07:25:45.000Z</time>
      </trkpt>
      <trkpt lat="47.3031" lon="4.92258">
        <ele>478.4</ele>
        <time>2013-02-02T07:25:46.000Z</time>
      </trkpt>
      <trkpt lat="47.30307" lon="4.92258">
        <ele>478.8</ele>
        <time>2013-02-02T07:25:49.000Z</time>
      </trkpt>
      <trkpt lat="47.30305" lon="4.92257">
        <ele>479</ele>
        <time>2013-02-02T07:25:50.000Z</time>
      </trkpt>
      <trkpt lat="47.3029" lon="4.92251">
        <ele>472.4</ele>
        <time>2013-02-02T07:25:57.000Z</time>
      </trkpt>
      <trkpt lat="47.30286" lon="4.9225">
        <ele>478.2</ele>
        <time>2013-02-02T07:26:03.000Z</time>
      </trkpt>
      <trkpt lat="47.30285" lon="4.9225">
        <ele>478.9</ele>
        <time>2013-02-02T07:26:04.000Z</time>
      </trkpt>
      <trkpt lat="47.3028" lon="4.9225">
        <ele>479.1</ele>
        <time>2013-02-02T07:26:07.000Z</time>
      </trkpt>
      <trkpt lat="47.30279" lon="4.9225">
        <ele>479.6</ele>
        <time>2013-02-02T07:26:08.000Z</time>
      </trkpt>
      <trkpt lat="47.30275" lon="4.9225">
        <ele>481.5</ele>
        <time>2013-02-02T07:26:12.000Z</time>
      </trkpt>
      <trkpt lat="47.30273" lon="4.9225">
        <ele>481.6</ele>
        <time>2013-02-02T07:26:13.000Z</time>
      </trkpt>
      <trkpt lat="47.30269" lon="4.9225">
        <ele>480.6</ele>
        <time>2013-02-02T07:26:16.000Z</time>
      </trkpt>
      <trkpt lat="47.30268" lon="4.9225">
        <ele>480.8</ele>
        <time>2013-02-02T07:26:17.000Z</time>
      </trkpt>
      <trkpt lat="47.30265" lon="4.92249">
        <ele>480.6</ele>
        <time>2013-02-02T07:26:21.000Z</time>
      </trkpt>
      <trkpt lat="47.30263" lon="4.92249">
        <ele>480</ele>
        <time>2013-02-02T07:26:22.000Z</time>
      </trkpt>
      <trkpt lat="47.3026" lon="4.92247">
        <ele>479</ele>
        <time>2013-02-02T07:26:25.000Z</time>
      </trkpt>
      <trkpt lat="47.30259" lon="4.92246">
        <ele>478.4</ele>
        <time>2013-02-02T07:26:26.000Z</time>
      </trkpt>
      <trkpt lat="47.30254" lon="4.92246">
        <ele>477.8</ele>
        <time>2013-02-02T07:26:29.000Z</time>
      </trkpt>
      <trkpt lat="47.30252" lon="4.92246">
        <ele>477.6</ele>
        <time>2013-02-02T07:26:30.000Z</time>
      </trkpt>
      <trkpt lat="47.30249" lon="4.92246">
        <ele>477.4</ele>
        <time>2013-02-02T07:26:32.000Z</time>
      </trkpt>
      <trkpt lat="47.30247" lon="4.92246">
        <ele>477.5</ele>
        <time>2013-02-02T07:26:33.000Z</time>
      </trkpt>
      <trkpt lat="47.30244" lon="4.92246">
        <ele>477.6</ele>
        <time>2013-02-02T07:26:35.000Z</time>
      </trkpt>
      <trkpt lat="47.30242" lon="4.92247">
        <ele>477.6</ele>
        <time>2013-02-02T07:26:36.000Z</time>
      </trkpt>
      <trkpt lat="47.30238" lon="4.92247">
        <ele>477.5</ele>
        <time>2013-02-02T07:26:38.000Z</time>
      </trkpt>
      <trkpt lat="47.30236" lon="4.92247">
        <ele>477.4</ele>
        <time>2013-02-02T07:26:39.000Z</time>
      </trkpt>
      <trkpt lat="47.30233" lon="4.92247">
        <ele>477.3</ele>
        <time>2013-02-02T07:26:41.000Z</time>
      </trkpt>
      <trkpt lat="47.30231" lon="4.92248">
        <ele>477.4</ele>
        <time>2013-02-02T07:26:42.000Z</time>
      </trkpt>
      <trkpt lat="47.30228" lon="4.92248">
        <ele>477.4</ele>
        <time>2013-02-02T07:26:44.000Z</time>
      </trkpt>
      <trkpt lat="47.30226" lon="4.92248">
        <ele>477.2</ele>
        <time>2013-02-02T07:26:45.000Z</time>
      </trkpt>
      <trkpt lat="47.30222" lon="4.92249">
        <ele>477</ele>
        <time>2013-02-02T07:26:48.000Z</time>
      </trkpt>
      <trkpt lat="47.3022" lon="4.9225">
        <ele>477</ele>
        <time>2013-02-02T07:26:49.000Z</time>
      </trkpt>
      <trkpt lat="47.30218" lon="4.9225">
        <ele>476.9</ele>
        <time>2013-02-02T07:26:50.000Z</time>
      </trkpt>
      <trkpt lat="47.30198" lon="4.92246">
        <ele>469.9</ele>
        <time>2013-02-02T07:26:58.000Z</time>
      </trkpt>
      <trkpt lat="47.30194" lon="4.92247">
        <ele>470.7</ele>
        <time>2013-02-02T07:27:02.000Z</time>
      </trkpt>
      <trkpt lat="47.30193" lon="4.92247">
        <ele>470</ele>
        <time>2013-02-02T07:27:03.000Z</time>
      </trkpt>
      <trkpt lat="47.30189" lon="4.92247">
        <ele>469.3</ele>
        <time>2013-02-02T07:27:07.000Z</time>
      </trkpt>
      <trkpt lat="47.30188" lon="4.92247">
        <ele>468.8</ele>
        <time>2013-02-02T07:27:08.000Z</time>
      </trkpt>
      <trkpt lat="47.30184" lon="4.92247">
        <ele>467.8</ele>
        <time>2013-02-02T07:27:12.000Z</time>
      </trkpt>
      <trkpt lat="47.30183" lon="4.92247">
        <ele>467.4</ele>
        <time>2013-02-02T07:27:13.000Z</time>
      </trkpt>
      <trkpt lat="47.30178" lon="4.92248">
        <ele>468</ele>
        <time>2013-02-02T07:27:18.000Z</time>
      </trkpt>
      <trkpt lat="47.30178" lon="4.92248">
        <ele>468</ele>
        <time>2013-02-02T07:27:19.000Z</time>
      </trkpt>
      <trkpt lat="47.30174" lon="4.92248">
        <ele>466.6</ele>
        <time>2013-02-02T07:27:26.000Z</time>
      </trkpt>
      <trkpt lat="47.30173" lon="4.92247">
        <ele>466</ele>
        <time>2013-02-02T07:27:27.000Z</time>
      </trkpt>
      <trkpt lat="47.30169" lon="4.92247">
        <ele>464.9</ele>
        <time>2013-02-02T07:27:33.000Z</time>
      </trkpt>
      <trkpt lat="47.30168" lon="4.92248">
        <ele>464.6</ele>
        <time>2013-02-02T07:27:34.000Z</time>
      </trkpt>
      <trkpt lat="47.30165" lon="4.92248">
        <ele>464.7</ele>
        <time>2013-02-02T07:27:37.000Z</time>
      </trkpt>
      <trkpt lat="47.30163" lon="4.92248">
        <ele>464.6</ele>
        <time>2013-02-02T07:27:38.000Z</time>
      </trkpt>
      <trkpt lat="47.3016" lon="4.92248">
        <ele>464.5</ele>
        <time>2013-02-02T07:27:40.000Z</time>
      </trkpt>
      <trkpt lat="47.30159" lon="4.92247">
        <ele>464.5</ele>
        <time>2013-02-02T07:27:41.000Z</time>
      </trkpt>
      <trkpt lat="47.30156" lon="4.92247">
        <ele>464.3</ele>
        <time>2013-02-02T07:27:43.000Z</time>
      </trkpt>
      <trkpt lat="47.30154" lon="4.92247">
        <ele>464</ele>
        <time>2013-02-02T07:27:44.000Z</time>
      </trkpt>
      <trkpt lat="47.30149" lon="4.92246">
        <ele>463.8</ele>
        <time>2013-02-02T07:27:47.000Z</time>
      </trkpt>
      <trkpt lat="47.30148" lon="4.92245">
        <ele>463.7</ele>
        <time>2013-02-02T07:27:48.000Z</time>
      </trkpt>
      <trkpt lat="47.30145" lon="4.92244">
        <ele>463.5</ele>
        <time>2013-02-02T07:27:53.000Z</time>
      </trkpt>
      <trkpt lat="47.30144" lon="4.92244">
        <ele>463.4</ele>
        <time>2013-02-02T07:27:54.000Z</time>
      </trkpt>
      <trkpt lat="47.3014" lon="4.92243">
        <ele>463.2</ele>
        <time>2013-02-02T07:27:57.000Z</time>
      </trkpt>
      <trkpt lat="47.30139" lon="4.92243">
        <ele>463.2</ele>
        <time>2013-02-02T07:27:58.000Z</time>
      </trkpt>
      <trkpt lat="47.30136" lon="4.92242">
        <ele>463.1</ele>
        <time>2013-02-02T07:28:00.000Z</time>
      </trkpt>
      <trkpt lat="47.30133" lon="4.92242">
        <ele>462.8</ele>
        <time>2013-02-02T07:28:01.000Z</time>
      </trkpt>
      <trkpt lat="47.30131" lon="4.92243">
        <ele>462.6</ele>
        <time>2013-02-02T07:28:02.000Z</time>
      </trkpt>
      <trkpt lat="47.30128" lon="4.92243">
        <ele>462.3</ele>
        <time>2013-02-02T07:28:03.000Z</time>
      </trkpt>
      <trkpt lat="47.30126" lon="4.92243">
        <ele>462.1</ele>
        <time>2013-02-02T07:28:04.000Z</time>
      </trkpt>
      <trkpt lat="47.30123" lon="4.92243">
        <ele>461.6</ele>
        <time>2013-02-02T07:28:05.000Z</time>
      </trkpt>
      <trkpt lat="47.30119" lon="4.92241">
        <ele>461.1</ele>
        <time>2013-02-02T07:28:10.000Z</time>
      </trkpt>
      <trkpt lat="47.30119" lon="4.9224">
        <ele>461</ele>
        <time>2013-02-02T07:28:11.000Z</time>
      </trkpt>
      <trkpt lat="47.30117" lon="4.92237">
        <ele>459.4</ele>
        <time>2013-02-02T07:28:50.000Z</time>
      </trkpt>
      <trkpt lat="47.30114" lon="4.92241">
        <ele>450.5</ele>
        <time>2013-02-02T07:29:00.000Z</time>
      </trkpt>
      <trkpt lat="47.30114" lon="4.92241">
        <ele>450.5</ele>
        <time>2013-02-02T07:29:50.000Z</time>
      </trkpt>
      <trkpt lat="47.30112" lon="4.92229">
        <ele>454.1</ele>
        <time>2013-02-02T07:29:58.000Z</time>
      </trkpt>
      <trkpt lat="47.3011" lon="4.92235">
        <ele>450.8</ele>
        <time>2013-02-02T07:30:43.000Z</time>
      </trkpt>
      <trkpt lat="47.3011" lon="4.92236">
        <ele>450.9</ele>
        <time>2013-02-02T07:30:44.000Z</time>
      </trkpt>
      <trkpt lat="47.30111" lon="4.92242">
        <ele>452.1</ele>
        <time>2013-02-02T07:30:48.000Z</time>
      </trkpt>
      <trkpt lat="47.30112" lon="4.92244">
        <ele>452.1</ele>
        <time>2013-02-02T07:30:49.000Z</time>
      </trkpt>
      <trkpt lat="47.30112" lon="4.92246">
        <ele>452.2</ele>
        <time>2013-02-02T07:30:50.000Z</time>
      </trkpt>
      <trkpt lat="47.30112" lon="4.92255">
        <ele>451.4</ele>
        <time>2013-02-02T07:30:57.000Z</time>
      </trkpt>
      <trkpt lat="47.3011" lon="4.92258">
        <ele>454.7</ele>
        <time>2013-02-02T07:31:01.000Z</time>
      </trkpt>
      <trkpt lat="47.3011" lon="4.9226">
        <ele>455.8</ele>
        <time>2013-02-02T07:31:02.000Z</time>
      </trkpt>
      <trkpt lat="47.30111" lon="4.92266">
        <ele>462.9</ele>
        <time>2013-02-02T07:31:06.000Z</time>
      </trkpt>
      <trkpt lat="47.30111" lon="4.92267">
        <ele>463</ele>
        <time>2013-02-02T07:31:07.000Z</time>
      </trkpt>
      <trkpt lat="47.30113" lon="4.92272">
        <ele>470</ele>
        <time>2013-02-02T07:31:12.000Z</time>
      </trkpt>
      <trkpt lat="47.30113" lon="4.92273">
        <ele>470.8</ele>
        <time>2013-02-02T07:31:13.000Z</time>
      </trkpt>
      <trkpt lat="47.30116" lon="4.92278">
        <ele>477</ele>
        <time>2013-02-02T07:31:18.000Z</time>
      </trkpt>
      <trkpt lat="47.30116" lon="4.92279">
        <ele>478</ele>
        <time>2013-02-02T07:31:19.000Z</time>
      </trkpt>
      <trkpt lat="47.30115" lon="4.92285">
        <ele>475.9</ele>
        <time>2013-02-02T07:31:23.000Z</time>
      </trkpt>
      <trkpt lat="47.30115" lon="4.92286">
        <ele>476.3</ele>
        <time>2013-02-02T07:31:24.000Z</time>
      </trkpt>
      <trkpt lat="47.30114" lon="4.9229">
        <ele>476.5</ele>
        <time>2013-02-02T07:31:27.000Z</time>
      </trkpt>
      <trkpt lat="47.30113" lon="4.92292">
        <ele>477.2</ele>
        <time>2013-02-02T07:31:28.000Z</time>
      </trkpt>
      <trkpt lat="47.30111" lon="4.92297">
        <ele>477.6</ele>
        <time>2013-02-02T07:31:31.000Z</time>
      </trkpt>
      <trkpt lat="47.3011" lon="4.92299">
        <ele>477.5</ele>
        <time>2013-02-02T07:31:32.000Z</time>
      </trkpt>
      <trkpt lat="47.30107" lon="4.92302">
        <ele>477.8</ele>
        <time>2013-02-02T07:31:35.000Z</time>
      </trkpt>
      <trkpt lat="47.30106" lon="4.92304">
        <ele>477.8</ele>
        <time>2013-02-02T07:31:36.000Z</time>
      </trkpt>
      <trkpt lat="47.30103" lon="4.92308">
        <ele>477.7</ele>
        <time>2013-02-02T07:31:40.000Z</time>
      </trkpt>
      <trkpt lat="47.30102" lon="4.92309">
        <ele>477.8</ele>
        <time>2013-02-02T07:31:41.000Z</time>
      </trkpt>
      <trkpt lat="47.30099" lon="4.92312">
        <ele>477.2</ele>
        <time>2013-02-02T07:31:46.000Z</time>
      </trkpt>
      <trkpt lat="47.30098" lon="4.92313">
        <ele>476.9</ele>
        <time>2013-02-02T07:31:47.000Z</time>
      </trkpt>
      <trkpt lat="47.30095" lon="4.92316">
        <ele>476.9</ele>
        <time>2013-02-02T07:31:50.000Z</time>
      </trkpt>
      <trkpt lat="47.30089" lon="4.92325">
        <ele>486.9</ele>
        <time>2013-02-02T07:32:01.000Z</time>
      </trkpt>
      <trkpt lat="47.30086" lon="4.92328">
        <ele>483.9</ele>
        <time>2013-02-02T07:32:06.000Z</time>
      </trkpt>
      <trkpt lat="47.30085" lon="4.92329">
        <ele>483</ele>
        <time>2013-02-02T07:32:07.000Z</time>
      </trkpt>
      <trkpt lat="47.30084" lon="4.92335">
        <ele>482.8</ele>
        <time>2013-02-02T07:32:15.000Z</time>
      </trkpt>
      <trkpt lat="47.30084" lon="4.92336">
        <ele>483.3</ele>
        <time>2013-02-02T07:32:16.000Z</time>
      </trkpt>
      <trkpt lat="47.30081" lon="4.9234">
        <ele>483.4</ele>
        <time>2013-02-02T07:32:22.000Z</time>
      </trkpt>
      <trkpt lat="47.3008" lon="4.92341">
        <ele>483</ele>
        <time>2013-02-02T07:32:23.000Z</time>
      </trkpt>
      <trkpt lat="47.30077" lon="4.92345">
        <ele>483.1</ele>
        <time>2013-02-02T07:32:29.000Z</time>
      </trkpt>
      <trkpt lat="47.30076" lon="4.92345">
        <ele>482.6</ele>
        <time>2013-02-02T07:32:30.000Z</time>
      </trkpt>
      <trkpt lat="47.30076" lon="4.9235">
        <ele>484.4</ele>
        <time>2013-02-02T07:32:34.000Z</time>
      </trkpt>
      <trkpt lat="47.30076" lon="4.92352">
        <ele>485.3</ele>
        <time>2013-02-02T07:32:35.000Z</time>
      </trkpt>
      <trkpt lat="47.30076" lon="4.92358">
        <ele>488.3</ele>
        <time>2013-02-02T07:32:41.000Z</time>
      </trkpt>
      <trkpt lat="47.30075" lon="4.92359">
        <ele>488.2</ele>
        <time>2013-02-02T07:32:42.000Z</time>
      </trkpt>
      <trkpt lat="47.30073" lon="4.92362">
        <ele>488.4</ele>
        <time>2013-02-02T07:32:50.000Z</time>
      </trkpt>
      <trkpt lat="47.30066" lon="4.92366">
        <ele>482.3</ele>
        <time>2013-02-02T07:32:57.000Z</time>
      </trkpt>
      <trkpt lat="47.30068" lon="4.92371">
        <ele>492.5</ele>
        <time>2013-02-02T07:33:08.000Z</time>
      </trkpt>
      <trkpt lat="47.30068" lon="4.92372">
        <ele>492.7</ele>
        <time>2013-02-02T07:33:09.000Z</time>
      </trkpt>
      <trkpt lat="47.30066" lon="4.92378">
        <ele>495.3</ele>
        <time>2013-02-02T07:33:15.000Z</time>
      </trkpt>
      <trkpt lat="47.30066" lon="4.92378">
        <ele>495.6</ele>
        <time>2013-02-02T07:33:16.000Z</time>
      </trkpt>
      <trkpt lat="47.30063" lon="4.92383">
        <ele>494.6</ele>
        <time>2013-02-02T07:33:22.000Z</time>
      </trkpt>
      <trkpt lat="47.30063" lon="4.92383">
        <ele>494</ele>
        <time>2013-02-02T07:33:23.000Z</time>
      </trkpt>
      <trkpt lat="47.30059" lon="4.92387">
        <ele>494.1</ele>
        <time>2013-02-02T07:33:33.000Z</time>
      </trkpt>
      <trkpt lat="47.30059" lon="4.92387">
        <ele>494.4</ele>
        <time>2013-02-02T07:33:34.000Z</time>
      </trkpt>
      <trkpt lat="47.30057" lon="4.92393">
        <ele>497.2</ele>
        <time>2013-02-02T07:33:49.000Z</time>
      </trkpt>
      <trkpt lat="47.30057" lon="4.92393">
        <ele>497.4</ele>
        <time>2013-02-02T07:33:50.000Z</time>
      </trkpt>
      <trkpt lat="47.30058" lon="4.92398">
        <ele>504.6</ele>
        <time>2013-02-02T07:34:03.000Z</time>
      </trkpt>
      <trkpt lat="47.30052" lon="4.92403">
        <ele>502</ele>
        <time>2013-02-02T07:34:04.000Z</time>
      </trkpt>
      <trkpt lat="47.30049" lon="4.92407">
        <ele>507.3</ele>
        <time>2013-02-02T07:34:13.000Z</time>
      </trkpt>
      <trkpt lat="47.30048" lon="4.92407">
        <ele>506.9</ele>
        <time>2013-02-02T07:34:14.000Z</time>
      </trkpt>
      <trkpt lat="47.30045" lon="4.92412">
        <ele>506.7</ele>
        <time>2013-02-02T07:34:47.000Z</time>
      </trkpt>
      <trkpt lat="47.30045" lon="4.92412">
        <ele>506.5</ele>
        <time>2013-02-02T07:34:48.000Z</time>
      </trkpt>
      <trkpt lat="47.30045" lon="4.92412">
        <ele>506.2</ele>
        <time>2013-02-02T07:34:50.000Z</time>
      </trkpt>
      <trkpt lat="47.30039" lon="4.92408">
        <ele>506.7</ele>
        <time>2013-02-02T07:34:57.000Z</time>
      </trkpt>
      <trkpt lat="47.30039" lon="4.92408">
        <ele>506.7</ele>
        <time>2013-02-02T07:35:50.000Z</time>
      </trkpt>
      <trkpt lat="47.30036" lon="4.92395">
        <ele>510.8</ele>
        <time>2013-02-02T07:35:57.000Z</time>
      </trkpt>
      <trkpt lat="47.30036" lon="4.92395">
        <ele>510.8</ele>
        <time>2013-02-02T07:36:10.000Z</time>
      </trkpt>
      <trkpt lat="47.30041" lon="4.92405">
        <ele>515.5</ele>
        <time>2013-02-02T07:36:11.000Z</time>
      </trkpt>
      <trkpt lat="47.30038" lon="4.9241">
        <ele>504.3</ele>
        <time>2013-02-02T07:36:48.000Z</time>
      </trkpt>
      <trkpt lat="47.30037" lon="4.92411">
        <ele>503.8</ele>
        <time>2013-02-02T07:36:49.000Z</time>
      </trkpt>
      <trkpt lat="47.30037" lon="4.92411">
        <ele>503.8</ele>
        <time>2013-02-02T07:37:50.000Z</time>
      </trkpt>
      <trkpt lat="47.30052" lon="4.92407">
        <ele>517.6</ele>
        <time>2013-02-02T07:37:58.000Z</time>
      </trkpt>
      <trkpt lat="47.3005" lon="4.92412">
        <ele>494.7</ele>
        <time>2013-02-02T07:39:18.000Z</time>
      </trkpt>
      <trkpt lat="47.3005" lon="4.92412">
        <ele>496.3</ele>
        <time>2013-02-02T07:39:19.000Z</time>
      </trkpt>
      <trkpt lat="47.30046" lon="4.92414">
        <ele>501.9</ele>
        <time>2013-02-02T07:39:26.000Z</time>
      </trkpt>
      <trkpt lat="47.30045" lon="4.92415">
        <ele>502.7</ele>
        <time>2013-02-02T07:39:27.000Z</time>
      </trkpt>
      <trkpt lat="47.30042" lon="4.92419">
        <ele>507.6</ele>
        <time>2013-02-02T07:39:32.000Z</time>
      </trkpt>
      <trkpt lat="47.30042" lon="4.92419">
        <ele>508.8</ele>
        <time>2013-02-02T07:39:33.000Z</time>
      </trkpt>
      <trkpt lat="47.30039" lon="4.92424">
        <ele>512.7</ele>
        <time>2013-02-02T07:39:38.000Z</time>
      </trkpt>
      <trkpt lat="47.30039" lon="4.92425">
        <ele>513.1</ele>
        <time>2013-02-02T07:39:39.000Z</time>
      </trkpt>
      <trkpt lat="47.30037" lon="4.92431">
        <ele>514.9</ele>
        <time>2013-02-02T07:39:43.000Z</time>
      </trkpt>
      <trkpt lat="47.30037" lon="4.92432">
        <ele>515.4</ele>
        <time>2013-02-02T07:39:44.000Z</time>
      </trkpt>
      <trkpt lat="47.30034" lon="4.92435">
        <ele>516.7</ele>
        <time>2013-02-02T07:39:46.000Z</time>
      </trkpt>
      <trkpt lat="47.30033" lon="4.92437">
        <ele>516.9</ele>
        <time>2013-02-02T07:39:47.000Z</time>
      </trkpt>
      <trkpt lat="47.30031" lon="4.92441">
        <ele>517.7</ele>
        <time>2013-02-02T07:39:50.000Z</time>
      </trkpt>
      <trkpt lat="47.30038" lon="4.92455">
        <ele>537.8</ele>
        <time>2013-02-02T07:39:57.000Z</time>
      </trkpt>
      <trkpt lat="47.30035" lon="4.92459">
        <ele>538</ele>
        <time>2013-02-02T07:40:04.000Z</time>
      </trkpt>
      <trkpt lat="47.30034" lon="4.9246">
        <ele>537.7</ele>
        <time>2013-02-02T07:40:05.000Z</time>
      </trkpt>
      <trkpt lat="47.30033" lon="4.92465">
        <ele>538.3</ele>
        <time>2013-02-02T07:40:12.000Z</time>
      </trkpt>
      <trkpt lat="47.30032" lon="4.92466">
        <ele>537.9</ele>
        <time>2013-02-02T07:40:13.000Z</time>
      </trkpt>
      <trkpt lat="47.30028" lon="4.92469">
        <ele>535.6</ele>
        <time>2013-02-02T07:40:18.000Z</time>
      </trkpt>
      <trkpt lat="47.30027" lon="4.92469">
        <ele>535.2</ele>
        <time>2013-02-02T07:40:19.000Z</time>
      </trkpt>
      <trkpt lat="47.30024" lon="4.92474">
        <ele>534.8</ele>
        <time>2013-02-02T07:40:26.000Z</time>
      </trkpt>
      <trkpt lat="47.30024" lon="4.92475">
        <ele>535</ele>
        <time>2013-02-02T07:40:27.000Z</time>
      </trkpt>
      <trkpt lat="47.3002" lon="4.92479">
        <ele>533.4</ele>
        <time>2013-02-02T07:40:46.000Z</time>
      </trkpt>
      <trkpt lat="47.3002" lon="4.92479">
        <ele>533.5</ele>
        <time>2013-02-02T07:40:47.000Z</time>
      </trkpt>
      <trkpt lat="47.30018" lon="4.92482">
        <ele>533.7</ele>
        <time>2013-02-02T07:40:50.000Z</time>
      </trkpt>
      <trkpt lat="47.30012" lon="4.92496">
        <ele>546.1</ele>
        <time>2013-02-02T07:40:58.000Z</time>
      </trkpt>
      <trkpt lat="47.3001" lon="4.92502">
        <ele>542.5</ele>
        <time>2013-02-02T07:41:02.000Z</time>
      </trkpt>
      <trkpt lat="47.30009" lon="4.92502">
        <ele>543.1</ele>
        <time>2013-02-02T07:41:03.000Z</time>
      </trkpt>
      <trkpt lat="47.30005" lon="4.92504">
        <ele>542.8</ele>
        <time>2013-02-02T07:41:08.000Z</time>
      </trkpt>
      <trkpt lat="47.30005" lon="4.92505">
        <ele>542.3</ele>
        <time>2013-02-02T07:41:09.000Z</time>
      </trkpt>
      <trkpt lat="47.30002" lon="4.9251">
        <ele>542.1</ele>
        <time>2013-02-02T07:41:15.000Z</time>
      </trkpt>
      <trkpt lat="47.30001" lon="4.9251">
        <ele>542.7</ele>
        <time>2013-02-02T07:41:16.000Z</time>
      </trkpt>
      <trkpt lat="47.29998" lon="4.92513">
        <ele>542.2</ele>
        <time>2013-02-02T07:41:20.000Z</time>
      </trkpt>
      <trkpt lat="47.29997" lon="4.92514">
        <ele>542</ele>
        <time>2013-02-02T07:41:21.000Z</time>
      </trkpt>
      <trkpt lat="47.29993" lon="4.92518">
        <ele>542.3</ele>
        <time>2013-02-02T07:41:25.000Z</time>
      </trkpt>
      <trkpt lat="47.29993" lon="4.92519">
        <ele>542.3</ele>
        <time>2013-02-02T07:41:26.000Z</time>
      </trkpt>
      <trkpt lat="47.29991" lon="4.92524">
        <ele>541.2</ele>
        <time>2013-02-02T07:41:30.000Z</time>
      </trkpt>
      <trkpt lat="47.2999" lon="4.92525">
        <ele>541.3</ele>
        <time>2013-02-02T07:41:31.000Z</time>
      </trkpt>
      <trkpt lat="47.29987" lon="4.92528">
        <ele>542.6</ele>
        <time>2013-02-02T07:41:37.000Z</time>
      </trkpt>
      <trkpt lat="47.29986" lon="4.92529">
        <ele>542.6</ele>
        <time>2013-02-02T07:41:38.000Z</time>
      </trkpt>
      <trkpt lat="47.29982" lon="4.92531">
        <ele>543.6</ele>
        <time>2013-02-02T07:41:44.000Z</time>
      </trkpt>
      <trkpt lat="47.29982" lon="4.92531">
        <ele>543.8</ele>
        <time>2013-02-02T07:41:45.000Z</time>
      </trkpt>
      <trkpt lat="47.2998" lon="4.92537">
        <ele>544.4</ele>
        <time>2013-02-02T07:41:57.000Z</time>
      </trkpt>
      <trkpt lat="47.29979" lon="4.92539">
        <ele>546.5</ele>
        <time>2013-02-02T07:41:58.000Z</time>
      </trkpt>
      <trkpt lat="47.29975" lon="4.9254">
        <ele>543.4</ele>
        <time>2013-02-02T07:42:50.000Z</time>
      </trkpt>
      <trkpt lat="47.29973" lon="4.92536">
        <ele>528.9</ele>
        <time>2013-02-02T07:42:59.000Z</time>
      </trkpt>
      <trkpt lat="47.29973" lon="4.92536">
        <ele>528.9</ele>
        <time>2013-02-02T07:43:50.000Z</time>
      </trkpt>
      <trkpt lat="47.29966" lon="4.9253">
        <ele>520.9</ele>
        <time>2013-02-02T07:43:57.000Z</time>
      </trkpt>
      <trkpt lat="47.29965" lon="4.92529">
        <ele>533.4</ele>
        <time>2013-02-02T07:44:50.000Z</time>
      </trkpt>
      <trkpt lat="47.29966" lon="4.92536">
        <ele>544.5</ele>
        <time>2013-02-02T07:44:58.000Z</time>
      </trkpt>
      <trkpt lat="47.29966" lon="4.92536">
        <ele>544.5</ele>
        <time>2013-02-02T07:45:50.000Z</time>
      </trkpt>
      <trkpt lat="47.29977" lon="4.92536">
        <ele>555</ele>
        <time>2013-02-02T07:45:57.000Z</time>
      </trkpt>
      <trkpt lat="47.29973" lon="4.9254">
        <ele>547.7</ele>
        <time>2013-02-02T07:46:06.000Z</time>
      </trkpt>
      <trkpt lat="47.29973" lon="4.92541">
        <ele>547</ele>
        <time>2013-02-02T07:46:07.000Z</time>
      </trkpt>
      <trkpt lat="47.2997" lon="4.92545">
        <ele>543.1</ele>
        <time>2013-02-02T07:46:12.000Z</time>
      </trkpt>
      <trkpt lat="47.2997" lon="4.92546">
        <ele>543</ele>
        <time>2013-02-02T07:46:13.000Z</time>
      </trkpt>
      <trkpt lat="47.29967" lon="4.9255">
        <ele>542.8</ele>
        <time>2013-02-02T07:46:20.000Z</time>
      </trkpt>
      <trkpt lat="47.29967" lon="4.92551">
        <ele>542.9</ele>
        <time>2013-02-02T07:46:21.000Z</time>
      </trkpt>
      <trkpt lat="47.29966" lon="4.92556">
        <ele>542.5</ele>
        <time>2013-02-02T07:46:27.000Z</time>
      </trkpt>
      <trkpt lat="47.29965" lon="4.92557">
        <ele>542.8</ele>
        <time>2013-02-02T07:46:28.000Z</time>
      </trkpt>
      <trkpt lat="47.29963" lon="4.92561">
        <ele>543.8</ele>
        <time>2013-02-02T07:46:34.000Z</time>
      </trkpt>
      <trkpt lat="47.29962" lon="4.92562">
        <ele>543.9</ele>
        <time>2013-02-02T07:46:35.000Z</time>
      </trkpt>
      <trkpt lat="47.29961" lon="4.92567">
        <ele>544.1</ele>
        <time>2013-02-02T07:46:39.000Z</time>
      </trkpt>
      <trkpt lat="47.2996" lon="4.92569">
        <ele>544.3</ele>
        <time>2013-02-02T07:46:40.000Z</time>
      </trkpt>
      <trkpt lat="47.29958" lon="4.92574">
        <ele>544.5</ele>
        <time>2013-02-02T07:46:45.000Z</time>
      </trkpt>
      <trkpt lat="47.29957" lon="4.92575">
        <ele>544.8</ele>
        <time>2013-02-02T07:46:46.000Z</time>
      </trkpt>
      <trkpt lat="47.29955" lon="4.92579">
        <ele>546.2</ele>
        <time>2013-02-02T07:46:50.000Z</time>
      </trkpt>
      <trkpt lat="47.29951" lon="4.92587">
        <ele>572.2</ele>
        <time>2013-02-02T07:47:03.000Z</time>
      </trkpt>
      <trkpt lat="47.29947" lon="4.92587">
        <ele>572.7</ele>
        <time>2013-02-02T07:47:07.000Z</time>
      </trkpt>
      <trkpt lat="47.29947" lon="4.92588">
        <ele>572.5</ele>
        <time>2013-02-02T07:47:08.000Z</time>
      </trkpt>
      <trkpt lat="47.29946" lon="4.92589">
        <ele>573.8</ele>
        <time>2013-02-02T07:47:22.000Z</time>
      </trkpt>
      <trkpt lat="47.29943" lon="4.92595">
        <ele>574.1</ele>
        <time>2013-02-02T07:47:23.000Z</time>
      </trkpt>
      <trkpt lat="47.29939" lon="4.92598">
        <ele>574.8</ele>
        <time>2013-02-02T07:47:30.000Z</time>
      </trkpt>
      <trkpt lat="47.29938" lon="4.92599">
        <ele>575</ele>
        <time>2013-02-02T07:47:31.000Z</time>
      </trkpt>
      <trkpt lat="47.29935" lon="4.92602">
        <ele>573.6</ele>
        <time>2013-02-02T07:47:39.000Z</time>
      </trkpt>
      <trkpt lat="47.29934" lon="4.92602">
        <ele>573.3</ele>
        <time>2013-02-02T07:47:40.000Z</time>
      </trkpt>
      <trkpt lat="47.29931" lon="4.92605">
        <ele>572.4</ele>
        <time>2013-02-02T07:47:45.000Z</time>
      </trkpt>
      <trkpt lat="47.2993" lon="4.92605">
        <ele>572.7</ele>
        <time>2013-02-02T07:47:46.000Z</time>
      </trkpt>
      <trkpt lat="47.29928" lon="4.92608">
        <ele>573.6</ele>
        <time>2013-02-02T07:47:50.000Z</time>
      </trkpt>
      <trkpt lat="47.29923" lon="4.92616">
        <ele>581.7</ele>
        <time>2013-02-02T07:47:58.000Z</time>
      </trkpt>
      <trkpt lat="47.29919" lon="4.92618">
        <ele>582.6</ele>
        <time>2013-02-02T07:48:06.000Z</time>
      </trkpt>
      <trkpt lat="47.29919" lon="4.92619">
        <ele>583.6</ele>
        <time>2013-02-02T07:48:07.000Z</time>
      </trkpt>
      <trkpt lat="47.29917" lon="4.92624">
        <ele>583.4</ele>
        <time>2013-02-02T07:48:21.000Z</time>
      </trkpt>
      <trkpt lat="47.29916" lon="4.92625">
        <ele>583.7</ele>
        <time>2013-02-02T07:48:22.000Z</time>
      </trkpt>
      <trkpt lat="47.29912" lon="4.92627">
        <ele>586.1</ele>
        <time>2013-02-02T07:48:31.000Z</time>
      </trkpt>
      <trkpt lat="47.29912" lon="4.92627">
        <ele>586.1</ele>
        <time>2013-02-02T07:48:32.000Z</time>
      </trkpt>
      <trkpt lat="47.29911" lon="4.9263">
        <ele>587.6</ele>
        <time>2013-02-02T07:48:43.000Z</time>
      </trkpt>
      <trkpt lat="47.2991" lon="4.92633">
        <ele>589.3</ele>
        <time>2013-02-02T07:48:44.000Z</time>
      </trkpt>
      <trkpt lat="47.29908" lon="4.92637">
        <ele>590.7</ele>
        <time>2013-02-02T07:48:50.000Z</time>
      </trkpt>
      <trkpt lat="47.29899" lon="4.92639">
        <ele>588.7</ele>
        <time>2013-02-02T07:48:57.000Z</time>
      </trkpt>
      <trkpt lat="47.29899" lon="4.92639">
        <ele>588.7</ele>
        <time>2013-02-02T07:48:58.000Z</time>
      </trkpt>
      <trkpt lat="47.29904" lon="4.92634">
        <ele>594.3</ele>
        <time>2013-02-02T07:48:59.000Z</time>
      </trkpt>
      <trkpt lat="47.29903" lon="4.92637">
        <ele>593.2</ele>
        <time>2013-02-02T07:49:06.000Z</time>
      </trkpt>
      <trkpt lat="47.29905" lon="4.92643">
        <ele>594.4</ele>
        <time>2013-02-02T07:49:07.000Z</time>
      </trkpt>
      <trkpt lat="47.29904" lon="4.92645">
        <ele>596.4</ele>
        <time>2013-02-02T07:49:21.000Z</time>
      </trkpt>
      <trkpt lat="47.29903" lon="4.9265">
        <ele>596.7</ele>
        <time>2013-02-02T07:49:22.000Z</time>
      </trkpt>
      <trkpt lat="47.29902" lon="4.92655">
        <ele>596.7</ele>
        <time>2013-02-02T07:49:41.000Z</time>
      </trkpt>
      <trkpt lat="47.29899" lon="4.92658">
        <ele>599.2</ele>
        <time>2013-02-02T07:49:42.000Z</time>
      </trkpt>
      <trkpt lat="47.29899" lon="4.9266">
        <ele>600.6</ele>
        <time>2013-02-02T07:49:50.000Z</time>
      </trkpt>
      <trkpt lat="47.29893" lon="4.92667">
        <ele>617.2</ele>
        <time>2013-02-02T07:49:57.000Z</time>
      </trkpt>
      <trkpt lat="47.29895" lon="4.92668">
        <ele>615.7</ele>
        <time>2013-02-02T07:50:30.000Z</time>
      </trkpt>
      <trkpt lat="47.29889" lon="4.92675">
        <ele>609.3</ele>
        <time>2013-02-02T07:50:31.000Z</time>
      </trkpt>
      <trkpt lat="47.29887" lon="4.92675">
        <ele>609.6</ele>
        <time>2013-02-02T07:50:50.000Z</time>
      </trkpt>
      <trkpt lat="47.2989" lon="4.92684">
        <ele>612.2</ele>
        <time>2013-02-02T07:50:58.000Z</time>
      </trkpt>
      <trkpt lat="47.29885" lon="4.92685">
        <ele>618.4</ele>
        <time>2013-02-02T07:50:59.000Z</time>
      </trkpt>
      <trkpt lat="47.29884" lon="4.92686">
        <ele>618.6</ele>
        <time>2013-02-02T07:51:23.000Z</time>
      </trkpt>
      <trkpt lat="47.2988" lon="4.92693">
        <ele>621.1</ele>
        <time>2013-02-02T07:51:24.000Z</time>
      </trkpt>
      <trkpt lat="47.29878" lon="4.92699">
        <ele>621.9</ele>
        <time>2013-02-02T07:51:33.000Z</time>
      </trkpt>
      <trkpt lat="47.29877" lon="4.92699">
        <ele>622</ele>
        <time>2013-02-02T07:51:34.000Z</time>
      </trkpt>
      <trkpt lat="47.29875" lon="4.92705">
        <ele>623.9</ele>
        <time>2013-02-02T07:51:46.000Z</time>
      </trkpt>
      <trkpt lat="47.29875" lon="4.92706">
        <ele>623.9</ele>
        <time>2013-02-02T07:51:47.000Z</time>
      </trkpt>
      <trkpt lat="47.29879" lon="4.92707">
        <ele>625.9</ele>
        <time>2013-02-02T07:51:58.000Z</time>
      </trkpt>
      <trkpt lat="47.29875" lon="4.92717">
        <ele>632.1</ele>
        <time>2013-02-02T07:51:59.000Z</time>
      </trkpt>
      <trkpt lat="47.29871" lon="4.92719">
        <ele>631.8</ele>
        <time>2013-02-02T07:52:13.000Z</time>
      </trkpt>
      <trkpt lat="47.29869" lon="4.9272">
        <ele>631.1</ele>
        <time>2013-02-02T07:52:14.000Z</time>
      </trkpt>
      <trkpt lat="47.2987" lon="4.92726">
        <ele>632.9</ele>
        <time>2013-02-02T07:52:24.000Z</time>
      </trkpt>
      <trkpt lat="47.29869" lon="4.92727">
        <ele>632.4</ele>
        <time>2013-02-02T07:52:25.000Z</time>
      </trkpt>
      <trkpt lat="47.29868" lon="4.92733">
        <ele>634.1</ele>
        <time>2013-02-02T07:52:33.000Z</time>
      </trkpt>
      <trkpt lat="47.29868" lon="4.92734">
        <ele>634.1</ele>
        <time>2013-02-02T07:52:34.000Z</time>
      </trkpt>
      <trkpt lat="47.29867" lon="4.92739">
        <ele>634.7</ele>
        <time>2013-02-02T07:52:40.000Z</time>
      </trkpt>
      <trkpt lat="47.29866" lon="4.9274">
        <ele>634.9</ele>
        <time>2013-02-02T07:52:41.000Z</time>
      </trkpt>
      <trkpt lat="47.29865" lon="4.92746">
        <ele>635.1</ele>
        <time>2013-02-02T07:52:48.000Z</time>
      </trkpt>
      <trkpt lat="47.29865" lon="4.92747">
        <ele>634.7</ele>
        <time>2013-02-02T07:52:49.000Z</time>
      </trkpt>
      <trkpt lat="47.29865" lon="4.92749">
        <ele>634.7</ele>
        <time>2013-02-02T07:52:50.000Z</time>
      </trkpt>
      <trkpt lat="47.29862" lon="4.92758">
        <ele>645.7</ele>
        <time>2013-02-02T07:52:57.000Z</time>
      </trkpt>
      <trkpt lat="47.29859" lon="4.9276">
        <ele>642.7</ele>
        <time>2013-02-02T07:53:01.000Z</time>
      </trkpt>
      <trkpt lat="47.29857" lon="4.9276">
        <ele>643</ele>
        <time>2013-02-02T07:53:02.000Z</time>
      </trkpt>
      <trkpt lat="47.29857" lon="4.9276">
        <ele>643</ele>
        <time>2013-02-02T07:53:50.000Z</time>
      </trkpt>
      <trkpt lat="47.2985" lon="4.92749">
        <ele>647.4</ele>
        <time>2013-02-02T07:53:57.000Z</time>
      </trkpt>
      <trkpt lat="47.2985" lon="4.92749">
        <ele>647.4</ele>
        <time>2013-02-02T07:54:50.000Z</time>
      </trkpt>
      <trkpt lat="47.29853" lon="4.92755">
        <ele>637.3</ele>
        <time>2013-02-02T07:54:57.000Z</time>
      </trkpt>
      <trkpt lat="47.29853" lon="4.92755">
        <ele>637.3</ele>
        <time>2013-02-02T07:55:50.000Z</time>
      </trkpt>
      <trkpt lat="47.29862" lon="4.92763">
        <ele>634.9</ele>
        <time>2013-02-02T07:55:57.000Z</time>
      </trkpt>
      <trkpt lat="47.29862" lon="4.92763">
        <ele>634.9</ele>
        <time>2013-02-02T07:56:50.000Z</time>
      </trkpt>
      <trkpt lat="47.29853" lon="4.92761">
        <ele>624.4</ele>
        <time>2013-02-02T07:56:57.000Z</time>
      </trkpt>
      <trkpt lat="47.29853" lon="4.92761">
        <ele>624.4</ele>
        <time>2013-02-02T07:57:50.000Z</time>
      </trkpt>
      <trkpt lat="47.29852" lon="4.92772">
        <ele>633.3</ele>
        <time>2013-02-02T07:57:57.000Z</time>
      </trkpt>
      <trkpt lat="47.29852" lon="4.92772">
        <ele>633.3</ele>
        <time>2013-02-02T07:58:50.000Z</time>
      </trkpt>
      <trkpt lat="47.29855" lon="4.92766">
        <ele>626.6</ele>
        <time>2013-02-02T07:58:57.000Z</time>
      </trkpt>
      <trkpt lat="47.29854" lon="4.92764">
        <ele>616.8</ele>
        <time>2013-02-02T08:00:07.000Z</time>
      </trkpt>
      <trkpt lat="47.29855" lon="4.92759">
        <ele>625.9</ele>
        <time>2013-02-02T08:00:08.000Z</time>
      </trkpt>
      <trkpt lat="47.29855" lon="4.92759">
        <ele>626</ele>
        <time>2013-02-02T08:00:50.000Z</time>
      </trkpt>
      <trkpt lat="47.29849" lon="4.92756">
        <ele>650</ele>
        <time>2013-02-02T08:00:57.000Z</time>
      </trkpt>
      <trkpt lat="47.29849" lon="4.92755">
        <ele>628.1</ele>
        <time>2013-02-02T08:01:57.000Z</time>
      </trkpt>
      <trkpt lat="47.29854" lon="4.92759">
        <ele>633.1</ele>
        <time>2013-02-02T08:01:58.000Z</time>
      </trkpt>
      <trkpt lat="47.29853" lon="4.9276">
        <ele>641</ele>
        <time>2013-02-02T08:03:50.000Z</time>
      </trkpt>
      <trkpt lat="47.29851" lon="4.9275">
        <ele>641.9</ele>
        <time>2013-02-02T08:03:57.000Z</time>
      </trkpt>
      <trkpt lat="47.29848" lon="4.92746">
        <ele>642</ele>
        <time>2013-02-02T08:04:00.000Z</time>
      </trkpt>
      <trkpt lat="47.29847" lon="4.92745">
        <ele>641.3</ele>
        <time>2013-02-02T08:04:01.000Z</time>
      </trkpt>
      <trkpt lat="47.29844" lon="4.92742">
        <ele>642.8</ele>
        <time>2013-02-02T08:04:05.000Z</time>
      </trkpt>
      <trkpt lat="47.29843" lon="4.92741">
        <ele>643.3</ele>
        <time>2013-02-02T08:04:06.000Z</time>
      </trkpt>
      <trkpt lat="47.2984" lon="4.92738">
        <ele>642.6</ele>
        <time>2013-02-02T08:04:09.000Z</time>
      </trkpt>
      <trkpt lat="47.29839" lon="4.92737">
        <ele>643.3</ele>
        <time>2013-02-02T08:04:10.000Z</time>
      </trkpt>
      <trkpt lat="47.29837" lon="4.92733">
        <ele>643.1</ele>
        <time>2013-02-02T08:04:13.000Z</time>
      </trkpt>
      <trkpt lat="47.29835" lon="4.92733">
        <ele>642.6</ele>
        <time>2013-02-02T08:04:14.000Z</time>
      </trkpt>
      <trkpt lat="47.29832" lon="4.9273">
        <ele>643.3</ele>
        <time>2013-02-02T08:04:17.000Z</time>
      </trkpt>
      <trkpt lat="47.29831" lon="4.92729">
        <ele>643.5</ele>
        <time>2013-02-02T08:04:18.000Z</time>
      </trkpt>
      <trkpt lat="47.29828" lon="4.92726">
        <ele>644.2</ele>
        <time>2013-02-02T08:04:21.000Z</time>
      </trkpt>
      <trkpt lat="47.29827" lon="4.92724">
        <ele>643.8</ele>
        <time>2013-02-02T08:04:22.000Z</time>
      </trkpt>
      <trkpt lat="47.29824" lon="4.92722">
        <ele>644</ele>
        <time>2013-02-02T08:04:25.000Z</time>
      </trkpt>
      <trkpt lat="47.29822" lon="4.9272">
        <ele>643.9</ele>
        <time>2013-02-02T08:04:26.000Z</time>
      </trkpt>
      <trkpt lat="47.29819" lon="4.92717">
        <ele>643.8</ele>
        <time>2013-02-02T08:04:29.000Z</time>
      </trkpt>
      <trkpt lat="47.29818" lon="4.92716">
        <ele>643.8</ele>
        <time>2013-02-02T08:04:30.000Z</time>
      </trkpt>
      <trkpt lat="47.29816" lon="4.92712">
        <ele>644.1</ele>
        <time>2013-02-02T08:04:33.000Z</time>
      </trkpt>
      <trkpt lat="47.29814" lon="4.92711">
        <ele>644.1</ele>
        <time>2013-02-02T08:04:34.000Z</time>
      </trkpt>
      <trkpt lat="47.29812" lon="4.92707">
        <ele>643.9</ele>
        <time>2013-02-02T08:04:37.000Z</time>
      </trkpt>
      <trkpt lat="47.29811" lon="4.92705">
        <ele>643.8</ele>
        <time>2013-02-02T08:04:38.000Z</time>
      </trkpt>
      <trkpt lat="47.29808" lon="4.92702">
        <ele>643.7</ele>
        <time>2013-02-02T08:04:41.000Z</time>
      </trkpt>
      <trkpt lat="47.29807" lon="4.92701">
        <ele>643.6</ele>
        <time>2013-02-02T08:04:42.000Z</time>
      </trkpt>
      <trkpt lat="47.29804" lon="4.92697">
        <ele>643.9</ele>
        <time>2013-02-02T08:04:45.000Z</time>
      </trkpt>
      <trkpt lat="47.29803" lon="4.92696">
        <ele>644</ele>
        <time>2013-02-02T08:04:46.000Z</time>
      </trkpt>
      <trkpt lat="47.298" lon="4.92691">
        <ele>644.2</ele>
        <time>2013-02-02T08:04:49.000Z</time>
      </trkpt>
      <trkpt lat="47.29799" lon="4.9269">
        <ele>644.3</ele>
        <time>2013-02-02T08:04:50.000Z</time>
      </trkpt>
      <trkpt lat="47.29791" lon="4.92677">
        <ele>646.2</ele>
        <time>2013-02-02T08:04:57.000Z</time>
      </trkpt>
      <trkpt lat="47.29787" lon="4.92674">
        <ele>645.3</ele>
        <time>2013-02-02T08:04:59.000Z</time>
      </trkpt>
      <trkpt lat="47.29786" lon="4.92672">
        <ele>644.9</ele>
        <time>2013-02-02T08:05:00.000Z</time>
      </trkpt>
      <trkpt lat="47.29784" lon="4.92669">
        <ele>646.2</ele>
        <time>2013-02-02T08:05:03.000Z</time>
      </trkpt>
      <trkpt lat="47.29782" lon="4.92668">
        <ele>646.2</ele>
        <time>2013-02-02T08:05:04.000Z</time>
      </trkpt>
      <trkpt lat="47.29779" lon="4.92664">
        <ele>648.1</ele>
        <time>2013-02-02T08:05:07.000Z</time>
      </trkpt>
      <trkpt lat="47.29778" lon="4.92663">
        <ele>648.6</ele>
        <time>2013-02-02T08:05:08.000Z</time>
      </trkpt>
      <trkpt lat="47.29775" lon="4.9266">
        <ele>649</ele>
        <time>2013-02-02T08:05:10.000Z</time>
      </trkpt>
      <trkpt lat="47.29774" lon="4.92658">
        <ele>649.3</ele>
        <time>2013-02-02T08:05:11.000Z</time>
      </trkpt>
      <trkpt lat="47.29772" lon="4.92655">
        <ele>650.2</ele>
        <time>2013-02-02T08:05:13.000Z</time>
      </trkpt>
      <trkpt lat="47.29771" lon="4.92653">
        <ele>650.3</ele>
        <time>2013-02-02T08:05:14.000Z</time>
      </trkpt>
      <trkpt lat="47.29768" lon="4.92648">
        <ele>650.3</ele>
        <time>2013-02-02T08:05:17.000Z</time>
      </trkpt>
      <trkpt lat="47.29767" lon="4.92647">
        <ele>650.5</ele>
        <time>2013-02-02T08:05:18.000Z</time>
      </trkpt>
      <trkpt lat="47.29764" lon="4.92644">
        <ele>650.1</ele>
        <time>2013-02-02T08:05:20.000Z</time>
      </trkpt>
      <trkpt lat="47.29763" lon="4.92643">
        <ele>650.1</ele>
        <time>2013-02-02T08:05:21.000Z</time>
      </trkpt>
      <trkpt lat="47.29761" lon="4.92639">
        <ele>649.3</ele>
        <time>2013-02-02T08:05:23.000Z</time>
      </trkpt>
      <trkpt lat="47.2976" lon="4.92638">
        <ele>648.9</ele>
        <time>2013-02-02T08:05:24.000Z</time>
      </trkpt>
      <trkpt lat="47.29757" lon="4.92634">
        <ele>648.3</ele>
        <time>2013-02-02T08:05:26.000Z</time>
      </trkpt>
      <trkpt lat="47.29755" lon="4.92633">
        <ele>648.2</ele>
        <time>2013-02-02T08:05:27.000Z</time>
      </trkpt>
      <trkpt lat="47.29753" lon="4.9263">
        <ele>647.8</ele>
        <time>2013-02-02T08:05:29.000Z</time>
      </trkpt>
      <trkpt lat="47.29752" lon="4.92628">
        <ele>647.7</ele>
        <time>2013-02-02T08:05:30.000Z</time>
      </trkpt>
      <trkpt lat="47.29749" lon="4.92624">
        <ele>647.9</ele>
        <time>2013-02-02T08:05:33.000Z</time>
      </trkpt>
      <trkpt lat="47.29748" lon="4.92622">
        <ele>648</ele>
        <time>2013-02-02T08:05:34.000Z</time>
      </trkpt>
      <trkpt lat="47.29744" lon="4.92618">
        <ele>648.2</ele>
        <time>2013-02-02T08:05:37.000Z</time>
      </trkpt>
      <trkpt lat="47.29743" lon="4.92616">
        <ele>648.4</ele>
        <time>2013-02-02T08:05:38.000Z</time>
      </trkpt>
      <trkpt lat="47.29741" lon="4.92612">
        <ele>648.5</ele>
        <time>2013-02-02T08:05:41.000Z</time>
      </trkpt>
      <trkpt lat="47.2974" lon="4.9261">
        <ele>648.3</ele>
        <time>2013-02-02T08:05:42.000Z</time>
      </trkpt>
      <trkpt lat="47.29736" lon="4.92606">
        <ele>648.3</ele>
        <time>2013-02-02T08:05:45.000Z</time>
      </trkpt>
      <trkpt lat="47.29735" lon="4.92605">
        <ele>648.3</ele>
        <time>2013-02-02T08:05:46.000Z</time>
      </trkpt>
      <trkpt lat="47.29732" lon="4.926">
        <ele>648.4</ele>
        <time>2013-02-02T08:05:49.000Z</time>
      </trkpt>
      <trkpt lat="47.29732" lon="4.92599">
        <ele>648.4</ele>
        <time>2013-02-02T08:05:50.000Z</time>
      </trkpt>
      <trkpt lat="47.29728" lon="4.92595">
        <ele>648.8</ele>
        <time>2013-02-02T08:05:53.000Z</time>
      </trkpt>
      <trkpt lat="47.29727" lon="4.92593">
        <ele>649</ele>
        <time>2013-02-02T08:05:54.000Z</time>
      </trkpt>
      <trkpt lat="47.29723" lon="4.9259">
        <ele>649.8</ele>
        <time>2013-02-02T08:05:57.000Z</time>
      </trkpt>
      <trkpt lat="47.29722" lon="4.92589">
        <ele>649.9</ele>
        <time>2013-02-02T08:05:58.000Z</time>
      </trkpt>
      <trkpt lat="47.29719" lon="4.92586">
        <ele>649.5</ele>
        <time>2013-02-02T08:06:00.000Z</time>
      </trkpt>
      <trkpt lat="47.29717" lon="4.92585">
        <ele>649.4</ele>
        <time>2013-02-02T08:06:01.000Z</time>
      </trkpt>
      <trkpt lat="47.29714" lon="4.92582">
        <ele>649.2</ele>
        <time>2013-02-02T08:06:03.000Z</time>
      </trkpt>
      <trkpt lat="47.29713" lon="4.92581">
        <ele>649</ele>
        <time>2013-02-02T08:06:04.000Z</time>
      </trkpt>
      <trkpt lat="47.2971" lon="4.9258">
        <ele>648.9</ele>
        <time>2013-02-02T08:06:06.000Z</time>
      </trkpt>
      <trkpt lat="47.29708" lon="4.92579">
        <ele>648.9</ele>
        <time>2013-02-02T08:06:07.000Z</time>
      </trkpt>
      <trkpt lat="47.29705" lon="4.92578">
        <ele>648.8</ele>
        <time>2013-02-02T08:06:09.000Z</time>
      </trkpt>
      <trkpt lat="47.29704" lon="4.92577">
        <ele>648.8</ele>
        <time>2013-02-02T08:06:10.000Z</time>
      </trkpt>
      <trkpt lat="47.297" lon="4.92576">
        <ele>648.8</ele>
        <time>2013-02-02T08:06:12.000Z</time>
      </trkpt>
      <trkpt lat="47.29699" lon="4.92576">
        <ele>648.8</ele>
        <time>2013-02-02T08:06:13.000Z</time>
      </trkpt>
      <trkpt lat="47.29695" lon="4.92574">
        <ele>649</ele>
        <time>2013-02-02T08:06:16.000Z</time>
      </trkpt>
      <trkpt lat="47.29693" lon="4.92574">
        <ele>649</ele>
        <time>2013-02-02T08:06:17.000Z</time>
      </trkpt>
      <trkpt lat="47.29689" lon="4.92572">
        <ele>649.2</ele>
        <time>2013-02-02T08:06:20.000Z</time>
      </trkpt>
      <trkpt lat="47.29688" lon="4.92572">
        <ele>649.2</ele>
        <time>2013-02-02T08:06:21.000Z</time>
      </trkpt>
      <trkpt lat="47.29684" lon="4.92571">
        <ele>649.3</ele>
        <time>2013-02-02T08:06:24.000Z</time>
      </trkpt>
      <trkpt lat="47.29683" lon="4.92571">
        <ele>649.4</ele>
        <time>2013-02-02T08:06:25.000Z</time>
      </trkpt>
      <trkpt lat="47.29678" lon="4.92571">
        <ele>649.2</ele>
        <time>2013-02-02T08:06:28.000Z</time>
      </trkpt>
      <trkpt lat="47.29677" lon="4.92571">
        <ele>649.3</ele>
        <time>2013-02-02T08:06:29.000Z</time>
      </trkpt>
      <trkpt lat="47.29673" lon="4.92571">
        <ele>649.3</ele>
        <time>2013-02-02T08:06:32.000Z</time>
      </trkpt>
      <trkpt lat="47.29672" lon="4.9257">
        <ele>649.3</ele>
        <time>2013-02-02T08:06:33.000Z</time>
      </trkpt>
      <trkpt lat="47.29668" lon="4.9257">
        <ele>649.1</ele>
        <time>2013-02-02T08:06:36.000Z</time>
      </trkpt>
      <trkpt lat="47.29667" lon="4.9257">
        <ele>649.1</ele>
        <time>2013-02-02T08:06:37.000Z</time>
      </trkpt>
      <trkpt lat="47.29663" lon="4.9257">
        <ele>649.1</ele>
        <time>2013-02-02T08:06:40.000Z</time>
      </trkpt>
      <trkpt lat="47.29661" lon="4.9257">
        <ele>648.9</ele>
        <time>2013-02-02T08:06:41.000Z</time>
      </trkpt>
      <trkpt lat="47.29658" lon="4.9257">
        <ele>648.9</ele>
        <time>2013-02-02T08:06:43.000Z</time>
      </trkpt>
      <trkpt lat="47.29656" lon="4.92569">
        <ele>648.8</ele>
        <time>2013-02-02T08:06:44.000Z</time>
      </trkpt>
      <trkpt lat="47.29653" lon="4.92569">
        <ele>648.6</ele>
        <time>2013-02-02T08:06:46.000Z</time>
      </trkpt>
      <trkpt lat="47.29652" lon="4.92569">
        <ele>648.7</ele>
        <time>2013-02-02T08:06:47.000Z</time>
      </trkpt>
      <trkpt lat="47.29649" lon="4.92568">
        <ele>648.6</ele>
        <time>2013-02-02T08:06:49.000Z</time>
      </trkpt>
      <trkpt lat="47.29647" lon="4.92568">
        <ele>648.5</ele>
        <time>2013-02-02T08:06:50.000Z</time>
      </trkpt>
      <trkpt lat="47.29636" lon="4.92563">
        <ele>643.8</ele>
        <time>2013-02-02T08:06:57.000Z</time>
      </trkpt>
      <trkpt lat="47.29632" lon="4.92562">
        <ele>643.8</ele>
        <time>2013-02-02T08:06:59.000Z</time>
      </trkpt>
      <trkpt lat="47.2963" lon="4.92562">
        <ele>644</ele>
        <time>2013-02-02T08:07:00.000Z</time>
      </trkpt>
      <trkpt lat="47.29626" lon="4.92562">
        <ele>644.4</ele>
        <time>2013-02-02T08:07:03.000Z</time>
      </trkpt>
      <trkpt lat="47.29625" lon="4.92562">
        <ele>644.7</ele>
        <time>2013-02-02T08:07:04.000Z</time>
      </trkpt>
      <trkpt lat="47.2962" lon="4.92562">
        <ele>645.8</ele>
        <time>2013-02-02T08:07:07.000Z</time>
      </trkpt>
      <trkpt lat="47.29619" lon="4.92562">
        <ele>646</ele>
        <time>2013-02-02T08:07:08.000Z</time>
      </trkpt>
      <trkpt lat="47.29616" lon="4.92561">
        <ele>646.2</ele>
        <time>2013-02-02T08:07:10.000Z</time>
      </trkpt>
      <trkpt lat="47.29614" lon="4.92561">
        <ele>646.5</ele>
        <time>2013-02-02T08:07:11.000Z</time>
      </trkpt>
      <trkpt lat="47.29611" lon="4.92561">
        <ele>647.1</ele>
        <time>2013-02-02T08:07:13.000Z</time>
      </trkpt>
      <trkpt lat="47.2961" lon="4.92561">
        <ele>647.2</ele>
        <time>2013-02-02T08:07:14.000Z</time>
      </trkpt>
      <trkpt lat="47.29606" lon="4.92561">
        <ele>646.9</ele>
        <time>2013-02-02T08:07:16.000Z</time>
      </trkpt>
      <trkpt lat="47.29604" lon="4.92562">
        <ele>646.8</ele>
        <time>2013-02-02T08:07:17.000Z</time>
      </trkpt>
      <trkpt lat="47.29601" lon="4.92562">
        <ele>646.7</ele>
        <time>2013-02-02T08:07:19.000Z</time>
      </trkpt>
      <trkpt lat="47.296" lon="4.92562">
        <ele>647</ele>
        <time>2013-02-02T08:07:20.000Z</time>
      </trkpt>
      <trkpt lat="47.29596" lon="4.92564">
        <ele>647.2</ele>
        <time>2013-02-02T08:07:23.000Z</time>
      </trkpt>
      <trkpt lat="47.29594" lon="4.92565">
        <ele>647.2</ele>
        <time>2013-02-02T08:07:24.000Z</time>
      </trkpt>
      <trkpt lat="47.29591" lon="4.92566">
        <ele>647.2</ele>
        <time>2013-02-02T08:07:26.000Z</time>
      </trkpt>
      <trkpt lat="47.2959" lon="4.92567">
        <ele>647.1</ele>
        <time>2013-02-02T08:07:27.000Z</time>
      </trkpt>
      <trkpt lat="47.29586" lon="4.92569">
        <ele>647.6</ele>
        <time>2013-02-02T08:07:30.000Z</time>
      </trkpt>
      <trkpt lat="47.29585" lon="4.92569">
        <ele>647.6</ele>
        <time>2013-02-02T08:07:31.000Z</time>
      </trkpt>
      <trkpt lat="47.29581" lon="4.92572">
        <ele>647.6</ele>
        <time>2013-02-02T08:07:34.000Z</time>
      </trkpt>
      <trkpt lat="47.29579" lon="4.92573">
        <ele>647.5</ele>
        <time>2013-02-02T08:07:35.000Z</time>
      </trkpt>
      <trkpt lat="47.29576" lon="4.92575">
        <ele>647.4</ele>
        <time>2013-02-02T08:07:37.000Z</time>
      </trkpt>
      <trkpt lat="47.29575" lon="4.92576">
        <ele>647.6</ele>
        <time>2013-02-02T08:07:38.000Z</time>
      </trkpt>
      <trkpt lat="47.29571" lon="4.92578">
        <ele>648</ele>
        <time>2013-02-02T08:07:41.000Z</time>
      </trkpt>
      <trkpt lat="47.2957" lon="4.92579">
        <ele>648.3</ele>
        <time>2013-02-02T08:07:42.000Z</time>
      </trkpt>
      <trkpt lat="47.29566" lon="4.9258">
        <ele>648.4</ele>
        <time>2013-02-02T08:07:45.000Z</time>
      </trkpt>
      <trkpt lat="47.29564" lon="4.9258">
        <ele>648.4</ele>
        <time>2013-02-02T08:07:46.000Z</time>
      </trkpt>
      <trkpt lat="47.2956" lon="4.92581">
        <ele>648.7</ele>
        <time>2013-02-02T08:07:49.000Z</time>
      </trkpt>
      <trkpt lat="47.29558" lon="4.92581">
        <ele>648.7</ele>
        <time>2013-02-02T08:07:50.000Z</time>
      </trkpt>
      <trkpt lat="47.29555" lon="4.92581">
        <ele>648.3</ele>
        <time>2013-02-02T08:07:52.000Z</time>
      </trkpt>
      <trkpt lat="47.29553" lon="4.92581">
        <ele>648.2</ele>
        <time>2013-02-02T08:07:53.000Z</time>
      </trkpt>
      <trkpt lat="47.2955" lon="4.92581">
        <ele>648.3</ele>
        <time>2013-02-02T08:07:55.000Z</time>
      </trkpt>
      <trkpt lat="47.29549" lon="4.92581">
        <ele>648.4</ele>
        <time>2013-02-02T08:07:56.000Z</time>
      </trkpt>
      <trkpt lat="47.29544" lon="4.9258">
        <ele>648.6</ele>
        <time>2013-02-02T08:07:59.000Z</time>
      </trkpt>
      <trkpt lat="47.29543" lon="4.9258">
        <ele>648.7</ele>
        <time>2013-02-02T08:08:00.000Z</time>
      </trkpt>
      <trkpt lat="47.29539" lon="4.9258">
        <ele>648.9</ele>
        <time>2013-02-02T08:08:03.000Z</time>
      </trkpt>
      <trkpt lat="47.29537" lon="4.92581">
        <ele>649</ele>
        <time>2013-02-02T08:08:04.000Z</time>
      </trkpt>
      <trkpt lat="47.29533" lon="4.92581">
        <ele>649.4</ele>
        <time>2013-02-02T08:08:07.000Z</time>
      </trkpt>
      <trkpt lat="47.29532" lon="4.9258">
        <ele>649.5</ele>
        <time>2013-02-02T08:08:08.000Z</time>
      </trkpt>
      <trkpt lat="47.29527" lon="4.9258">
        <ele>649.7</ele>
        <time>2013-02-02T08:08:11.000Z</time>
      </trkpt>
      <trkpt lat="47.29526" lon="4.9258">
        <ele>649.7</ele>
        <time>2013-02-02T08:08:12.000Z</time>
      </trkpt>
      <trkpt lat="47.29522" lon="4.9258">
        <ele>649.7</ele>
        <time>2013-02-02T08:08:15.000Z</time>
      </trkpt>
      <trkpt lat="47.2952" lon="4.92579">
        <ele>649.7</ele>
        <time>2013-02-02T08:08:16.000Z</time>
      </trkpt>
      <trkpt lat="47.29517" lon="4.92579">
        <ele>649.8</ele>
        <time>2013-02-02T08:08:18.000Z</time>
      </trkpt>
      <trkpt lat="47.29516" lon="4.92579">
        <ele>649.9</ele>
        <time>2013-02-02T08:08:19.000Z</time>
      </trkpt>
      <trkpt lat="47.29511" lon="4.92578">
        <ele>649.9</ele>
        <time>2013-02-02T08:08:22.000Z</time>
      </trkpt>
      <trkpt lat="47.2951" lon="4.92578">
        <ele>649.8</ele>
        <time>2013-02-02T08:08:23.000Z</time>
      </trkpt>
      <trkpt lat="47.29506" lon="4.92578">
        <ele>649.7</ele>
        <time>2013-02-02T08:08:26.000Z</time>
      </trkpt>
      <trkpt lat="47.29504" lon="4.92578">
        <ele>649.8</ele>
        <time>2013-02-02T08:08:27.000Z</time>
      </trkpt>
      <trkpt lat="47.295" lon="4.92577">
        <ele>650.1</ele>
        <time>2013-02-02T08:08:30.000Z</time>
      </trkpt>
      <trkpt lat="47.29498" lon="4.92576">
        <ele>650.1</ele>
        <time>2013-02-02T08:08:31.000Z</time>
      </trkpt>
      <trkpt lat="47.29495" lon="4.92575">
        <ele>650.2</ele>
        <time>2013-02-02T08:08:33.000Z</time>
      </trkpt>
      <trkpt lat="47.29494" lon="4.92575">
        <ele>650.2</ele>
        <time>2013-02-02T08:08:34.000Z</time>
      </trkpt>
      <trkpt lat="47.29489" lon="4.92573">
        <ele>650.2</ele>
        <time>2013-02-02T08:08:37.000Z</time>
      </trkpt>
      <trkpt lat="47.29488" lon="4.92573">
        <ele>650.1</ele>
        <time>2013-02-02T08:08:38.000Z</time>
      </trkpt>
      <trkpt lat="47.29485" lon="4.92572">
        <ele>650.2</ele>
        <time>2013-02-02T08:08:40.000Z</time>
      </trkpt>
      <trkpt lat="47.29483" lon="4.92571">
        <ele>650.2</ele>
        <time>2013-02-02T08:08:41.000Z</time>
      </trkpt>
      <trkpt lat="47.29479" lon="4.9257">
        <ele>650.1</ele>
        <time>2013-02-02T08:08:44.000Z</time>
      </trkpt>
      <trkpt lat="47.29477" lon="4.92569">
        <ele>650.1</ele>
        <time>2013-02-02T08:08:45.000Z</time>
      </trkpt>
      <trkpt lat="47.29473" lon="4.92567">
        <ele>650.2</ele>
        <time>2013-02-02T08:08:48.000Z</time>
      </trkpt>
      <trkpt lat="47.29472" lon="4.92566">
        <ele>650.1</ele>
        <time>2013-02-02T08:08:49.000Z</time>
      </trkpt>
      <trkpt lat="47.2947" lon="4.92565">
        <ele>650.1</ele>
        <time>2013-02-02T08:08:50.000Z</time>
      </trkpt>
      <trkpt lat="47.29459" lon="4.92559">
        <ele>649.6</ele>
        <time>2013-02-02T08:08:57.000Z</time>
      </trkpt>
      <trkpt lat="47.29456" lon="4.92557">
        <ele>649.7</ele>
        <time>2013-02-02T08:08:59.000Z</time>
      </trkpt>
      <trkpt lat="47.29455" lon="4.92556">
        <ele>649.7</ele>
        <time>2013-02-02T08:09:00.000Z</time>
      </trkpt>
      <trkpt lat="47.29451" lon="4.92554">
        <ele>648.9</ele>
        <time>2013-02-02T08:09:03.000Z</time>
      </trkpt>
      <trkpt lat="47.29449" lon="4.92554">
        <ele>648.8</ele>
        <time>2013-02-02T08:09:04.000Z</time>
      </trkpt>
      <trkpt lat="47.29445" lon="4.92552">
        <ele>649.5</ele>
        <time>2013-02-02T08:09:07.000Z</time>
      </trkpt>
      <trkpt lat="47.29444" lon="4.92551">
        <ele>649.3</ele>
        <time>2013-02-02T08:09:08.000Z</time>
      </trkpt>
      <trkpt lat="47.2944" lon="4.92549">
        <ele>649.5</ele>
        <time>2013-02-02T08:09:11.000Z</time>
      </trkpt>
      <trkpt lat="47.29438" lon="4.92548">
        <ele>649.8</ele>
        <time>2013-02-02T08:09:12.000Z</time>
      </trkpt>
      <trkpt lat="47.29434" lon="4.92545">
        <ele>650.3</ele>
        <time>2013-02-02T08:09:15.000Z</time>
      </trkpt>
      <trkpt lat="47.29433" lon="4.92545">
        <ele>650.5</ele>
        <time>2013-02-02T08:09:16.000Z</time>
      </trkpt>
      <trkpt lat="47.29429" lon="4.92543">
        <ele>650.9</ele>
        <time>2013-02-02T08:09:19.000Z</time>
      </trkpt>
      <trkpt lat="47.29427" lon="4.92542">
        <ele>650.9</ele>
        <time>2013-02-02T08:09:20.000Z</time>
      </trkpt>
      <trkpt lat="47.29424" lon="4.92541">
        <ele>651</ele>
        <time>2013-02-02T08:09:22.000Z</time>
      </trkpt>
      <trkpt lat="47.29423" lon="4.9254">
        <ele>650.5</ele>
        <time>2013-02-02T08:09:23.000Z</time>
      </trkpt>
      <trkpt lat="47.2942" lon="4.92538">
        <ele>650.1</ele>
        <time>2013-02-02T08:09:25.000Z</time>
      </trkpt>
      <trkpt lat="47.29418" lon="4.92537">
        <ele>650</ele>
        <time>2013-02-02T08:09:26.000Z</time>
      </trkpt>
      <trkpt lat="47.29415" lon="4.92536">
        <ele>650.1</ele>
        <time>2013-02-02T08:09:28.000Z</time>
      </trkpt>
      <trkpt lat="47.29413" lon="4.92535">
        <ele>650.1</ele>
        <time>2013-02-02T08:09:29.000Z</time>
      </trkpt>
      <trkpt lat="47.2941" lon="4.92533">
        <ele>650.2</ele>
        <time>2013-02-02T08:09:31.000Z</time>
      </trkpt>
      <trkpt lat="47.29409" lon="4.92533">
        <ele>650.2</ele>
        <time>2013-02-02T08:09:32.000Z</time>
      </trkpt>
      <trkpt lat="47.29406" lon="4.92531">
        <ele>650.2</ele>
        <time>2013-02-02T08:09:34.000Z</time>
      </trkpt>
      <trkpt lat="47.29404" lon="4.9253">
        <ele>650</ele>
        <time>2013-02-02T08:09:35.000Z</time>
      </trkpt>
      <trkpt lat="47.29401" lon="4.92529">
        <ele>650</ele>
        <time>2013-02-02T08:09:37.000Z</time>
      </trkpt>
      <trkpt lat="47.294" lon="4.92528">
        <ele>650</ele>
        <time>2013-02-02T08:09:38.000Z</time>
      </trkpt>
      <trkpt lat="47.29397" lon="4.92527">
        <ele>649.8</ele>
        <time>2013-02-02T08:09:40.000Z</time>
      </trkpt>
      <trkpt lat="47.29395" lon="4.92526">
        <ele>649.7</ele>
        <time>2013-02-02T08:09:41.000Z</time>
      </trkpt>
      <trkpt lat="47.29392" lon="4.92525">
        <ele>649.6</ele>
        <time>2013-02-02T08:09:43.000Z</time>
      </trkpt>
      <trkpt lat="47.29391" lon="4.92524">
        <ele>649.5</ele>
        <time>2013-02-02T08:09:44.000Z</time>
      </trkpt>
      <trkpt lat="47.29388" lon="4.92521">
        <ele>649.4</ele>
        <time>2013-02-02T08:09:46.000Z</time>
      </trkpt>
      <trkpt lat="47.29387" lon="4.9252">
        <ele>649.3</ele>
        <time>2013-02-02T08:09:47.000Z</time>
      </trkpt>
      <trkpt lat="47.29384" lon="4.92518">
        <ele>649</ele>
        <time>2013-02-02T08:09:49.000Z</time>
      </trkpt>
      <trkpt lat="47.29383" lon="4.92517">
        <ele>648.9</ele>
        <time>2013-02-02T08:09:50.000Z</time>
      </trkpt>
      <trkpt lat="47.29373" lon="4.92507">
        <ele>647.9</ele>
        <time>2013-02-02T08:09:57.000Z</time>
      </trkpt>
      <trkpt lat="47.2937" lon="4.92503">
        <ele>649.1</ele>
        <time>2013-02-02T08:10:00.000Z</time>
      </trkpt>
      <trkpt lat="47.29369" lon="4.92502">
        <ele>649</ele>
        <time>2013-02-02T08:10:01.000Z</time>
      </trkpt>
      <trkpt lat="47.29366" lon="4.92499">
        <ele>648.3</ele>
        <time>2013-02-02T08:10:03.000Z</time>
      </trkpt>
      <trkpt lat="47.29365" lon="4.92498">
        <ele>648.3</ele>
        <time>2013-02-02T08:10:04.000Z</time>
      </trkpt>
      <trkpt lat="47.29362" lon="4.92494">
        <ele>648.1</ele>
        <time>2013-02-02T08:10:07.000Z</time>
      </trkpt>
      <trkpt lat="47.29361" lon="4.92492">
        <ele>648.4</ele>
        <time>2013-02-02T08:10:08.000Z</time>
      </trkpt>
      <trkpt lat="47.29357" lon="4.92489">
        <ele>649.7</ele>
        <time>2013-02-02T08:10:11.000Z</time>
      </trkpt>
      <trkpt lat="47.29356" lon="4.92488">
        <ele>650.3</ele>
        <time>2013-02-02T08:10:12.000Z</time>
      </trkpt>
      <trkpt lat="47.29353" lon="4.92483">
        <ele>650</ele>
        <time>2013-02-02T08:10:15.000Z</time>
      </trkpt>
      <trkpt lat="47.29352" lon="4.92482">
        <ele>650</ele>
        <time>2013-02-02T08:10:16.000Z</time>
      </trkpt>
      <trkpt lat="47.2935" lon="4.92479">
        <ele>650</ele>
        <time>2013-02-02T08:10:18.000Z</time>
      </trkpt>
      <trkpt lat="47.29349" lon="4.92477">
        <ele>649.8</ele>
        <time>2013-02-02T08:10:19.000Z</time>
      </trkpt>
      <trkpt lat="47.29346" lon="4.92474">
        <ele>649.6</ele>
        <time>2013-02-02T08:10:21.000Z</time>
      </trkpt>
      <trkpt lat="47.29345" lon="4.92472">
        <ele>649.6</ele>
        <time>2013-02-02T08:10:22.000Z</time>
      </trkpt>
      <trkpt lat="47.29342" lon="4.92469">
        <ele>649.5</ele>
        <time>2013-02-02T08:10:25.000Z</time>
      </trkpt>
      <trkpt lat="47.29341" lon="4.92468">
        <ele>649.5</ele>
        <time>2013-02-02T08:10:26.000Z</time>
      </trkpt>
      <trkpt lat="47.29339" lon="4.92465">
        <ele>649.7</ele>
        <time>2013-02-02T08:10:28.000Z</time>
      </trkpt>
      <trkpt lat="47.29337" lon="4.92464">
        <ele>649.8</ele>
        <time>2013-02-02T08:10:29.000Z</time>
      </trkpt>
      <trkpt lat="47.29334" lon="4.9246">
        <ele>650</ele>
        <time>2013-02-02T08:10:32.000Z</time>
      </trkpt>
      <trkpt lat="47.29333" lon="4.92459">
        <ele>649.9</ele>
        <time>2013-02-02T08:10:33.000Z</time>
      </trkpt>
      <trkpt lat="47.2933" lon="4.92457">
        <ele>649.9</ele>
        <time>2013-02-02T08:10:35.000Z</time>
      </trkpt>
      <trkpt lat="47.29329" lon="4.92456">
        <ele>649.9</ele>
        <time>2013-02-02T08:10:36.000Z</time>
      </trkpt>
      <trkpt lat="47.29326" lon="4.92453">
        <ele>650</ele>
        <time>2013-02-02T08:10:38.000Z</time>
      </trkpt>
      <trkpt lat="47.29325" lon="4.92452">
        <ele>649.9</ele>
        <time>2013-02-02T08:10:39.000Z</time>
      </trkpt>
      <trkpt lat="47.29322" lon="4.9245">
        <ele>649.7</ele>
        <time>2013-02-02T08:10:41.000Z</time>
      </trkpt>
      <trkpt lat="47.2932" lon="4.92449">
        <ele>649.7</ele>
        <time>2013-02-02T08:10:42.000Z</time>
      </trkpt>
      <trkpt lat="47.29318" lon="4.92447">
        <ele>649.7</ele>
        <time>2013-02-02T08:10:44.000Z</time>
      </trkpt>
      <trkpt lat="47.29316" lon="4.92446">
        <ele>649.6</ele>
        <time>2013-02-02T08:10:45.000Z</time>
      </trkpt>
      <trkpt lat="47.29314" lon="4.92443">
        <ele>649.5</ele>
        <time>2013-02-02T08:10:47.000Z</time>
      </trkpt>
      <trkpt lat="47.29312" lon="4.92442">
        <ele>649.5</ele>
        <time>2013-02-02T08:10:48.000Z</time>
      </trkpt>
      <trkpt lat="47.2931" lon="4.9244">
        <ele>649.6</ele>
        <time>2013-02-02T08:10:50.000Z</time>
      </trkpt>
      <trkpt lat="47.293" lon="4.92433">
        <ele>651.9</ele>
        <time>2013-02-02T08:10:57.000Z</time>
      </trkpt>
      <trkpt lat="47.29297" lon="4.9243">
        <ele>651.3</ele>
        <time>2013-02-02T08:10:59.000Z</time>
      </trkpt>
      <trkpt lat="47.29296" lon="4.92428">
        <ele>651.3</ele>
        <time>2013-02-02T08:11:00.000Z</time>
      </trkpt>
      <trkpt lat="47.29293" lon="4.92425">
        <ele>651.2</ele>
        <time>2013-02-02T08:11:02.000Z</time>
      </trkpt>
      <trkpt lat="47.29292" lon="4.92424">
        <ele>650.8</ele>
        <time>2013-02-02T08:11:03.000Z</time>
      </trkpt>
      <trkpt lat="47.29289" lon="4.92421">
        <ele>650.3</ele>
        <time>2013-02-02T08:11:05.000Z</time>
      </trkpt>
      <trkpt lat="47.29287" lon="4.9242">
        <ele>649.8</ele>
        <time>2013-02-02T08:11:06.000Z</time>
      </trkpt>
      <trkpt lat="47.29285" lon="4.92418">
        <ele>649.4</ele>
        <time>2013-02-02T08:11:08.000Z</time>
      </trkpt>
      <trkpt lat="47.29283" lon="4.92417">
        <ele>649.3</ele>
        <time>2013-02-02T08:11:09.000Z</time>
      </trkpt>
      <trkpt lat="47.29279" lon="4.92413">
        <ele>649.3</ele>
        <time>2013-02-02T08:11:12.000Z</time>
      </trkpt>
      <trkpt lat="47.29278" lon="4.92412">
        <ele>649.3</ele>
        <time>2013-02-02T08:11:13.000Z</time>
      </trkpt>
      <trkpt lat="47.29275" lon="4.9241">
        <ele>649</ele>
        <time>2013-02-02T08:11:15.000Z</time>
      </trkpt>
      <trkpt lat="47.29274" lon="4.92409">
        <ele>648.8</ele>
        <time>2013-02-02T08:11:16.000Z</time>
      </trkpt>
      <trkpt lat="47.2927" lon="4.92405">
        <ele>648.9</ele>
        <time>2013-02-02T08:11:19.000Z</time>
      </trkpt>
      <trkpt lat="47.29269" lon="4.92404">
        <ele>649.1</ele>
        <time>2013-02-02T08:11:20.000Z</time>
      </trkpt>
      <trkpt lat="47.29266" lon="4.92402">
        <ele>649.4</ele>
        <time>2013-02-02T08:11:22.000Z</time>
      </trkpt>
      <trkpt lat="47.29264" lon="4.924">
        <ele>649.3</ele>
        <time>2013-02-02T08:11:23.000Z</time>
      </trkpt>
      <trkpt lat="47.29262" lon="4.92398">
        <ele>649.5</ele>
        <time>2013-02-02T08:11:25.000Z</time>
      </trkpt>
      <trkpt lat="47.29261" lon="4.92397">
        <ele>649.6</ele>
        <time>2013-02-02T08:11:26.000Z</time>
      </trkpt>
      <trkpt lat="47.29258" lon="4.92394">
        <ele>649.4</ele>
        <time>2013-02-02T08:11:28.000Z</time>
      </trkpt>
      <trkpt lat="47.29257" lon="4.92393">
        <ele>649.3</ele>
        <time>2013-02-02T08:11:29.000Z</time>
      </trkpt>
      <trkpt lat="47.29253" lon="4.9239">
        <ele>648.9</ele>
        <time>2013-02-02T08:11:32.000Z</time>
      </trkpt>
      <trkpt lat="47.29251" lon="4.92388">
        <ele>648.9</ele>
        <time>2013-02-02T08:11:33.000Z</time>
      </trkpt>
      <trkpt lat="47.29248" lon="4.92385">
        <ele>649</ele>
        <time>2013-02-02T08:11:36.000Z</time>
      </trkpt>
      <trkpt lat="47.29247" lon="4.92384">
        <ele>648.9</ele>
        <time>2013-02-02T08:11:37.000Z</time>
      </trkpt>
      <trkpt lat="47.29243" lon="4.9238">
        <ele>649</ele>
        <time>2013-02-02T08:11:40.000Z</time>
      </trkpt>
      <trkpt lat="47.29242" lon="4.92379">
        <ele>649.1</ele>
        <time>2013-02-02T08:11:41.000Z</time>
      </trkpt>
      <trkpt lat="47.29238" lon="4.92376">
        <ele>649.3</ele>
        <time>2013-02-02T08:11:44.000Z</time>
      </trkpt>
      <trkpt lat="47.29237" lon="4.92375">
        <ele>649.2</ele>
        <time>2013-02-02T08:11:45.000Z</time>
      </trkpt>
      <trkpt lat="47.29234" lon="4.92373">
        <ele>649.1</ele>
        <time>2013-02-02T08:11:47.000Z</time>
      </trkpt>
      <trkpt lat="47.29233" lon="4.92371">
        <ele>649.2</ele>
        <time>2013-02-02T08:11:48.000Z</time>
      </trkpt>
      <trkpt lat="47.2923" lon="4.92369">
        <ele>649.1</ele>
        <time>2013-02-02T08:11:50.000Z</time>
      </trkpt>
      <trkpt lat="47.2922" lon="4.92361">
        <ele>647</ele>
        <time>2013-02-02T08:11:57.000Z</time>
      </trkpt>
      <trkpt lat="47.29217" lon="4.92358">
        <ele>646.5</ele>
        <time>2013-02-02T08:11:59.000Z</time>
      </trkpt>
      <trkpt lat="47.29216" lon="4.92357">
        <ele>646</ele>
        <time>2013-02-02T08:12:00.000Z</time>
      </trkpt>
      <trkpt lat="47.29212" lon="4.92353">
        <ele>646.5</ele>
        <time>2013-02-02T08:12:03.000Z</time>
      </trkpt>
      <trkpt lat="47.29211" lon="4.92353">
        <ele>646.9</ele>
        <time>2013-02-02T08:12:04.000Z</time>
      </trkpt>
      <trkpt lat="47.29207" lon="4.92351">
        <ele>647.9</ele>
        <time>2013-02-02T08:12:07.000Z</time>
      </trkpt>
      <trkpt lat="47.29206" lon="4.9235">
        <ele>648.5</ele>
        <time>2013-02-02T08:12:08.000Z</time>
      </trkpt>
      <trkpt lat="47.29201" lon="4.92348">
        <ele>649.3</ele>
        <time>2013-02-02T08:12:11.000Z</time>
      </trkpt>
      <trkpt lat="47.292" lon="4.92347">
        <ele>649.5</ele>
        <time>2013-02-02T08:12:12.000Z</time>
      </trkpt>
      <trkpt lat="47.29196" lon="4.92346">
        <ele>649.8</ele>
        <time>2013-02-02T08:12:15.000Z</time>
      </trkpt>
      <trkpt lat="47.29194" lon="4.92345">
        <ele>649.9</ele>
        <time>2013-02-02T08:12:16.000Z</time>
      </trkpt>
      <trkpt lat="47.2919" lon="4.92344">
        <ele>649.9</ele>
        <time>2013-02-02T08:12:19.000Z</time>
      </trkpt>
      <trkpt lat="47.29188" lon="4.92343">
        <ele>649.8</ele>
        <time>2013-02-02T08:12:20.000Z</time>
      </trkpt>
      <trkpt lat="47.29185" lon="4.92343">
        <ele>649.7</ele>
        <time>2013-02-02T08:12:22.000Z</time>
      </trkpt>
      <trkpt lat="47.29184" lon="4.92342">
        <ele>649.6</ele>
        <time>2013-02-02T08:12:23.000Z</time>
      </trkpt>
      <trkpt lat="47.29179" lon="4.92342">
        <ele>650</ele>
        <time>2013-02-02T08:12:26.000Z</time>
      </trkpt>
      <trkpt lat="47.29178" lon="4.92342">
        <ele>650</ele>
        <time>2013-02-02T08:12:27.000Z</time>
      </trkpt>
      <trkpt lat="47.29175" lon="4.92341">
        <ele>650</ele>
        <time>2013-02-02T08:12:29.000Z</time>
      </trkpt>
      <trkpt lat="47.29173" lon="4.92341">
        <ele>650.1</ele>
        <time>2013-02-02T08:12:30.000Z</time>
      </trkpt>
      <trkpt lat="47.29169" lon="4.9234">
        <ele>650.2</ele>
        <time>2013-02-02T08:12:33.000Z</time>
      </trkpt>
      <trkpt lat="47.29167" lon="4.9234">
        <ele>650.1</ele>
        <time>2013-02-02T08:12:34.000Z</time>
      </trkpt>
      <trkpt lat="47.29163" lon="4.9234">
        <ele>650.1</ele>
        <time>2013-02-02T08:12:37.000Z</time>
      </trkpt>
      <trkpt lat="47.29162" lon="4.9234">
        <ele>650</ele>
        <time>2013-02-02T08:12:38.000Z</time>
      </trkpt>
      <trkpt lat="47.29157" lon="4.92339">
        <ele>650.1</ele>
        <time>2013-02-02T08:12:41.000Z</time>
      </trkpt>
      <trkpt lat="47.29156" lon="4.92339">
        <ele>650.1</ele>
        <time>2013-02-02T08:12:42.000Z</time>
      </trkpt>
      <trkpt lat="47.29152" lon="4.92339">
        <ele>650</ele>
        <time>2013-02-02T08:12:44.000Z</time>
      </trkpt>
      <trkpt lat="47.29151" lon="4.92339">
        <ele>650</ele>
        <time>2013-02-02T08:12:45.000Z</time>
      </trkpt>
      <trkpt lat="47.29148" lon="4.9234">
        <ele>649.9</ele>
        <time>2013-02-02T08:12:47.000Z</time>
      </trkpt>
      <trkpt lat="47.29146" lon="4.9234">
        <ele>649.9</ele>
        <time>2013-02-02T08:12:48.000Z</time>
      </trkpt>
      <trkpt lat="47.29143" lon="4.92341">
        <ele>650</ele>
        <time>2013-02-02T08:12:50.000Z</time>
      </trkpt>
      <trkpt lat="47.29131" lon="4.92337">
        <ele>646.8</ele>
        <time>2013-02-02T08:12:57.000Z</time>
      </trkpt>
      <trkpt lat="47.29128" lon="4.92337">
        <ele>648.9</ele>
        <time>2013-02-02T08:12:59.000Z</time>
      </trkpt>
      <trkpt lat="47.29127" lon="4.92338">
        <ele>648.5</ele>
        <time>2013-02-02T08:13:00.000Z</time>
      </trkpt>
      <trkpt lat="47.29122" lon="4.92338">
        <ele>649.3</ele>
        <time>2013-02-02T08:13:03.000Z</time>
      </trkpt>
      <trkpt lat="47.29121" lon="4.92338">
        <ele>649.4</ele>
        <time>2013-02-02T08:13:04.000Z</time>
      </trkpt>
      <trkpt lat="47.29117" lon="4.92337">
        <ele>648.9</ele>
        <time>2013-02-02T08:13:07.000Z</time>
      </trkpt>
      <trkpt lat="47.29115" lon="4.92337">
        <ele>648.9</ele>
        <time>2013-02-02T08:13:08.000Z</time>
      </trkpt>
      <trkpt lat="47.29111" lon="4.92336">
        <ele>648.7</ele>
        <time>2013-02-02T08:13:11.000Z</time>
      </trkpt>
      <trkpt lat="47.29109" lon="4.92336">
        <ele>648.6</ele>
        <time>2013-02-02T08:13:12.000Z</time>
      </trkpt>
      <trkpt lat="47.29106" lon="4.92335">
        <ele>648.4</ele>
        <time>2013-02-02T08:13:14.000Z</time>
      </trkpt>
      <trkpt lat="47.29105" lon="4.92334">
        <ele>648.2</ele>
        <time>2013-02-02T08:13:15.000Z</time>
      </trkpt>
      <trkpt lat="47.29101" lon="4.92334">
        <ele>647.9</ele>
        <time>2013-02-02T08:13:17.000Z</time>
      </trkpt>
      <trkpt lat="47.291" lon="4.92333">
        <ele>648</ele>
        <time>2013-02-02T08:13:18.000Z</time>
      </trkpt>
      <trkpt lat="47.29097" lon="4.92332">
        <ele>648.1</ele>
        <time>2013-02-02T08:13:20.000Z</time>
      </trkpt>
      <trkpt lat="47.29095" lon="4.92332">
        <ele>648.1</ele>
        <time>2013-02-02T08:13:21.000Z</time>
      </trkpt>
      <trkpt lat="47.29092" lon="4.92331">
        <ele>648.1</ele>
        <time>2013-02-02T08:13:23.000Z</time>
      </trkpt>
      <trkpt lat="47.29091" lon="4.9233">
        <ele>648</ele>
        <time>2013-02-02T08:13:24.000Z</time>
      </trkpt>
      <trkpt lat="47.29087" lon="4.92329">
        <ele>648</ele>
        <time>2013-02-02T08:13:26.000Z</time>
      </trkpt>
      <trkpt lat="47.29086" lon="4.92329">
        <ele>648</ele>
        <time>2013-02-02T08:13:27.000Z</time>
      </trkpt>
      <trkpt lat="47.29083" lon="4.92328">
        <ele>648</ele>
        <time>2013-02-02T08:13:29.000Z</time>
      </trkpt>
      <trkpt lat="47.29082" lon="4.92328">
        <ele>648</ele>
        <time>2013-02-02T08:13:30.000Z</time>
      </trkpt>
      <trkpt lat="47.29078" lon="4.92327">
        <ele>648</ele>
        <time>2013-02-02T08:13:32.000Z</time>
      </trkpt>
      <trkpt lat="47.29077" lon="4.92327">
        <ele>648</ele>
        <time>2013-02-02T08:13:33.000Z</time>
      </trkpt>
      <trkpt lat="47.29073" lon="4.92325">
        <ele>648.4</ele>
        <time>2013-02-02T08:13:36.000Z</time>
      </trkpt>
      <trkpt lat="47.29071" lon="4.92325">
        <ele>648.5</ele>
        <time>2013-02-02T08:13:37.000Z</time>
      </trkpt>
      <trkpt lat="47.29068" lon="4.92324">
        <ele>648.3</ele>
        <time>2013-02-02T08:13:39.000Z</time>
      </trkpt>
      <trkpt lat="47.29067" lon="4.92323">
        <ele>648.3</ele>
        <time>2013-02-02T08:13:40.000Z</time>
      </trkpt>
      <trkpt lat="47.29064" lon="4.92322">
        <ele>648.5</ele>
        <time>2013-02-02T08:13:42.000Z</time>
      </trkpt>
      <trkpt lat="47.29062" lon="4.92322">
        <ele>648.6</ele>
        <time>2013-02-02T08:13:43.000Z</time>
      </trkpt>
      <trkpt lat="47.29059" lon="4.92321">
        <ele>648.5</ele>
        <time>2013-02-02T08:13:45.000Z</time>
      </trkpt>
      <trkpt lat="47.29057" lon="4.9232">
        <ele>648.5</ele>
        <time>2013-02-02T08:13:46.000Z</time>
      </trkpt>
      <trkpt lat="47.29054" lon="4.92319">
        <ele>648.7</ele>
        <time>2013-02-02T08:13:48.000Z</time>
      </trkpt>
      <trkpt lat="47.29053" lon="4.92318">
        <ele>648.7</ele>
        <time>2013-02-02T08:13:49.000Z</time>
      </trkpt>
      <trkpt lat="47.29051" lon="4.92318">
        <ele>648.7</ele>
        <time>2013-02-02T08:13:50.000Z</time>
      </trkpt>
      <trkpt lat="47.2904" lon="4.92313">
        <ele>650.9</ele>
        <time>2013-02-02T08:13:57.000Z</time>
      </trkpt>
      <trkpt lat="47.29037" lon="4.92311">
        <ele>649.1</ele>
        <time>2013-02-02T08:13:59.000Z</time>
      </trkpt>
      <trkpt lat="47.29035" lon="4.92311">
        <ele>648.5</ele>
        <time>2013-02-02T08:14:00.000Z</time>
      </trkpt>
      <trkpt lat="47.29032" lon="4.9231">
        <ele>649.1</ele>
        <time>2013-02-02T08:14:02.000Z</time>
      </trkpt>
      <trkpt lat="47.29031" lon="4.9231">
        <ele>649.2</ele>
        <time>2013-02-02T08:14:03.000Z</time>
      </trkpt>
      <trkpt lat="47.29028" lon="4.92308">
        <ele>647.9</ele>
        <time>2013-02-02T08:14:05.000Z</time>
      </trkpt>
      <trkpt lat="47.29026" lon="4.92308">
        <ele>648.3</ele>
        <time>2013-02-02T08:14:06.000Z</time>
      </trkpt>
      <trkpt lat="47.29023" lon="4.92307">
        <ele>648.6</ele>
        <time>2013-02-02T08:14:08.000Z</time>
      </trkpt>
      <trkpt lat="47.29021" lon="4.92307">
        <ele>648.3</ele>
        <time>2013-02-02T08:14:09.000Z</time>
      </trkpt>
      <trkpt lat="47.29018" lon="4.92306">
        <ele>648.5</ele>
        <time>2013-02-02T08:14:11.000Z</time>
      </trkpt>
      <trkpt lat="47.29017" lon="4.92306">
        <ele>648.5</ele>
        <time>2013-02-02T08:14:12.000Z</time>
      </trkpt>
      <trkpt lat="47.29012" lon="4.92305">
        <ele>648.5</ele>
        <time>2013-02-02T08:14:15.000Z</time>
      </trkpt>
      <trkpt lat="47.29011" lon="4.92305">
        <ele>648.5</ele>
        <time>2013-02-02T08:14:16.000Z</time>
      </trkpt>
      <trkpt lat="47.29007" lon="4.92304">
        <ele>649.5</ele>
        <time>2013-02-02T08:14:19.000Z</time>
      </trkpt>
      <trkpt lat="47.29006" lon="4.92303">
        <ele>649.8</ele>
        <time>2013-02-02T08:14:20.000Z</time>
      </trkpt>
      <trkpt lat="47.29003" lon="4.92302">
        <ele>650</ele>
        <time>2013-02-02T08:14:22.000Z</time>
      </trkpt>
      <trkpt lat="47.29001" lon="4.92301">
        <ele>650.1</ele>
        <time>2013-02-02T08:14:23.000Z</time>
      </trkpt>
      <trkpt lat="47.28998" lon="4.923">
        <ele>649.5</ele>
        <time>2013-02-02T08:14:25.000Z</time>
      </trkpt>
      <trkpt lat="47.28997" lon="4.92299">
        <ele>649.2</ele>
        <time>2013-02-02T08:14:26.000Z</time>
      </trkpt>
      <trkpt lat="47.28993" lon="4.92298">
        <ele>648.6</ele>
        <time>2013-02-02T08:14:28.000Z</time>
      </trkpt>
      <trkpt lat="47.28992" lon="4.92298">
        <ele>648.6</ele>
        <time>2013-02-02T08:14:29.000Z</time>
      </trkpt>
      <trkpt lat="47.28988" lon="4.92297">
        <ele>648.5</ele>
        <time>2013-02-02T08:14:31.000Z</time>
      </trkpt>
      <trkpt lat="47.28987" lon="4.92296">
        <ele>648.4</ele>
        <time>2013-02-02T08:14:32.000Z</time>
      </trkpt>
      <trkpt lat="47.28984" lon="4.92295">
        <ele>648.7</ele>
        <time>2013-02-02T08:14:34.000Z</time>
      </trkpt>
      <trkpt lat="47.28982" lon="4.92294">
        <ele>648.7</ele>
        <time>2013-02-02T08:14:35.000Z</time>
      </trkpt>
      <trkpt lat="47.28979" lon="4.92293">
        <ele>648.5</ele>
        <time>2013-02-02T08:14:37.000Z</time>
      </trkpt>
      <trkpt lat="47.28978" lon="4.92293">
        <ele>648.5</ele>
        <time>2013-02-02T08:14:38.000Z</time>
      </trkpt>
      <trkpt lat="47.28975" lon="4.92291">
        <ele>648.6</ele>
        <time>2013-02-02T08:14:40.000Z</time>
      </trkpt>
      <trkpt lat="47.28973" lon="4.92291">
        <ele>648.6</ele>
        <time>2013-02-02T08:14:41.000Z</time>
      </trkpt>
      <trkpt lat="47.28969" lon="4.92289">
        <ele>648.8</ele>
        <time>2013-02-02T08:14:44.000Z</time>
      </trkpt>
      <trkpt lat="47.28968" lon="4.92288">
        <ele>648.8</ele>
        <time>2013-02-02T08:14:45.000Z</time>
      </trkpt>
      <trkpt lat="47.28964" lon="4.92285">
        <ele>649.2</ele>
        <time>2013-02-02T08:14:48.000Z</time>
      </trkpt>
      <trkpt lat="47.28963" lon="4.92284">
        <ele>649.2</ele>
        <time>2013-02-02T08:14:49.000Z</time>
      </trkpt>
      <trkpt lat="47.28962" lon="4.92283">
        <ele>649.2</ele>
        <time>2013-02-02T08:14:50.000Z</time>
      </trkpt>
      <trkpt lat="47.28951" lon="4.92273">
        <ele>646.1</ele>
        <time>2013-02-02T08:14:57.000Z</time>
      </trkpt>
      <trkpt lat="47.28947" lon="4.9227">
        <ele>648</ele>
        <time>2013-02-02T08:15:00.000Z</time>
      </trkpt>
      <trkpt lat="47.28945" lon="4.9227">
        <ele>648.9</ele>
        <time>2013-02-02T08:15:01.000Z</time>
      </trkpt>
      <trkpt lat="47.28942" lon="4.92267">
        <ele>648</ele>
        <time>2013-02-02T08:15:03.000Z</time>
      </trkpt>
      <trkpt lat="47.2894" lon="4.92267">
        <ele>648.3</ele>
        <time>2013-02-02T08:15:04.000Z</time>
      </trkpt>
      <trkpt lat="47.28937" lon="4.92264">
        <ele>647.9</ele>
        <time>2013-02-02T08:15:06.000Z</time>
      </trkpt>
      <trkpt lat="47.28936" lon="4.92263">
        <ele>647.5</ele>
        <time>2013-02-02T08:15:07.000Z</time>
      </trkpt>
      <trkpt lat="47.28932" lon="4.92259">
        <ele>648.8</ele>
        <time>2013-02-02T08:15:10.000Z</time>
      </trkpt>
      <trkpt lat="47.28931" lon="4.92258">
        <ele>649</ele>
        <time>2013-02-02T08:15:11.000Z</time>
      </trkpt>
      <trkpt lat="47.28928" lon="4.92255">
        <ele>650.2</ele>
        <time>2013-02-02T08:15:14.000Z</time>
      </trkpt>
      <trkpt lat="47.28926" lon="4.92254">
        <ele>650.9</ele>
        <time>2013-02-02T08:15:15.000Z</time>
      </trkpt>
      <trkpt lat="47.28923" lon="4.9225">
        <ele>651.3</ele>
        <time>2013-02-02T08:15:18.000Z</time>
      </trkpt>
      <trkpt lat="47.28922" lon="4.92249">
        <ele>651.3</ele>
        <time>2013-02-02T08:15:19.000Z</time>
      </trkpt>
      <trkpt lat="47.28919" lon="4.92246">
        <ele>651.2</ele>
        <time>2013-02-02T08:15:22.000Z</time>
      </trkpt>
      <trkpt lat="47.28917" lon="4.92245">
        <ele>650.9</ele>
        <time>2013-02-02T08:15:23.000Z</time>
      </trkpt>
      <trkpt lat="47.28914" lon="4.92243">
        <ele>650.6</ele>
        <time>2013-02-02T08:15:25.000Z</time>
      </trkpt>
      <trkpt lat="47.28913" lon="4.92242">
        <ele>650.6</ele>
        <time>2013-02-02T08:15:26.000Z</time>
      </trkpt>
      <trkpt lat="47.28911" lon="4.92239">
        <ele>650.8</ele>
        <time>2013-02-02T08:15:28.000Z</time>
      </trkpt>
      <trkpt lat="47.28909" lon="4.92238">
        <ele>651.1</ele>
        <time>2013-02-02T08:15:29.000Z</time>
      </trkpt>
      <trkpt lat="47.28906" lon="4.92235">
        <ele>651.1</ele>
        <time>2013-02-02T08:15:31.000Z</time>
      </trkpt>
      <trkpt lat="47.28905" lon="4.92234">
        <ele>651.1</ele>
        <time>2013-02-02T08:15:32.000Z</time>
      </trkpt>
      <trkpt lat="47.28902" lon="4.92232">
        <ele>650.6</ele>
        <time>2013-02-02T08:15:34.000Z</time>
      </trkpt>
      <trkpt lat="47.28901" lon="4.92231">
        <ele>650.5</ele>
        <time>2013-02-02T08:15:35.000Z</time>
      </trkpt>
      <trkpt lat="47.28898" lon="4.92228">
        <ele>650.7</ele>
        <time>2013-02-02T08:15:38.000Z</time>
      </trkpt>
      <trkpt lat="47.28896" lon="4.92226">
        <ele>650.6</ele>
        <time>2013-02-02T08:15:39.000Z</time>
      </trkpt>
      <trkpt lat="47.28894" lon="4.92224">
        <ele>650.3</ele>
        <time>2013-02-02T08:15:41.000Z</time>
      </trkpt>
      <trkpt lat="47.28893" lon="4.92223">
        <ele>650.2</ele>
        <time>2013-02-02T08:15:42.000Z</time>
      </trkpt>
      <trkpt lat="47.2889" lon="4.9222">
        <ele>649.9</ele>
        <time>2013-02-02T08:15:44.000Z</time>
      </trkpt>
      <trkpt lat="47.28889" lon="4.92219">
        <ele>650.1</ele>
        <time>2013-02-02T08:15:45.000Z</time>
      </trkpt>
      <trkpt lat="47.28886" lon="4.92216">
        <ele>650</ele>
        <time>2013-02-02T08:15:47.000Z</time>
      </trkpt>
      <trkpt lat="47.28885" lon="4.92215">
        <ele>650</ele>
        <time>2013-02-02T08:15:48.000Z</time>
      </trkpt>
      <trkpt lat="47.28882" lon="4.92212">
        <ele>650.1</ele>
        <time>2013-02-02T08:15:50.000Z</time>
      </trkpt>
      <trkpt lat="47.28869" lon="4.92205">
        <ele>652.5</ele>
        <time>2013-02-02T08:15:57.000Z</time>
      </trkpt>
      <trkpt lat="47.28866" lon="4.92202">
        <ele>648.6</ele>
        <time>2013-02-02T08:15:59.000Z</time>
      </trkpt>
      <trkpt lat="47.28865" lon="4.922">
        <ele>648.3</ele>
        <time>2013-02-02T08:16:00.000Z</time>
      </trkpt>
      <trkpt lat="47.28862" lon="4.92196">
        <ele>650.9</ele>
        <time>2013-02-02T08:16:03.000Z</time>
      </trkpt>
      <trkpt lat="47.28861" lon="4.92195">
        <ele>651.5</ele>
        <time>2013-02-02T08:16:04.000Z</time>
      </trkpt>
      <trkpt lat="47.28858" lon="4.92192">
        <ele>652.2</ele>
        <time>2013-02-02T08:16:07.000Z</time>
      </trkpt>
      <trkpt lat="47.28857" lon="4.92191">
        <ele>652.7</ele>
        <time>2013-02-02T08:16:08.000Z</time>
      </trkpt>
      <trkpt lat="47.28853" lon="4.92189">
        <ele>654.1</ele>
        <time>2013-02-02T08:16:11.000Z</time>
      </trkpt>
      <trkpt lat="47.28852" lon="4.92188">
        <ele>654.5</ele>
        <time>2013-02-02T08:16:12.000Z</time>
      </trkpt>
      <trkpt lat="47.2885" lon="4.92187">
        <ele>655</ele>
        <time>2013-02-02T08:16:14.000Z</time>
      </trkpt>
      <trkpt lat="47.28848" lon="4.92186">
        <ele>655.1</ele>
        <time>2013-02-02T08:16:15.000Z</time>
      </trkpt>
      <trkpt lat="47.28845" lon="4.92185">
        <ele>655.8</ele>
        <time>2013-02-02T08:16:17.000Z</time>
      </trkpt>
      <trkpt lat="47.28843" lon="4.92185">
        <ele>655.7</ele>
        <time>2013-02-02T08:16:18.000Z</time>
      </trkpt>
      <trkpt lat="47.2884" lon="4.92183">
        <ele>656.7</ele>
        <time>2013-02-02T08:16:21.000Z</time>
      </trkpt>
      <trkpt lat="47.28839" lon="4.92182">
        <ele>656.3</ele>
        <time>2013-02-02T08:16:22.000Z</time>
      </trkpt>
      <trkpt lat="47.28835" lon="4.9218">
        <ele>656</ele>
        <time>2013-02-02T08:16:25.000Z</time>
      </trkpt>
      <trkpt lat="47.28833" lon="4.92179">
        <ele>656</ele>
        <time>2013-02-02T08:16:26.000Z</time>
      </trkpt>
      <trkpt lat="47.28829" lon="4.92177">
        <ele>655.9</ele>
        <time>2013-02-02T08:16:29.000Z</time>
      </trkpt>
      <trkpt lat="47.28828" lon="4.92177">
        <ele>655.8</ele>
        <time>2013-02-02T08:16:30.000Z</time>
      </trkpt>
      <trkpt lat="47.28825" lon="4.92175">
        <ele>655.5</ele>
        <time>2013-02-02T08:16:32.000Z</time>
      </trkpt>
      <trkpt lat="47.28823" lon="4.92173">
        <ele>655.5</ele>
        <time>2013-02-02T08:16:33.000Z</time>
      </trkpt>
      <trkpt lat="47.28819" lon="4.92171">
        <ele>655.8</ele>
        <time>2013-02-02T08:16:36.000Z</time>
      </trkpt>
      <trkpt lat="47.28818" lon="4.92171">
        <ele>655.7</ele>
        <time>2013-02-02T08:16:37.000Z</time>
      </trkpt>
      <trkpt lat="47.28814" lon="4.9217">
        <ele>655.4</ele>
        <time>2013-02-02T08:16:39.000Z</time>
      </trkpt>
      <trkpt lat="47.28812" lon="4.92169">
        <ele>655.5</ele>
        <time>2013-02-02T08:16:40.000Z</time>
      </trkpt>
      <trkpt lat="47.28808" lon="4.92167">
        <ele>655.6</ele>
        <time>2013-02-02T08:16:43.000Z</time>
      </trkpt>
      <trkpt lat="47.28807" lon="4.92167">
        <ele>655.6</ele>
        <time>2013-02-02T08:16:44.000Z</time>
      </trkpt>
      <trkpt lat="47.28804" lon="4.92166">
        <ele>655.5</ele>
        <time>2013-02-02T08:16:46.000Z</time>
      </trkpt>
      <trkpt lat="47.28802" lon="4.92165">
        <ele>655.6</ele>
        <time>2013-02-02T08:16:47.000Z</time>
      </trkpt>
      <trkpt lat="47.28799" lon="4.92165">
        <ele>655.4</ele>
        <time>2013-02-02T08:16:49.000Z</time>
      </trkpt>
      <trkpt lat="47.28797" lon="4.92164">
        <ele>655.2</ele>
        <time>2013-02-02T08:16:50.000Z</time>
      </trkpt>
      <trkpt lat="47.28783" lon="4.92158">
        <ele>658.3</ele>
        <time>2013-02-02T08:16:57.000Z</time>
      </trkpt>
      <trkpt lat="47.28779" lon="4.92156">
        <ele>655.5</ele>
        <time>2013-02-02T08:17:00.000Z</time>
      </trkpt>
      <trkpt lat="47.28777" lon="4.92155">
        <ele>655.3</ele>
        <time>2013-02-02T08:17:01.000Z</time>
      </trkpt>
      <trkpt lat="47.28774" lon="4.92154">
        <ele>655.2</ele>
        <time>2013-02-02T08:17:03.000Z</time>
      </trkpt>
      <trkpt lat="47.28773" lon="4.92154">
        <ele>654.6</ele>
        <time>2013-02-02T08:17:04.000Z</time>
      </trkpt>
      <trkpt lat="47.28769" lon="4.92153">
        <ele>652.9</ele>
        <time>2013-02-02T08:17:06.000Z</time>
      </trkpt>
      <trkpt lat="47.28767" lon="4.92153">
        <ele>652.4</ele>
        <time>2013-02-02T08:17:07.000Z</time>
      </trkpt>
      <trkpt lat="47.28764" lon="4.92152">
        <ele>651.8</ele>
        <time>2013-02-02T08:17:09.000Z</time>
      </trkpt>
      <trkpt lat="47.28762" lon="4.92152">
        <ele>651.9</ele>
        <time>2013-02-02T08:17:10.000Z</time>
      </trkpt>
      <trkpt lat="47.28759" lon="4.9215">
        <ele>652.2</ele>
        <time>2013-02-02T08:17:12.000Z</time>
      </trkpt>
      <trkpt lat="47.28757" lon="4.9215">
        <ele>652</ele>
        <time>2013-02-02T08:17:13.000Z</time>
      </trkpt>
      <trkpt lat="47.28754" lon="4.92149">
        <ele>651.4</ele>
        <time>2013-02-02T08:17:15.000Z</time>
      </trkpt>
      <trkpt lat="47.28752" lon="4.92149">
        <ele>651.1</ele>
        <time>2013-02-02T08:17:16.000Z</time>
      </trkpt>
      <trkpt lat="47.28749" lon="4.92148">
        <ele>650.4</ele>
        <time>2013-02-02T08:17:18.000Z</time>
      </trkpt>
      <trkpt lat="47.28747" lon="4.92148">
        <ele>650.2</ele>
        <time>2013-02-02T08:17:19.000Z</time>
      </trkpt>
      <trkpt lat="47.28744" lon="4.92147">
        <ele>650.4</ele>
        <time>2013-02-02T08:17:21.000Z</time>
      </trkpt>
      <trkpt lat="47.28742" lon="4.92147">
        <ele>651</ele>
        <time>2013-02-02T08:17:22.000Z</time>
      </trkpt>
      <trkpt lat="47.28739" lon="4.92146">
        <ele>651</ele>
        <time>2013-02-02T08:17:24.000Z</time>
      </trkpt>
      <trkpt lat="47.28738" lon="4.92146">
        <ele>651</ele>
        <time>2013-02-02T08:17:25.000Z</time>
      </trkpt>
      <trkpt lat="47.28733" lon="4.92145">
        <ele>650.8</ele>
        <time>2013-02-02T08:17:28.000Z</time>
      </trkpt>
      <trkpt lat="47.28732" lon="4.92145">
        <ele>650.8</ele>
        <time>2013-02-02T08:17:29.000Z</time>
      </trkpt>
      <trkpt lat="47.28728" lon="4.92144">
        <ele>651.1</ele>
        <time>2013-02-02T08:17:31.000Z</time>
      </trkpt>
      <trkpt lat="47.28727" lon="4.92144">
        <ele>650.9</ele>
        <time>2013-02-02T08:17:32.000Z</time>
      </trkpt>
      <trkpt lat="47.28724" lon="4.92143">
        <ele>650.7</ele>
        <time>2013-02-02T08:17:34.000Z</time>
      </trkpt>
      <trkpt lat="47.28722" lon="4.92142">
        <ele>650.5</ele>
        <time>2013-02-02T08:17:35.000Z</time>
      </trkpt>
      <trkpt lat="47.28719" lon="4.92142">
        <ele>650.4</ele>
        <time>2013-02-02T08:17:37.000Z</time>
      </trkpt>
      <trkpt lat="47.28718" lon="4.92141">
        <ele>650.4</ele>
        <time>2013-02-02T08:17:38.000Z</time>
      </trkpt>
      <trkpt lat="47.28714" lon="4.9214">
        <ele>650.1</ele>
        <time>2013-02-02T08:17:41.000Z</time>
      </trkpt>
      <trkpt lat="47.28712" lon="4.9214">
        <ele>650.2</ele>
        <time>2013-02-02T08:17:42.000Z</time>
      </trkpt>
      <trkpt lat="47.28708" lon="4.92138">
        <ele>650.1</ele>
        <time>2013-02-02T08:17:45.000Z</time>
      </trkpt>
      <trkpt lat="47.28706" lon="4.92138">
        <ele>650.1</ele>
        <time>2013-02-02T08:17:46.000Z</time>
      </trkpt>
      <trkpt lat="47.28702" lon="4.92138">
        <ele>650.1</ele>
        <time>2013-02-02T08:17:49.000Z</time>
      </trkpt>
      <trkpt lat="47.28701" lon="4.92137">
        <ele>650.3</ele>
        <time>2013-02-02T08:17:50.000Z</time>
      </trkpt>
      <trkpt lat="47.28689" lon="4.92134">
        <ele>657.3</ele>
        <time>2013-02-02T08:17:57.000Z</time>
      </trkpt>
      <trkpt lat="47.28686" lon="4.92135">
        <ele>656.8</ele>
        <time>2013-02-02T08:17:59.000Z</time>
      </trkpt>
      <trkpt lat="47.28684" lon="4.92134">
        <ele>657</ele>
        <time>2013-02-02T08:18:00.000Z</time>
      </trkpt>
      <trkpt lat="47.28681" lon="4.92133">
        <ele>655.5</ele>
        <time>2013-02-02T08:18:02.000Z</time>
      </trkpt>
      <trkpt lat="47.28679" lon="4.92133">
        <ele>654.9</ele>
        <time>2013-02-02T08:18:03.000Z</time>
      </trkpt>
      <trkpt lat="47.28676" lon="4.92132">
        <ele>655.1</ele>
        <time>2013-02-02T08:18:05.000Z</time>
      </trkpt>
      <trkpt lat="47.28674" lon="4.92132">
        <ele>655.5</ele>
        <time>2013-02-02T08:18:06.000Z</time>
      </trkpt>
      <trkpt lat="47.2867" lon="4.92131">
        <ele>655.7</ele>
        <time>2013-02-02T08:18:09.000Z</time>
      </trkpt>
      <trkpt lat="47.28669" lon="4.9213">
        <ele>656</ele>
        <time>2013-02-02T08:18:10.000Z</time>
      </trkpt>
      <trkpt lat="47.28665" lon="4.92129">
        <ele>655.7</ele>
        <time>2013-02-02T08:18:12.000Z</time>
      </trkpt>
      <trkpt lat="47.28664" lon="4.92129">
        <ele>655.1</ele>
        <time>2013-02-02T08:18:13.000Z</time>
      </trkpt>
      <trkpt lat="47.2866" lon="4.92128">
        <ele>653.8</ele>
        <time>2013-02-02T08:18:15.000Z</time>
      </trkpt>
      <trkpt lat="47.28659" lon="4.92128">
        <ele>653.3</ele>
        <time>2013-02-02T08:18:16.000Z</time>
      </trkpt>
      <trkpt lat="47.28656" lon="4.92128">
        <ele>652.6</ele>
        <time>2013-02-02T08:18:18.000Z</time>
      </trkpt>
      <trkpt lat="47.28654" lon="4.92128">
        <ele>652.1</ele>
        <time>2013-02-02T08:18:19.000Z</time>
      </trkpt>
      <trkpt lat="47.2865" lon="4.92126">
        <ele>652.1</ele>
        <time>2013-02-02T08:18:22.000Z</time>
      </trkpt>
      <trkpt lat="47.28648" lon="4.92126">
        <ele>652.2</ele>
        <time>2013-02-02T08:18:23.000Z</time>
      </trkpt>
      <trkpt lat="47.28645" lon="4.92126">
        <ele>652.3</ele>
        <time>2013-02-02T08:18:25.000Z</time>
      </trkpt>
      <trkpt lat="47.28644" lon="4.92126">
        <ele>652</ele>
        <time>2013-02-02T08:18:26.000Z</time>
      </trkpt>
      <trkpt lat="47.2864" lon="4.92125">
        <ele>651.5</ele>
        <time>2013-02-02T08:18:28.000Z</time>
      </trkpt>
      <trkpt lat="47.28639" lon="4.92125">
        <ele>651.4</ele>
        <time>2013-02-02T08:18:29.000Z</time>
      </trkpt>
      <trkpt lat="47.28634" lon="4.92125">
        <ele>651.3</ele>
        <time>2013-02-02T08:18:32.000Z</time>
      </trkpt>
      <trkpt lat="47.28633" lon="4.92124">
        <ele>651.6</ele>
        <time>2013-02-02T08:18:33.000Z</time>
      </trkpt>
      <trkpt lat="47.28629" lon="4.92124">
        <ele>652.1</ele>
        <time>2013-02-02T08:18:36.000Z</time>
      </trkpt>
      <trkpt lat="47.28628" lon="4.92124">
        <ele>652.4</ele>
        <time>2013-02-02T08:18:37.000Z</time>
      </trkpt>
      <trkpt lat="47.28624" lon="4.92124">
        <ele>653.1</ele>
        <time>2013-02-02T08:18:40.000Z</time>
      </trkpt>
      <trkpt lat="47.28623" lon="4.92124">
        <ele>653.2</ele>
        <time>2013-02-02T08:18:41.000Z</time>
      </trkpt>
      <trkpt lat="47.28618" lon="4.92123">
        <ele>653</ele>
        <time>2013-02-02T08:18:44.000Z</time>
      </trkpt>
      <trkpt lat="47.28617" lon="4.92122">
        <ele>652.9</ele>
        <time>2013-02-02T08:18:45.000Z</time>
      </trkpt>
      <trkpt lat="47.28613" lon="4.92122">
        <ele>652.6</ele>
        <time>2013-02-02T08:18:48.000Z</time>
      </trkpt>
      <trkpt lat="47.28611" lon="4.92121">
        <ele>652.5</ele>
        <time>2013-02-02T08:18:49.000Z</time>
      </trkpt>
      <trkpt lat="47.2861" lon="4.92121">
        <ele>652.4</ele>
        <time>2013-02-02T08:18:50.000Z</time>
      </trkpt>
      <trkpt lat="47.28599" lon="4.92118">
        <ele>651.7</ele>
        <time>2013-02-02T08:18:57.000Z</time>
      </trkpt>
      <trkpt lat="47.28595" lon="4.92116">
        <ele>651.3</ele>
        <time>2013-02-02T08:18:59.000Z</time>
      </trkpt>
      <trkpt lat="47.28594" lon="4.92116">
        <ele>651.3</ele>
        <time>2013-02-02T08:19:00.000Z</time>
      </trkpt>
      <trkpt lat="47.28589" lon="4.92115">
        <ele>650.5</ele>
        <time>2013-02-02T08:19:03.000Z</time>
      </trkpt>
      <trkpt lat="47.28587" lon="4.92115">
        <ele>649.2</ele>
        <time>2013-02-02T08:19:04.000Z</time>
      </trkpt>
      <trkpt lat="47.28584" lon="4.92116">
        <ele>648.7</ele>
        <time>2013-02-02T08:19:06.000Z</time>
      </trkpt>
      <trkpt lat="47.28582" lon="4.92115">
        <ele>648.8</ele>
        <time>2013-02-02T08:19:07.000Z</time>
      </trkpt>
      <trkpt lat="47.28578" lon="4.92115">
        <ele>648.5</ele>
        <time>2013-02-02T08:19:11.000Z</time>
      </trkpt>
      <trkpt lat="47.28578" lon="4.92116">
        <ele>648.2</ele>
        <time>2013-02-02T08:19:12.000Z</time>
      </trkpt>
      <trkpt lat="47.28573" lon="4.92114">
        <ele>648.1</ele>
        <time>2013-02-02T08:19:16.000Z</time>
      </trkpt>
      <trkpt lat="47.28572" lon="4.92114">
        <ele>648.5</ele>
        <time>2013-02-02T08:19:17.000Z</time>
      </trkpt>
      <trkpt lat="47.28569" lon="4.92113">
        <ele>648.7</ele>
        <time>2013-02-02T08:19:19.000Z</time>
      </trkpt>
      <trkpt lat="47.28567" lon="4.92112">
        <ele>648.6</ele>
        <time>2013-02-02T08:19:20.000Z</time>
      </trkpt>
      <trkpt lat="47.28564" lon="4.92111">
        <ele>648.4</ele>
        <time>2013-02-02T08:19:22.000Z</time>
      </trkpt>
      <trkpt lat="47.28563" lon="4.92111">
        <ele>648.5</ele>
        <time>2013-02-02T08:19:23.000Z</time>
      </trkpt>
      <trkpt lat="47.28559" lon="4.92109">
        <ele>648.5</ele>
        <time>2013-02-02T08:19:26.000Z</time>
      </trkpt>
      <trkpt lat="47.28557" lon="4.92109">
        <ele>648.5</ele>
        <time>2013-02-02T08:19:27.000Z</time>
      </trkpt>
      <trkpt lat="47.28554" lon="4.92108">
        <ele>648.4</ele>
        <time>2013-02-02T08:19:30.000Z</time>
      </trkpt>
      <trkpt lat="47.28552" lon="4.92108">
        <ele>648.4</ele>
        <time>2013-02-02T08:19:31.000Z</time>
      </trkpt>
      <trkpt lat="47.28549" lon="4.92107">
        <ele>648</ele>
        <time>2013-02-02T08:19:33.000Z</time>
      </trkpt>
      <trkpt lat="47.28547" lon="4.92107">
        <ele>647.6</ele>
        <time>2013-02-02T08:19:34.000Z</time>
      </trkpt>
      <trkpt lat="47.28544" lon="4.92106">
        <ele>647</ele>
        <time>2013-02-02T08:19:36.000Z</time>
      </trkpt>
      <trkpt lat="47.28543" lon="4.92105">
        <ele>646.8</ele>
        <time>2013-02-02T08:19:37.000Z</time>
      </trkpt>
      <trkpt lat="47.28538" lon="4.92104">
        <ele>646.5</ele>
        <time>2013-02-02T08:19:40.000Z</time>
      </trkpt>
      <trkpt lat="47.28537" lon="4.92104">
        <ele>646.5</ele>
        <time>2013-02-02T08:19:41.000Z</time>
      </trkpt>
      <trkpt lat="47.28534" lon="4.92103">
        <ele>646</ele>
        <time>2013-02-02T08:19:43.000Z</time>
      </trkpt>
      <trkpt lat="47.28533" lon="4.92102">
        <ele>646</ele>
        <time>2013-02-02T08:19:44.000Z</time>
      </trkpt>
      <trkpt lat="47.28529" lon="4.92101">
        <ele>645.9</ele>
        <time>2013-02-02T08:19:46.000Z</time>
      </trkpt>
      <trkpt lat="47.28528" lon="4.921">
        <ele>645.9</ele>
        <time>2013-02-02T08:19:47.000Z</time>
      </trkpt>
      <trkpt lat="47.28525" lon="4.92098">
        <ele>645.6</ele>
        <time>2013-02-02T08:19:49.000Z</time>
      </trkpt>
      <trkpt lat="47.28523" lon="4.92098">
        <ele>645.5</ele>
        <time>2013-02-02T08:19:50.000Z</time>
      </trkpt>
      <trkpt lat="47.28511" lon="4.92091">
        <ele>639.7</ele>
        <time>2013-02-02T08:19:57.000Z</time>
      </trkpt>
      <trkpt lat="47.28507" lon="4.92091">
        <ele>639.3</ele>
        <time>2013-02-02T08:19:59.000Z</time>
      </trkpt>
      <trkpt lat="47.28506" lon="4.9209">
        <ele>638.9</ele>
        <time>2013-02-02T08:20:00.000Z</time>
      </trkpt>
      <trkpt lat="47.28502" lon="4.9209">
        <ele>638.9</ele>
        <time>2013-02-02T08:20:02.000Z</time>
      </trkpt>
      <trkpt lat="47.28501" lon="4.92089">
        <ele>639.3</ele>
        <time>2013-02-02T08:20:03.000Z</time>
      </trkpt>
      <trkpt lat="47.28497" lon="4.92088">
        <ele>639.2</ele>
        <time>2013-02-02T08:20:05.000Z</time>
      </trkpt>
      <trkpt lat="47.28496" lon="4.92087">
        <ele>639.5</ele>
        <time>2013-02-02T08:20:06.000Z</time>
      </trkpt>
      <trkpt lat="47.28493" lon="4.92086">
        <ele>639.9</ele>
        <time>2013-02-02T08:20:08.000Z</time>
      </trkpt>
      <trkpt lat="47.28491" lon="4.92085">
        <ele>639.9</ele>
        <time>2013-02-02T08:20:09.000Z</time>
      </trkpt>
      <trkpt lat="47.28488" lon="4.92084">
        <ele>640.3</ele>
        <time>2013-02-02T08:20:11.000Z</time>
      </trkpt>
      <trkpt lat="47.28486" lon="4.92084">
        <ele>640.4</ele>
        <time>2013-02-02T08:20:12.000Z</time>
      </trkpt>
      <trkpt lat="47.28483" lon="4.92083">
        <ele>640.8</ele>
        <time>2013-02-02T08:20:14.000Z</time>
      </trkpt>
      <trkpt lat="47.28482" lon="4.92082">
        <ele>640.8</ele>
        <time>2013-02-02T08:20:15.000Z</time>
      </trkpt>
      <trkpt lat="47.28479" lon="4.92081">
        <ele>640.6</ele>
        <time>2013-02-02T08:20:17.000Z</time>
      </trkpt>
      <trkpt lat="47.28477" lon="4.92081">
        <ele>640.6</ele>
        <time>2013-02-02T08:20:18.000Z</time>
      </trkpt>
      <trkpt lat="47.28474" lon="4.9208">
        <ele>640.3</ele>
        <time>2013-02-02T08:20:20.000Z</time>
      </trkpt>
      <trkpt lat="47.28472" lon="4.92079">
        <ele>640</ele>
        <time>2013-02-02T08:20:21.000Z</time>
      </trkpt>
      <trkpt lat="47.28469" lon="4.92078">
        <ele>639.7</ele>
        <time>2013-02-02T08:20:23.000Z</time>
      </trkpt>
      <trkpt lat="47.28468" lon="4.92078">
        <ele>639.6</ele>
        <time>2013-02-02T08:20:24.000Z</time>
      </trkpt>
      <trkpt lat="47.28465" lon="4.92077">
        <ele>639.4</ele>
        <time>2013-02-02T08:20:26.000Z</time>
      </trkpt>
      <trkpt lat="47.28463" lon="4.92077">
        <ele>639.3</ele>
        <time>2013-02-02T08:20:27.000Z</time>
      </trkpt>
      <trkpt lat="47.2846" lon="4.92076">
        <ele>639.2</ele>
        <time>2013-02-02T08:20:29.000Z</time>
      </trkpt>
      <trkpt lat="47.28458" lon="4.92076">
        <ele>639</ele>
        <time>2013-02-02T08:20:30.000Z</time>
      </trkpt>
      <trkpt lat="47.28454" lon="4.92075">
        <ele>638.5</ele>
        <time>2013-02-02T08:20:33.000Z</time>
      </trkpt>
      <trkpt lat="47.28452" lon="4.92075">
        <ele>638.5</ele>
        <time>2013-02-02T08:20:34.000Z</time>
      </trkpt>
      <trkpt lat="47.28449" lon="4.9207">
        <ele>638.6</ele>
        <time>2013-02-02T08:20:43.000Z</time>
      </trkpt>
      <trkpt lat="47.28449" lon="4.92069">
        <ele>638.5</ele>
        <time>2013-02-02T08:20:44.000Z</time>
      </trkpt>
      <trkpt lat="47.28445" lon="4.92065">
        <ele>638.1</ele>
        <time>2013-02-02T08:20:48.000Z</time>
      </trkpt>
      <trkpt lat="47.28445" lon="4.92063">
        <ele>638</ele>
        <time>2013-02-02T08:20:49.000Z</time>
      </trkpt>
      <trkpt lat="47.28442" lon="4.92058">
        <ele>637.7</ele>
        <time>2013-02-02T08:20:53.000Z</time>
      </trkpt>
      <trkpt lat="47.28441" lon="4.92057">
        <ele>637.6</ele>
        <time>2013-02-02T08:20:54.000Z</time>
      </trkpt>
      <trkpt lat="47.28438" lon="4.92053">
        <ele>637.5</ele>
        <time>2013-02-02T08:20:57.000Z</time>
      </trkpt>
      <trkpt lat="47.28436" lon="4.92052">
        <ele>637.5</ele>
        <time>2013-02-02T08:20:58.000Z</time>
      </trkpt>
      <trkpt lat="47.28433" lon="4.92048">
        <ele>637.1</ele>
        <time>2013-02-02T08:21:01.000Z</time>
      </trkpt>
      <trkpt lat="47.28432" lon="4.92046">
        <ele>637.1</ele>
        <time>2013-02-02T08:21:02.000Z</time>
      </trkpt>
      <trkpt lat="47.28429" lon="4.92042">
        <ele>636.9</ele>
        <time>2013-02-02T08:21:04.000Z</time>
      </trkpt>
      <trkpt lat="47.28428" lon="4.9204">
        <ele>636.8</ele>
        <time>2013-02-02T08:21:05.000Z</time>
      </trkpt>
      <trkpt lat="47.28426" lon="4.92037">
        <ele>636.5</ele>
        <time>2013-02-02T08:21:07.000Z</time>
      </trkpt>
      <trkpt lat="47.28424" lon="4.92036">
        <ele>636.5</ele>
        <time>2013-02-02T08:21:08.000Z</time>
      </trkpt>
      <trkpt lat="47.28422" lon="4.92032">
        <ele>636.3</ele>
        <time>2013-02-02T08:21:10.000Z</time>
      </trkpt>
      <trkpt lat="47.2842" lon="4.9203">
        <ele>636.1</ele>
        <time>2013-02-02T08:21:11.000Z</time>
      </trkpt>
      <trkpt lat="47.28418" lon="4.92026">
        <ele>635.8</ele>
        <time>2013-02-02T08:21:14.000Z</time>
      </trkpt>
      <trkpt lat="47.28416" lon="4.92024">
        <ele>635.6</ele>
        <time>2013-02-02T08:21:15.000Z</time>
      </trkpt>
      <trkpt lat="47.28414" lon="4.92021">
        <ele>635.3</ele>
        <time>2013-02-02T08:21:17.000Z</time>
      </trkpt>
      <trkpt lat="47.28413" lon="4.9202">
        <ele>635.2</ele>
        <time>2013-02-02T08:21:18.000Z</time>
      </trkpt>
      <trkpt lat="47.2841" lon="4.92018">
        <ele>634.9</ele>
        <time>2013-02-02T08:21:20.000Z</time>
      </trkpt>
      <trkpt lat="47.28408" lon="4.92017">
        <ele>634.9</ele>
        <time>2013-02-02T08:21:21.000Z</time>
      </trkpt>
      <trkpt lat="47.28406" lon="4.92014">
        <ele>634.6</ele>
        <time>2013-02-02T08:21:23.000Z</time>
      </trkpt>
      <trkpt lat="47.28404" lon="4.92013">
        <ele>634.6</ele>
        <time>2013-02-02T08:21:24.000Z</time>
      </trkpt>
      <trkpt lat="47.28401" lon="4.9201">
        <ele>634.4</ele>
        <time>2013-02-02T08:21:26.000Z</time>
      </trkpt>
      <trkpt lat="47.28399" lon="4.92009">
        <ele>634.3</ele>
        <time>2013-02-02T08:21:27.000Z</time>
      </trkpt>
      <trkpt lat="47.28396" lon="4.92005">
        <ele>633.8</ele>
        <time>2013-02-02T08:21:29.000Z</time>
      </trkpt>
      <trkpt lat="47.28395" lon="4.92004">
        <ele>633.6</ele>
        <time>2013-02-02T08:21:30.000Z</time>
      </trkpt>
      <trkpt lat="47.28391" lon="4.92002">
        <ele>633</ele>
        <time>2013-02-02T08:21:32.000Z</time>
      </trkpt>
      <trkpt lat="47.2839" lon="4.92001">
        <ele>632.8</ele>
        <time>2013-02-02T08:21:33.000Z</time>
      </trkpt>
      <trkpt lat="47.28386" lon="4.91998">
        <ele>632.3</ele>
        <time>2013-02-02T08:21:35.000Z</time>
      </trkpt>
      <trkpt lat="47.28385" lon="4.91996">
        <ele>632.1</ele>
        <time>2013-02-02T08:21:36.000Z</time>
      </trkpt>
      <trkpt lat="47.28382" lon="4.91992">
        <ele>631.5</ele>
        <time>2013-02-02T08:21:38.000Z</time>
      </trkpt>
      <trkpt lat="47.2838" lon="4.91989">
        <ele>631.4</ele>
        <time>2013-02-02T08:21:39.000Z</time>
      </trkpt>
      <trkpt lat="47.28377" lon="4.91987">
        <ele>631.3</ele>
        <time>2013-02-02T08:21:41.000Z</time>
      </trkpt>
      <trkpt lat="47.28376" lon="4.91985">
        <ele>631.1</ele>
        <time>2013-02-02T08:21:42.000Z</time>
      </trkpt>
      <trkpt lat="47.28373" lon="4.91982">
        <ele>630.9</ele>
        <time>2013-02-02T08:21:44.000Z</time>
      </trkpt>
      <trkpt lat="47.28372" lon="4.9198">
        <ele>630.7</ele>
        <time>2013-02-02T08:21:45.000Z</time>
      </trkpt>
      <trkpt lat="47.2837" lon="4.91977">
        <ele>630.5</ele>
        <time>2013-02-02T08:21:47.000Z</time>
      </trkpt>
      <trkpt lat="47.28368" lon="4.91975">
        <ele>630.3</ele>
        <time>2013-02-02T08:21:48.000Z</time>
      </trkpt>
      <trkpt lat="47.28365" lon="4.91972">
        <ele>630.1</ele>
        <time>2013-02-02T08:21:50.000Z</time>
      </trkpt>
      <trkpt lat="47.28364" lon="4.91971">
        <ele>629.9</ele>
        <time>2013-02-02T08:21:51.000Z</time>
      </trkpt>
      <trkpt lat="47.2836" lon="4.91967">
        <ele>629.1</ele>
        <time>2013-02-02T08:21:53.000Z</time>
      </trkpt>
      <trkpt lat="47.28359" lon="4.91966">
        <ele>628.4</ele>
        <time>2013-02-02T08:21:54.000Z</time>
      </trkpt>
      <trkpt lat="47.28358" lon="4.91965">
        <ele>627.8</ele>
        <time>2013-02-02T08:22:01.000Z</time>
      </trkpt>
      <trkpt lat="47.28353" lon="4.91964">
        <ele>627</ele>
        <time>2013-02-02T08:22:02.000Z</time>
      </trkpt>
      <trkpt lat="47.2835" lon="4.9196">
        <ele>626.8</ele>
        <time>2013-02-02T08:22:06.000Z</time>
      </trkpt>
      <trkpt lat="47.28349" lon="4.91959">
        <ele>626.7</ele>
        <time>2013-02-02T08:22:07.000Z</time>
      </trkpt>
      <trkpt lat="47.28346" lon="4.91956">
        <ele>626.3</ele>
        <time>2013-02-02T08:22:10.000Z</time>
      </trkpt>
      <trkpt lat="47.28345" lon="4.91954">
        <ele>626.3</ele>
        <time>2013-02-02T08:22:11.000Z</time>
      </trkpt>
      <trkpt lat="47.28342" lon="4.9195">
        <ele>625.8</ele>
        <time>2013-02-02T08:22:13.000Z</time>
      </trkpt>
      <trkpt lat="47.28341" lon="4.91948">
        <ele>625.5</ele>
        <time>2013-02-02T08:22:14.000Z</time>
      </trkpt>
      <trkpt lat="47.28339" lon="4.91944">
        <ele>625</ele>
        <time>2013-02-02T08:22:16.000Z</time>
      </trkpt>
      <trkpt lat="47.28337" lon="4.91942">
        <ele>624.7</ele>
        <time>2013-02-02T08:22:17.000Z</time>
      </trkpt>
      <trkpt lat="47.28334" lon="4.91938">
        <ele>624.2</ele>
        <time>2013-02-02T08:22:20.000Z</time>
      </trkpt>
      <trkpt lat="47.28333" lon="4.91937">
        <ele>624</ele>
        <time>2013-02-02T08:22:21.000Z</time>
      </trkpt>
      <trkpt lat="47.28329" lon="4.91934">
        <ele>623.2</ele>
        <time>2013-02-02T08:22:24.000Z</time>
      </trkpt>
      <trkpt lat="47.28328" lon="4.91933">
        <ele>622.9</ele>
        <time>2013-02-02T08:22:25.000Z</time>
      </trkpt>
      <trkpt lat="47.28325" lon="4.91929">
        <ele>622.2</ele>
        <time>2013-02-02T08:22:29.000Z</time>
      </trkpt>
      <trkpt lat="47.28323" lon="4.91928">
        <ele>622</ele>
        <time>2013-02-02T08:22:30.000Z</time>
      </trkpt>
      <trkpt lat="47.2832" lon="4.91926">
        <ele>621.5</ele>
        <time>2013-02-02T08:22:32.000Z</time>
      </trkpt>
      <trkpt lat="47.28318" lon="4.91925">
        <ele>621.2</ele>
        <time>2013-02-02T08:22:33.000Z</time>
      </trkpt>
      <trkpt lat="47.28315" lon="4.91921">
        <ele>620.5</ele>
        <time>2013-02-02T08:22:36.000Z</time>
      </trkpt>
      <trkpt lat="47.28313" lon="4.9192">
        <ele>620.2</ele>
        <time>2013-02-02T08:22:37.000Z</time>
      </trkpt>
      <trkpt lat="47.28311" lon="4.91917">
        <ele>619.4</ele>
        <time>2013-02-02T08:22:40.000Z</time>
      </trkpt>
      <trkpt lat="47.28309" lon="4.91916">
        <ele>619.1</ele>
        <time>2013-02-02T08:22:41.000Z</time>
      </trkpt>
      <trkpt lat="47.28306" lon="4.91912">
        <ele>618.6</ele>
        <time>2013-02-02T08:22:43.000Z</time>
      </trkpt>
      <trkpt lat="47.28304" lon="4.9191">
        <ele>618.3</ele>
        <time>2013-02-02T08:22:44.000Z</time>
      </trkpt>
      <trkpt lat="47.28301" lon="4.91907">
        <ele>617.7</ele>
        <time>2013-02-02T08:22:46.000Z</time>
      </trkpt>
      <trkpt lat="47.283" lon="4.91906">
        <ele>617.4</ele>
        <time>2013-02-02T08:22:47.000Z</time>
      </trkpt>
      <trkpt lat="47.28297" lon="4.91904">
        <ele>617.1</ele>
        <time>2013-02-02T08:22:48.000Z</time>
      </trkpt>
      <trkpt lat="47.28296" lon="4.91902">
        <ele>616.9</ele>
        <time>2013-02-02T08:22:49.000Z</time>
      </trkpt>
      <trkpt lat="47.28294" lon="4.919">
        <ele>616.6</ele>
        <time>2013-02-02T08:22:50.000Z</time>
      </trkpt>
      <trkpt lat="47.28274" lon="4.91885">
        <ele>612.3</ele>
        <time>2013-02-02T08:22:58.000Z</time>
      </trkpt>
      <trkpt lat="47.28272" lon="4.91879">
        <ele>610.8</ele>
        <time>2013-02-02T08:23:03.000Z</time>
      </trkpt>
      <trkpt lat="47.28271" lon="4.91878">
        <ele>610.8</ele>
        <time>2013-02-02T08:23:04.000Z</time>
      </trkpt>
      <trkpt lat="47.28269" lon="4.91874">
        <ele>609.1</ele>
        <time>2013-02-02T08:23:07.000Z</time>
      </trkpt>
      <trkpt lat="47.28268" lon="4.91873">
        <ele>608.8</ele>
        <time>2013-02-02T08:23:08.000Z</time>
      </trkpt>
      <trkpt lat="47.28264" lon="4.91868">
        <ele>604.4</ele>
        <time>2013-02-02T08:23:11.000Z</time>
      </trkpt>
      <trkpt lat="47.28264" lon="4.91868">
        <ele>603.3</ele>
        <time>2013-02-02T08:23:12.000Z</time>
      </trkpt>
      <trkpt lat="47.28261" lon="4.91865">
        <ele>601</ele>
        <time>2013-02-02T08:23:14.000Z</time>
      </trkpt>
      <trkpt lat="47.28259" lon="4.91863">
        <ele>599.4</ele>
        <time>2013-02-02T08:23:15.000Z</time>
      </trkpt>
      <trkpt lat="47.28256" lon="4.9186">
        <ele>597.7</ele>
        <time>2013-02-02T08:23:17.000Z</time>
      </trkpt>
      <trkpt lat="47.28254" lon="4.91859">
        <ele>597.5</ele>
        <time>2013-02-02T08:23:18.000Z</time>
      </trkpt>
      <trkpt lat="47.28251" lon="4.91856">
        <ele>595.9</ele>
        <time>2013-02-02T08:23:20.000Z</time>
      </trkpt>
      <trkpt lat="47.2825" lon="4.91854">
        <ele>594.2</ele>
        <time>2013-02-02T08:23:21.000Z</time>
      </trkpt>
      <trkpt lat="47.28247" lon="4.91852">
        <ele>595.3</ele>
        <time>2013-02-02T08:23:23.000Z</time>
      </trkpt>
      <trkpt lat="47.28245" lon="4.9185">
        <ele>595.4</ele>
        <time>2013-02-02T08:23:24.000Z</time>
      </trkpt>
      <trkpt lat="47.28243" lon="4.91846">
        <ele>595.2</ele>
        <time>2013-02-02T08:23:26.000Z</time>
      </trkpt>
      <trkpt lat="47.28241" lon="4.91845">
        <ele>594.7</ele>
        <time>2013-02-02T08:23:27.000Z</time>
      </trkpt>
      <trkpt lat="47.28238" lon="4.91841">
        <ele>594.4</ele>
        <time>2013-02-02T08:23:29.000Z</time>
      </trkpt>
      <trkpt lat="47.28236" lon="4.9184">
        <ele>594.4</ele>
        <time>2013-02-02T08:23:30.000Z</time>
      </trkpt>
      <trkpt lat="47.28233" lon="4.91837">
        <ele>594.6</ele>
        <time>2013-02-02T08:23:32.000Z</time>
      </trkpt>
      <trkpt lat="47.28232" lon="4.91836">
        <ele>594.4</ele>
        <time>2013-02-02T08:23:33.000Z</time>
      </trkpt>
      <trkpt lat="47.28228" lon="4.91833">
        <ele>594</ele>
        <time>2013-02-02T08:23:35.000Z</time>
      </trkpt>
      <trkpt lat="47.28227" lon="4.91832">
        <ele>593.9</ele>
        <time>2013-02-02T08:23:36.000Z</time>
      </trkpt>
      <trkpt lat="47.28224" lon="4.91829">
        <ele>593.5</ele>
        <time>2013-02-02T08:23:38.000Z</time>
      </trkpt>
      <trkpt lat="47.28222" lon="4.91828">
        <ele>593.3</ele>
        <time>2013-02-02T08:23:39.000Z</time>
      </trkpt>
      <trkpt lat="47.28219" lon="4.91825">
        <ele>592.8</ele>
        <time>2013-02-02T08:23:41.000Z</time>
      </trkpt>
      <trkpt lat="47.28217" lon="4.91823">
        <ele>592.4</ele>
        <time>2013-02-02T08:23:42.000Z</time>
      </trkpt>
      <trkpt lat="47.28214" lon="4.9182">
        <ele>591.7</ele>
        <time>2013-02-02T08:23:44.000Z</time>
      </trkpt>
      <trkpt lat="47.28213" lon="4.91819">
        <ele>591.3</ele>
        <time>2013-02-02T08:23:45.000Z</time>
      </trkpt>
      <trkpt lat="47.28208" lon="4.91817">
        <ele>590.1</ele>
        <time>2013-02-02T08:23:47.000Z</time>
      </trkpt>
      <trkpt lat="47.28206" lon="4.91816">
        <ele>589.6</ele>
        <time>2013-02-02T08:23:48.000Z</time>
      </trkpt>
      <trkpt lat="47.28204" lon="4.91812">
        <ele>589.1</ele>
        <time>2013-02-02T08:23:50.000Z</time>
      </trkpt>
      <trkpt lat="47.28186" lon="4.918">
        <ele>582.4</ele>
        <time>2013-02-02T08:23:57.000Z</time>
      </trkpt>
      <trkpt lat="47.28184" lon="4.91795">
        <ele>582.5</ele>
        <time>2013-02-02T08:23:59.000Z</time>
      </trkpt>
      <trkpt lat="47.28183" lon="4.91793">
        <ele>581.3</ele>
        <time>2013-02-02T08:24:00.000Z</time>
      </trkpt>
      <trkpt lat="47.28181" lon="4.91789">
        <ele>579.9</ele>
        <time>2013-02-02T08:24:02.000Z</time>
      </trkpt>
      <trkpt lat="47.28181" lon="4.91787">
        <ele>579.9</ele>
        <time>2013-02-02T08:24:03.000Z</time>
      </trkpt>
      <trkpt lat="47.28178" lon="4.91784">
        <ele>580.4</ele>
        <time>2013-02-02T08:24:05.000Z</time>
      </trkpt>
      <trkpt lat="47.28177" lon="4.91782">
        <ele>580.6</ele>
        <time>2013-02-02T08:24:06.000Z</time>
      </trkpt>
      <trkpt lat="47.28174" lon="4.9178">
        <ele>580</ele>
        <time>2013-02-02T08:24:08.000Z</time>
      </trkpt>
      <trkpt lat="47.28173" lon="4.91779">
        <ele>580.1</ele>
        <time>2013-02-02T08:24:09.000Z</time>
      </trkpt>
      <trkpt lat="47.28168" lon="4.91778">
        <ele>578.2</ele>
        <time>2013-02-02T08:24:11.000Z</time>
      </trkpt>
      <trkpt lat="47.28167" lon="4.91777">
        <ele>578.1</ele>
        <time>2013-02-02T08:24:12.000Z</time>
      </trkpt>
      <trkpt lat="47.28163" lon="4.91776">
        <ele>578.3</ele>
        <time>2013-02-02T08:24:14.000Z</time>
      </trkpt>
      <trkpt lat="47.28162" lon="4.91776">
        <ele>578.1</ele>
        <time>2013-02-02T08:24:15.000Z</time>
      </trkpt>
      <trkpt lat="47.28158" lon="4.91776">
        <ele>577.9</ele>
        <time>2013-02-02T08:24:17.000Z</time>
      </trkpt>
      <trkpt lat="47.28156" lon="4.91776">
        <ele>577.8</ele>
        <time>2013-02-02T08:24:18.000Z</time>
      </trkpt>
      <trkpt lat="47.28153" lon="4.91775">
        <ele>577.7</ele>
        <time>2013-02-02T08:24:20.000Z</time>
      </trkpt>
      <trkpt lat="47.28151" lon="4.91775">
        <ele>577.5</ele>
        <time>2013-02-02T08:24:21.000Z</time>
      </trkpt>
      <trkpt lat="47.28147" lon="4.91773">
        <ele>577.4</ele>
        <time>2013-02-02T08:24:23.000Z</time>
      </trkpt>
      <trkpt lat="47.28145" lon="4.91772">
        <ele>577.1</ele>
        <time>2013-02-02T08:24:24.000Z</time>
      </trkpt>
      <trkpt lat="47.28141" lon="4.9177">
        <ele>577.6</ele>
        <time>2013-02-02T08:24:27.000Z</time>
      </trkpt>
      <trkpt lat="47.28139" lon="4.9177">
        <ele>577.5</ele>
        <time>2013-02-02T08:24:28.000Z</time>
      </trkpt>
      <trkpt lat="47.28135" lon="4.91769">
        <ele>577.3</ele>
        <time>2013-02-02T08:24:30.000Z</time>
      </trkpt>
      <trkpt lat="47.28133" lon="4.91768">
        <ele>577.3</ele>
        <time>2013-02-02T08:24:31.000Z</time>
      </trkpt>
      <trkpt lat="47.28131" lon="4.91767">
        <ele>577.2</ele>
        <time>2013-02-02T08:24:32.000Z</time>
      </trkpt>
      <trkpt lat="47.28128" lon="4.91766">
        <ele>577.2</ele>
        <time>2013-02-02T08:24:33.000Z</time>
      </trkpt>
      <trkpt lat="47.28124" lon="4.91765">
        <ele>577.2</ele>
        <time>2013-02-02T08:24:35.000Z</time>
      </trkpt>
      <trkpt lat="47.28122" lon="4.91765">
        <ele>577.1</ele>
        <time>2013-02-02T08:24:36.000Z</time>
      </trkpt>
      <trkpt lat="47.2812" lon="4.91765">
        <ele>577</ele>
        <time>2013-02-02T08:24:37.000Z</time>
      </trkpt>
      <trkpt lat="47.28118" lon="4.91765">
        <ele>576.9</ele>
        <time>2013-02-02T08:24:38.000Z</time>
      </trkpt>
      <trkpt lat="47.28114" lon="4.91764">
        <ele>576.9</ele>
        <time>2013-02-02T08:24:40.000Z</time>
      </trkpt>
      <trkpt lat="47.28112" lon="4.91764">
        <ele>577.1</ele>
        <time>2013-02-02T08:24:41.000Z</time>
      </trkpt>
      <trkpt lat="47.28108" lon="4.91763">
        <ele>577.4</ele>
        <time>2013-02-02T08:24:43.000Z</time>
      </trkpt>
      <trkpt lat="47.28107" lon="4.91762">
        <ele>577.4</ele>
        <time>2013-02-02T08:24:44.000Z</time>
      </trkpt>
      <trkpt lat="47.28103" lon="4.91762">
        <ele>577.4</ele>
        <time>2013-02-02T08:24:46.000Z</time>
      </trkpt>
      <trkpt lat="47.28101" lon="4.91762">
        <ele>577.3</ele>
        <time>2013-02-02T08:24:47.000Z</time>
      </trkpt>
      <trkpt lat="47.28098" lon="4.91761">
        <ele>577.1</ele>
        <time>2013-02-02T08:24:49.000Z</time>
      </trkpt>
      <trkpt lat="47.28096" lon="4.9176">
        <ele>577.1</ele>
        <time>2013-02-02T08:24:50.000Z</time>
      </trkpt>
      <trkpt lat="47.28079" lon="4.91759">
        <ele>573.6</ele>
        <time>2013-02-02T08:24:57.000Z</time>
      </trkpt>
      <trkpt lat="47.28075" lon="4.91759">
        <ele>574.6</ele>
        <time>2013-02-02T08:25:00.000Z</time>
      </trkpt>
      <trkpt lat="47.28073" lon="4.91758">
        <ele>575.4</ele>
        <time>2013-02-02T08:25:01.000Z</time>
      </trkpt>
      <trkpt lat="47.28069" lon="4.91757">
        <ele>575</ele>
        <time>2013-02-02T08:25:03.000Z</time>
      </trkpt>
      <trkpt lat="47.28067" lon="4.91757">
        <ele>574.8</ele>
        <time>2013-02-02T08:25:04.000Z</time>
      </trkpt>
      <trkpt lat="47.28064" lon="4.91755">
        <ele>575.4</ele>
        <time>2013-02-02T08:25:06.000Z</time>
      </trkpt>
      <trkpt lat="47.28063" lon="4.91754">
        <ele>576.1</ele>
        <time>2013-02-02T08:25:07.000Z</time>
      </trkpt>
      <trkpt lat="47.28059" lon="4.91754">
        <ele>576.3</ele>
        <time>2013-02-02T08:25:10.000Z</time>
      </trkpt>
      <trkpt lat="47.28058" lon="4.91753">
        <ele>576.3</ele>
        <time>2013-02-02T08:25:11.000Z</time>
      </trkpt>
      <trkpt lat="47.28055" lon="4.91752">
        <ele>576.4</ele>
        <time>2013-02-02T08:25:13.000Z</time>
      </trkpt>
      <trkpt lat="47.28054" lon="4.91751">
        <ele>576.4</ele>
        <time>2013-02-02T08:25:14.000Z</time>
      </trkpt>
      <trkpt lat="47.2805" lon="4.9175">
        <ele>573.4</ele>
        <time>2013-02-02T08:25:17.000Z</time>
      </trkpt>
      <trkpt lat="47.28047" lon="4.91748">
        <ele>573</ele>
        <time>2013-02-02T08:25:18.000Z</time>
      </trkpt>
      <trkpt lat="47.28044" lon="4.91746">
        <ele>572.8</ele>
        <time>2013-02-02T08:25:20.000Z</time>
      </trkpt>
      <trkpt lat="47.28042" lon="4.91745">
        <ele>573.1</ele>
        <time>2013-02-02T08:25:21.000Z</time>
      </trkpt>
      <trkpt lat="47.28039" lon="4.91743">
        <ele>574.2</ele>
        <time>2013-02-02T08:25:23.000Z</time>
      </trkpt>
      <trkpt lat="47.28038" lon="4.91742">
        <ele>574.9</ele>
        <time>2013-02-02T08:25:24.000Z</time>
      </trkpt>
      <trkpt lat="47.28035" lon="4.91739">
        <ele>576.3</ele>
        <time>2013-02-02T08:25:27.000Z</time>
      </trkpt>
      <trkpt lat="47.28034" lon="4.91737">
        <ele>576.9</ele>
        <time>2013-02-02T08:25:28.000Z</time>
      </trkpt>
      <trkpt lat="47.28032" lon="4.91734">
        <ele>576.9</ele>
        <time>2013-02-02T08:25:30.000Z</time>
      </trkpt>
      <trkpt lat="47.28031" lon="4.91732">
        <ele>576.8</ele>
        <time>2013-02-02T08:25:31.000Z</time>
      </trkpt>
      <trkpt lat="47.28028" lon="4.91727">
        <ele>575.6</ele>
        <time>2013-02-02T08:25:33.000Z</time>
      </trkpt>
      <trkpt lat="47.28026" lon="4.91726">
        <ele>574.6</ele>
        <time>2013-02-02T08:25:34.000Z</time>
      </trkpt>
      <trkpt lat="47.28023" lon="4.91723">
        <ele>573.4</ele>
        <time>2013-02-02T08:25:36.000Z</time>
      </trkpt>
      <trkpt lat="47.28022" lon="4.9172">
        <ele>573</ele>
        <time>2013-02-02T08:25:37.000Z</time>
      </trkpt>
      <trkpt lat="47.2802" lon="4.91719">
        <ele>571.2</ele>
        <time>2013-02-02T08:25:50.000Z</time>
      </trkpt>
      <trkpt lat="47.28009" lon="4.91716">
        <ele>577.4</ele>
        <time>2013-02-02T08:25:57.000Z</time>
      </trkpt>
      <trkpt lat="47.28009" lon="4.91716">
        <ele>577.4</ele>
        <time>2013-02-02T08:26:50.000Z</time>
      </trkpt>
      <trkpt lat="47.28014" lon="4.91702">
        <ele>559.1</ele>
        <time>2013-02-02T08:26:57.000Z</time>
      </trkpt>
      <trkpt lat="47.28014" lon="4.91702">
        <ele>559.1</ele>
        <time>2013-02-02T08:27:10.000Z</time>
      </trkpt>
      <trkpt lat="47.28016" lon="4.91713">
        <ele>564.8</ele>
        <time>2013-02-02T08:27:11.000Z</time>
      </trkpt>
      <trkpt lat="47.28014" lon="4.91718">
        <ele>566</ele>
        <time>2013-02-02T08:28:01.000Z</time>
      </trkpt>
      <trkpt lat="47.28013" lon="4.9172">
        <ele>565.2</ele>
        <time>2013-02-02T08:28:02.000Z</time>
      </trkpt>
      <trkpt lat="47.28009" lon="4.91721">
        <ele>565.1</ele>
        <time>2013-02-02T08:28:05.000Z</time>
      </trkpt>
      <trkpt lat="47.28008" lon="4.91722">
        <ele>565.3</ele>
        <time>2013-02-02T08:28:06.000Z</time>
      </trkpt>
      <trkpt lat="47.28004" lon="4.91724">
        <ele>565.4</ele>
        <time>2013-02-02T08:28:09.000Z</time>
      </trkpt>
      <trkpt lat="47.28003" lon="4.91725">
        <ele>565.8</ele>
        <time>2013-02-02T08:28:10.000Z</time>
      </trkpt>
      <trkpt lat="47.27999" lon="4.91728">
        <ele>566.6</ele>
        <time>2013-02-02T08:28:13.000Z</time>
      </trkpt>
      <trkpt lat="47.27997" lon="4.91729">
        <ele>566.9</ele>
        <time>2013-02-02T08:28:14.000Z</time>
      </trkpt>
      <trkpt lat="47.27994" lon="4.9173">
        <ele>567.2</ele>
        <time>2013-02-02T08:28:16.000Z</time>
      </trkpt>
      <trkpt lat="47.27993" lon="4.91731">
        <ele>567.6</ele>
        <time>2013-02-02T08:28:17.000Z</time>
      </trkpt>
      <trkpt lat="47.2799" lon="4.91733">
        <ele>567.7</ele>
        <time>2013-02-02T08:28:19.000Z</time>
      </trkpt>
      <trkpt lat="47.27989" lon="4.91735">
        <ele>567.8</ele>
        <time>2013-02-02T08:28:20.000Z</time>
      </trkpt>
      <trkpt lat="47.27986" lon="4.91739">
        <ele>567.5</ele>
        <time>2013-02-02T08:28:23.000Z</time>
      </trkpt>
      <trkpt lat="47.27985" lon="4.9174">
        <ele>567.6</ele>
        <time>2013-02-02T08:28:24.000Z</time>
      </trkpt>
      <trkpt lat="47.27981" lon="4.91744">
        <ele>568.1</ele>
        <time>2013-02-02T08:28:27.000Z</time>
      </trkpt>
      <trkpt lat="47.2798" lon="4.91745">
        <ele>568.4</ele>
        <time>2013-02-02T08:28:28.000Z</time>
      </trkpt>
      <trkpt lat="47.27977" lon="4.91749">
        <ele>568.9</ele>
        <time>2013-02-02T08:28:31.000Z</time>
      </trkpt>
      <trkpt lat="47.27976" lon="4.9175">
        <ele>568.4</ele>
        <time>2013-02-02T08:28:32.000Z</time>
      </trkpt>
      <trkpt lat="47.27974" lon="4.91755">
        <ele>569.2</ele>
        <time>2013-02-02T08:28:35.000Z</time>
      </trkpt>
      <trkpt lat="47.27973" lon="4.91756">
        <ele>569.5</ele>
        <time>2013-02-02T08:28:36.000Z</time>
      </trkpt>
      <trkpt lat="47.2797" lon="4.91761">
        <ele>570.3</ele>
        <time>2013-02-02T08:28:39.000Z</time>
      </trkpt>
      <trkpt lat="47.2797" lon="4.91763">
        <ele>570.3</ele>
        <time>2013-02-02T08:28:40.000Z</time>
      </trkpt>
      <trkpt lat="47.27968" lon="4.91769">
        <ele>570.6</ele>
        <time>2013-02-02T08:28:43.000Z</time>
      </trkpt>
      <trkpt lat="47.27967" lon="4.9177">
        <ele>570.8</ele>
        <time>2013-02-02T08:28:44.000Z</time>
      </trkpt>
      <trkpt lat="47.27965" lon="4.91775">
        <ele>571.1</ele>
        <time>2013-02-02T08:28:47.000Z</time>
      </trkpt>
      <trkpt lat="47.27964" lon="4.91777">
        <ele>571.2</ele>
        <time>2013-02-02T08:28:48.000Z</time>
      </trkpt>
      <trkpt lat="47.27962" lon="4.91781">
        <ele>571.7</ele>
        <time>2013-02-02T08:28:50.000Z</time>
      </trkpt>
      <trkpt lat="47.27958" lon="4.91798">
        <ele>575.8</ele>
        <time>2013-02-02T08:28:57.000Z</time>
      </trkpt>
      <trkpt lat="47.27956" lon="4.91803">
        <ele>573.9</ele>
        <time>2013-02-02T08:28:59.000Z</time>
      </trkpt>
      <trkpt lat="47.27955" lon="4.91805">
        <ele>574.2</ele>
        <time>2013-02-02T08:29:00.000Z</time>
      </trkpt>
      <trkpt lat="47.27952" lon="4.91808">
        <ele>575.1</ele>
        <time>2013-02-02T08:29:02.000Z</time>
      </trkpt>
      <trkpt lat="47.27952" lon="4.9181">
        <ele>574.9</ele>
        <time>2013-02-02T08:29:03.000Z</time>
      </trkpt>
      <trkpt lat="47.2795" lon="4.91814">
        <ele>575.3</ele>
        <time>2013-02-02T08:29:05.000Z</time>
      </trkpt>
      <trkpt lat="47.27949" lon="4.91816">
        <ele>575.3</ele>
        <time>2013-02-02T08:29:06.000Z</time>
      </trkpt>
      <trkpt lat="47.27947" lon="4.91821">
        <ele>575.4</ele>
        <time>2013-02-02T08:29:08.000Z</time>
      </trkpt>
      <trkpt lat="47.27947" lon="4.91824">
        <ele>575.4</ele>
        <time>2013-02-02T08:29:09.000Z</time>
      </trkpt>
      <trkpt lat="47.27946" lon="4.9183">
        <ele>576.1</ele>
        <time>2013-02-02T08:29:12.000Z</time>
      </trkpt>
      <trkpt lat="47.27945" lon="4.91831">
        <ele>576.7</ele>
        <time>2013-02-02T08:29:13.000Z</time>
      </trkpt>
      <trkpt lat="47.27943" lon="4.91836">
        <ele>578.3</ele>
        <time>2013-02-02T08:29:16.000Z</time>
      </trkpt>
      <trkpt lat="47.27942" lon="4.91838">
        <ele>578.4</ele>
        <time>2013-02-02T08:29:17.000Z</time>
      </trkpt>
      <trkpt lat="47.27941" lon="4.91844">
        <ele>578.7</ele>
        <time>2013-02-02T08:29:19.000Z</time>
      </trkpt>
      <trkpt lat="47.2794" lon="4.91846">
        <ele>578.5</ele>
        <time>2013-02-02T08:29:20.000Z</time>
      </trkpt>
      <trkpt lat="47.27939" lon="4.91851">
        <ele>577.6</ele>
        <time>2013-02-02T08:29:22.000Z</time>
      </trkpt>
      <trkpt lat="47.27938" lon="4.91852">
        <ele>577.5</ele>
        <time>2013-02-02T08:29:23.000Z</time>
      </trkpt>
      <trkpt lat="47.27937" lon="4.91856">
        <ele>577.1</ele>
        <time>2013-02-02T08:29:25.000Z</time>
      </trkpt>
      <trkpt lat="47.27936" lon="4.91859">
        <ele>576.7</ele>
        <time>2013-02-02T08:29:26.000Z</time>
      </trkpt>
      <trkpt lat="47.27935" lon="4.91865">
        <ele>576.7</ele>
        <time>2013-02-02T08:29:29.000Z</time>
      </trkpt>
      <trkpt lat="47.27935" lon="4.91868">
        <ele>576.5</ele>
        <time>2013-02-02T08:29:30.000Z</time>
      </trkpt>
      <trkpt lat="47.27935" lon="4.91872">
        <ele>576</ele>
        <time>2013-02-02T08:29:31.000Z</time>
      </trkpt>
      <trkpt lat="47.27935" lon="4.91876">
        <ele>575.5</ele>
        <time>2013-02-02T08:29:32.000Z</time>
      </trkpt>
      <trkpt lat="47.27934" lon="4.91882">
        <ele>575.1</ele>
        <time>2013-02-02T08:29:34.000Z</time>
      </trkpt>
      <trkpt lat="47.27934" lon="4.91885">
        <ele>575.2</ele>
        <time>2013-02-02T08:29:35.000Z</time>
      </trkpt>
      <trkpt lat="47.27934" lon="4.9189">
        <ele>575.1</ele>
        <time>2013-02-02T08:29:37.000Z</time>
      </trkpt>
      <trkpt lat="47.27934" lon="4.91892">
        <ele>575.1</ele>
        <time>2013-02-02T08:29:38.000Z</time>
      </trkpt>
      <trkpt lat="47.27933" lon="4.91898">
        <ele>575.3</ele>
        <time>2013-02-02T08:29:41.000Z</time>
      </trkpt>
      <trkpt lat="47.27933" lon="4.919">
        <ele>575.3</ele>
        <time>2013-02-02T08:29:42.000Z</time>
      </trkpt>
      <trkpt lat="47.27932" lon="4.91904">
        <ele>575.5</ele>
        <time>2013-02-02T08:29:45.000Z</time>
      </trkpt>
      <trkpt lat="47.27931" lon="4.91906">
        <ele>575.6</ele>
        <time>2013-02-02T08:29:46.000Z</time>
      </trkpt>
      <trkpt lat="47.27931" lon="4.91911">
        <ele>575.2</ele>
        <time>2013-02-02T08:29:48.000Z</time>
      </trkpt>
      <trkpt lat="47.27931" lon="4.91914">
        <ele>574.9</ele>
        <time>2013-02-02T08:29:49.000Z</time>
      </trkpt>
      <trkpt lat="47.27931" lon="4.91917">
        <ele>574.6</ele>
        <time>2013-02-02T08:29:50.000Z</time>
      </trkpt>
      <trkpt lat="47.27938" lon="4.9194">
        <ele>571</ele>
        <time>2013-02-02T08:29:58.000Z</time>
      </trkpt>
      <trkpt lat="47.27938" lon="4.91945">
        <ele>572</ele>
        <time>2013-02-02T08:30:00.000Z</time>
      </trkpt>
      <trkpt lat="47.27938" lon="4.91947">
        <ele>572.5</ele>
        <time>2013-02-02T08:30:01.000Z</time>
      </trkpt>
      <trkpt lat="47.27939" lon="4.91953">
        <ele>573.9</ele>
        <time>2013-02-02T08:30:04.000Z</time>
      </trkpt>
      <trkpt lat="47.2794" lon="4.91956">
        <ele>574</ele>
        <time>2013-02-02T08:30:05.000Z</time>
      </trkpt>
      <trkpt lat="47.2794" lon="4.9196">
        <ele>574.4</ele>
        <time>2013-02-02T08:30:07.000Z</time>
      </trkpt>
      <trkpt lat="47.27941" lon="4.91963">
        <ele>574.5</ele>
        <time>2013-02-02T08:30:08.000Z</time>
      </trkpt>
      <trkpt lat="47.27942" lon="4.91968">
        <ele>575.2</ele>
        <time>2013-02-02T08:30:11.000Z</time>
      </trkpt>
      <trkpt lat="47.27943" lon="4.9197">
        <ele>575.3</ele>
        <time>2013-02-02T08:30:12.000Z</time>
      </trkpt>
      <trkpt lat="47.27944" lon="4.91975">
        <ele>574.5</ele>
        <time>2013-02-02T08:30:14.000Z</time>
      </trkpt>
      <trkpt lat="47.27945" lon="4.91978">
        <ele>574.2</ele>
        <time>2013-02-02T08:30:15.000Z</time>
      </trkpt>
      <trkpt lat="47.27946" lon="4.91982">
        <ele>574.9</ele>
        <time>2013-02-02T08:30:17.000Z</time>
      </trkpt>
      <trkpt lat="47.27947" lon="4.91985">
        <ele>574.8</ele>
        <time>2013-02-02T08:30:18.000Z</time>
      </trkpt>
      <trkpt lat="47.27948" lon="4.91989">
        <ele>574.5</ele>
        <time>2013-02-02T08:30:20.000Z</time>
      </trkpt>
      <trkpt lat="47.27948" lon="4.91992">
        <ele>574.9</ele>
        <time>2013-02-02T08:30:21.000Z</time>
      </trkpt>
      <trkpt lat="47.2795" lon="4.91996">
        <ele>575</ele>
        <time>2013-02-02T08:30:23.000Z</time>
      </trkpt>
      <trkpt lat="47.27951" lon="4.91999">
        <ele>574.9</ele>
        <time>2013-02-02T08:30:24.000Z</time>
      </trkpt>
      <trkpt lat="47.27952" lon="4.92004">
        <ele>574.8</ele>
        <time>2013-02-02T08:30:26.000Z</time>
      </trkpt>
      <trkpt lat="47.27953" lon="4.92006">
        <ele>574.8</ele>
        <time>2013-02-02T08:30:27.000Z</time>
      </trkpt>
      <trkpt lat="47.27955" lon="4.92011">
        <ele>574.8</ele>
        <time>2013-02-02T08:30:29.000Z</time>
      </trkpt>
      <trkpt lat="47.27956" lon="4.92013">
        <ele>574.9</ele>
        <time>2013-02-02T08:30:30.000Z</time>
      </trkpt>
      <trkpt lat="47.27957" lon="4.92018">
        <ele>575.1</ele>
        <time>2013-02-02T08:30:32.000Z</time>
      </trkpt>
      <trkpt lat="47.27958" lon="4.92021">
        <ele>575.1</ele>
        <time>2013-02-02T08:30:33.000Z</time>
      </trkpt>
      <trkpt lat="47.27959" lon="4.92025">
        <ele>574.9</ele>
        <time>2013-02-02T08:30:35.000Z</time>
      </trkpt>
      <trkpt lat="47.2796" lon="4.92028">
        <ele>574.8</ele>
        <time>2013-02-02T08:30:36.000Z</time>
      </trkpt>
      <trkpt lat="47.27962" lon="4.92032">
        <ele>574.9</ele>
        <time>2013-02-02T08:30:38.000Z</time>
      </trkpt>
      <trkpt lat="47.27962" lon="4.92034">
        <ele>575</ele>
        <time>2013-02-02T08:30:39.000Z</time>
      </trkpt>
      <trkpt lat="47.27964" lon="4.92039">
        <ele>575.4</ele>
        <time>2013-02-02T08:30:41.000Z</time>
      </trkpt>
      <trkpt lat="47.27965" lon="4.92041">
        <ele>575.3</ele>
        <time>2013-02-02T08:30:42.000Z</time>
      </trkpt>
      <trkpt lat="47.27966" lon="4.92045">
        <ele>575</ele>
        <time>2013-02-02T08:30:44.000Z</time>
      </trkpt>
      <trkpt lat="47.27967" lon="4.92048">
        <ele>574.9</ele>
        <time>2013-02-02T08:30:45.000Z</time>
      </trkpt>
      <trkpt lat="47.27969" lon="4.92052">
        <ele>574.8</ele>
        <time>2013-02-02T08:30:47.000Z</time>
      </trkpt>
      <trkpt lat="47.2797" lon="4.92054">
        <ele>574.6</ele>
        <time>2013-02-02T08:30:48.000Z</time>
      </trkpt>
      <trkpt lat="47.27971" lon="4.92059">
        <ele>574.4</ele>
        <time>2013-02-02T08:30:50.000Z</time>
      </trkpt>
      <trkpt lat="47.27979" lon="4.9207">
        <ele>571.5</ele>
        <time>2013-02-02T08:30:57.000Z</time>
      </trkpt>
      <trkpt lat="47.27981" lon="4.92073">
        <ele>572.6</ele>
        <time>2013-02-02T08:30:59.000Z</time>
      </trkpt>
      <trkpt lat="47.27982" lon="4.92075">
        <ele>572.6</ele>
        <time>2013-02-02T08:31:00.000Z</time>
      </trkpt>
      <trkpt lat="47.27984" lon="4.92079">
        <ele>573.4</ele>
        <time>2013-02-02T08:31:02.000Z</time>
      </trkpt>
      <trkpt lat="47.27985" lon="4.92081">
        <ele>573.4</ele>
        <time>2013-02-02T08:31:03.000Z</time>
      </trkpt>
      <trkpt lat="47.27988" lon="4.92084">
        <ele>574.1</ele>
        <time>2013-02-02T08:31:06.000Z</time>
      </trkpt>
      <trkpt lat="47.27989" lon="4.92085">
        <ele>574.1</ele>
        <time>2013-02-02T08:31:07.000Z</time>
      </trkpt>
      <trkpt lat="47.27992" lon="4.92088">
        <ele>573.9</ele>
        <time>2013-02-02T08:31:09.000Z</time>
      </trkpt>
      <trkpt lat="47.27994" lon="4.9209">
        <ele>573.8</ele>
        <time>2013-02-02T08:31:10.000Z</time>
      </trkpt>
      <trkpt lat="47.27997" lon="4.92093">
        <ele>574.9</ele>
        <time>2013-02-02T08:31:13.000Z</time>
      </trkpt>
      <trkpt lat="47.27998" lon="4.92094">
        <ele>575.1</ele>
        <time>2013-02-02T08:31:14.000Z</time>
      </trkpt>
      <trkpt lat="47.28001" lon="4.92096">
        <ele>575.8</ele>
        <time>2013-02-02T08:31:16.000Z</time>
      </trkpt>
      <trkpt lat="47.28002" lon="4.92098">
        <ele>575.8</ele>
        <time>2013-02-02T08:31:17.000Z</time>
      </trkpt>
      <trkpt lat="47.28004" lon="4.921">
        <ele>575.6</ele>
        <time>2013-02-02T08:31:19.000Z</time>
      </trkpt>
      <trkpt lat="47.28006" lon="4.92101">
        <ele>575.4</ele>
        <time>2013-02-02T08:31:20.000Z</time>
      </trkpt>
      <trkpt lat="47.28009" lon="4.92104">
        <ele>575.1</ele>
        <time>2013-02-02T08:31:22.000Z</time>
      </trkpt>
      <trkpt lat="47.2801" lon="4.92106">
        <ele>575</ele>
        <time>2013-02-02T08:31:23.000Z</time>
      </trkpt>
      <trkpt lat="47.28012" lon="4.92108">
        <ele>575</ele>
        <time>2013-02-02T08:31:25.000Z</time>
      </trkpt>
      <trkpt lat="47.28014" lon="4.9211">
        <ele>575</ele>
        <time>2013-02-02T08:31:26.000Z</time>
      </trkpt>
      <trkpt lat="47.28016" lon="4.92113">
        <ele>575.1</ele>
        <time>2013-02-02T08:31:28.000Z</time>
      </trkpt>
      <trkpt lat="47.28018" lon="4.92114">
        <ele>575.1</ele>
        <time>2013-02-02T08:31:29.000Z</time>
      </trkpt>
      <trkpt lat="47.28021" lon="4.92118">
        <ele>575.4</ele>
        <time>2013-02-02T08:31:32.000Z</time>
      </trkpt>
      <trkpt lat="47.28023" lon="4.92119">
        <ele>575.7</ele>
        <time>2013-02-02T08:31:33.000Z</time>
      </trkpt>
      <trkpt lat="47.28026" lon="4.92121">
        <ele>576.6</ele>
        <time>2013-02-02T08:31:37.000Z</time>
      </trkpt>
      <trkpt lat="47.28027" lon="4.92122">
        <ele>576.9</ele>
        <time>2013-02-02T08:31:38.000Z</time>
      </trkpt>
      <trkpt lat="47.28031" lon="4.92123">
        <ele>577.8</ele>
        <time>2013-02-02T08:31:42.000Z</time>
      </trkpt>
      <trkpt lat="47.28033" lon="4.92124">
        <ele>578.1</ele>
        <time>2013-02-02T08:31:43.000Z</time>
      </trkpt>
      <trkpt lat="47.28035" lon="4.92126">
        <ele>578.8</ele>
        <time>2013-02-02T08:31:45.000Z</time>
      </trkpt>
      <trkpt lat="47.28036" lon="4.92129">
        <ele>579.3</ele>
        <time>2013-02-02T08:31:46.000Z</time>
      </trkpt>
      <trkpt lat="47.28038" lon="4.92133">
        <ele>580</ele>
        <time>2013-02-02T08:31:48.000Z</time>
      </trkpt>
      <trkpt lat="47.28038" lon="4.92134">
        <ele>580.2</ele>
        <time>2013-02-02T08:31:49.000Z</time>
      </trkpt>
      <trkpt lat="47.2804" lon="4.92136">
        <ele>580.5</ele>
        <time>2013-02-02T08:31:50.000Z</time>
      </trkpt>
      <trkpt lat="47.2805" lon="4.92156">
        <ele>584.4</ele>
        <time>2013-02-02T08:31:58.000Z</time>
      </trkpt>
      <trkpt lat="47.28053" lon="4.92161">
        <ele>588.4</ele>
        <time>2013-02-02T08:32:03.000Z</time>
      </trkpt>
      <trkpt lat="47.28053" lon="4.92162">
        <ele>588.6</ele>
        <time>2013-02-02T08:32:04.000Z</time>
      </trkpt>
      <trkpt lat="47.28056" lon="4.92165">
        <ele>589.8</ele>
        <time>2013-02-02T08:32:07.000Z</time>
      </trkpt>
      <trkpt lat="47.28057" lon="4.92166">
        <ele>589.8</ele>
        <time>2013-02-02T08:32:08.000Z</time>
      </trkpt>
      <trkpt lat="47.2806" lon="4.9217">
        <ele>592.2</ele>
        <time>2013-02-02T08:32:11.000Z</time>
      </trkpt>
      <trkpt lat="47.28062" lon="4.92171">
        <ele>592.8</ele>
        <time>2013-02-02T08:32:12.000Z</time>
      </trkpt>
      <trkpt lat="47.28064" lon="4.92176">
        <ele>594.6</ele>
        <time>2013-02-02T08:32:16.000Z</time>
      </trkpt>
      <trkpt lat="47.28065" lon="4.92177">
        <ele>595.7</ele>
        <time>2013-02-02T08:32:17.000Z</time>
      </trkpt>
      <trkpt lat="47.28067" lon="4.92182">
        <ele>598.6</ele>
        <time>2013-02-02T08:32:21.000Z</time>
      </trkpt>
      <trkpt lat="47.28069" lon="4.92183">
        <ele>597.2</ele>
        <time>2013-02-02T08:32:22.000Z</time>
      </trkpt>
      <trkpt lat="47.28073" lon="4.92185">
        <ele>596.4</ele>
        <time>2013-02-02T08:32:26.000Z</time>
      </trkpt>
      <trkpt lat="47.28074" lon="4.92186">
        <ele>596.4</ele>
        <time>2013-02-02T08:32:27.000Z</time>
      </trkpt>
      <trkpt lat="47.28077" lon="4.92188">
        <ele>596.4</ele>
        <time>2013-02-02T08:32:29.000Z</time>
      </trkpt>
      <trkpt lat="47.28078" lon="4.92189">
        <ele>596.1</ele>
        <time>2013-02-02T08:32:30.000Z</time>
      </trkpt>
      <trkpt lat="47.28081" lon="4.92192">
        <ele>595.8</ele>
        <time>2013-02-02T08:32:32.000Z</time>
      </trkpt>
      <trkpt lat="47.28082" lon="4.92193">
        <ele>595.6</ele>
        <time>2013-02-02T08:32:33.000Z</time>
      </trkpt>
      <trkpt lat="47.28086" lon="4.92196">
        <ele>594.8</ele>
        <time>2013-02-02T08:32:37.000Z</time>
      </trkpt>
      <trkpt lat="47.28087" lon="4.92198">
        <ele>595.1</ele>
        <time>2013-02-02T08:32:38.000Z</time>
      </trkpt>
      <trkpt lat="47.2809" lon="4.92201">
        <ele>595.4</ele>
        <time>2013-02-02T08:32:41.000Z</time>
      </trkpt>
      <trkpt lat="47.28091" lon="4.92202">
        <ele>595.2</ele>
        <time>2013-02-02T08:32:42.000Z</time>
      </trkpt>
      <trkpt lat="47.28093" lon="4.92205">
        <ele>595.3</ele>
        <time>2013-02-02T08:32:44.000Z</time>
      </trkpt>
      <trkpt lat="47.28094" lon="4.92206">
        <ele>595.4</ele>
        <time>2013-02-02T08:32:45.000Z</time>
      </trkpt>
      <trkpt lat="47.28097" lon="4.92209">
        <ele>595.6</ele>
        <time>2013-02-02T08:32:47.000Z</time>
      </trkpt>
      <trkpt lat="47.28098" lon="4.92211">
        <ele>595.4</ele>
        <time>2013-02-02T08:32:48.000Z</time>
      </trkpt>
      <trkpt lat="47.28102" lon="4.92212">
        <ele>595.4</ele>
        <time>2013-02-02T08:32:50.000Z</time>
      </trkpt>
      <trkpt lat="47.28104" lon="4.92214">
        <ele>595.9</ele>
        <time>2013-02-02T08:32:51.000Z</time>
      </trkpt>
      <trkpt lat="47.28107" lon="4.92216">
        <ele>596.5</ele>
        <time>2013-02-02T08:32:53.000Z</time>
      </trkpt>
      <trkpt lat="47.28108" lon="4.92217">
        <ele>596.7</ele>
        <time>2013-02-02T08:32:54.000Z</time>
      </trkpt>
      <trkpt lat="47.2811" lon="4.92222">
        <ele>597</ele>
        <time>2013-02-02T08:32:57.000Z</time>
      </trkpt>
      <trkpt lat="47.28111" lon="4.92224">
        <ele>597.2</ele>
        <time>2013-02-02T08:32:58.000Z</time>
      </trkpt>
      <trkpt lat="47.28114" lon="4.92225">
        <ele>597.9</ele>
        <time>2013-02-02T08:33:01.000Z</time>
      </trkpt>
      <trkpt lat="47.28115" lon="4.92224">
        <ele>598</ele>
        <time>2013-02-02T08:33:02.000Z</time>
      </trkpt>
      <trkpt lat="47.28118" lon="4.92228">
        <ele>598.3</ele>
        <time>2013-02-02T08:33:05.000Z</time>
      </trkpt>
      <trkpt lat="47.28119" lon="4.9223">
        <ele>598.5</ele>
        <time>2013-02-02T08:33:06.000Z</time>
      </trkpt>
      <trkpt lat="47.28121" lon="4.92233">
        <ele>599</ele>
        <time>2013-02-02T08:33:08.000Z</time>
      </trkpt>
      <trkpt lat="47.28123" lon="4.92234">
        <ele>599</ele>
        <time>2013-02-02T08:33:09.000Z</time>
      </trkpt>
      <trkpt lat="47.28126" lon="4.92236">
        <ele>599</ele>
        <time>2013-02-02T08:33:12.000Z</time>
      </trkpt>
      <trkpt lat="47.28127" lon="4.92237">
        <ele>599</ele>
        <time>2013-02-02T08:33:13.000Z</time>
      </trkpt>
      <trkpt lat="47.2813" lon="4.9224">
        <ele>599.5</ele>
        <time>2013-02-02T08:33:16.000Z</time>
      </trkpt>
      <trkpt lat="47.28132" lon="4.92241">
        <ele>599.6</ele>
        <time>2013-02-02T08:33:17.000Z</time>
      </trkpt>
      <trkpt lat="47.28135" lon="4.92242">
        <ele>600</ele>
        <time>2013-02-02T08:33:19.000Z</time>
      </trkpt>
      <trkpt lat="47.28136" lon="4.92243">
        <ele>600.2</ele>
        <time>2013-02-02T08:33:20.000Z</time>
      </trkpt>
      <trkpt lat="47.28139" lon="4.92245">
        <ele>600.8</ele>
        <time>2013-02-02T08:33:22.000Z</time>
      </trkpt>
      <trkpt lat="47.2814" lon="4.92247">
        <ele>601.1</ele>
        <time>2013-02-02T08:33:23.000Z</time>
      </trkpt>
      <trkpt lat="47.28142" lon="4.92251">
        <ele>601.6</ele>
        <time>2013-02-02T08:33:25.000Z</time>
      </trkpt>
      <trkpt lat="47.28143" lon="4.92253">
        <ele>601.9</ele>
        <time>2013-02-02T08:33:26.000Z</time>
      </trkpt>
      <trkpt lat="47.28146" lon="4.92257">
        <ele>602</ele>
        <time>2013-02-02T08:33:28.000Z</time>
      </trkpt>
      <trkpt lat="47.28147" lon="4.92258">
        <ele>602.2</ele>
        <time>2013-02-02T08:33:29.000Z</time>
      </trkpt>
      <trkpt lat="47.2815" lon="4.92261">
        <ele>602.4</ele>
        <time>2013-02-02T08:33:32.000Z</time>
      </trkpt>
      <trkpt lat="47.28151" lon="4.92264">
        <ele>602.4</ele>
        <time>2013-02-02T08:33:33.000Z</time>
      </trkpt>
      <trkpt lat="47.28154" lon="4.92267">
        <ele>601.9</ele>
        <time>2013-02-02T08:33:35.000Z</time>
      </trkpt>
      <trkpt lat="47.28155" lon="4.92268">
        <ele>601.9</ele>
        <time>2013-02-02T08:33:36.000Z</time>
      </trkpt>
      <trkpt lat="47.28158" lon="4.92272">
        <ele>602.3</ele>
        <time>2013-02-02T08:33:39.000Z</time>
      </trkpt>
      <trkpt lat="47.28159" lon="4.92274">
        <ele>602.4</ele>
        <time>2013-02-02T08:33:40.000Z</time>
      </trkpt>
      <trkpt lat="47.28162" lon="4.92277">
        <ele>602.5</ele>
        <time>2013-02-02T08:33:42.000Z</time>
      </trkpt>
      <trkpt lat="47.28164" lon="4.92278">
        <ele>602.7</ele>
        <time>2013-02-02T08:33:43.000Z</time>
      </trkpt>
      <trkpt lat="47.28167" lon="4.92282">
        <ele>602.4</ele>
        <time>2013-02-02T08:33:46.000Z</time>
      </trkpt>
      <trkpt lat="47.28168" lon="4.92283">
        <ele>602.5</ele>
        <time>2013-02-02T08:33:47.000Z</time>
      </trkpt>
      <trkpt lat="47.28171" lon="4.92286">
        <ele>602.6</ele>
        <time>2013-02-02T08:33:49.000Z</time>
      </trkpt>
      <trkpt lat="47.28172" lon="4.92288">
        <ele>602.6</ele>
        <time>2013-02-02T08:33:50.000Z</time>
      </trkpt>
      <trkpt lat="47.28189" lon="4.92309">
        <ele>609.5</ele>
        <time>2013-02-02T08:34:01.000Z</time>
      </trkpt>
      <trkpt lat="47.28192" lon="4.92313">
        <ele>610.1</ele>
        <time>2013-02-02T08:34:05.000Z</time>
      </trkpt>
      <trkpt lat="47.28193" lon="4.92315">
        <ele>610.6</ele>
        <time>2013-02-02T08:34:06.000Z</time>
      </trkpt>
      <trkpt lat="47.28196" lon="4.92318">
        <ele>610.6</ele>
        <time>2013-02-02T08:34:09.000Z</time>
      </trkpt>
      <trkpt lat="47.28197" lon="4.92318">
        <ele>610.2</ele>
        <time>2013-02-02T08:34:10.000Z</time>
      </trkpt>
      <trkpt lat="47.282" lon="4.92323">
        <ele>609.7</ele>
        <time>2013-02-02T08:34:14.000Z</time>
      </trkpt>
      <trkpt lat="47.28201" lon="4.92324">
        <ele>609.2</ele>
        <time>2013-02-02T08:34:15.000Z</time>
      </trkpt>
      <trkpt lat="47.28204" lon="4.92328">
        <ele>609.7</ele>
        <time>2013-02-02T08:34:18.000Z</time>
      </trkpt>
      <trkpt lat="47.28205" lon="4.9233">
        <ele>609.3</ele>
        <time>2013-02-02T08:34:19.000Z</time>
      </trkpt>
      <trkpt lat="47.28208" lon="4.92334">
        <ele>610.4</ele>
        <time>2013-02-02T08:34:23.000Z</time>
      </trkpt>
      <trkpt lat="47.2821" lon="4.92334">
        <ele>610.4</ele>
        <time>2013-02-02T08:34:24.000Z</time>
      </trkpt>
      <trkpt lat="47.28212" lon="4.92337">
        <ele>610.2</ele>
        <time>2013-02-02T08:34:27.000Z</time>
      </trkpt>
      <trkpt lat="47.28213" lon="4.92338">
        <ele>610.3</ele>
        <time>2013-02-02T08:34:28.000Z</time>
      </trkpt>
      <trkpt lat="47.28216" lon="4.92342">
        <ele>610.8</ele>
        <time>2013-02-02T08:34:31.000Z</time>
      </trkpt>
      <trkpt lat="47.28217" lon="4.92344">
        <ele>610.5</ele>
        <time>2013-02-02T08:34:32.000Z</time>
      </trkpt>
      <trkpt lat="47.2822" lon="4.92348">
        <ele>610.8</ele>
        <time>2013-02-02T08:34:35.000Z</time>
      </trkpt>
      <trkpt lat="47.28221" lon="4.9235">
        <ele>611.4</ele>
        <time>2013-02-02T08:34:36.000Z</time>
      </trkpt>
      <trkpt lat="47.28223" lon="4.92354">
        <ele>612.2</ele>
        <time>2013-02-02T08:34:39.000Z</time>
      </trkpt>
      <trkpt lat="47.28224" lon="4.92355">
        <ele>612.2</ele>
        <time>2013-02-02T08:34:40.000Z</time>
      </trkpt>
      <trkpt lat="47.28226" lon="4.92358">
        <ele>611.9</ele>
        <time>2013-02-02T08:34:43.000Z</time>
      </trkpt>
      <trkpt lat="47.28227" lon="4.92359">
        <ele>611.9</ele>
        <time>2013-02-02T08:34:44.000Z</time>
      </trkpt>
      <trkpt lat="47.28231" lon="4.92363">
        <ele>612.3</ele>
        <time>2013-02-02T08:34:47.000Z</time>
      </trkpt>
      <trkpt lat="47.28232" lon="4.92364">
        <ele>612.5</ele>
        <time>2013-02-02T08:34:48.000Z</time>
      </trkpt>
      <trkpt lat="47.28234" lon="4.92367">
        <ele>612.5</ele>
        <time>2013-02-02T08:34:50.000Z</time>
      </trkpt>
      <trkpt lat="47.28249" lon="4.92389">
        <ele>609.6</ele>
        <time>2013-02-02T08:35:00.000Z</time>
      </trkpt>
      <trkpt lat="47.28253" lon="4.92393">
        <ele>609.5</ele>
        <time>2013-02-02T08:35:03.000Z</time>
      </trkpt>
      <trkpt lat="47.28254" lon="4.92395">
        <ele>610.5</ele>
        <time>2013-02-02T08:35:04.000Z</time>
      </trkpt>
      <trkpt lat="47.28257" lon="4.92397">
        <ele>609.8</ele>
        <time>2013-02-02T08:35:06.000Z</time>
      </trkpt>
      <trkpt lat="47.28258" lon="4.92398">
        <ele>609.6</ele>
        <time>2013-02-02T08:35:07.000Z</time>
      </trkpt>
      <trkpt lat="47.28261" lon="4.92401">
        <ele>609.2</ele>
        <time>2013-02-02T08:35:09.000Z</time>
      </trkpt>
      <trkpt lat="47.28262" lon="4.92403">
        <ele>609.5</ele>
        <time>2013-02-02T08:35:10.000Z</time>
      </trkpt>
      <trkpt lat="47.28265" lon="4.92407">
        <ele>610.2</ele>
        <time>2013-02-02T08:35:13.000Z</time>
      </trkpt>
      <trkpt lat="47.28265" lon="4.92408">
        <ele>610.4</ele>
        <time>2013-02-02T08:35:14.000Z</time>
      </trkpt>
      <trkpt lat="47.28268" lon="4.92412">
        <ele>611.8</ele>
        <time>2013-02-02T08:35:17.000Z</time>
      </trkpt>
      <trkpt lat="47.28269" lon="4.92413">
        <ele>612.2</ele>
        <time>2013-02-02T08:35:18.000Z</time>
      </trkpt>
      <trkpt lat="47.28272" lon="4.92417">
        <ele>612.6</ele>
        <time>2013-02-02T08:35:21.000Z</time>
      </trkpt>
      <trkpt lat="47.28273" lon="4.92418">
        <ele>611.9</ele>
        <time>2013-02-02T08:35:22.000Z</time>
      </trkpt>
      <trkpt lat="47.28275" lon="4.92422">
        <ele>611.9</ele>
        <time>2013-02-02T08:35:26.000Z</time>
      </trkpt>
      <trkpt lat="47.28275" lon="4.92423">
        <ele>612.1</ele>
        <time>2013-02-02T08:35:27.000Z</time>
      </trkpt>
      <trkpt lat="47.28278" lon="4.92428">
        <ele>612.3</ele>
        <time>2013-02-02T08:35:30.000Z</time>
      </trkpt>
      <trkpt lat="47.28278" lon="4.92429">
        <ele>612.3</ele>
        <time>2013-02-02T08:35:31.000Z</time>
      </trkpt>
      <trkpt lat="47.28281" lon="4.92433">
        <ele>612.3</ele>
        <time>2013-02-02T08:35:34.000Z</time>
      </trkpt>
      <trkpt lat="47.28283" lon="4.92435">
        <ele>612</ele>
        <time>2013-02-02T08:35:35.000Z</time>
      </trkpt>
      <trkpt lat="47.28285" lon="4.92437">
        <ele>611.9</ele>
        <time>2013-02-02T08:35:37.000Z</time>
      </trkpt>
      <trkpt lat="47.28287" lon="4.92439">
        <ele>612.1</ele>
        <time>2013-02-02T08:35:38.000Z</time>
      </trkpt>
      <trkpt lat="47.28289" lon="4.92441">
        <ele>612.3</ele>
        <time>2013-02-02T08:35:40.000Z</time>
      </trkpt>
      <trkpt lat="47.28291" lon="4.92442">
        <ele>612.4</ele>
        <time>2013-02-02T08:35:41.000Z</time>
      </trkpt>
      <trkpt lat="47.28294" lon="4.92445">
        <ele>612.7</ele>
        <time>2013-02-02T08:35:44.000Z</time>
      </trkpt>
      <trkpt lat="47.28295" lon="4.92446">
        <ele>612.9</ele>
        <time>2013-02-02T08:35:45.000Z</time>
      </trkpt>
      <trkpt lat="47.28298" lon="4.9245">
        <ele>613</ele>
        <time>2013-02-02T08:35:48.000Z</time>
      </trkpt>
      <trkpt lat="47.28299" lon="4.92452">
        <ele>613</ele>
        <time>2013-02-02T08:35:49.000Z</time>
      </trkpt>
      <trkpt lat="47.28301" lon="4.92453">
        <ele>612.9</ele>
        <time>2013-02-02T08:35:50.000Z</time>
      </trkpt>
      <trkpt lat="47.28309" lon="4.92465">
        <ele>610.8</ele>
        <time>2013-02-02T08:35:58.000Z</time>
      </trkpt>
      <trkpt lat="47.28312" lon="4.92468">
        <ele>610.5</ele>
        <time>2013-02-02T08:36:00.000Z</time>
      </trkpt>
      <trkpt lat="47.28314" lon="4.92468">
        <ele>610.9</ele>
        <time>2013-02-02T08:36:01.000Z</time>
      </trkpt>
      <trkpt lat="47.28317" lon="4.92471">
        <ele>612.8</ele>
        <time>2013-02-02T08:36:04.000Z</time>
      </trkpt>
      <trkpt lat="47.28318" lon="4.92472">
        <ele>613.1</ele>
        <time>2013-02-02T08:36:05.000Z</time>
      </trkpt>
      <trkpt lat="47.28321" lon="4.92476">
        <ele>614.4</ele>
        <time>2013-02-02T08:36:07.000Z</time>
      </trkpt>
      <trkpt lat="47.28321" lon="4.92478">
        <ele>614.6</ele>
        <time>2013-02-02T08:36:08.000Z</time>
      </trkpt>
      <trkpt lat="47.28324" lon="4.92481">
        <ele>615.7</ele>
        <time>2013-02-02T08:36:11.000Z</time>
      </trkpt>
      <trkpt lat="47.28326" lon="4.92482">
        <ele>616.1</ele>
        <time>2013-02-02T08:36:12.000Z</time>
      </trkpt>
      <trkpt lat="47.28328" lon="4.92486">
        <ele>617</ele>
        <time>2013-02-02T08:36:14.000Z</time>
      </trkpt>
      <trkpt lat="47.28329" lon="4.92487">
        <ele>617.8</ele>
        <time>2013-02-02T08:36:15.000Z</time>
      </trkpt>
      <trkpt lat="47.28332" lon="4.9249">
        <ele>620</ele>
        <time>2013-02-02T08:36:18.000Z</time>
      </trkpt>
      <trkpt lat="47.28333" lon="4.92491">
        <ele>620.4</ele>
        <time>2013-02-02T08:36:19.000Z</time>
      </trkpt>
      <trkpt lat="47.28336" lon="4.92493">
        <ele>620.6</ele>
        <time>2013-02-02T08:36:22.000Z</time>
      </trkpt>
      <trkpt lat="47.28337" lon="4.92494">
        <ele>620.6</ele>
        <time>2013-02-02T08:36:23.000Z</time>
      </trkpt>
      <trkpt lat="47.28339" lon="4.92498">
        <ele>620.6</ele>
        <time>2013-02-02T08:36:25.000Z</time>
      </trkpt>
      <trkpt lat="47.2834" lon="4.925">
        <ele>620.6</ele>
        <time>2013-02-02T08:36:26.000Z</time>
      </trkpt>
      <trkpt lat="47.28343" lon="4.92502">
        <ele>620.2</ele>
        <time>2013-02-02T08:36:28.000Z</time>
      </trkpt>
      <trkpt lat="47.28344" lon="4.92504">
        <ele>620.4</ele>
        <time>2013-02-02T08:36:29.000Z</time>
      </trkpt>
      <trkpt lat="47.28347" lon="4.92506">
        <ele>620.7</ele>
        <time>2013-02-02T08:36:31.000Z</time>
      </trkpt>
      <trkpt lat="47.28348" lon="4.92508">
        <ele>620.6</ele>
        <time>2013-02-02T08:36:32.000Z</time>
      </trkpt>
      <trkpt lat="47.28351" lon="4.92512">
        <ele>620.8</ele>
        <time>2013-02-02T08:36:35.000Z</time>
      </trkpt>
      <trkpt lat="47.28352" lon="4.92513">
        <ele>621.1</ele>
        <time>2013-02-02T08:36:36.000Z</time>
      </trkpt>
      <trkpt lat="47.28355" lon="4.92516">
        <ele>621.3</ele>
        <time>2013-02-02T08:36:38.000Z</time>
      </trkpt>
      <trkpt lat="47.28356" lon="4.92518">
        <ele>621.4</ele>
        <time>2013-02-02T08:36:39.000Z</time>
      </trkpt>
      <trkpt lat="47.28359" lon="4.92521">
        <ele>621.4</ele>
        <time>2013-02-02T08:36:41.000Z</time>
      </trkpt>
      <trkpt lat="47.2836" lon="4.92522">
        <ele>621.3</ele>
        <time>2013-02-02T08:36:42.000Z</time>
      </trkpt>
      <trkpt lat="47.28363" lon="4.92525">
        <ele>621.5</ele>
        <time>2013-02-02T08:36:44.000Z</time>
      </trkpt>
      <trkpt lat="47.28364" lon="4.92527">
        <ele>621.6</ele>
        <time>2013-02-02T08:36:45.000Z</time>
      </trkpt>
      <trkpt lat="47.28367" lon="4.92531">
        <ele>621.8</ele>
        <time>2013-02-02T08:36:48.000Z</time>
      </trkpt>
      <trkpt lat="47.28369" lon="4.92531">
        <ele>621.6</ele>
        <time>2013-02-02T08:36:49.000Z</time>
      </trkpt>
      <trkpt lat="47.2837" lon="4.92532">
        <ele>621.4</ele>
        <time>2013-02-02T08:36:50.000Z</time>
      </trkpt>
      <trkpt lat="47.28384" lon="4.92546">
        <ele>621.6</ele>
        <time>2013-02-02T08:37:00.000Z</time>
      </trkpt>
      <trkpt lat="47.28387" lon="4.9255">
        <ele>621.8</ele>
        <time>2013-02-02T08:37:05.000Z</time>
      </trkpt>
      <trkpt lat="47.28388" lon="4.92551">
        <ele>622.1</ele>
        <time>2013-02-02T08:37:06.000Z</time>
      </trkpt>
      <trkpt lat="47.28391" lon="4.92555">
        <ele>623.6</ele>
        <time>2013-02-02T08:37:09.000Z</time>
      </trkpt>
      <trkpt lat="47.28392" lon="4.92556">
        <ele>624</ele>
        <time>2013-02-02T08:37:10.000Z</time>
      </trkpt>
      <trkpt lat="47.28395" lon="4.92558">
        <ele>624.3</ele>
        <time>2013-02-02T08:37:12.000Z</time>
      </trkpt>
      <trkpt lat="47.28396" lon="4.92559">
        <ele>624</ele>
        <time>2013-02-02T08:37:13.000Z</time>
      </trkpt>
      <trkpt lat="47.284" lon="4.92562">
        <ele>625.1</ele>
        <time>2013-02-02T08:37:16.000Z</time>
      </trkpt>
      <trkpt lat="47.28401" lon="4.92563">
        <ele>624.9</ele>
        <time>2013-02-02T08:37:17.000Z</time>
      </trkpt>
      <trkpt lat="47.28404" lon="4.92566">
        <ele>625.8</ele>
        <time>2013-02-02T08:37:20.000Z</time>
      </trkpt>
      <trkpt lat="47.28405" lon="4.92567">
        <ele>625.7</ele>
        <time>2013-02-02T08:37:21.000Z</time>
      </trkpt>
      <trkpt lat="47.28408" lon="4.92571">
        <ele>626</ele>
        <time>2013-02-02T08:37:25.000Z</time>
      </trkpt>
      <trkpt lat="47.28409" lon="4.92572">
        <ele>626.4</ele>
        <time>2013-02-02T08:37:26.000Z</time>
      </trkpt>
      <trkpt lat="47.28413" lon="4.92576">
        <ele>626.8</ele>
        <time>2013-02-02T08:37:29.000Z</time>
      </trkpt>
      <trkpt lat="47.28414" lon="4.92577">
        <ele>626.8</ele>
        <time>2013-02-02T08:37:30.000Z</time>
      </trkpt>
      <trkpt lat="47.28418" lon="4.92579">
        <ele>627.3</ele>
        <time>2013-02-02T08:37:33.000Z</time>
      </trkpt>
      <trkpt lat="47.28419" lon="4.9258">
        <ele>627.2</ele>
        <time>2013-02-02T08:37:34.000Z</time>
      </trkpt>
      <trkpt lat="47.28422" lon="4.92584">
        <ele>627.5</ele>
        <time>2013-02-02T08:37:37.000Z</time>
      </trkpt>
      <trkpt lat="47.28423" lon="4.92585">
        <ele>627.6</ele>
        <time>2013-02-02T08:37:38.000Z</time>
      </trkpt>
      <trkpt lat="47.28426" lon="4.92588">
        <ele>628.4</ele>
        <time>2013-02-02T08:37:40.000Z</time>
      </trkpt>
      <trkpt lat="47.28427" lon="4.9259">
        <ele>628.6</ele>
        <time>2013-02-02T08:37:41.000Z</time>
      </trkpt>
      <trkpt lat="47.2843" lon="4.92594">
        <ele>629.6</ele>
        <time>2013-02-02T08:37:43.000Z</time>
      </trkpt>
      <trkpt lat="47.28431" lon="4.92595">
        <ele>629.7</ele>
        <time>2013-02-02T08:37:44.000Z</time>
      </trkpt>
      <trkpt lat="47.28435" lon="4.92599">
        <ele>629.8</ele>
        <time>2013-02-02T08:37:47.000Z</time>
      </trkpt>
      <trkpt lat="47.28436" lon="4.92601">
        <ele>629.7</ele>
        <time>2013-02-02T08:37:48.000Z</time>
      </trkpt>
      <trkpt lat="47.28439" lon="4.92602">
        <ele>629.4</ele>
        <time>2013-02-02T08:37:50.000Z</time>
      </trkpt>
      <trkpt lat="47.28452" lon="4.92618">
        <ele>627.2</ele>
        <time>2013-02-02T08:37:59.000Z</time>
      </trkpt>
      <trkpt lat="47.28455" lon="4.9262">
        <ele>628.2</ele>
        <time>2013-02-02T08:38:03.000Z</time>
      </trkpt>
      <trkpt lat="47.28456" lon="4.92621">
        <ele>629</ele>
        <time>2013-02-02T08:38:04.000Z</time>
      </trkpt>
      <trkpt lat="47.28459" lon="4.92623">
        <ele>630.6</ele>
        <time>2013-02-02T08:38:07.000Z</time>
      </trkpt>
      <trkpt lat="47.28461" lon="4.92624">
        <ele>630.9</ele>
        <time>2013-02-02T08:38:08.000Z</time>
      </trkpt>
      <trkpt lat="47.28464" lon="4.92628">
        <ele>632</ele>
        <time>2013-02-02T08:38:11.000Z</time>
      </trkpt>
      <trkpt lat="47.28465" lon="4.92629">
        <ele>631.5</ele>
        <time>2013-02-02T08:38:12.000Z</time>
      </trkpt>
      <trkpt lat="47.28468" lon="4.92633">
        <ele>629.8</ele>
        <time>2013-02-02T08:38:14.000Z</time>
      </trkpt>
      <trkpt lat="47.28469" lon="4.92636">
        <ele>629.8</ele>
        <time>2013-02-02T08:38:15.000Z</time>
      </trkpt>
      <trkpt lat="47.28471" lon="4.92641">
        <ele>629.2</ele>
        <time>2013-02-02T08:38:17.000Z</time>
      </trkpt>
      <trkpt lat="47.28472" lon="4.92643">
        <ele>629.6</ele>
        <time>2013-02-02T08:38:18.000Z</time>
      </trkpt>
      <trkpt lat="47.28472" lon="4.92649">
        <ele>630.4</ele>
        <time>2013-02-02T08:38:21.000Z</time>
      </trkpt>
      <trkpt lat="47.28471" lon="4.92652">
        <ele>631.5</ele>
        <time>2013-02-02T08:38:22.000Z</time>
      </trkpt>
      <trkpt lat="47.2847" lon="4.92656">
        <ele>631.4</ele>
        <time>2013-02-02T08:38:25.000Z</time>
      </trkpt>
      <trkpt lat="47.2847" lon="4.92658">
        <ele>631.8</ele>
        <time>2013-02-02T08:38:26.000Z</time>
      </trkpt>
      <trkpt lat="47.28468" lon="4.92664">
        <ele>633.1</ele>
        <time>2013-02-02T08:38:29.000Z</time>
      </trkpt>
      <trkpt lat="47.28467" lon="4.92667">
        <ele>633.2</ele>
        <time>2013-02-02T08:38:30.000Z</time>
      </trkpt>
      <trkpt lat="47.28467" lon="4.92673">
        <ele>633.7</ele>
        <time>2013-02-02T08:38:34.000Z</time>
      </trkpt>
      <trkpt lat="47.28467" lon="4.92674">
        <ele>633.9</ele>
        <time>2013-02-02T08:38:35.000Z</time>
      </trkpt>
      <trkpt lat="47.28469" lon="4.92679">
        <ele>634.1</ele>
        <time>2013-02-02T08:38:40.000Z</time>
      </trkpt>
      <trkpt lat="47.28469" lon="4.9268">
        <ele>633.8</ele>
        <time>2013-02-02T08:38:41.000Z</time>
      </trkpt>
      <trkpt lat="47.2847" lon="4.92685">
        <ele>634.6</ele>
        <time>2013-02-02T08:38:47.000Z</time>
      </trkpt>
      <trkpt lat="47.2847" lon="4.92687">
        <ele>634.4</ele>
        <time>2013-02-02T08:38:48.000Z</time>
      </trkpt>
      <trkpt lat="47.28471" lon="4.92688">
        <ele>634.5</ele>
        <time>2013-02-02T08:38:50.000Z</time>
      </trkpt>
      <trkpt lat="47.28479" lon="4.92697">
        <ele>636</ele>
        <time>2013-02-02T08:38:57.000Z</time>
      </trkpt>
      <trkpt lat="47.28481" lon="4.927">
        <ele>634.3</ele>
        <time>2013-02-02T08:38:58.000Z</time>
      </trkpt>
      <trkpt lat="47.28481" lon="4.92703">
        <ele>633.7</ele>
        <time>2013-02-02T08:38:59.000Z</time>
      </trkpt>
      <trkpt lat="47.28484" lon="4.92707">
        <ele>634.7</ele>
        <time>2013-02-02T08:39:01.000Z</time>
      </trkpt>
      <trkpt lat="47.28485" lon="4.92709">
        <ele>634.5</ele>
        <time>2013-02-02T08:39:02.000Z</time>
      </trkpt>
      <trkpt lat="47.28488" lon="4.92712">
        <ele>635.4</ele>
        <time>2013-02-02T08:39:04.000Z</time>
      </trkpt>
      <trkpt lat="47.28489" lon="4.92714">
        <ele>635.1</ele>
        <time>2013-02-02T08:39:05.000Z</time>
      </trkpt>
      <trkpt lat="47.2849" lon="4.92719">
        <ele>636</ele>
        <time>2013-02-02T08:39:08.000Z</time>
      </trkpt>
      <trkpt lat="47.2849" lon="4.9272">
        <ele>635.8</ele>
        <time>2013-02-02T08:39:09.000Z</time>
      </trkpt>
      <trkpt lat="47.28492" lon="4.92725">
        <ele>636.2</ele>
        <time>2013-02-02T08:39:12.000Z</time>
      </trkpt>
      <trkpt lat="47.28492" lon="4.92727">
        <ele>636.2</ele>
        <time>2013-02-02T08:39:13.000Z</time>
      </trkpt>
      <trkpt lat="47.28495" lon="4.92732">
        <ele>639.2</ele>
        <time>2013-02-02T08:39:17.000Z</time>
      </trkpt>
      <trkpt lat="47.28497" lon="4.92733">
        <ele>639.3</ele>
        <time>2013-02-02T08:39:18.000Z</time>
      </trkpt>
      <trkpt lat="47.285" lon="4.92736">
        <ele>640</ele>
        <time>2013-02-02T08:39:21.000Z</time>
      </trkpt>
      <trkpt lat="47.28501" lon="4.92737">
        <ele>639.4</ele>
        <time>2013-02-02T08:39:22.000Z</time>
      </trkpt>
      <trkpt lat="47.28504" lon="4.92739">
        <ele>639.9</ele>
        <time>2013-02-02T08:39:25.000Z</time>
      </trkpt>
      <trkpt lat="47.28506" lon="4.9274">
        <ele>639.3</ele>
        <time>2013-02-02T08:39:26.000Z</time>
      </trkpt>
      <trkpt lat="47.28507" lon="4.92743">
        <ele>639.3</ele>
        <time>2013-02-02T08:39:28.000Z</time>
      </trkpt>
      <trkpt lat="47.28508" lon="4.92745">
        <ele>639.7</ele>
        <time>2013-02-02T08:39:29.000Z</time>
      </trkpt>
      <trkpt lat="47.28512" lon="4.92747">
        <ele>639.6</ele>
        <time>2013-02-02T08:39:32.000Z</time>
      </trkpt>
      <trkpt lat="47.28513" lon="4.92747">
        <ele>639.3</ele>
        <time>2013-02-02T08:39:33.000Z</time>
      </trkpt>
      <trkpt lat="47.28517" lon="4.92748">
        <ele>639.1</ele>
        <time>2013-02-02T08:39:36.000Z</time>
      </trkpt>
      <trkpt lat="47.28519" lon="4.92747">
        <ele>639.2</ele>
        <time>2013-02-02T08:39:37.000Z</time>
      </trkpt>
      <trkpt lat="47.28523" lon="4.92747">
        <ele>639.8</ele>
        <time>2013-02-02T08:39:41.000Z</time>
      </trkpt>
      <trkpt lat="47.28524" lon="4.92748">
        <ele>640</ele>
        <time>2013-02-02T08:39:42.000Z</time>
      </trkpt>
      <trkpt lat="47.28528" lon="4.92751">
        <ele>640</ele>
        <time>2013-02-02T08:39:47.000Z</time>
      </trkpt>
      <trkpt lat="47.28528" lon="4.92752">
        <ele>639.6</ele>
        <time>2013-02-02T08:39:48.000Z</time>
      </trkpt>
      <trkpt lat="47.28528" lon="4.92752">
        <ele>639.6</ele>
        <time>2013-02-02T08:39:50.000Z</time>
      </trkpt>
      <trkpt lat="47.28538" lon="4.92744">
        <ele>636.3</ele>
        <time>2013-02-02T08:39:57.000Z</time>
      </trkpt>
      <trkpt lat="47.28538" lon="4.92744">
        <ele>636.3</ele>
        <time>2013-02-02T08:39:59.000Z</time>
      </trkpt>
      <trkpt lat="47.28538" lon="4.92755">
        <ele>639.4</ele>
        <time>2013-02-02T08:40:00.000Z</time>
      </trkpt>
      <trkpt lat="47.28537" lon="4.92761">
        <ele>639.3</ele>
        <time>2013-02-02T08:40:06.000Z</time>
      </trkpt>
      <trkpt lat="47.28537" lon="4.92763">
        <ele>639.5</ele>
        <time>2013-02-02T08:40:07.000Z</time>
      </trkpt>
      <trkpt lat="47.28538" lon="4.92769">
        <ele>639.7</ele>
        <time>2013-02-02T08:40:11.000Z</time>
      </trkpt>
      <trkpt lat="47.28537" lon="4.9277">
        <ele>639.7</ele>
        <time>2013-02-02T08:40:12.000Z</time>
      </trkpt>
      <trkpt lat="47.28537" lon="4.92777">
        <ele>639.9</ele>
        <time>2013-02-02T08:40:16.000Z</time>
      </trkpt>
      <trkpt lat="47.28537" lon="4.92779">
        <ele>639.8</ele>
        <time>2013-02-02T08:40:17.000Z</time>
      </trkpt>
      <trkpt lat="47.28536" lon="4.92784">
        <ele>639.7</ele>
        <time>2013-02-02T08:40:20.000Z</time>
      </trkpt>
      <trkpt lat="47.28536" lon="4.92785">
        <ele>639.9</ele>
        <time>2013-02-02T08:40:21.000Z</time>
      </trkpt>
      <trkpt lat="47.28536" lon="4.9279">
        <ele>639.5</ele>
        <time>2013-02-02T08:40:24.000Z</time>
      </trkpt>
      <trkpt lat="47.28536" lon="4.92792">
        <ele>639.3</ele>
        <time>2013-02-02T08:40:25.000Z</time>
      </trkpt>
      <trkpt lat="47.28536" lon="4.92797">
        <ele>638.9</ele>
        <time>2013-02-02T08:40:28.000Z</time>
      </trkpt>
      <trkpt lat="47.28535" lon="4.92799">
        <ele>639</ele>
        <time>2013-02-02T08:40:29.000Z</time>
      </trkpt>
      <trkpt lat="47.28535" lon="4.92804">
        <ele>639.1</ele>
        <time>2013-02-02T08:40:32.000Z</time>
      </trkpt>
      <trkpt lat="47.28535" lon="4.92806">
        <ele>639.2</ele>
        <time>2013-02-02T08:40:33.000Z</time>
      </trkpt>
      <trkpt lat="47.28535" lon="4.92813">
        <ele>639.1</ele>
        <time>2013-02-02T08:40:36.000Z</time>
      </trkpt>
      <trkpt lat="47.28535" lon="4.92815">
        <ele>639</ele>
        <time>2013-02-02T08:40:37.000Z</time>
      </trkpt>
      <trkpt lat="47.28535" lon="4.9282">
        <ele>638.9</ele>
        <time>2013-02-02T08:40:39.000Z</time>
      </trkpt>
      <trkpt lat="47.28534" lon="4.92823">
        <ele>639</ele>
        <time>2013-02-02T08:40:40.000Z</time>
      </trkpt>
      <trkpt lat="47.28534" lon="4.92829">
        <ele>639.2</ele>
        <time>2013-02-02T08:40:43.000Z</time>
      </trkpt>
      <trkpt lat="47.28534" lon="4.92831">
        <ele>639.2</ele>
        <time>2013-02-02T08:40:44.000Z</time>
      </trkpt>
      <trkpt lat="47.28533" lon="4.92837">
        <ele>639.6</ele>
        <time>2013-02-02T08:40:47.000Z</time>
      </trkpt>
      <trkpt lat="47.28533" lon="4.92839">
        <ele>639.9</ele>
        <time>2013-02-02T08:40:48.000Z</time>
      </trkpt>
      <trkpt lat="47.28533" lon="4.92843">
        <ele>640.1</ele>
        <time>2013-02-02T08:40:50.000Z</time>
      </trkpt>
      <trkpt lat="47.28535" lon="4.9286">
        <ele>641.5</ele>
        <time>2013-02-02T08:40:57.000Z</time>
      </trkpt>
      <trkpt lat="47.28535" lon="4.92865">
        <ele>640.7</ele>
        <time>2013-02-02T08:40:59.000Z</time>
      </trkpt>
      <trkpt lat="47.28535" lon="4.92867">
        <ele>640.8</ele>
        <time>2013-02-02T08:41:00.000Z</time>
      </trkpt>
      <trkpt lat="47.28534" lon="4.92873">
        <ele>639.4</ele>
        <time>2013-02-02T08:41:03.000Z</time>
      </trkpt>
      <trkpt lat="47.28534" lon="4.92876">
        <ele>639.1</ele>
        <time>2013-02-02T08:41:04.000Z</time>
      </trkpt>
      <trkpt lat="47.28534" lon="4.92881">
        <ele>638.5</ele>
        <time>2013-02-02T08:41:07.000Z</time>
      </trkpt>
      <trkpt lat="47.28534" lon="4.92883">
        <ele>638.9</ele>
        <time>2013-02-02T08:41:08.000Z</time>
      </trkpt>
      <trkpt lat="47.28533" lon="4.92888">
        <ele>638.7</ele>
        <time>2013-02-02T08:41:10.000Z</time>
      </trkpt>
      <trkpt lat="47.28533" lon="4.9289">
        <ele>638.7</ele>
        <time>2013-02-02T08:41:11.000Z</time>
      </trkpt>
      <trkpt lat="47.28532" lon="4.92896">
        <ele>638.9</ele>
        <time>2013-02-02T08:41:14.000Z</time>
      </trkpt>
      <trkpt lat="47.28532" lon="4.92898">
        <ele>639.1</ele>
        <time>2013-02-02T08:41:15.000Z</time>
      </trkpt>
      <trkpt lat="47.28532" lon="4.92904">
        <ele>639.7</ele>
        <time>2013-02-02T08:41:18.000Z</time>
      </trkpt>
      <trkpt lat="47.28532" lon="4.92905">
        <ele>639.9</ele>
        <time>2013-02-02T08:41:19.000Z</time>
      </trkpt>
      <trkpt lat="47.28532" lon="4.92912">
        <ele>639</ele>
        <time>2013-02-02T08:41:24.000Z</time>
      </trkpt>
      <trkpt lat="47.28533" lon="4.92912">
        <ele>638.7</ele>
        <time>2013-02-02T08:41:25.000Z</time>
      </trkpt>
      <trkpt lat="47.28536" lon="4.92912">
        <ele>639.3</ele>
        <time>2013-02-02T08:41:33.000Z</time>
      </trkpt>
      <trkpt lat="47.28537" lon="4.92912">
        <ele>639.6</ele>
        <time>2013-02-02T08:41:34.000Z</time>
      </trkpt>
      <trkpt lat="47.28541" lon="4.92911">
        <ele>640</ele>
        <time>2013-02-02T08:41:38.000Z</time>
      </trkpt>
      <trkpt lat="47.28542" lon="4.92911">
        <ele>640.1</ele>
        <time>2013-02-02T08:41:39.000Z</time>
      </trkpt>
      <trkpt lat="47.28546" lon="4.92912">
        <ele>640.3</ele>
        <time>2013-02-02T08:41:44.000Z</time>
      </trkpt>
      <trkpt lat="47.28547" lon="4.92911">
        <ele>640.4</ele>
        <time>2013-02-02T08:41:45.000Z</time>
      </trkpt>
      <trkpt lat="47.28551" lon="4.92911">
        <ele>641.1</ele>
        <time>2013-02-02T08:41:49.000Z</time>
      </trkpt>
      <trkpt lat="47.28552" lon="4.92911">
        <ele>641.4</ele>
        <time>2013-02-02T08:41:50.000Z</time>
      </trkpt>
      <trkpt lat="47.28567" lon="4.92917">
        <ele>646.5</ele>
        <time>2013-02-02T08:41:59.000Z</time>
      </trkpt>
      <trkpt lat="47.28571" lon="4.92915">
        <ele>651.2</ele>
        <time>2013-02-02T08:42:04.000Z</time>
      </trkpt>
      <trkpt lat="47.28572" lon="4.92915">
        <ele>649.9</ele>
        <time>2013-02-02T08:42:05.000Z</time>
      </trkpt>
      <trkpt lat="47.28575" lon="4.92914">
        <ele>652.7</ele>
        <time>2013-02-02T08:42:08.000Z</time>
      </trkpt>
      <trkpt lat="47.28577" lon="4.92914">
        <ele>652.8</ele>
        <time>2013-02-02T08:42:09.000Z</time>
      </trkpt>
      <trkpt lat="47.28581" lon="4.92913">
        <ele>653</ele>
        <time>2013-02-02T08:42:12.000Z</time>
      </trkpt>
      <trkpt lat="47.28582" lon="4.92913">
        <ele>652.5</ele>
        <time>2013-02-02T08:42:13.000Z</time>
      </trkpt>
      <trkpt lat="47.28586" lon="4.92913">
        <ele>653.3</ele>
        <time>2013-02-02T08:42:16.000Z</time>
      </trkpt>
      <trkpt lat="47.28587" lon="4.92913">
        <ele>654.1</ele>
        <time>2013-02-02T08:42:17.000Z</time>
      </trkpt>
      <trkpt lat="47.28591" lon="4.92913">
        <ele>653.7</ele>
        <time>2013-02-02T08:42:20.000Z</time>
      </trkpt>
      <trkpt lat="47.28592" lon="4.92913">
        <ele>653.4</ele>
        <time>2013-02-02T08:42:21.000Z</time>
      </trkpt>
      <trkpt lat="47.28595" lon="4.92912">
        <ele>651.9</ele>
        <time>2013-02-02T08:42:24.000Z</time>
      </trkpt>
      <trkpt lat="47.28597" lon="4.92913">
        <ele>651.3</ele>
        <time>2013-02-02T08:42:25.000Z</time>
      </trkpt>
      <trkpt lat="47.28601" lon="4.92912">
        <ele>650.7</ele>
        <time>2013-02-02T08:42:28.000Z</time>
      </trkpt>
      <trkpt lat="47.28602" lon="4.92912">
        <ele>650.4</ele>
        <time>2013-02-02T08:42:29.000Z</time>
      </trkpt>
      <trkpt lat="47.28606" lon="4.92912">
        <ele>650.6</ele>
        <time>2013-02-02T08:42:32.000Z</time>
      </trkpt>
      <trkpt lat="47.28607" lon="4.92913">
        <ele>650.6</ele>
        <time>2013-02-02T08:42:33.000Z</time>
      </trkpt>
      <trkpt lat="47.2861" lon="4.92914">
        <ele>650.4</ele>
        <time>2013-02-02T08:42:35.000Z</time>
      </trkpt>
      <trkpt lat="47.28611" lon="4.92914">
        <ele>650.5</ele>
        <time>2013-02-02T08:42:36.000Z</time>
      </trkpt>
      <trkpt lat="47.28615" lon="4.92916">
        <ele>650.7</ele>
        <time>2013-02-02T08:42:40.000Z</time>
      </trkpt>
      <trkpt lat="47.28617" lon="4.92915">
        <ele>650.9</ele>
        <time>2013-02-02T08:42:41.000Z</time>
      </trkpt>
      <trkpt lat="47.28621" lon="4.92915">
        <ele>650.9</ele>
        <time>2013-02-02T08:42:44.000Z</time>
      </trkpt>
      <trkpt lat="47.28622" lon="4.92915">
        <ele>650.8</ele>
        <time>2013-02-02T08:42:45.000Z</time>
      </trkpt>
      <trkpt lat="47.28626" lon="4.92915">
        <ele>650.5</ele>
        <time>2013-02-02T08:42:48.000Z</time>
      </trkpt>
      <trkpt lat="47.28627" lon="4.92914">
        <ele>650.6</ele>
        <time>2013-02-02T08:42:49.000Z</time>
      </trkpt>
      <trkpt lat="47.28628" lon="4.92914">
        <ele>650.5</ele>
        <time>2013-02-02T08:42:50.000Z</time>
      </trkpt>
      <trkpt lat="47.28646" lon="4.92918">
        <ele>644.4</ele>
        <time>2013-02-02T08:42:57.000Z</time>
      </trkpt>
      <trkpt lat="47.2865" lon="4.92919">
        <ele>646</ele>
        <time>2013-02-02T08:43:01.000Z</time>
      </trkpt>
      <trkpt lat="47.28652" lon="4.92918">
        <ele>645</ele>
        <time>2013-02-02T08:43:02.000Z</time>
      </trkpt>
      <trkpt lat="47.28656" lon="4.92918">
        <ele>643.9</ele>
        <time>2013-02-02T08:43:05.000Z</time>
      </trkpt>
      <trkpt lat="47.28658" lon="4.9292">
        <ele>643.2</ele>
        <time>2013-02-02T08:43:06.000Z</time>
      </trkpt>
      <trkpt lat="47.28662" lon="4.9292">
        <ele>642.1</ele>
        <time>2013-02-02T08:43:09.000Z</time>
      </trkpt>
      <trkpt lat="47.28663" lon="4.92921">
        <ele>642</ele>
        <time>2013-02-02T08:43:10.000Z</time>
      </trkpt>
      <trkpt lat="47.28667" lon="4.92921">
        <ele>642</ele>
        <time>2013-02-02T08:43:13.000Z</time>
      </trkpt>
      <trkpt lat="47.28668" lon="4.92921">
        <ele>641.7</ele>
        <time>2013-02-02T08:43:14.000Z</time>
      </trkpt>
      <trkpt lat="47.28671" lon="4.92919">
        <ele>640.4</ele>
        <time>2013-02-02T08:43:16.000Z</time>
      </trkpt>
      <trkpt lat="47.28673" lon="4.92919">
        <ele>640.4</ele>
        <time>2013-02-02T08:43:17.000Z</time>
      </trkpt>
      <trkpt lat="47.28676" lon="4.92919">
        <ele>639.4</ele>
        <time>2013-02-02T08:43:19.000Z</time>
      </trkpt>
      <trkpt lat="47.28678" lon="4.92919">
        <ele>639.1</ele>
        <time>2013-02-02T08:43:20.000Z</time>
      </trkpt>
      <trkpt lat="47.28682" lon="4.92918">
        <ele>639.2</ele>
        <time>2013-02-02T08:43:23.000Z</time>
      </trkpt>
      <trkpt lat="47.28684" lon="4.92918">
        <ele>639</ele>
        <time>2013-02-02T08:43:24.000Z</time>
      </trkpt>
      <trkpt lat="47.28687" lon="4.92918">
        <ele>638.4</ele>
        <time>2013-02-02T08:43:26.000Z</time>
      </trkpt>
      <trkpt lat="47.28689" lon="4.92918">
        <ele>638.4</ele>
        <time>2013-02-02T08:43:27.000Z</time>
      </trkpt>
      <trkpt lat="47.28693" lon="4.92917">
        <ele>638.4</ele>
        <time>2013-02-02T08:43:30.000Z</time>
      </trkpt>
      <trkpt lat="47.28694" lon="4.92917">
        <ele>638.3</ele>
        <time>2013-02-02T08:43:31.000Z</time>
      </trkpt>
      <trkpt lat="47.28698" lon="4.92916">
        <ele>638.4</ele>
        <time>2013-02-02T08:43:34.000Z</time>
      </trkpt>
      <trkpt lat="47.28699" lon="4.92915">
        <ele>638.6</ele>
        <time>2013-02-02T08:43:35.000Z</time>
      </trkpt>
      <trkpt lat="47.28703" lon="4.92911">
        <ele>638.3</ele>
        <time>2013-02-02T08:43:38.000Z</time>
      </trkpt>
      <trkpt lat="47.28704" lon="4.9291">
        <ele>638</ele>
        <time>2013-02-02T08:43:39.000Z</time>
      </trkpt>
      <trkpt lat="47.28706" lon="4.92906">
        <ele>637.7</ele>
        <time>2013-02-02T08:43:42.000Z</time>
      </trkpt>
      <trkpt lat="47.28707" lon="4.92905">
        <ele>637.9</ele>
        <time>2013-02-02T08:43:43.000Z</time>
      </trkpt>
      <trkpt lat="47.2871" lon="4.929">
        <ele>637.9</ele>
        <time>2013-02-02T08:43:46.000Z</time>
      </trkpt>
      <trkpt lat="47.2871" lon="4.92898">
        <ele>637.9</ele>
        <time>2013-02-02T08:43:47.000Z</time>
      </trkpt>
      <trkpt lat="47.28713" lon="4.92894">
        <ele>637.6</ele>
        <time>2013-02-02T08:43:50.000Z</time>
      </trkpt>
      <trkpt lat="47.28722" lon="4.92882">
        <ele>636.5</ele>
        <time>2013-02-02T08:43:57.000Z</time>
      </trkpt>
      <trkpt lat="47.28723" lon="4.92876">
        <ele>637.6</ele>
        <time>2013-02-02T08:44:00.000Z</time>
      </trkpt>
      <trkpt lat="47.28724" lon="4.92875">
        <ele>637.6</ele>
        <time>2013-02-02T08:44:01.000Z</time>
      </trkpt>
      <trkpt lat="47.28725" lon="4.92871">
        <ele>638.2</ele>
        <time>2013-02-02T08:44:03.000Z</time>
      </trkpt>
      <trkpt lat="47.28726" lon="4.9287">
        <ele>638.1</ele>
        <time>2013-02-02T08:44:04.000Z</time>
      </trkpt>
      <trkpt lat="47.28728" lon="4.92864">
        <ele>636.3</ele>
        <time>2013-02-02T08:44:07.000Z</time>
      </trkpt>
      <trkpt lat="47.28729" lon="4.92862">
        <ele>636.5</ele>
        <time>2013-02-02T08:44:08.000Z</time>
      </trkpt>
      <trkpt lat="47.28731" lon="4.92857">
        <ele>637.7</ele>
        <time>2013-02-02T08:44:11.000Z</time>
      </trkpt>
      <trkpt lat="47.28732" lon="4.92855">
        <ele>637.7</ele>
        <time>2013-02-02T08:44:12.000Z</time>
      </trkpt>
      <trkpt lat="47.28734" lon="4.9285">
        <ele>637.6</ele>
        <time>2013-02-02T08:44:15.000Z</time>
      </trkpt>
      <trkpt lat="47.28735" lon="4.92849">
        <ele>637.2</ele>
        <time>2013-02-02T08:44:16.000Z</time>
      </trkpt>
      <trkpt lat="47.28737" lon="4.92844">
        <ele>635.9</ele>
        <time>2013-02-02T08:44:18.000Z</time>
      </trkpt>
      <trkpt lat="47.28738" lon="4.92842">
        <ele>635.8</ele>
        <time>2013-02-02T08:44:19.000Z</time>
      </trkpt>
      <trkpt lat="47.2874" lon="4.92838">
        <ele>634.5</ele>
        <time>2013-02-02T08:44:21.000Z</time>
      </trkpt>
      <trkpt lat="47.28741" lon="4.92836">
        <ele>634.1</ele>
        <time>2013-02-02T08:44:22.000Z</time>
      </trkpt>
      <trkpt lat="47.28743" lon="4.92831">
        <ele>633.5</ele>
        <time>2013-02-02T08:44:25.000Z</time>
      </trkpt>
      <trkpt lat="47.28744" lon="4.92829">
        <ele>633.5</ele>
        <time>2013-02-02T08:44:26.000Z</time>
      </trkpt>
      <trkpt lat="47.28746" lon="4.92825">
        <ele>632.7</ele>
        <time>2013-02-02T08:44:29.000Z</time>
      </trkpt>
      <trkpt lat="47.28746" lon="4.92823">
        <ele>632.6</ele>
        <time>2013-02-02T08:44:30.000Z</time>
      </trkpt>
      <trkpt lat="47.28749" lon="4.92818">
        <ele>632.7</ele>
        <time>2013-02-02T08:44:33.000Z</time>
      </trkpt>
      <trkpt lat="47.28749" lon="4.92816">
        <ele>632.9</ele>
        <time>2013-02-02T08:44:34.000Z</time>
      </trkpt>
      <trkpt lat="47.28751" lon="4.92811">
        <ele>633.3</ele>
        <time>2013-02-02T08:44:37.000Z</time>
      </trkpt>
      <trkpt lat="47.28752" lon="4.92809">
        <ele>633.6</ele>
        <time>2013-02-02T08:44:38.000Z</time>
      </trkpt>
      <trkpt lat="47.28754" lon="4.92804">
        <ele>634</ele>
        <time>2013-02-02T08:44:41.000Z</time>
      </trkpt>
      <trkpt lat="47.28754" lon="4.92803">
        <ele>633.9</ele>
        <time>2013-02-02T08:44:42.000Z</time>
      </trkpt>
      <trkpt lat="47.28756" lon="4.92798">
        <ele>633.9</ele>
        <time>2013-02-02T08:44:45.000Z</time>
      </trkpt>
      <trkpt lat="47.28757" lon="4.92796">
        <ele>633.9</ele>
        <time>2013-02-02T08:44:46.000Z</time>
      </trkpt>
      <trkpt lat="47.28759" lon="4.92792">
        <ele>633.7</ele>
        <time>2013-02-02T08:44:48.000Z</time>
      </trkpt>
      <trkpt lat="47.28761" lon="4.9279">
        <ele>633.9</ele>
        <time>2013-02-02T08:44:49.000Z</time>
      </trkpt>
      <trkpt lat="47.28762" lon="4.92788">
        <ele>634</ele>
        <time>2013-02-02T08:44:50.000Z</time>
      </trkpt>
      <trkpt lat="47.28772" lon="4.92767">
        <ele>630.4</ele>
        <time>2013-02-02T08:44:59.000Z</time>
      </trkpt>
      <trkpt lat="47.28775" lon="4.92763">
        <ele>632.7</ele>
        <time>2013-02-02T08:45:02.000Z</time>
      </trkpt>
      <trkpt lat="47.28776" lon="4.92762">
        <ele>632.1</ele>
        <time>2013-02-02T08:45:03.000Z</time>
      </trkpt>
      <trkpt lat="47.28779" lon="4.9276">
        <ele>631.3</ele>
        <time>2013-02-02T08:45:05.000Z</time>
      </trkpt>
      <trkpt lat="47.28781" lon="4.92758">
        <ele>631.1</ele>
        <time>2013-02-02T08:45:06.000Z</time>
      </trkpt>
      <trkpt lat="47.28783" lon="4.92755">
        <ele>631.3</ele>
        <time>2013-02-02T08:45:08.000Z</time>
      </trkpt>
      <trkpt lat="47.28784" lon="4.92754">
        <ele>631.3</ele>
        <time>2013-02-02T08:45:09.000Z</time>
      </trkpt>
      <trkpt lat="47.28788" lon="4.92752">
        <ele>632.8</ele>
        <time>2013-02-02T08:45:12.000Z</time>
      </trkpt>
      <trkpt lat="47.28789" lon="4.92751">
        <ele>632.7</ele>
        <time>2013-02-02T08:45:13.000Z</time>
      </trkpt>
      <trkpt lat="47.28792" lon="4.9275">
        <ele>632</ele>
        <time>2013-02-02T08:45:15.000Z</time>
      </trkpt>
      <trkpt lat="47.28793" lon="4.92749">
        <ele>631.9</ele>
        <time>2013-02-02T08:45:16.000Z</time>
      </trkpt>
      <trkpt lat="47.28798" lon="4.92747">
        <ele>632.1</ele>
        <time>2013-02-02T08:45:19.000Z</time>
      </trkpt>
      <trkpt lat="47.28799" lon="4.92746">
        <ele>632.4</ele>
        <time>2013-02-02T08:45:20.000Z</time>
      </trkpt>
      <trkpt lat="47.28804" lon="4.92744">
        <ele>632</ele>
        <time>2013-02-02T08:45:23.000Z</time>
      </trkpt>
      <trkpt lat="47.28805" lon="4.92743">
        <ele>631.9</ele>
        <time>2013-02-02T08:45:24.000Z</time>
      </trkpt>
      <trkpt lat="47.28808" lon="4.92741">
        <ele>632.1</ele>
        <time>2013-02-02T08:45:27.000Z</time>
      </trkpt>
      <trkpt lat="47.28809" lon="4.9274">
        <ele>632</ele>
        <time>2013-02-02T08:45:28.000Z</time>
      </trkpt>
      <trkpt lat="47.28813" lon="4.92739">
        <ele>631.5</ele>
        <time>2013-02-02T08:45:30.000Z</time>
      </trkpt>
      <trkpt lat="47.28814" lon="4.92739">
        <ele>631.5</ele>
        <time>2013-02-02T08:45:31.000Z</time>
      </trkpt>
      <trkpt lat="47.28818" lon="4.92739">
        <ele>631.8</ele>
        <time>2013-02-02T08:45:33.000Z</time>
      </trkpt>
      <trkpt lat="47.28819" lon="4.92739">
        <ele>631.9</ele>
        <time>2013-02-02T08:45:34.000Z</time>
      </trkpt>
      <trkpt lat="47.28822" lon="4.92738">
        <ele>632.2</ele>
        <time>2013-02-02T08:45:36.000Z</time>
      </trkpt>
      <trkpt lat="47.28823" lon="4.92739">
        <ele>632.5</ele>
        <time>2013-02-02T08:45:37.000Z</time>
      </trkpt>
      <trkpt lat="47.28828" lon="4.92739">
        <ele>632.9</ele>
        <time>2013-02-02T08:45:40.000Z</time>
      </trkpt>
      <trkpt lat="47.28829" lon="4.92739">
        <ele>632.8</ele>
        <time>2013-02-02T08:45:41.000Z</time>
      </trkpt>
      <trkpt lat="47.28832" lon="4.92738">
        <ele>633.3</ele>
        <time>2013-02-02T08:45:45.000Z</time>
      </trkpt>
      <trkpt lat="47.28834" lon="4.92738">
        <ele>633.5</ele>
        <time>2013-02-02T08:45:46.000Z</time>
      </trkpt>
      <trkpt lat="47.28838" lon="4.92738">
        <ele>633.8</ele>
        <time>2013-02-02T08:45:49.000Z</time>
      </trkpt>
      <trkpt lat="47.2884" lon="4.92738">
        <ele>633.8</ele>
        <time>2013-02-02T08:45:50.000Z</time>
      </trkpt>
      <trkpt lat="47.2886" lon="4.92738">
        <ele>631.6</ele>
        <time>2013-02-02T08:45:58.000Z</time>
      </trkpt>
      <trkpt lat="47.28863" lon="4.92736">
        <ele>633.9</ele>
        <time>2013-02-02T08:46:00.000Z</time>
      </trkpt>
      <trkpt lat="47.28864" lon="4.92734">
        <ele>633.3</ele>
        <time>2013-02-02T08:46:01.000Z</time>
      </trkpt>
      <trkpt lat="47.28868" lon="4.92733">
        <ele>633.6</ele>
        <time>2013-02-02T08:46:04.000Z</time>
      </trkpt>
      <trkpt lat="47.28869" lon="4.92733">
        <ele>633.6</ele>
        <time>2013-02-02T08:46:05.000Z</time>
      </trkpt>
      <trkpt lat="47.28872" lon="4.92733">
        <ele>634.2</ele>
        <time>2013-02-02T08:46:08.000Z</time>
      </trkpt>
      <trkpt lat="47.28874" lon="4.92733">
        <ele>634.4</ele>
        <time>2013-02-02T08:46:09.000Z</time>
      </trkpt>
      <trkpt lat="47.28877" lon="4.92732">
        <ele>634.4</ele>
        <time>2013-02-02T08:46:11.000Z</time>
      </trkpt>
      <trkpt lat="47.28878" lon="4.92731">
        <ele>634.1</ele>
        <time>2013-02-02T08:46:12.000Z</time>
      </trkpt>
      <trkpt lat="47.28883" lon="4.92732">
        <ele>635.3</ele>
        <time>2013-02-02T08:46:15.000Z</time>
      </trkpt>
      <trkpt lat="47.28884" lon="4.92732">
        <ele>635.5</ele>
        <time>2013-02-02T08:46:16.000Z</time>
      </trkpt>
      <trkpt lat="47.28888" lon="4.92732">
        <ele>636.3</ele>
        <time>2013-02-02T08:46:19.000Z</time>
      </trkpt>
      <trkpt lat="47.28889" lon="4.92732">
        <ele>636.6</ele>
        <time>2013-02-02T08:46:20.000Z</time>
      </trkpt>
      <trkpt lat="47.28893" lon="4.92733">
        <ele>636</ele>
        <time>2013-02-02T08:46:22.000Z</time>
      </trkpt>
      <trkpt lat="47.28894" lon="4.92732">
        <ele>635</ele>
        <time>2013-02-02T08:46:23.000Z</time>
      </trkpt>
      <trkpt lat="47.28899" lon="4.92733">
        <ele>634</ele>
        <time>2013-02-02T08:46:26.000Z</time>
      </trkpt>
      <trkpt lat="47.289" lon="4.92733">
        <ele>633.4</ele>
        <time>2013-02-02T08:46:27.000Z</time>
      </trkpt>
      <trkpt lat="47.28905" lon="4.92733">
        <ele>633</ele>
        <time>2013-02-02T08:46:30.000Z</time>
      </trkpt>
      <trkpt lat="47.28907" lon="4.92733">
        <ele>632.9</ele>
        <time>2013-02-02T08:46:31.000Z</time>
      </trkpt>
      <trkpt lat="47.2891" lon="4.92733">
        <ele>633.2</ele>
        <time>2013-02-02T08:46:33.000Z</time>
      </trkpt>
      <trkpt lat="47.28911" lon="4.92733">
        <ele>633.4</ele>
        <time>2013-02-02T08:46:34.000Z</time>
      </trkpt>
      <trkpt lat="47.28915" lon="4.92733">
        <ele>633.5</ele>
        <time>2013-02-02T08:46:36.000Z</time>
      </trkpt>
      <trkpt lat="47.28917" lon="4.92733">
        <ele>633.7</ele>
        <time>2013-02-02T08:46:37.000Z</time>
      </trkpt>
      <trkpt lat="47.2892" lon="4.92732">
        <ele>633.7</ele>
        <time>2013-02-02T08:46:39.000Z</time>
      </trkpt>
      <trkpt lat="47.28922" lon="4.92732">
        <ele>633.8</ele>
        <time>2013-02-02T08:46:40.000Z</time>
      </trkpt>
      <trkpt lat="47.28925" lon="4.92732">
        <ele>633.4</ele>
        <time>2013-02-02T08:46:42.000Z</time>
      </trkpt>
      <trkpt lat="47.28927" lon="4.92732">
        <ele>633.1</ele>
        <time>2013-02-02T08:46:43.000Z</time>
      </trkpt>
      <trkpt lat="47.2893" lon="4.92732">
        <ele>633</ele>
        <time>2013-02-02T08:46:45.000Z</time>
      </trkpt>
      <trkpt lat="47.28931" lon="4.92733">
        <ele>632.8</ele>
        <time>2013-02-02T08:46:46.000Z</time>
      </trkpt>
      <trkpt lat="47.28934" lon="4.92734">
        <ele>632.7</ele>
        <time>2013-02-02T08:46:48.000Z</time>
      </trkpt>
      <trkpt lat="47.28936" lon="4.92735">
        <ele>632.6</ele>
        <time>2013-02-02T08:46:49.000Z</time>
      </trkpt>
      <trkpt lat="47.28938" lon="4.92736">
        <ele>632.4</ele>
        <time>2013-02-02T08:46:50.000Z</time>
      </trkpt>
      <trkpt lat="47.28952" lon="4.92737">
        <ele>627.5</ele>
        <time>2013-02-02T08:46:58.000Z</time>
      </trkpt>
      <trkpt lat="47.28955" lon="4.9274">
        <ele>630.1</ele>
        <time>2013-02-02T08:47:01.000Z</time>
      </trkpt>
      <trkpt lat="47.28956" lon="4.92741">
        <ele>630.1</ele>
        <time>2013-02-02T08:47:02.000Z</time>
      </trkpt>
      <trkpt lat="47.2896" lon="4.92743">
        <ele>631</ele>
        <time>2013-02-02T08:47:05.000Z</time>
      </trkpt>
      <trkpt lat="47.28961" lon="4.92745">
        <ele>630.4</ele>
        <time>2013-02-02T08:47:06.000Z</time>
      </trkpt>
      <trkpt lat="47.28965" lon="4.92747">
        <ele>630.9</ele>
        <time>2013-02-02T08:47:09.000Z</time>
      </trkpt>
      <trkpt lat="47.28966" lon="4.92748">
        <ele>631.3</ele>
        <time>2013-02-02T08:47:10.000Z</time>
      </trkpt>
      <trkpt lat="47.2897" lon="4.92751">
        <ele>632.6</ele>
        <time>2013-02-02T08:47:13.000Z</time>
      </trkpt>
      <trkpt lat="47.28971" lon="4.92752">
        <ele>632.7</ele>
        <time>2013-02-02T08:47:14.000Z</time>
      </trkpt>
      <trkpt lat="47.28973" lon="4.92755">
        <ele>633</ele>
        <time>2013-02-02T08:47:16.000Z</time>
      </trkpt>
      <trkpt lat="47.28975" lon="4.92756">
        <ele>632.9</ele>
        <time>2013-02-02T08:47:17.000Z</time>
      </trkpt>
      <trkpt lat="47.28977" lon="4.92758">
        <ele>633</ele>
        <time>2013-02-02T08:47:19.000Z</time>
      </trkpt>
      <trkpt lat="47.28979" lon="4.9276">
        <ele>632.8</ele>
        <time>2013-02-02T08:47:20.000Z</time>
      </trkpt>
      <trkpt lat="47.28981" lon="4.92761">
        <ele>632.8</ele>
        <time>2013-02-02T08:47:22.000Z</time>
      </trkpt>
      <trkpt lat="47.28983" lon="4.92761">
        <ele>631.8</ele>
        <time>2013-02-02T08:47:23.000Z</time>
      </trkpt>
      <trkpt lat="47.28986" lon="4.92763">
        <ele>630.8</ele>
        <time>2013-02-02T08:47:25.000Z</time>
      </trkpt>
      <trkpt lat="47.28987" lon="4.92764">
        <ele>630.7</ele>
        <time>2013-02-02T08:47:26.000Z</time>
      </trkpt>
      <trkpt lat="47.2899" lon="4.92766">
        <ele>630.5</ele>
        <time>2013-02-02T08:47:28.000Z</time>
      </trkpt>
      <trkpt lat="47.28992" lon="4.92767">
        <ele>630.2</ele>
        <time>2013-02-02T08:47:29.000Z</time>
      </trkpt>
      <trkpt lat="47.28995" lon="4.9277">
        <ele>630.1</ele>
        <time>2013-02-02T08:47:31.000Z</time>
      </trkpt>
      <trkpt lat="47.28996" lon="4.92771">
        <ele>630.1</ele>
        <time>2013-02-02T08:47:32.000Z</time>
      </trkpt>
      <trkpt lat="47.28999" lon="4.92773">
        <ele>630</ele>
        <time>2013-02-02T08:47:34.000Z</time>
      </trkpt>
      <trkpt lat="47.29001" lon="4.92775">
        <ele>629.7</ele>
        <time>2013-02-02T08:47:35.000Z</time>
      </trkpt>
      <trkpt lat="47.29003" lon="4.92777">
        <ele>629.5</ele>
        <time>2013-02-02T08:47:37.000Z</time>
      </trkpt>
      <trkpt lat="47.29004" lon="4.92778">
        <ele>629.5</ele>
        <time>2013-02-02T08:47:38.000Z</time>
      </trkpt>
      <trkpt lat="47.29008" lon="4.92779">
        <ele>628.7</ele>
        <time>2013-02-02T08:47:40.000Z</time>
      </trkpt>
      <trkpt lat="47.29009" lon="4.9278">
        <ele>628.6</ele>
        <time>2013-02-02T08:47:41.000Z</time>
      </trkpt>
      <trkpt lat="47.29012" lon="4.92783">
        <ele>628.2</ele>
        <time>2013-02-02T08:47:44.000Z</time>
      </trkpt>
      <trkpt lat="47.29014" lon="4.92784">
        <ele>628.2</ele>
        <time>2013-02-02T08:47:45.000Z</time>
      </trkpt>
      <trkpt lat="47.29016" lon="4.92787">
        <ele>628.5</ele>
        <time>2013-02-02T08:47:47.000Z</time>
      </trkpt>
      <trkpt lat="47.29017" lon="4.92788">
        <ele>628.7</ele>
        <time>2013-02-02T08:47:48.000Z</time>
      </trkpt>
      <trkpt lat="47.29021" lon="4.9279">
        <ele>629.1</ele>
        <time>2013-02-02T08:47:51.000Z</time>
      </trkpt>
      <trkpt lat="47.29023" lon="4.92791">
        <ele>629</ele>
        <time>2013-02-02T08:47:52.000Z</time>
      </trkpt>
      <trkpt lat="47.29025" lon="4.92792">
        <ele>628.6</ele>
        <time>2013-02-02T08:47:54.000Z</time>
      </trkpt>
      <trkpt lat="47.29027" lon="4.92793">
        <ele>628.4</ele>
        <time>2013-02-02T08:47:55.000Z</time>
      </trkpt>
      <trkpt lat="47.2903" lon="4.92796">
        <ele>628</ele>
        <time>2013-02-02T08:47:57.000Z</time>
      </trkpt>
      <trkpt lat="47.29031" lon="4.92796">
        <ele>628.1</ele>
        <time>2013-02-02T08:47:58.000Z</time>
      </trkpt>
      <trkpt lat="47.29035" lon="4.92798">
        <ele>627.9</ele>
        <time>2013-02-02T08:48:00.000Z</time>
      </trkpt>
      <trkpt lat="47.29036" lon="4.92799">
        <ele>627.7</ele>
        <time>2013-02-02T08:48:01.000Z</time>
      </trkpt>
      <trkpt lat="47.29039" lon="4.92801">
        <ele>627.6</ele>
        <time>2013-02-02T08:48:04.000Z</time>
      </trkpt>
      <trkpt lat="47.2904" lon="4.92802">
        <ele>627.7</ele>
        <time>2013-02-02T08:48:05.000Z</time>
      </trkpt>
      <trkpt lat="47.29043" lon="4.92804">
        <ele>627.9</ele>
        <time>2013-02-02T08:48:07.000Z</time>
      </trkpt>
      <trkpt lat="47.29044" lon="4.92805">
        <ele>627.9</ele>
        <time>2013-02-02T08:48:08.000Z</time>
      </trkpt>
      <trkpt lat="47.29047" lon="4.92808">
        <ele>627.9</ele>
        <time>2013-02-02T08:48:10.000Z</time>
      </trkpt>
      <trkpt lat="47.29049" lon="4.92809">
        <ele>627.8</ele>
        <time>2013-02-02T08:48:11.000Z</time>
      </trkpt>
      <trkpt lat="47.29053" lon="4.92811">
        <ele>627.5</ele>
        <time>2013-02-02T08:48:14.000Z</time>
      </trkpt>
      <trkpt lat="47.29054" lon="4.92812">
        <ele>627.5</ele>
        <time>2013-02-02T08:48:15.000Z</time>
      </trkpt>
      <trkpt lat="47.29067" lon="4.92821">
        <ele>625</ele>
        <time>2013-02-02T08:48:22.000Z</time>
      </trkpt>
      <trkpt lat="47.2907" lon="4.92824">
        <ele>625.9</ele>
        <time>2013-02-02T08:48:25.000Z</time>
      </trkpt>
      <trkpt lat="47.29072" lon="4.92825">
        <ele>625.9</ele>
        <time>2013-02-02T08:48:26.000Z</time>
      </trkpt>
      <trkpt lat="47.29074" lon="4.92827">
        <ele>625.9</ele>
        <time>2013-02-02T08:48:28.000Z</time>
      </trkpt>
      <trkpt lat="47.29076" lon="4.92828">
        <ele>625.7</ele>
        <time>2013-02-02T08:48:29.000Z</time>
      </trkpt>
      <trkpt lat="47.29079" lon="4.92831">
        <ele>626</ele>
        <time>2013-02-02T08:48:32.000Z</time>
      </trkpt>
      <trkpt lat="47.2908" lon="4.92832">
        <ele>626.4</ele>
        <time>2013-02-02T08:48:33.000Z</time>
      </trkpt>
      <trkpt lat="47.29083" lon="4.92834">
        <ele>626.6</ele>
        <time>2013-02-02T08:48:35.000Z</time>
      </trkpt>
      <trkpt lat="47.29085" lon="4.92835">
        <ele>627</ele>
        <time>2013-02-02T08:48:36.000Z</time>
      </trkpt>
      <trkpt lat="47.29087" lon="4.92837">
        <ele>627.6</ele>
        <time>2013-02-02T08:48:38.000Z</time>
      </trkpt>
      <trkpt lat="47.29089" lon="4.92838">
        <ele>627.8</ele>
        <time>2013-02-02T08:48:39.000Z</time>
      </trkpt>
      <trkpt lat="47.29092" lon="4.92843">
        <ele>628.3</ele>
        <time>2013-02-02T08:48:42.000Z</time>
      </trkpt>
      <trkpt lat="47.29093" lon="4.92844">
        <ele>628.1</ele>
        <time>2013-02-02T08:48:43.000Z</time>
      </trkpt>
      <trkpt lat="47.29096" lon="4.92847">
        <ele>627.4</ele>
        <time>2013-02-02T08:48:45.000Z</time>
      </trkpt>
      <trkpt lat="47.29097" lon="4.92849">
        <ele>627</ele>
        <time>2013-02-02T08:48:46.000Z</time>
      </trkpt>
      <trkpt lat="47.291" lon="4.92852">
        <ele>626.7</ele>
        <time>2013-02-02T08:48:48.000Z</time>
      </trkpt>
      <trkpt lat="47.29101" lon="4.92854">
        <ele>626.3</ele>
        <time>2013-02-02T08:48:49.000Z</time>
      </trkpt>
      <trkpt lat="47.29104" lon="4.92857">
        <ele>626.2</ele>
        <time>2013-02-02T08:48:51.000Z</time>
      </trkpt>
      <trkpt lat="47.29105" lon="4.92858">
        <ele>626.3</ele>
        <time>2013-02-02T08:48:52.000Z</time>
      </trkpt>
      <trkpt lat="47.29107" lon="4.92862">
        <ele>626.4</ele>
        <time>2013-02-02T08:48:54.000Z</time>
      </trkpt>
      <trkpt lat="47.29108" lon="4.92863">
        <ele>626.4</ele>
        <time>2013-02-02T08:48:55.000Z</time>
      </trkpt>
      <trkpt lat="47.29111" lon="4.92868">
        <ele>626.2</ele>
        <time>2013-02-02T08:48:58.000Z</time>
      </trkpt>
      <trkpt lat="47.29112" lon="4.92869">
        <ele>626.3</ele>
        <time>2013-02-02T08:48:59.000Z</time>
      </trkpt>
      <trkpt lat="47.29114" lon="4.92872">
        <ele>626.3</ele>
        <time>2013-02-02T08:49:01.000Z</time>
      </trkpt>
      <trkpt lat="47.29116" lon="4.92874">
        <ele>626.3</ele>
        <time>2013-02-02T08:49:02.000Z</time>
      </trkpt>
      <trkpt lat="47.29118" lon="4.92878">
        <ele>626.5</ele>
        <time>2013-02-02T08:49:04.000Z</time>
      </trkpt>
      <trkpt lat="47.29119" lon="4.92879">
        <ele>626.4</ele>
        <time>2013-02-02T08:49:05.000Z</time>
      </trkpt>
      <trkpt lat="47.29121" lon="4.92883">
        <ele>626.5</ele>
        <time>2013-02-02T08:49:07.000Z</time>
      </trkpt>
      <trkpt lat="47.29122" lon="4.92885">
        <ele>626.4</ele>
        <time>2013-02-02T08:49:08.000Z</time>
      </trkpt>
      <trkpt lat="47.29125" lon="4.92887">
        <ele>626.8</ele>
        <time>2013-02-02T08:49:10.000Z</time>
      </trkpt>
      <trkpt lat="47.29126" lon="4.92889">
        <ele>626.9</ele>
        <time>2013-02-02T08:49:11.000Z</time>
      </trkpt>
      <trkpt lat="47.29128" lon="4.92893">
        <ele>626.6</ele>
        <time>2013-02-02T08:49:13.000Z</time>
      </trkpt>
      <trkpt lat="47.29129" lon="4.92895">
        <ele>626.5</ele>
        <time>2013-02-02T08:49:14.000Z</time>
      </trkpt>
      <trkpt lat="47.2913" lon="4.92897">
        <ele>626.4</ele>
        <time>2013-02-02T08:49:15.000Z</time>
      </trkpt>
      <trkpt lat="47.29138" lon="4.92911">
        <ele>627</ele>
        <time>2013-02-02T08:49:22.000Z</time>
      </trkpt>
      <trkpt lat="47.2914" lon="4.92915">
        <ele>625.6</ele>
        <time>2013-02-02T08:49:24.000Z</time>
      </trkpt>
      <trkpt lat="47.29141" lon="4.92917">
        <ele>625</ele>
        <time>2013-02-02T08:49:25.000Z</time>
      </trkpt>
      <trkpt lat="47.29144" lon="4.92921">
        <ele>623.8</ele>
        <time>2013-02-02T08:49:27.000Z</time>
      </trkpt>
      <trkpt lat="47.29145" lon="4.92923">
        <ele>623</ele>
        <time>2013-02-02T08:49:28.000Z</time>
      </trkpt>
      <trkpt lat="47.29148" lon="4.92927">
        <ele>622.7</ele>
        <time>2013-02-02T08:49:31.000Z</time>
      </trkpt>
      <trkpt lat="47.29149" lon="4.9293">
        <ele>622.4</ele>
        <time>2013-02-02T08:49:32.000Z</time>
      </trkpt>
      <trkpt lat="47.2915" lon="4.92934">
        <ele>622.6</ele>
        <time>2013-02-02T08:49:34.000Z</time>
      </trkpt>
      <trkpt lat="47.2915" lon="4.92936">
        <ele>622.8</ele>
        <time>2013-02-02T08:49:35.000Z</time>
      </trkpt>
      <trkpt lat="47.29152" lon="4.9294">
        <ele>623.1</ele>
        <time>2013-02-02T08:49:37.000Z</time>
      </trkpt>
      <trkpt lat="47.29153" lon="4.92942">
        <ele>623.3</ele>
        <time>2013-02-02T08:49:38.000Z</time>
      </trkpt>
      <trkpt lat="47.29155" lon="4.92946">
        <ele>623.2</ele>
        <time>2013-02-02T08:49:40.000Z</time>
      </trkpt>
      <trkpt lat="47.29155" lon="4.92948">
        <ele>623.2</ele>
        <time>2013-02-02T08:49:41.000Z</time>
      </trkpt>
      <trkpt lat="47.29157" lon="4.92952">
        <ele>623.2</ele>
        <time>2013-02-02T08:49:43.000Z</time>
      </trkpt>
      <trkpt lat="47.29158" lon="4.92954">
        <ele>623.2</ele>
        <time>2013-02-02T08:49:44.000Z</time>
      </trkpt>
      <trkpt lat="47.2916" lon="4.92959">
        <ele>623</ele>
        <time>2013-02-02T08:49:47.000Z</time>
      </trkpt>
      <trkpt lat="47.29161" lon="4.92961">
        <ele>622.7</ele>
        <time>2013-02-02T08:49:48.000Z</time>
      </trkpt>
      <trkpt lat="47.29163" lon="4.92965">
        <ele>622.5</ele>
        <time>2013-02-02T08:49:50.000Z</time>
      </trkpt>
      <trkpt lat="47.29163" lon="4.92967">
        <ele>622.6</ele>
        <time>2013-02-02T08:49:51.000Z</time>
      </trkpt>
      <trkpt lat="47.29165" lon="4.92971">
        <ele>622.7</ele>
        <time>2013-02-02T08:49:53.000Z</time>
      </trkpt>
      <trkpt lat="47.29166" lon="4.92973">
        <ele>622.8</ele>
        <time>2013-02-02T08:49:54.000Z</time>
      </trkpt>
      <trkpt lat="47.29168" lon="4.92979">
        <ele>623.3</ele>
        <time>2013-02-02T08:49:57.000Z</time>
      </trkpt>
      <trkpt lat="47.29168" lon="4.92981">
        <ele>623.3</ele>
        <time>2013-02-02T08:49:58.000Z</time>
      </trkpt>
      <trkpt lat="47.2917" lon="4.92985">
        <ele>623.3</ele>
        <time>2013-02-02T08:50:00.000Z</time>
      </trkpt>
      <trkpt lat="47.29171" lon="4.92987">
        <ele>623.2</ele>
        <time>2013-02-02T08:50:01.000Z</time>
      </trkpt>
      <trkpt lat="47.29173" lon="4.92992">
        <ele>622.9</ele>
        <time>2013-02-02T08:50:04.000Z</time>
      </trkpt>
      <trkpt lat="47.29174" lon="4.92994">
        <ele>622.9</ele>
        <time>2013-02-02T08:50:05.000Z</time>
      </trkpt>
      <trkpt lat="47.29176" lon="4.92997">
        <ele>623.3</ele>
        <time>2013-02-02T08:50:07.000Z</time>
      </trkpt>
      <trkpt lat="47.29177" lon="4.92999">
        <ele>623.4</ele>
        <time>2013-02-02T08:50:08.000Z</time>
      </trkpt>
      <trkpt lat="47.29179" lon="4.93005">
        <ele>624</ele>
        <time>2013-02-02T08:50:11.000Z</time>
      </trkpt>
      <trkpt lat="47.2918" lon="4.93006">
        <ele>624</ele>
        <time>2013-02-02T08:50:12.000Z</time>
      </trkpt>
      <trkpt lat="47.29182" lon="4.93011">
        <ele>624</ele>
        <time>2013-02-02T08:50:14.000Z</time>
      </trkpt>
      <trkpt lat="47.29183" lon="4.93013">
        <ele>624.1</ele>
        <time>2013-02-02T08:50:15.000Z</time>
      </trkpt>
      <trkpt lat="47.29189" lon="4.93028">
        <ele>623.6</ele>
        <time>2013-02-02T08:50:22.000Z</time>
      </trkpt>
      <trkpt lat="47.29191" lon="4.93032">
        <ele>624.4</ele>
        <time>2013-02-02T08:50:24.000Z</time>
      </trkpt>
      <trkpt lat="47.29192" lon="4.93034">
        <ele>623.9</ele>
        <time>2013-02-02T08:50:25.000Z</time>
      </trkpt>
      <trkpt lat="47.29193" lon="4.93038">
        <ele>624.2</ele>
        <time>2013-02-02T08:50:27.000Z</time>
      </trkpt>
      <trkpt lat="47.29195" lon="4.9304">
        <ele>624.5</ele>
        <time>2013-02-02T08:50:28.000Z</time>
      </trkpt>
      <trkpt lat="47.29197" lon="4.93044">
        <ele>625.3</ele>
        <time>2013-02-02T08:50:30.000Z</time>
      </trkpt>
      <trkpt lat="47.29197" lon="4.93046">
        <ele>625</ele>
        <time>2013-02-02T08:50:31.000Z</time>
      </trkpt>
      <trkpt lat="47.292" lon="4.93051">
        <ele>624.8</ele>
        <time>2013-02-02T08:50:34.000Z</time>
      </trkpt>
      <trkpt lat="47.29201" lon="4.93053">
        <ele>624.7</ele>
        <time>2013-02-02T08:50:35.000Z</time>
      </trkpt>
      <trkpt lat="47.29203" lon="4.93057">
        <ele>624.9</ele>
        <time>2013-02-02T08:50:37.000Z</time>
      </trkpt>
      <trkpt lat="47.29203" lon="4.93059">
        <ele>624.9</ele>
        <time>2013-02-02T08:50:38.000Z</time>
      </trkpt>
      <trkpt lat="47.29205" lon="4.93063">
        <ele>624.8</ele>
        <time>2013-02-02T08:50:40.000Z</time>
      </trkpt>
      <trkpt lat="47.29206" lon="4.93065">
        <ele>624.6</ele>
        <time>2013-02-02T08:50:41.000Z</time>
      </trkpt>
      <trkpt lat="47.29208" lon="4.93069">
        <ele>624.5</ele>
        <time>2013-02-02T08:50:43.000Z</time>
      </trkpt>
      <trkpt lat="47.29209" lon="4.93071">
        <ele>624.2</ele>
        <time>2013-02-02T08:50:44.000Z</time>
      </trkpt>
      <trkpt lat="47.29211" lon="4.93075">
        <ele>624.7</ele>
        <time>2013-02-02T08:50:46.000Z</time>
      </trkpt>
      <trkpt lat="47.29212" lon="4.93077">
        <ele>624.6</ele>
        <time>2013-02-02T08:50:47.000Z</time>
      </trkpt>
      <trkpt lat="47.29213" lon="4.93081">
        <ele>624.5</ele>
        <time>2013-02-02T08:50:49.000Z</time>
      </trkpt>
      <trkpt lat="47.29214" lon="4.93083">
        <ele>624.3</ele>
        <time>2013-02-02T08:50:50.000Z</time>
      </trkpt>
      <trkpt lat="47.29216" lon="4.93087">
        <ele>624.2</ele>
        <time>2013-02-02T08:50:52.000Z</time>
      </trkpt>
      <trkpt lat="47.29217" lon="4.93089">
        <ele>624</ele>
        <time>2013-02-02T08:50:53.000Z</time>
      </trkpt>
      <trkpt lat="47.29219" lon="4.93092">
        <ele>623.9</ele>
        <time>2013-02-02T08:50:55.000Z</time>
      </trkpt>
      <trkpt lat="47.2922" lon="4.93094">
        <ele>623.8</ele>
        <time>2013-02-02T08:50:56.000Z</time>
      </trkpt>
      <trkpt lat="47.29222" lon="4.93098">
        <ele>623.7</ele>
        <time>2013-02-02T08:50:58.000Z</time>
      </trkpt>
      <trkpt lat="47.29223" lon="4.931">
        <ele>623.7</ele>
        <time>2013-02-02T08:50:59.000Z</time>
      </trkpt>
      <trkpt lat="47.29225" lon="4.93103">
        <ele>623.5</ele>
        <time>2013-02-02T08:51:01.000Z</time>
      </trkpt>
      <trkpt lat="47.29226" lon="4.93105">
        <ele>623.4</ele>
        <time>2013-02-02T08:51:02.000Z</time>
      </trkpt>
      <trkpt lat="47.29229" lon="4.93109">
        <ele>623.2</ele>
        <time>2013-02-02T08:51:05.000Z</time>
      </trkpt>
      <trkpt lat="47.2923" lon="4.93111">
        <ele>623.2</ele>
        <time>2013-02-02T08:51:06.000Z</time>
      </trkpt>
      <trkpt lat="47.29232" lon="4.93114">
        <ele>623.3</ele>
        <time>2013-02-02T08:51:08.000Z</time>
      </trkpt>
      <trkpt lat="47.29233" lon="4.93116">
        <ele>623</ele>
        <time>2013-02-02T08:51:09.000Z</time>
      </trkpt>
      <trkpt lat="47.29235" lon="4.93119">
        <ele>622.8</ele>
        <time>2013-02-02T08:51:11.000Z</time>
      </trkpt>
      <trkpt lat="47.29236" lon="4.93121">
        <ele>622.6</ele>
        <time>2013-02-02T08:51:12.000Z</time>
      </trkpt>
      <trkpt lat="47.29238" lon="4.93124">
        <ele>622.6</ele>
        <time>2013-02-02T08:51:14.000Z</time>
      </trkpt>
      <trkpt lat="47.29239" lon="4.93126">
        <ele>622.7</ele>
        <time>2013-02-02T08:51:15.000Z</time>
      </trkpt>
      <trkpt lat="47.29249" lon="4.9314">
        <ele>626.9</ele>
        <time>2013-02-02T08:51:22.000Z</time>
      </trkpt>
      <trkpt lat="47.29251" lon="4.93144">
        <ele>627.3</ele>
        <time>2013-02-02T08:51:25.000Z</time>
      </trkpt>
      <trkpt lat="47.29252" lon="4.93146">
        <ele>627</ele>
        <time>2013-02-02T08:51:26.000Z</time>
      </trkpt>
      <trkpt lat="47.29255" lon="4.93149">
        <ele>625.1</ele>
        <time>2013-02-02T08:51:29.000Z</time>
      </trkpt>
      <trkpt lat="47.29256" lon="4.9315">
        <ele>624.5</ele>
        <time>2013-02-02T08:51:30.000Z</time>
      </trkpt>
      <trkpt lat="47.29258" lon="4.93153">
        <ele>624.2</ele>
        <time>2013-02-02T08:51:32.000Z</time>
      </trkpt>
      <trkpt lat="47.2926" lon="4.93155">
        <ele>623.9</ele>
        <time>2013-02-02T08:51:33.000Z</time>
      </trkpt>
      <trkpt lat="47.29262" lon="4.93159">
        <ele>623.8</ele>
        <time>2013-02-02T08:51:35.000Z</time>
      </trkpt>
      <trkpt lat="47.29263" lon="4.93161">
        <ele>623.5</ele>
        <time>2013-02-02T08:51:36.000Z</time>
      </trkpt>
      <trkpt lat="47.29265" lon="4.93165">
        <ele>623.1</ele>
        <time>2013-02-02T08:51:38.000Z</time>
      </trkpt>
      <trkpt lat="47.29267" lon="4.93167">
        <ele>622.9</ele>
        <time>2013-02-02T08:51:39.000Z</time>
      </trkpt>
      <trkpt lat="47.29269" lon="4.9317">
        <ele>622.2</ele>
        <time>2013-02-02T08:51:41.000Z</time>
      </trkpt>
      <trkpt lat="47.29271" lon="4.93172">
        <ele>621.8</ele>
        <time>2013-02-02T08:51:42.000Z</time>
      </trkpt>
      <trkpt lat="47.29273" lon="4.93176">
        <ele>621.5</ele>
        <time>2013-02-02T08:51:44.000Z</time>
      </trkpt>
      <trkpt lat="47.29274" lon="4.93177">
        <ele>621.5</ele>
        <time>2013-02-02T08:51:45.000Z</time>
      </trkpt>
      <trkpt lat="47.29278" lon="4.93181">
        <ele>621.5</ele>
        <time>2013-02-02T08:51:48.000Z</time>
      </trkpt>
      <trkpt lat="47.29278" lon="4.93183">
        <ele>621.7</ele>
        <time>2013-02-02T08:51:49.000Z</time>
      </trkpt>
      <trkpt lat="47.29281" lon="4.93187">
        <ele>622.2</ele>
        <time>2013-02-02T08:51:52.000Z</time>
      </trkpt>
      <trkpt lat="47.29282" lon="4.93188">
        <ele>622.1</ele>
        <time>2013-02-02T08:51:53.000Z</time>
      </trkpt>
      <trkpt lat="47.29285" lon="4.93193">
        <ele>622.2</ele>
        <time>2013-02-02T08:51:56.000Z</time>
      </trkpt>
      <trkpt lat="47.29286" lon="4.93194">
        <ele>622.2</ele>
        <time>2013-02-02T08:51:57.000Z</time>
      </trkpt>
      <trkpt lat="47.29288" lon="4.93198">
        <ele>622.2</ele>
        <time>2013-02-02T08:51:59.000Z</time>
      </trkpt>
      <trkpt lat="47.29289" lon="4.932">
        <ele>622.3</ele>
        <time>2013-02-02T08:52:00.000Z</time>
      </trkpt>
      <trkpt lat="47.29292" lon="4.93203">
        <ele>622.1</ele>
        <time>2013-02-02T08:52:02.000Z</time>
      </trkpt>
      <trkpt lat="47.29293" lon="4.93205">
        <ele>622.2</ele>
        <time>2013-02-02T08:52:03.000Z</time>
      </trkpt>
      <trkpt lat="47.29295" lon="4.93209">
        <ele>621.8</ele>
        <time>2013-02-02T08:52:05.000Z</time>
      </trkpt>
      <trkpt lat="47.29296" lon="4.93211">
        <ele>621.9</ele>
        <time>2013-02-02T08:52:06.000Z</time>
      </trkpt>
      <trkpt lat="47.29298" lon="4.93214">
        <ele>621.7</ele>
        <time>2013-02-02T08:52:08.000Z</time>
      </trkpt>
      <trkpt lat="47.293" lon="4.93216">
        <ele>621.6</ele>
        <time>2013-02-02T08:52:09.000Z</time>
      </trkpt>
      <trkpt lat="47.29302" lon="4.9322">
        <ele>621.5</ele>
        <time>2013-02-02T08:52:11.000Z</time>
      </trkpt>
      <trkpt lat="47.29303" lon="4.93222">
        <ele>621.4</ele>
        <time>2013-02-02T08:52:12.000Z</time>
      </trkpt>
      <trkpt lat="47.29306" lon="4.93225">
        <ele>621.4</ele>
        <time>2013-02-02T08:52:14.000Z</time>
      </trkpt>
      <trkpt lat="47.29306" lon="4.93227">
        <ele>621.4</ele>
        <time>2013-02-02T08:52:15.000Z</time>
      </trkpt>
      <trkpt lat="47.29318" lon="4.93237">
        <ele>619.1</ele>
        <time>2013-02-02T08:52:22.000Z</time>
      </trkpt>
      <trkpt lat="47.2932" lon="4.9324">
        <ele>619.4</ele>
        <time>2013-02-02T08:52:24.000Z</time>
      </trkpt>
      <trkpt lat="47.29322" lon="4.93241">
        <ele>620</ele>
        <time>2013-02-02T08:52:25.000Z</time>
      </trkpt>
      <trkpt lat="47.29325" lon="4.93245">
        <ele>620</ele>
        <time>2013-02-02T08:52:28.000Z</time>
      </trkpt>
      <trkpt lat="47.29326" lon="4.93246">
        <ele>620.1</ele>
        <time>2013-02-02T08:52:29.000Z</time>
      </trkpt>
      <trkpt lat="47.2933" lon="4.93249">
        <ele>621.9</ele>
        <time>2013-02-02T08:52:32.000Z</time>
      </trkpt>
      <trkpt lat="47.29331" lon="4.9325">
        <ele>621.9</ele>
        <time>2013-02-02T08:52:33.000Z</time>
      </trkpt>
      <trkpt lat="47.29336" lon="4.9325">
        <ele>622.8</ele>
        <time>2013-02-02T08:52:37.000Z</time>
      </trkpt>
      <trkpt lat="47.29337" lon="4.9325">
        <ele>622.1</ele>
        <time>2013-02-02T08:52:38.000Z</time>
      </trkpt>
      <trkpt lat="47.2934" lon="4.93252">
        <ele>622.9</ele>
        <time>2013-02-02T08:52:41.000Z</time>
      </trkpt>
      <trkpt lat="47.29342" lon="4.93252">
        <ele>622.9</ele>
        <time>2013-02-02T08:52:42.000Z</time>
      </trkpt>
      <trkpt lat="47.29345" lon="4.93253">
        <ele>621.8</ele>
        <time>2013-02-02T08:53:15.000Z</time>
      </trkpt>
      <trkpt lat="47.29353" lon="4.93254">
        <ele>620.2</ele>
        <time>2013-02-02T08:53:22.000Z</time>
      </trkpt>
      <trkpt lat="47.29355" lon="4.93259">
        <ele>623.7</ele>
        <time>2013-02-02T08:53:44.000Z</time>
      </trkpt>
      <trkpt lat="47.29355" lon="4.9326">
        <ele>623.6</ele>
        <time>2013-02-02T08:53:45.000Z</time>
      </trkpt>
      <trkpt lat="47.29359" lon="4.93264">
        <ele>623.3</ele>
        <time>2013-02-02T08:53:49.000Z</time>
      </trkpt>
      <trkpt lat="47.29359" lon="4.93265">
        <ele>623.2</ele>
        <time>2013-02-02T08:53:50.000Z</time>
      </trkpt>
      <trkpt lat="47.29361" lon="4.9327">
        <ele>623</ele>
        <time>2013-02-02T08:53:53.000Z</time>
      </trkpt>
      <trkpt lat="47.29362" lon="4.93271">
        <ele>622.9</ele>
        <time>2013-02-02T08:53:54.000Z</time>
      </trkpt>
      <trkpt lat="47.29365" lon="4.93275">
        <ele>622.5</ele>
        <time>2013-02-02T08:53:57.000Z</time>
      </trkpt>
      <trkpt lat="47.29366" lon="4.93276">
        <ele>622.6</ele>
        <time>2013-02-02T08:53:58.000Z</time>
      </trkpt>
      <trkpt lat="47.29369" lon="4.9328">
        <ele>622.3</ele>
        <time>2013-02-02T08:54:01.000Z</time>
      </trkpt>
      <trkpt lat="47.2937" lon="4.93281">
        <ele>622.2</ele>
        <time>2013-02-02T08:54:02.000Z</time>
      </trkpt>
      <trkpt lat="47.29371" lon="4.93287">
        <ele>621.7</ele>
        <time>2013-02-02T08:54:05.000Z</time>
      </trkpt>
      <trkpt lat="47.29372" lon="4.93289">
        <ele>621.4</ele>
        <time>2013-02-02T08:54:06.000Z</time>
      </trkpt>
      <trkpt lat="47.29375" lon="4.93293">
        <ele>621.3</ele>
        <time>2013-02-02T08:54:08.000Z</time>
      </trkpt>
      <trkpt lat="47.29376" lon="4.93295">
        <ele>621.3</ele>
        <time>2013-02-02T08:54:09.000Z</time>
      </trkpt>
      <trkpt lat="47.29378" lon="4.933">
        <ele>620.9</ele>
        <time>2013-02-02T08:54:11.000Z</time>
      </trkpt>
      <trkpt lat="47.29379" lon="4.93301">
        <ele>620.9</ele>
        <time>2013-02-02T08:54:12.000Z</time>
      </trkpt>
      <trkpt lat="47.29381" lon="4.93306">
        <ele>620.4</ele>
        <time>2013-02-02T08:54:15.000Z</time>
      </trkpt>
      <trkpt lat="47.29386" lon="4.93316">
        <ele>614.2</ele>
        <time>2013-02-02T08:54:22.000Z</time>
      </trkpt>
      <trkpt lat="47.29388" lon="4.93321">
        <ele>618.1</ele>
        <time>2013-02-02T08:54:25.000Z</time>
      </trkpt>
      <trkpt lat="47.29388" lon="4.93322">
        <ele>617.7</ele>
        <time>2013-02-02T08:54:26.000Z</time>
      </trkpt>
      <trkpt lat="47.29392" lon="4.93325">
        <ele>618.6</ele>
        <time>2013-02-02T08:54:29.000Z</time>
      </trkpt>
      <trkpt lat="47.29392" lon="4.93326">
        <ele>618.5</ele>
        <time>2013-02-02T08:54:30.000Z</time>
      </trkpt>
      <trkpt lat="47.29395" lon="4.93328">
        <ele>618.2</ele>
        <time>2013-02-02T08:54:32.000Z</time>
      </trkpt>
      <trkpt lat="47.29397" lon="4.9333">
        <ele>618.3</ele>
        <time>2013-02-02T08:54:33.000Z</time>
      </trkpt>
      <trkpt lat="47.29399" lon="4.93332">
        <ele>617.9</ele>
        <time>2013-02-02T08:54:35.000Z</time>
      </trkpt>
      <trkpt lat="47.29401" lon="4.93332">
        <ele>617.1</ele>
        <time>2013-02-02T08:54:36.000Z</time>
      </trkpt>
      <trkpt lat="47.29405" lon="4.93334">
        <ele>617</ele>
        <time>2013-02-02T08:54:40.000Z</time>
      </trkpt>
      <trkpt lat="47.29406" lon="4.93335">
        <ele>617.2</ele>
        <time>2013-02-02T08:54:41.000Z</time>
      </trkpt>
      <trkpt lat="47.29409" lon="4.93339">
        <ele>617</ele>
        <time>2013-02-02T08:54:44.000Z</time>
      </trkpt>
      <trkpt lat="47.2941" lon="4.9334">
        <ele>617.6</ele>
        <time>2013-02-02T08:54:45.000Z</time>
      </trkpt>
      <trkpt lat="47.29414" lon="4.93343">
        <ele>617.6</ele>
        <time>2013-02-02T08:54:48.000Z</time>
      </trkpt>
      <trkpt lat="47.29415" lon="4.93344">
        <ele>617.7</ele>
        <time>2013-02-02T08:54:49.000Z</time>
      </trkpt>
      <trkpt lat="47.29419" lon="4.93347">
        <ele>617.2</ele>
        <time>2013-02-02T08:54:52.000Z</time>
      </trkpt>
      <trkpt lat="47.2942" lon="4.93348">
        <ele>617.2</ele>
        <time>2013-02-02T08:54:53.000Z</time>
      </trkpt>
      <trkpt lat="47.29423" lon="4.9335">
        <ele>617</ele>
        <time>2013-02-02T08:54:55.000Z</time>
      </trkpt>
      <trkpt lat="47.29424" lon="4.93351">
        <ele>616.4</ele>
        <time>2013-02-02T08:54:56.000Z</time>
      </trkpt>
      <trkpt lat="47.29427" lon="4.93355">
        <ele>615.9</ele>
        <time>2013-02-02T08:54:58.000Z</time>
      </trkpt>
      <trkpt lat="47.29428" lon="4.93357">
        <ele>615.7</ele>
        <time>2013-02-02T08:54:59.000Z</time>
      </trkpt>
      <trkpt lat="47.29431" lon="4.9336">
        <ele>615.1</ele>
        <time>2013-02-02T08:55:01.000Z</time>
      </trkpt>
      <trkpt lat="47.29432" lon="4.93362">
        <ele>614.8</ele>
        <time>2013-02-02T08:55:02.000Z</time>
      </trkpt>
      <trkpt lat="47.29435" lon="4.93365">
        <ele>614.5</ele>
        <time>2013-02-02T08:55:05.000Z</time>
      </trkpt>
      <trkpt lat="47.29436" lon="4.93365">
        <ele>614.3</ele>
        <time>2013-02-02T08:55:06.000Z</time>
      </trkpt>
      <trkpt lat="47.29439" lon="4.93366">
        <ele>613.9</ele>
        <time>2013-02-02T08:55:08.000Z</time>
      </trkpt>
      <trkpt lat="47.29441" lon="4.93366">
        <ele>613.6</ele>
        <time>2013-02-02T08:55:09.000Z</time>
      </trkpt>
      <trkpt lat="47.29443" lon="4.93369">
        <ele>613.1</ele>
        <time>2013-02-02T08:55:11.000Z</time>
      </trkpt>
      <trkpt lat="47.29445" lon="4.93371">
        <ele>612.6</ele>
        <time>2013-02-02T08:55:12.000Z</time>
      </trkpt>
      <trkpt lat="47.29447" lon="4.93376">
        <ele>611.7</ele>
        <time>2013-02-02T08:55:14.000Z</time>
      </trkpt>
      <trkpt lat="47.29448" lon="4.93378">
        <ele>611.2</ele>
        <time>2013-02-02T08:55:15.000Z</time>
      </trkpt>
      <trkpt lat="47.29463" lon="4.93393">
        <ele>599.8</ele>
        <time>2013-02-02T08:55:25.000Z</time>
      </trkpt>
      <trkpt lat="47.29464" lon="4.93399">
        <ele>601.3</ele>
        <time>2013-02-02T08:55:30.000Z</time>
      </trkpt>
      <trkpt lat="47.29465" lon="4.934">
        <ele>601.7</ele>
        <time>2013-02-02T08:55:31.000Z</time>
      </trkpt>
      <trkpt lat="47.29468" lon="4.93403">
        <ele>600.9</ele>
        <time>2013-02-02T08:55:35.000Z</time>
      </trkpt>
      <trkpt lat="47.29469" lon="4.93404">
        <ele>600.7</ele>
        <time>2013-02-02T08:55:36.000Z</time>
      </trkpt>
      <trkpt lat="47.29471" lon="4.93408">
        <ele>600.4</ele>
        <time>2013-02-02T08:55:39.000Z</time>
      </trkpt>
      <trkpt lat="47.29472" lon="4.93409">
        <ele>600</ele>
        <time>2013-02-02T08:55:40.000Z</time>
      </trkpt>
      <trkpt lat="47.29476" lon="4.93411">
        <ele>599</ele>
        <time>2013-02-02T08:55:43.000Z</time>
      </trkpt>
      <trkpt lat="47.29477" lon="4.93413">
        <ele>599.1</ele>
        <time>2013-02-02T08:55:44.000Z</time>
      </trkpt>
      <trkpt lat="47.2948" lon="4.93416">
        <ele>598.3</ele>
        <time>2013-02-02T08:55:46.000Z</time>
      </trkpt>
      <trkpt lat="47.29481" lon="4.93418">
        <ele>598.9</ele>
        <time>2013-02-02T08:55:47.000Z</time>
      </trkpt>
      <trkpt lat="47.29485" lon="4.93422">
        <ele>598.2</ele>
        <time>2013-02-02T08:55:50.000Z</time>
      </trkpt>
      <trkpt lat="47.29486" lon="4.93424">
        <ele>598.2</ele>
        <time>2013-02-02T08:55:51.000Z</time>
      </trkpt>
      <trkpt lat="47.2949" lon="4.93425">
        <ele>596</ele>
        <time>2013-02-02T08:55:56.000Z</time>
      </trkpt>
      <trkpt lat="47.29491" lon="4.93426">
        <ele>595.8</ele>
        <time>2013-02-02T08:55:57.000Z</time>
      </trkpt>
      <trkpt lat="47.29495" lon="4.93429">
        <ele>594.7</ele>
        <time>2013-02-02T08:56:00.000Z</time>
      </trkpt>
      <trkpt lat="47.29496" lon="4.9343">
        <ele>594.6</ele>
        <time>2013-02-02T08:56:01.000Z</time>
      </trkpt>
      <trkpt lat="47.29498" lon="4.93434">
        <ele>594.2</ele>
        <time>2013-02-02T08:56:04.000Z</time>
      </trkpt>
      <trkpt lat="47.29499" lon="4.93435">
        <ele>593.9</ele>
        <time>2013-02-02T08:56:05.000Z</time>
      </trkpt>
      <trkpt lat="47.29503" lon="4.93439">
        <ele>592.4</ele>
        <time>2013-02-02T08:56:08.000Z</time>
      </trkpt>
      <trkpt lat="47.29504" lon="4.9344">
        <ele>591.9</ele>
        <time>2013-02-02T08:56:09.000Z</time>
      </trkpt>
      <trkpt lat="47.29506" lon="4.93443">
        <ele>591.2</ele>
        <time>2013-02-02T08:56:10.000Z</time>
      </trkpt>
      <trkpt lat="47.29508" lon="4.93447">
        <ele>590.5</ele>
        <time>2013-02-02T08:56:11.000Z</time>
      </trkpt>
      <trkpt lat="47.29509" lon="4.93452">
        <ele>589.7</ele>
        <time>2013-02-02T08:56:13.000Z</time>
      </trkpt>
      <trkpt lat="47.2951" lon="4.93454">
        <ele>589</ele>
        <time>2013-02-02T08:56:14.000Z</time>
      </trkpt>
      <trkpt lat="47.29511" lon="4.93457">
        <ele>588.4</ele>
        <time>2013-02-02T08:56:15.000Z</time>
      </trkpt>
      <trkpt lat="47.29519" lon="4.93466">
        <ele>574.6</ele>
        <time>2013-02-02T08:56:22.000Z</time>
      </trkpt>
      <trkpt lat="47.29518" lon="4.9347">
        <ele>574.4</ele>
        <time>2013-02-02T08:56:24.000Z</time>
      </trkpt>
      <trkpt lat="47.29518" lon="4.93472">
        <ele>574.3</ele>
        <time>2013-02-02T08:56:25.000Z</time>
      </trkpt>
      <trkpt lat="47.29515" lon="4.93476">
        <ele>573.9</ele>
        <time>2013-02-02T08:56:27.000Z</time>
      </trkpt>
      <trkpt lat="47.29515" lon="4.93477">
        <ele>573.4</ele>
        <time>2013-02-02T08:56:28.000Z</time>
      </trkpt>
      <trkpt lat="47.29514" lon="4.93483">
        <ele>572.6</ele>
        <time>2013-02-02T08:56:32.000Z</time>
      </trkpt>
      <trkpt lat="47.29514" lon="4.93485">
        <ele>572.3</ele>
        <time>2013-02-02T08:56:33.000Z</time>
      </trkpt>
      <trkpt lat="47.29516" lon="4.93491">
        <ele>570.5</ele>
        <time>2013-02-02T08:56:37.000Z</time>
      </trkpt>
      <trkpt lat="47.29516" lon="4.93492">
        <ele>570.3</ele>
        <time>2013-02-02T08:56:38.000Z</time>
      </trkpt>
      <trkpt lat="47.29518" lon="4.93498">
        <ele>569.3</ele>
        <time>2013-02-02T08:56:41.000Z</time>
      </trkpt>
      <trkpt lat="47.29518" lon="4.935">
        <ele>569</ele>
        <time>2013-02-02T08:56:42.000Z</time>
      </trkpt>
      <trkpt lat="47.29519" lon="4.93506">
        <ele>566.9</ele>
        <time>2013-02-02T08:56:45.000Z</time>
      </trkpt>
      <trkpt lat="47.2952" lon="4.93507">
        <ele>566.2</ele>
        <time>2013-02-02T08:56:46.000Z</time>
      </trkpt>
      <trkpt lat="47.29521" lon="4.93512">
        <ele>566.4</ele>
        <time>2013-02-02T08:56:48.000Z</time>
      </trkpt>
      <trkpt lat="47.29522" lon="4.93514">
        <ele>566.2</ele>
        <time>2013-02-02T08:56:49.000Z</time>
      </trkpt>
      <trkpt lat="47.29524" lon="4.93518">
        <ele>565.8</ele>
        <time>2013-02-02T08:56:52.000Z</time>
      </trkpt>
      <trkpt lat="47.29524" lon="4.9352">
        <ele>566</ele>
        <time>2013-02-02T08:56:53.000Z</time>
      </trkpt>
      <trkpt lat="47.29526" lon="4.93524">
        <ele>566.4</ele>
        <time>2013-02-02T08:56:56.000Z</time>
      </trkpt>
      <trkpt lat="47.29527" lon="4.93527">
        <ele>566.3</ele>
        <time>2013-02-02T08:56:57.000Z</time>
      </trkpt>
      <trkpt lat="47.29528" lon="4.93533">
        <ele>566</ele>
        <time>2013-02-02T08:57:00.000Z</time>
      </trkpt>
      <trkpt lat="47.29528" lon="4.93535">
        <ele>565.9</ele>
        <time>2013-02-02T08:57:01.000Z</time>
      </trkpt>
      <trkpt lat="47.29529" lon="4.93539">
        <ele>565.6</ele>
        <time>2013-02-02T08:57:03.000Z</time>
      </trkpt>
      <trkpt lat="47.29529" lon="4.93541">
        <ele>565.2</ele>
        <time>2013-02-02T08:57:04.000Z</time>
      </trkpt>
      <trkpt lat="47.2953" lon="4.93546">
        <ele>564.7</ele>
        <time>2013-02-02T08:57:06.000Z</time>
      </trkpt>
      <trkpt lat="47.29531" lon="4.93548">
        <ele>564.4</ele>
        <time>2013-02-02T08:57:07.000Z</time>
      </trkpt>
      <trkpt lat="47.29532" lon="4.93553">
        <ele>563.9</ele>
        <time>2013-02-02T08:57:09.000Z</time>
      </trkpt>
      <trkpt lat="47.29532" lon="4.93555">
        <ele>563.3</ele>
        <time>2013-02-02T08:57:10.000Z</time>
      </trkpt>
      <trkpt lat="47.29533" lon="4.93559">
        <ele>562.8</ele>
        <time>2013-02-02T08:57:12.000Z</time>
      </trkpt>
      <trkpt lat="47.29534" lon="4.93561">
        <ele>562.7</ele>
        <time>2013-02-02T08:57:13.000Z</time>
      </trkpt>
      <trkpt lat="47.29535" lon="4.93565">
        <ele>562.5</ele>
        <time>2013-02-02T08:57:15.000Z</time>
      </trkpt>
      <trkpt lat="47.2954" lon="4.93573">
        <ele>555.1</ele>
        <time>2013-02-02T08:57:22.000Z</time>
      </trkpt>
      <trkpt lat="47.29544" lon="4.93576">
        <ele>558.4</ele>
        <time>2013-02-02T08:57:27.000Z</time>
      </trkpt>
      <trkpt lat="47.29545" lon="4.93577">
        <ele>557.6</ele>
        <time>2013-02-02T08:57:28.000Z</time>
      </trkpt>
      <trkpt lat="47.2955" lon="4.93578">
        <ele>556.9</ele>
        <time>2013-02-02T08:57:32.000Z</time>
      </trkpt>
      <trkpt lat="47.29551" lon="4.93578">
        <ele>557.5</ele>
        <time>2013-02-02T08:57:33.000Z</time>
      </trkpt>
      <trkpt lat="47.29555" lon="4.93578">
        <ele>560.9</ele>
        <time>2013-02-02T08:57:40.000Z</time>
      </trkpt>
      <trkpt lat="47.29556" lon="4.93578">
        <ele>561.1</ele>
        <time>2013-02-02T08:57:41.000Z</time>
      </trkpt>
      <trkpt lat="47.2956" lon="4.93579">
        <ele>562.2</ele>
        <time>2013-02-02T08:57:45.000Z</time>
      </trkpt>
      <trkpt lat="47.29561" lon="4.93579">
        <ele>562.6</ele>
        <time>2013-02-02T08:57:46.000Z</time>
      </trkpt>
      <trkpt lat="47.29565" lon="4.93579">
        <ele>562</ele>
        <time>2013-02-02T08:57:50.000Z</time>
      </trkpt>
      <trkpt lat="47.29566" lon="4.93579">
        <ele>562.2</ele>
        <time>2013-02-02T08:57:51.000Z</time>
      </trkpt>
      <trkpt lat="47.2957" lon="4.93579">
        <ele>562.8</ele>
        <time>2013-02-02T08:57:55.000Z</time>
      </trkpt>
      <trkpt lat="47.29571" lon="4.93579">
        <ele>562.8</ele>
        <time>2013-02-02T08:57:56.000Z</time>
      </trkpt>
      <trkpt lat="47.29575" lon="4.93579">
        <ele>562.8</ele>
        <time>2013-02-02T08:58:00.000Z</time>
      </trkpt>
      <trkpt lat="47.29576" lon="4.93579">
        <ele>562.8</ele>
        <time>2013-02-02T08:58:01.000Z</time>
      </trkpt>
      <trkpt lat="47.29579" lon="4.93579">
        <ele>563.1</ele>
        <time>2013-02-02T08:58:04.000Z</time>
      </trkpt>
      <trkpt lat="47.29581" lon="4.93579">
        <ele>563.2</ele>
        <time>2013-02-02T08:58:05.000Z</time>
      </trkpt>
      <trkpt lat="47.29584" lon="4.93578">
        <ele>563</ele>
        <time>2013-02-02T08:58:08.000Z</time>
      </trkpt>
      <trkpt lat="47.29585" lon="4.93577">
        <ele>562.8</ele>
        <time>2013-02-02T08:58:09.000Z</time>
      </trkpt>
      <trkpt lat="47.29589" lon="4.93575">
        <ele>563</ele>
        <time>2013-02-02T08:58:12.000Z</time>
      </trkpt>
      <trkpt lat="47.2959" lon="4.93574">
        <ele>563</ele>
        <time>2013-02-02T08:58:13.000Z</time>
      </trkpt>
      <trkpt lat="47.29592" lon="4.93573">
        <ele>563.2</ele>
        <time>2013-02-02T08:58:15.000Z</time>
      </trkpt>
      <trkpt lat="47.29606" lon="4.93566">
        <ele>562.5</ele>
        <time>2013-02-02T08:58:25.000Z</time>
      </trkpt>
      <trkpt lat="47.2961" lon="4.93564">
        <ele>566</ele>
        <time>2013-02-02T08:58:31.000Z</time>
      </trkpt>
      <trkpt lat="47.29611" lon="4.93564">
        <ele>566.4</ele>
        <time>2013-02-02T08:58:32.000Z</time>
      </trkpt>
      <trkpt lat="47.29614" lon="4.93561">
        <ele>566.9</ele>
        <time>2013-02-02T08:58:35.000Z</time>
      </trkpt>
      <trkpt lat="47.29615" lon="4.9356">
        <ele>567.3</ele>
        <time>2013-02-02T08:58:36.000Z</time>
      </trkpt>
      <trkpt lat="47.29618" lon="4.93558">
        <ele>569.6</ele>
        <time>2013-02-02T08:58:40.000Z</time>
      </trkpt>
      <trkpt lat="47.29619" lon="4.93558">
        <ele>569.5</ele>
        <time>2013-02-02T08:58:41.000Z</time>
      </trkpt>
      <trkpt lat="47.29622" lon="4.93556">
        <ele>569.1</ele>
        <time>2013-02-02T08:58:44.000Z</time>
      </trkpt>
      <trkpt lat="47.29623" lon="4.93554">
        <ele>568.6</ele>
        <time>2013-02-02T08:58:45.000Z</time>
      </trkpt>
      <trkpt lat="47.29626" lon="4.93552">
        <ele>569.1</ele>
        <time>2013-02-02T08:58:48.000Z</time>
      </trkpt>
      <trkpt lat="47.29627" lon="4.93551">
        <ele>569.6</ele>
        <time>2013-02-02T08:58:49.000Z</time>
      </trkpt>
      <trkpt lat="47.29631" lon="4.93549">
        <ele>570.2</ele>
        <time>2013-02-02T08:58:52.000Z</time>
      </trkpt>
      <trkpt lat="47.29632" lon="4.93548">
        <ele>570.1</ele>
        <time>2013-02-02T08:58:53.000Z</time>
      </trkpt>
      <trkpt lat="47.29635" lon="4.93545">
        <ele>570.2</ele>
        <time>2013-02-02T08:58:55.000Z</time>
      </trkpt>
      <trkpt lat="47.29636" lon="4.93544">
        <ele>570.3</ele>
        <time>2013-02-02T08:58:56.000Z</time>
      </trkpt>
      <trkpt lat="47.29639" lon="4.93541">
        <ele>570.9</ele>
        <time>2013-02-02T08:58:59.000Z</time>
      </trkpt>
      <trkpt lat="47.2964" lon="4.9354">
        <ele>571</ele>
        <time>2013-02-02T08:59:00.000Z</time>
      </trkpt>
      <trkpt lat="47.29642" lon="4.93536">
        <ele>572.3</ele>
        <time>2013-02-02T08:59:05.000Z</time>
      </trkpt>
      <trkpt lat="47.29643" lon="4.93535">
        <ele>572.5</ele>
        <time>2013-02-02T08:59:06.000Z</time>
      </trkpt>
      <trkpt lat="47.29647" lon="4.93533">
        <ele>572.8</ele>
        <time>2013-02-02T08:59:09.000Z</time>
      </trkpt>
      <trkpt lat="47.29648" lon="4.93532">
        <ele>572.7</ele>
        <time>2013-02-02T08:59:10.000Z</time>
      </trkpt>
      <trkpt lat="47.29651" lon="4.9353">
        <ele>573.4</ele>
        <time>2013-02-02T08:59:13.000Z</time>
      </trkpt>
      <trkpt lat="47.29653" lon="4.93528">
        <ele>573.8</ele>
        <time>2013-02-02T08:59:14.000Z</time>
      </trkpt>
      <trkpt lat="47.29653" lon="4.93528">
        <ele>573.9</ele>
        <time>2013-02-02T08:59:15.000Z</time>
      </trkpt>
      <trkpt lat="47.29671" lon="4.93513">
        <ele>590.5</ele>
        <time>2013-02-02T08:59:33.000Z</time>
      </trkpt>
      <trkpt lat="47.29675" lon="4.93512">
        <ele>590.3</ele>
        <time>2013-02-02T08:59:36.000Z</time>
      </trkpt>
      <trkpt lat="47.29675" lon="4.93512">
        <ele>590.5</ele>
        <time>2013-02-02T08:59:37.000Z</time>
      </trkpt>
      <trkpt lat="47.29678" lon="4.93509">
        <ele>590.6</ele>
        <time>2013-02-02T08:59:40.000Z</time>
      </trkpt>
      <trkpt lat="47.29679" lon="4.93507">
        <ele>590.2</ele>
        <time>2013-02-02T08:59:41.000Z</time>
      </trkpt>
      <trkpt lat="47.29681" lon="4.93502">
        <ele>587.3</ele>
        <time>2013-02-02T08:59:44.000Z</time>
      </trkpt>
      <trkpt lat="47.29682" lon="4.93502">
        <ele>587.5</ele>
        <time>2013-02-02T08:59:45.000Z</time>
      </trkpt>
      <trkpt lat="47.29686" lon="4.93498">
        <ele>587.2</ele>
        <time>2013-02-02T08:59:48.000Z</time>
      </trkpt>
      <trkpt lat="47.29686" lon="4.93497">
        <ele>586.9</ele>
        <time>2013-02-02T08:59:49.000Z</time>
      </trkpt>
      <trkpt lat="47.2969" lon="4.93496">
        <ele>589.3</ele>
        <time>2013-02-02T08:59:53.000Z</time>
      </trkpt>
      <trkpt lat="47.29691" lon="4.93495">
        <ele>589.8</ele>
        <time>2013-02-02T08:59:54.000Z</time>
      </trkpt>
      <trkpt lat="47.29695" lon="4.93496">
        <ele>591</ele>
        <time>2013-02-02T09:00:02.000Z</time>
      </trkpt>
      <trkpt lat="47.29696" lon="4.93497">
        <ele>591.3</ele>
        <time>2013-02-02T09:00:03.000Z</time>
      </trkpt>
      <trkpt lat="47.297" lon="4.93498">
        <ele>591.7</ele>
        <time>2013-02-02T09:00:06.000Z</time>
      </trkpt>
      <trkpt lat="47.29701" lon="4.93497">
        <ele>591.7</ele>
        <time>2013-02-02T09:00:07.000Z</time>
      </trkpt>
      <trkpt lat="47.29705" lon="4.93498">
        <ele>591.4</ele>
        <time>2013-02-02T09:00:11.000Z</time>
      </trkpt>
      <trkpt lat="47.29706" lon="4.93498">
        <ele>591.5</ele>
        <time>2013-02-02T09:00:12.000Z</time>
      </trkpt>
      <trkpt lat="47.29709" lon="4.93497">
        <ele>591.6</ele>
        <time>2013-02-02T09:00:15.000Z</time>
      </trkpt>
      <trkpt lat="47.2973" lon="4.93502">
        <ele>592.2</ele>
        <time>2013-02-02T09:00:22.000Z</time>
      </trkpt>
      <trkpt lat="47.29733" lon="4.93502">
        <ele>592.4</ele>
        <time>2013-02-02T09:00:24.000Z</time>
      </trkpt>
      <trkpt lat="47.29734" lon="4.93501">
        <ele>591.4</ele>
        <time>2013-02-02T09:00:25.000Z</time>
      </trkpt>
      <trkpt lat="47.29737" lon="4.93504">
        <ele>590.7</ele>
        <time>2013-02-02T09:00:28.000Z</time>
      </trkpt>
      <trkpt lat="47.29739" lon="4.93504">
        <ele>590</ele>
        <time>2013-02-02T09:00:29.000Z</time>
      </trkpt>
      <trkpt lat="47.29742" lon="4.93505">
        <ele>588.6</ele>
        <time>2013-02-02T09:00:32.000Z</time>
      </trkpt>
      <trkpt lat="47.29744" lon="4.93505">
        <ele>588.6</ele>
        <time>2013-02-02T09:00:33.000Z</time>
      </trkpt>
      <trkpt lat="47.29747" lon="4.93503">
        <ele>588.2</ele>
        <time>2013-02-02T09:00:36.000Z</time>
      </trkpt>
      <trkpt lat="47.29748" lon="4.93502">
        <ele>588.2</ele>
        <time>2013-02-02T09:00:37.000Z</time>
      </trkpt>
      <trkpt lat="47.29751" lon="4.93501">
        <ele>589.6</ele>
        <time>2013-02-02T09:00:40.000Z</time>
      </trkpt>
      <trkpt lat="47.29753" lon="4.935">
        <ele>590.1</ele>
        <time>2013-02-02T09:00:41.000Z</time>
      </trkpt>
      <trkpt lat="47.29756" lon="4.93499">
        <ele>590.8</ele>
        <time>2013-02-02T09:00:43.000Z</time>
      </trkpt>
      <trkpt lat="47.29757" lon="4.93499">
        <ele>591.2</ele>
        <time>2013-02-02T09:00:44.000Z</time>
      </trkpt>
      <trkpt lat="47.29761" lon="4.93498">
        <ele>592.4</ele>
        <time>2013-02-02T09:00:47.000Z</time>
      </trkpt>
      <trkpt lat="47.29762" lon="4.93497">
        <ele>592.3</ele>
        <time>2013-02-02T09:00:48.000Z</time>
      </trkpt>
      <trkpt lat="47.29765" lon="4.93494">
        <ele>591.9</ele>
        <time>2013-02-02T09:00:50.000Z</time>
      </trkpt>
      <trkpt lat="47.29766" lon="4.93493">
        <ele>591.6</ele>
        <time>2013-02-02T09:00:51.000Z</time>
      </trkpt>
      <trkpt lat="47.29771" lon="4.93492">
        <ele>590.3</ele>
        <time>2013-02-02T09:00:54.000Z</time>
      </trkpt>
      <trkpt lat="47.29772" lon="4.93492">
        <ele>590</ele>
        <time>2013-02-02T09:00:55.000Z</time>
      </trkpt>
      <trkpt lat="47.29776" lon="4.93489">
        <ele>589.6</ele>
        <time>2013-02-02T09:00:58.000Z</time>
      </trkpt>
      <trkpt lat="47.29777" lon="4.93489">
        <ele>589.3</ele>
        <time>2013-02-02T09:00:59.000Z</time>
      </trkpt>
      <trkpt lat="47.29781" lon="4.93488">
        <ele>588.5</ele>
        <time>2013-02-02T09:01:02.000Z</time>
      </trkpt>
      <trkpt lat="47.29782" lon="4.93487">
        <ele>588.5</ele>
        <time>2013-02-02T09:01:03.000Z</time>
      </trkpt>
      <trkpt lat="47.29786" lon="4.93485">
        <ele>588.5</ele>
        <time>2013-02-02T09:01:05.000Z</time>
      </trkpt>
      <trkpt lat="47.29787" lon="4.93484">
        <ele>588.3</ele>
        <time>2013-02-02T09:01:06.000Z</time>
      </trkpt>
      <trkpt lat="47.29791" lon="4.93483">
        <ele>588</ele>
        <time>2013-02-02T09:01:08.000Z</time>
      </trkpt>
      <trkpt lat="47.29793" lon="4.93483">
        <ele>588.1</ele>
        <time>2013-02-02T09:01:09.000Z</time>
      </trkpt>
      <trkpt lat="47.29797" lon="4.9348">
        <ele>588</ele>
        <time>2013-02-02T09:01:12.000Z</time>
      </trkpt>
      <trkpt lat="47.29798" lon="4.9348">
        <ele>587.9</ele>
        <time>2013-02-02T09:01:13.000Z</time>
      </trkpt>
      <trkpt lat="47.29801" lon="4.93479">
        <ele>587.7</ele>
        <time>2013-02-02T09:01:15.000Z</time>
      </trkpt>
      <trkpt lat="47.2981" lon="4.93473">
        <ele>583.4</ele>
        <time>2013-02-02T09:01:25.000Z</time>
      </trkpt>
      <trkpt lat="47.29813" lon="4.9347">
        <ele>584</ele>
        <time>2013-02-02T09:01:28.000Z</time>
      </trkpt>
      <trkpt lat="47.29814" lon="4.93468">
        <ele>583.7</ele>
        <time>2013-02-02T09:01:29.000Z</time>
      </trkpt>
      <trkpt lat="47.29818" lon="4.93464">
        <ele>583.5</ele>
        <time>2013-02-02T09:01:33.000Z</time>
      </trkpt>
      <trkpt lat="47.29819" lon="4.93464">
        <ele>583.4</ele>
        <time>2013-02-02T09:01:34.000Z</time>
      </trkpt>
      <trkpt lat="47.29821" lon="4.93462">
        <ele>583.7</ele>
        <time>2013-02-02T09:01:36.000Z</time>
      </trkpt>
      <trkpt lat="47.29823" lon="4.93461">
        <ele>583.8</ele>
        <time>2013-02-02T09:01:37.000Z</time>
      </trkpt>
      <trkpt lat="47.29827" lon="4.9346">
        <ele>582.9</ele>
        <time>2013-02-02T09:01:40.000Z</time>
      </trkpt>
      <trkpt lat="47.29829" lon="4.93459">
        <ele>582.5</ele>
        <time>2013-02-02T09:01:41.000Z</time>
      </trkpt>
      <trkpt lat="47.29832" lon="4.93456">
        <ele>583.3</ele>
        <time>2013-02-02T09:01:45.000Z</time>
      </trkpt>
      <trkpt lat="47.29833" lon="4.93456">
        <ele>583.1</ele>
        <time>2013-02-02T09:01:46.000Z</time>
      </trkpt>
      <trkpt lat="47.29837" lon="4.93454">
        <ele>581.1</ele>
        <time>2013-02-02T09:01:49.000Z</time>
      </trkpt>
      <trkpt lat="47.29838" lon="4.93452">
        <ele>580.9</ele>
        <time>2013-02-02T09:01:50.000Z</time>
      </trkpt>
      <trkpt lat="47.29842" lon="4.9345">
        <ele>580.3</ele>
        <time>2013-02-02T09:01:54.000Z</time>
      </trkpt>
      <trkpt lat="47.29843" lon="4.93449">
        <ele>580.3</ele>
        <time>2013-02-02T09:01:55.000Z</time>
      </trkpt>
      <trkpt lat="47.29847" lon="4.93446">
        <ele>580.4</ele>
        <time>2013-02-02T09:01:58.000Z</time>
      </trkpt>
      <trkpt lat="47.29848" lon="4.93445">
        <ele>580.2</ele>
        <time>2013-02-02T09:01:59.000Z</time>
      </trkpt>
      <trkpt lat="47.29851" lon="4.93444">
        <ele>579.8</ele>
        <time>2013-02-02T09:02:01.000Z</time>
      </trkpt>
      <trkpt lat="47.29852" lon="4.93443">
        <ele>579.8</ele>
        <time>2013-02-02T09:02:02.000Z</time>
      </trkpt>
      <trkpt lat="47.29855" lon="4.9344">
        <ele>579.2</ele>
        <time>2013-02-02T09:02:05.000Z</time>
      </trkpt>
      <trkpt lat="47.29857" lon="4.93439">
        <ele>578.8</ele>
        <time>2013-02-02T09:02:06.000Z</time>
      </trkpt>
      <trkpt lat="47.2986" lon="4.93437">
        <ele>578.2</ele>
        <time>2013-02-02T09:02:09.000Z</time>
      </trkpt>
      <trkpt lat="47.29862" lon="4.93436">
        <ele>578.1</ele>
        <time>2013-02-02T09:02:10.000Z</time>
      </trkpt>
      <trkpt lat="47.29864" lon="4.93433">
        <ele>577.8</ele>
        <time>2013-02-02T09:02:13.000Z</time>
      </trkpt>
      <trkpt lat="47.29866" lon="4.93431">
        <ele>578</ele>
        <time>2013-02-02T09:02:14.000Z</time>
      </trkpt>
      <trkpt lat="47.29867" lon="4.9343">
        <ele>577.9</ele>
        <time>2013-02-02T09:02:15.000Z</time>
      </trkpt>
      <trkpt lat="47.29883" lon="4.93413">
        <ele>575</ele>
        <time>2013-02-02T09:02:23.000Z</time>
      </trkpt>
      <trkpt lat="47.29888" lon="4.93415">
        <ele>570</ele>
        <time>2013-02-02T09:02:29.000Z</time>
      </trkpt>
      <trkpt lat="47.29889" lon="4.93414">
        <ele>570</ele>
        <time>2013-02-02T09:02:30.000Z</time>
      </trkpt>
      <trkpt lat="47.29892" lon="4.93411">
        <ele>568.1</ele>
        <time>2013-02-02T09:02:33.000Z</time>
      </trkpt>
      <trkpt lat="47.29893" lon="4.93411">
        <ele>567.7</ele>
        <time>2013-02-02T09:02:34.000Z</time>
      </trkpt>
      <trkpt lat="47.29896" lon="4.93408">
        <ele>564.3</ele>
        <time>2013-02-02T09:02:37.000Z</time>
      </trkpt>
      <trkpt lat="47.29897" lon="4.93407">
        <ele>564.7</ele>
        <time>2013-02-02T09:02:38.000Z</time>
      </trkpt>
      <trkpt lat="47.29899" lon="4.93402">
        <ele>563.8</ele>
        <time>2013-02-02T09:02:41.000Z</time>
      </trkpt>
      <trkpt lat="47.29901" lon="4.934">
        <ele>564.2</ele>
        <time>2013-02-02T09:02:42.000Z</time>
      </trkpt>
      <trkpt lat="47.29902" lon="4.93395">
        <ele>565.3</ele>
        <time>2013-02-02T09:02:45.000Z</time>
      </trkpt>
      <trkpt lat="47.29903" lon="4.93393">
        <ele>565.9</ele>
        <time>2013-02-02T09:02:46.000Z</time>
      </trkpt>
      <trkpt lat="47.29906" lon="4.93388">
        <ele>565.2</ele>
        <time>2013-02-02T09:02:49.000Z</time>
      </trkpt>
      <trkpt lat="47.29908" lon="4.93387">
        <ele>565.4</ele>
        <time>2013-02-02T09:02:50.000Z</time>
      </trkpt>
      <trkpt lat="47.29911" lon="4.93383">
        <ele>566.1</ele>
        <time>2013-02-02T09:02:52.000Z</time>
      </trkpt>
      <trkpt lat="47.29912" lon="4.93381">
        <ele>566.5</ele>
        <time>2013-02-02T09:02:53.000Z</time>
      </trkpt>
      <trkpt lat="47.29914" lon="4.93376">
        <ele>566.8</ele>
        <time>2013-02-02T09:02:55.000Z</time>
      </trkpt>
      <trkpt lat="47.29915" lon="4.93375">
        <ele>566.8</ele>
        <time>2013-02-02T09:02:56.000Z</time>
      </trkpt>
      <trkpt lat="47.29918" lon="4.9337">
        <ele>567.3</ele>
        <time>2013-02-02T09:03:00.000Z</time>
      </trkpt>
      <trkpt lat="47.29918" lon="4.93369">
        <ele>567.6</ele>
        <time>2013-02-02T09:03:01.000Z</time>
      </trkpt>
      <trkpt lat="47.29919" lon="4.93364">
        <ele>567.8</ele>
        <time>2013-02-02T09:03:04.000Z</time>
      </trkpt>
      <trkpt lat="47.29919" lon="4.93362">
        <ele>567.8</ele>
        <time>2013-02-02T09:03:05.000Z</time>
      </trkpt>
      <trkpt lat="47.29921" lon="4.93356">
        <ele>567.8</ele>
        <time>2013-02-02T09:03:09.000Z</time>
      </trkpt>
      <trkpt lat="47.29923" lon="4.93356">
        <ele>567.8</ele>
        <time>2013-02-02T09:03:10.000Z</time>
      </trkpt>
      <trkpt lat="47.29925" lon="4.93351">
        <ele>567.8</ele>
        <time>2013-02-02T09:03:13.000Z</time>
      </trkpt>
      <trkpt lat="47.29925" lon="4.93349">
        <ele>567.7</ele>
        <time>2013-02-02T09:03:14.000Z</time>
      </trkpt>
      <trkpt lat="47.29925" lon="4.93347">
        <ele>567.5</ele>
        <time>2013-02-02T09:03:15.000Z</time>
      </trkpt>
      <trkpt lat="47.29932" lon="4.93318">
        <ele>565.7</ele>
        <time>2013-02-02T09:03:21.000Z</time>
      </trkpt>
      <trkpt lat="47.29933" lon="4.93314">
        <ele>566.1</ele>
        <time>2013-02-02T09:03:26.000Z</time>
      </trkpt>
      <trkpt lat="47.29935" lon="4.93312">
        <ele>565.3</ele>
        <time>2013-02-02T09:03:27.000Z</time>
      </trkpt>
      <trkpt lat="47.29937" lon="4.93308">
        <ele>564</ele>
        <time>2013-02-02T09:03:30.000Z</time>
      </trkpt>
      <trkpt lat="47.29937" lon="4.93306">
        <ele>563.2</ele>
        <time>2013-02-02T09:03:31.000Z</time>
      </trkpt>
      <trkpt lat="47.29939" lon="4.933">
        <ele>564.2</ele>
        <time>2013-02-02T09:03:34.000Z</time>
      </trkpt>
      <trkpt lat="47.2994" lon="4.93299">
        <ele>563.8</ele>
        <time>2013-02-02T09:03:35.000Z</time>
      </trkpt>
      <trkpt lat="47.29941" lon="4.93295">
        <ele>562.7</ele>
        <time>2013-02-02T09:03:38.000Z</time>
      </trkpt>
      <trkpt lat="47.29941" lon="4.93292">
        <ele>562</ele>
        <time>2013-02-02T09:03:39.000Z</time>
      </trkpt>
      <trkpt lat="47.29944" lon="4.93288">
        <ele>562.9</ele>
        <time>2013-02-02T09:03:42.000Z</time>
      </trkpt>
      <trkpt lat="47.29945" lon="4.93285">
        <ele>562.2</ele>
        <time>2013-02-02T09:03:43.000Z</time>
      </trkpt>
      <trkpt lat="47.29949" lon="4.93281">
        <ele>562.1</ele>
        <time>2013-02-02T09:03:47.000Z</time>
      </trkpt>
      <trkpt lat="47.29949" lon="4.9328">
        <ele>561.9</ele>
        <time>2013-02-02T09:03:48.000Z</time>
      </trkpt>
      <trkpt lat="47.29952" lon="4.93276">
        <ele>561</ele>
        <time>2013-02-02T09:03:51.000Z</time>
      </trkpt>
      <trkpt lat="47.29954" lon="4.93275">
        <ele>560.6</ele>
        <time>2013-02-02T09:03:52.000Z</time>
      </trkpt>
      <trkpt lat="47.29957" lon="4.93272">
        <ele>559.5</ele>
        <time>2013-02-02T09:03:54.000Z</time>
      </trkpt>
      <trkpt lat="47.29959" lon="4.9327">
        <ele>560</ele>
        <time>2013-02-02T09:03:55.000Z</time>
      </trkpt>
      <trkpt lat="47.29963" lon="4.93268">
        <ele>560</ele>
        <time>2013-02-02T09:03:57.000Z</time>
      </trkpt>
      <trkpt lat="47.29964" lon="4.93267">
        <ele>559.6</ele>
        <time>2013-02-02T09:03:58.000Z</time>
      </trkpt>
      <trkpt lat="47.29967" lon="4.93263">
        <ele>559.1</ele>
        <time>2013-02-02T09:04:01.000Z</time>
      </trkpt>
      <trkpt lat="47.29968" lon="4.9326">
        <ele>558.7</ele>
        <time>2013-02-02T09:04:02.000Z</time>
      </trkpt>
      <trkpt lat="47.2997" lon="4.93255">
        <ele>558.1</ele>
        <time>2013-02-02T09:04:05.000Z</time>
      </trkpt>
      <trkpt lat="47.29971" lon="4.93254">
        <ele>558.2</ele>
        <time>2013-02-02T09:04:06.000Z</time>
      </trkpt>
      <trkpt lat="47.29974" lon="4.93254">
        <ele>557.8</ele>
        <time>2013-02-02T09:04:09.000Z</time>
      </trkpt>
      <trkpt lat="47.29975" lon="4.93255">
        <ele>557</ele>
        <time>2013-02-02T09:04:10.000Z</time>
      </trkpt>
      <trkpt lat="47.29978" lon="4.93258">
        <ele>554.9</ele>
        <time>2013-02-02T09:04:13.000Z</time>
      </trkpt>
      <trkpt lat="47.29982" lon="4.93258">
        <ele>554.6</ele>
        <time>2013-02-02T09:04:14.000Z</time>
      </trkpt>
      <trkpt lat="47.29982" lon="4.93258">
        <ele>554.6</ele>
        <time>2013-02-02T09:04:15.000Z</time>
      </trkpt>
      <trkpt lat="47.29989" lon="4.93255">
        <ele>553.2</ele>
        <time>2013-02-02T09:04:22.000Z</time>
      </trkpt>
      <trkpt lat="47.29989" lon="4.93255">
        <ele>553.2</ele>
        <time>2013-02-02T09:04:37.000Z</time>
      </trkpt>
      <trkpt lat="47.29986" lon="4.93266">
        <ele>557.5</ele>
        <time>2013-02-02T09:04:38.000Z</time>
      </trkpt>
      <trkpt lat="47.29985" lon="4.93272">
        <ele>555.3</ele>
        <time>2013-02-02T09:05:05.000Z</time>
      </trkpt>
      <trkpt lat="47.29985" lon="4.93273">
        <ele>555.2</ele>
        <time>2013-02-02T09:05:06.000Z</time>
      </trkpt>
      <trkpt lat="47.29985" lon="4.93279">
        <ele>554.2</ele>
        <time>2013-02-02T09:05:10.000Z</time>
      </trkpt>
      <trkpt lat="47.29985" lon="4.93281">
        <ele>554</ele>
        <time>2013-02-02T09:05:11.000Z</time>
      </trkpt>
      <trkpt lat="47.29985" lon="4.93287">
        <ele>553.6</ele>
        <time>2013-02-02T09:05:14.000Z</time>
      </trkpt>
      <trkpt lat="47.29984" lon="4.93289">
        <ele>553.5</ele>
        <time>2013-02-02T09:05:15.000Z</time>
      </trkpt>
      <trkpt lat="47.2998" lon="4.93308">
        <ele>549.9</ele>
        <time>2013-02-02T09:05:22.000Z</time>
      </trkpt>
      <trkpt lat="47.29978" lon="4.93313">
        <ele>549.1</ele>
        <time>2013-02-02T09:05:24.000Z</time>
      </trkpt>
      <trkpt lat="47.29978" lon="4.93315">
        <ele>549.8</ele>
        <time>2013-02-02T09:05:25.000Z</time>
      </trkpt>
      <trkpt lat="47.29977" lon="4.9332">
        <ele>550.3</ele>
        <time>2013-02-02T09:05:28.000Z</time>
      </trkpt>
      <trkpt lat="47.29976" lon="4.93323">
        <ele>549.9</ele>
        <time>2013-02-02T09:05:29.000Z</time>
      </trkpt>
      <trkpt lat="47.29975" lon="4.93328">
        <ele>548.9</ele>
        <time>2013-02-02T09:05:32.000Z</time>
      </trkpt>
      <trkpt lat="47.29975" lon="4.9333">
        <ele>548.1</ele>
        <time>2013-02-02T09:05:33.000Z</time>
      </trkpt>
      <trkpt lat="47.29974" lon="4.93336">
        <ele>546.4</ele>
        <time>2013-02-02T09:05:36.000Z</time>
      </trkpt>
      <trkpt lat="47.29974" lon="4.93338">
        <ele>546.8</ele>
        <time>2013-02-02T09:05:37.000Z</time>
      </trkpt>
      <trkpt lat="47.29974" lon="4.93344">
        <ele>547.2</ele>
        <time>2013-02-02T09:05:40.000Z</time>
      </trkpt>
      <trkpt lat="47.29974" lon="4.93346">
        <ele>547.1</ele>
        <time>2013-02-02T09:05:41.000Z</time>
      </trkpt>
      <trkpt lat="47.29973" lon="4.9335">
        <ele>547.6</ele>
        <time>2013-02-02T09:05:43.000Z</time>
      </trkpt>
      <trkpt lat="47.29973" lon="4.93353">
        <ele>547.5</ele>
        <time>2013-02-02T09:05:44.000Z</time>
      </trkpt>
      <trkpt lat="47.29972" lon="4.93358">
        <ele>548.1</ele>
        <time>2013-02-02T09:05:47.000Z</time>
      </trkpt>
      <trkpt lat="47.29972" lon="4.9336">
        <ele>547.7</ele>
        <time>2013-02-02T09:05:48.000Z</time>
      </trkpt>
      <trkpt lat="47.29971" lon="4.93365">
        <ele>547.3</ele>
        <time>2013-02-02T09:05:51.000Z</time>
      </trkpt>
      <trkpt lat="47.2997" lon="4.93367">
        <ele>547.5</ele>
        <time>2013-02-02T09:05:52.000Z</time>
      </trkpt>
      <trkpt lat="47.29969" lon="4.93373">
        <ele>547.4</ele>
        <time>2013-02-02T09:05:56.000Z</time>
      </trkpt>
      <trkpt lat="47.29968" lon="4.93376">
        <ele>547.3</ele>
        <time>2013-02-02T09:05:57.000Z</time>
      </trkpt>
      <trkpt lat="47.29967" lon="4.9338">
        <ele>547.3</ele>
        <time>2013-02-02T09:05:59.000Z</time>
      </trkpt>
      <trkpt lat="47.29967" lon="4.93383">
        <ele>547.5</ele>
        <time>2013-02-02T09:06:00.000Z</time>
      </trkpt>
      <trkpt lat="47.29965" lon="4.93387">
        <ele>547.7</ele>
        <time>2013-02-02T09:06:02.000Z</time>
      </trkpt>
      <trkpt lat="47.29965" lon="4.93389">
        <ele>547.8</ele>
        <time>2013-02-02T09:06:03.000Z</time>
      </trkpt>
      <trkpt lat="47.29963" lon="4.93394">
        <ele>547.8</ele>
        <time>2013-02-02T09:06:05.000Z</time>
      </trkpt>
      <trkpt lat="47.29962" lon="4.93397">
        <ele>548</ele>
        <time>2013-02-02T09:06:06.000Z</time>
      </trkpt>
      <trkpt lat="47.2996" lon="4.93401">
        <ele>548.2</ele>
        <time>2013-02-02T09:06:08.000Z</time>
      </trkpt>
      <trkpt lat="47.2996" lon="4.93404">
        <ele>548.3</ele>
        <time>2013-02-02T09:06:09.000Z</time>
      </trkpt>
      <trkpt lat="47.29958" lon="4.9341">
        <ele>548.2</ele>
        <time>2013-02-02T09:06:11.000Z</time>
      </trkpt>
      <trkpt lat="47.29958" lon="4.93413">
        <ele>548.3</ele>
        <time>2013-02-02T09:06:12.000Z</time>
      </trkpt>
      <trkpt lat="47.29956" lon="4.93418">
        <ele>548.2</ele>
        <time>2013-02-02T09:06:14.000Z</time>
      </trkpt>
      <trkpt lat="47.29955" lon="4.9342">
        <ele>548.3</ele>
        <time>2013-02-02T09:06:15.000Z</time>
      </trkpt>
      <trkpt lat="47.2995" lon="4.93436">
        <ele>550.2</ele>
        <time>2013-02-02T09:06:22.000Z</time>
      </trkpt>
      <trkpt lat="47.29949" lon="4.93442">
        <ele>550.4</ele>
        <time>2013-02-02T09:06:25.000Z</time>
      </trkpt>
      <trkpt lat="47.29947" lon="4.93444">
        <ele>550.5</ele>
        <time>2013-02-02T09:06:26.000Z</time>
      </trkpt>
      <trkpt lat="47.29944" lon="4.93447">
        <ele>549.6</ele>
        <time>2013-02-02T09:06:28.000Z</time>
      </trkpt>
      <trkpt lat="47.29943" lon="4.9345">
        <ele>549.7</ele>
        <time>2013-02-02T09:06:29.000Z</time>
      </trkpt>
      <trkpt lat="47.29941" lon="4.93454">
        <ele>549.1</ele>
        <time>2013-02-02T09:06:31.000Z</time>
      </trkpt>
      <trkpt lat="47.29939" lon="4.93456">
        <ele>548.9</ele>
        <time>2013-02-02T09:06:32.000Z</time>
      </trkpt>
      <trkpt lat="47.29938" lon="4.93459">
        <ele>548.4</ele>
        <time>2013-02-02T09:06:34.000Z</time>
      </trkpt>
      <trkpt lat="47.29937" lon="4.93461">
        <ele>548.3</ele>
        <time>2013-02-02T09:06:35.000Z</time>
      </trkpt>
      <trkpt lat="47.29935" lon="4.93465">
        <ele>547.3</ele>
        <time>2013-02-02T09:06:37.000Z</time>
      </trkpt>
      <trkpt lat="47.29934" lon="4.93467">
        <ele>546.8</ele>
        <time>2013-02-02T09:06:38.000Z</time>
      </trkpt>
      <trkpt lat="47.29932" lon="4.93472">
        <ele>547.6</ele>
        <time>2013-02-02T09:06:40.000Z</time>
      </trkpt>
      <trkpt lat="47.2993" lon="4.93473">
        <ele>547.6</ele>
        <time>2013-02-02T09:06:41.000Z</time>
      </trkpt>
      <trkpt lat="47.29927" lon="4.93477">
        <ele>547.3</ele>
        <time>2013-02-02T09:06:44.000Z</time>
      </trkpt>
      <trkpt lat="47.29926" lon="4.93479">
        <ele>547.5</ele>
        <time>2013-02-02T09:06:45.000Z</time>
      </trkpt>
      <trkpt lat="47.29923" lon="4.93483">
        <ele>548.3</ele>
        <time>2013-02-02T09:06:48.000Z</time>
      </trkpt>
      <trkpt lat="47.29921" lon="4.93484">
        <ele>548.2</ele>
        <time>2013-02-02T09:06:49.000Z</time>
      </trkpt>
      <trkpt lat="47.29918" lon="4.93489">
        <ele>548.3</ele>
        <time>2013-02-02T09:06:52.000Z</time>
      </trkpt>
      <trkpt lat="47.29917" lon="4.9349">
        <ele>548.3</ele>
        <time>2013-02-02T09:06:53.000Z</time>
      </trkpt>
      <trkpt lat="47.29914" lon="4.93493">
        <ele>548.5</ele>
        <time>2013-02-02T09:06:55.000Z</time>
      </trkpt>
      <trkpt lat="47.29912" lon="4.93495">
        <ele>548.7</ele>
        <time>2013-02-02T09:06:56.000Z</time>
      </trkpt>
      <trkpt lat="47.2991" lon="4.93497">
        <ele>548.8</ele>
        <time>2013-02-02T09:06:58.000Z</time>
      </trkpt>
      <trkpt lat="47.29908" lon="4.93499">
        <ele>548.9</ele>
        <time>2013-02-02T09:06:59.000Z</time>
      </trkpt>
      <trkpt lat="47.29905" lon="4.93503">
        <ele>549.1</ele>
        <time>2013-02-02T09:07:02.000Z</time>
      </trkpt>
      <trkpt lat="47.29903" lon="4.93504">
        <ele>549.3</ele>
        <time>2013-02-02T09:07:03.000Z</time>
      </trkpt>
      <trkpt lat="47.29901" lon="4.93507">
        <ele>549.6</ele>
        <time>2013-02-02T09:07:05.000Z</time>
      </trkpt>
      <trkpt lat="47.29899" lon="4.93508">
        <ele>549.6</ele>
        <time>2013-02-02T09:07:06.000Z</time>
      </trkpt>
      <trkpt lat="47.29896" lon="4.9351">
        <ele>549.5</ele>
        <time>2013-02-02T09:07:08.000Z</time>
      </trkpt>
      <trkpt lat="47.29895" lon="4.93511">
        <ele>549.5</ele>
        <time>2013-02-02T09:07:09.000Z</time>
      </trkpt>
      <trkpt lat="47.29892" lon="4.93514">
        <ele>549.8</ele>
        <time>2013-02-02T09:07:12.000Z</time>
      </trkpt>
      <trkpt lat="47.29891" lon="4.93515">
        <ele>549.8</ele>
        <time>2013-02-02T09:07:13.000Z</time>
      </trkpt>
      <trkpt lat="47.29889" lon="4.93517">
        <ele>549.9</ele>
        <time>2013-02-02T09:07:15.000Z</time>
      </trkpt>
      <trkpt lat="47.29879" lon="4.93527">
        <ele>552.5</ele>
        <time>2013-02-02T09:07:22.000Z</time>
      </trkpt>
      <trkpt lat="47.29876" lon="4.93531">
        <ele>552.7</ele>
        <time>2013-02-02T09:07:25.000Z</time>
      </trkpt>
      <trkpt lat="47.29875" lon="4.93533">
        <ele>554</ele>
        <time>2013-02-02T09:07:26.000Z</time>
      </trkpt>
      <trkpt lat="47.29872" lon="4.93538">
        <ele>554.1</ele>
        <time>2013-02-02T09:07:30.000Z</time>
      </trkpt>
      <trkpt lat="47.29871" lon="4.93539">
        <ele>554.6</ele>
        <time>2013-02-02T09:07:31.000Z</time>
      </trkpt>
      <trkpt lat="47.29868" lon="4.93542">
        <ele>553.8</ele>
        <time>2013-02-02T09:07:34.000Z</time>
      </trkpt>
      <trkpt lat="47.29867" lon="4.93544">
        <ele>554.4</ele>
        <time>2013-02-02T09:07:35.000Z</time>
      </trkpt>
      <trkpt lat="47.29864" lon="4.93548">
        <ele>554.7</ele>
        <time>2013-02-02T09:07:37.000Z</time>
      </trkpt>
      <trkpt lat="47.29863" lon="4.9355">
        <ele>554.7</ele>
        <time>2013-02-02T09:07:38.000Z</time>
      </trkpt>
      <trkpt lat="47.2986" lon="4.93553">
        <ele>555</ele>
        <time>2013-02-02T09:07:41.000Z</time>
      </trkpt>
      <trkpt lat="47.29859" lon="4.93555">
        <ele>555.2</ele>
        <time>2013-02-02T09:07:42.000Z</time>
      </trkpt>
      <trkpt lat="47.29855" lon="4.93558">
        <ele>555.1</ele>
        <time>2013-02-02T09:07:46.000Z</time>
      </trkpt>
      <trkpt lat="47.29855" lon="4.93558">
        <ele>554.3</ele>
        <time>2013-02-02T09:07:47.000Z</time>
      </trkpt>
      <trkpt lat="47.29851" lon="4.93562">
        <ele>554.4</ele>
        <time>2013-02-02T09:07:49.000Z</time>
      </trkpt>
      <trkpt lat="47.2985" lon="4.93563">
        <ele>554.5</ele>
        <time>2013-02-02T09:07:50.000Z</time>
      </trkpt>
      <trkpt lat="47.29847" lon="4.93566">
        <ele>554.7</ele>
        <time>2013-02-02T09:07:52.000Z</time>
      </trkpt>
      <trkpt lat="47.29846" lon="4.93567">
        <ele>554.7</ele>
        <time>2013-02-02T09:07:53.000Z</time>
      </trkpt>
      <trkpt lat="47.29843" lon="4.93571">
        <ele>554</ele>
        <time>2013-02-02T09:08:00.000Z</time>
      </trkpt>
      <trkpt lat="47.29842" lon="4.93573">
        <ele>554</ele>
        <time>2013-02-02T09:08:01.000Z</time>
      </trkpt>
      <trkpt lat="47.29839" lon="4.93577">
        <ele>554</ele>
        <time>2013-02-02T09:08:03.000Z</time>
      </trkpt>
      <trkpt lat="47.29837" lon="4.93579">
        <ele>553.8</ele>
        <time>2013-02-02T09:08:04.000Z</time>
      </trkpt>
      <trkpt lat="47.29834" lon="4.93582">
        <ele>553.7</ele>
        <time>2013-02-02T09:08:06.000Z</time>
      </trkpt>
      <trkpt lat="47.29833" lon="4.93584">
        <ele>553.6</ele>
        <time>2013-02-02T09:08:07.000Z</time>
      </trkpt>
      <trkpt lat="47.2983" lon="4.93587">
        <ele>553.2</ele>
        <time>2013-02-02T09:08:09.000Z</time>
      </trkpt>
      <trkpt lat="47.29828" lon="4.93588">
        <ele>553.2</ele>
        <time>2013-02-02T09:08:10.000Z</time>
      </trkpt>
      <trkpt lat="47.29826" lon="4.9359">
        <ele>553</ele>
        <time>2013-02-02T09:08:12.000Z</time>
      </trkpt>
      <trkpt lat="47.29825" lon="4.93592">
        <ele>553.2</ele>
        <time>2013-02-02T09:08:13.000Z</time>
      </trkpt>
      <trkpt lat="47.29822" lon="4.93595">
        <ele>553.4</ele>
        <time>2013-02-02T09:08:15.000Z</time>
      </trkpt>
      <trkpt lat="47.29809" lon="4.93608">
        <ele>551.5</ele>
        <time>2013-02-02T09:08:22.000Z</time>
      </trkpt>
      <trkpt lat="47.29806" lon="4.93611">
        <ele>554.2</ele>
        <time>2013-02-02T09:08:39.000Z</time>
      </trkpt>
      <trkpt lat="47.29802" lon="4.93612">
        <ele>553.5</ele>
        <time>2013-02-02T09:08:40.000Z</time>
      </trkpt>
      <trkpt lat="47.29803" lon="4.93618">
        <ele>555.9</ele>
        <time>2013-02-02T09:08:48.000Z</time>
      </trkpt>
      <trkpt lat="47.29803" lon="4.93618">
        <ele>555.7</ele>
        <time>2013-02-02T09:08:49.000Z</time>
      </trkpt>
      <trkpt lat="47.298" lon="4.93623">
        <ele>553.8</ele>
        <time>2013-02-02T09:09:00.000Z</time>
      </trkpt>
      <trkpt lat="47.298" lon="4.93623">
        <ele>553.7</ele>
        <time>2013-02-02T09:09:01.000Z</time>
      </trkpt>
      <trkpt lat="47.29801" lon="4.93622">
        <ele>547</ele>
        <time>2013-02-02T09:10:15.000Z</time>
      </trkpt>
      <trkpt lat="47.29795" lon="4.93632">
        <ele>542.7</ele>
        <time>2013-02-02T09:10:22.000Z</time>
      </trkpt>
      <trkpt lat="47.29792" lon="4.9363">
        <ele>546.6</ele>
        <time>2013-02-02T09:11:23.000Z</time>
      </trkpt>
      <trkpt lat="47.29794" lon="4.93624">
        <ele>548.7</ele>
        <time>2013-02-02T09:11:24.000Z</time>
      </trkpt>
      <trkpt lat="47.29794" lon="4.93622">
        <ele>545.8</ele>
        <time>2013-02-02T09:11:31.000Z</time>
      </trkpt>
    </trkseg>
  </trk>
</gpx>